<?xml version="1.0" encoding="UTF-8" standalone="no" ?>
<gpx xmlns="http://www.topografix.com/GPX/1/1" xmlns:xsi="http://www.w3.org/2001/XMLSchema-instance" xsi:schemaLocation="http://www.topografix.com/GPX/1/1 http://www.topografix.com/GPX/1/1/gpx.xsd" version="1.1" creator="VisuGPX - https://www.visugpx.com">
  <metadata>
    <name>Point de vue de Bélaye Rondje vanuit Saint-Matré</name>
  </metadata>
  <trk>
    <name><![CDATA[Point de vue de Bélaye Rondje vanuit Saint-Matré]]></name>
    <trkseg>
      <trkpt lat="44.40542" lon="1.11216">
        <ele>302.357222</ele>
        <time>2022-01-11T12:36:35.497Z</time>
      </trkpt>
      <trkpt lat="44.40546" lon="1.11198">
        <ele>302.357222</ele>
        <time>2022-01-11T12:37:16.119Z</time>
      </trkpt>
      <trkpt lat="44.40553" lon="1.11183">
        <ele>302.357222</ele>
        <time>2022-01-11T12:37:19.107Z</time>
      </trkpt>
      <trkpt lat="44.4056" lon="1.11169">
        <ele>302.357222</ele>
        <time>2022-01-11T12:37:21.116Z</time>
      </trkpt>
      <trkpt lat="44.40567" lon="1.11157">
        <ele>302.357222</ele>
        <time>2022-01-11T12:37:23.129Z</time>
      </trkpt>
      <trkpt lat="44.40572" lon="1.11144">
        <ele>302.357222</ele>
        <time>2022-01-11T12:37:25.123Z</time>
      </trkpt>
      <trkpt lat="44.40579" lon="1.11131">
        <ele>302.357222</ele>
        <time>2022-01-11T12:37:27.098Z</time>
      </trkpt>
      <trkpt lat="44.40585" lon="1.11117">
        <ele>302.357222</ele>
        <time>2022-01-11T12:37:29.111Z</time>
      </trkpt>
      <trkpt lat="44.40591" lon="1.11104">
        <ele>302.224157</ele>
        <time>2022-01-11T12:37:31.115Z</time>
      </trkpt>
      <trkpt lat="44.40599" lon="1.11091">
        <ele>301.875249</ele>
        <time>2022-01-11T12:37:33.118Z</time>
      </trkpt>
      <trkpt lat="44.40606" lon="1.11076">
        <ele>301.503438</ele>
        <time>2022-01-11T12:37:35.111Z</time>
      </trkpt>
      <trkpt lat="44.40613" lon="1.1106">
        <ele>301.135738</ele>
        <time>2022-01-11T12:37:37.105Z</time>
      </trkpt>
      <trkpt lat="44.40621" lon="1.11045">
        <ele>300.759023</ele>
        <time>2022-01-11T12:37:39.116Z</time>
      </trkpt>
      <trkpt lat="44.40633" lon="1.1103">
        <ele>300.292804</ele>
        <time>2022-01-11T12:37:41.126Z</time>
      </trkpt>
      <trkpt lat="44.40644" lon="1.11014">
        <ele>299.83899</ele>
        <time>2022-01-11T12:37:43.118Z</time>
      </trkpt>
      <trkpt lat="44.40656" lon="1.10999">
        <ele>299.380309</ele>
        <time>2022-01-11T12:37:45.117Z</time>
      </trkpt>
      <trkpt lat="44.4067" lon="1.10985">
        <ele>298.889173</ele>
        <time>2022-01-11T12:37:47.118Z</time>
      </trkpt>
      <trkpt lat="44.40683" lon="1.10973">
        <ele>298.431762</ele>
        <time>2022-01-11T12:37:49.115Z</time>
      </trkpt>
      <trkpt lat="44.40697" lon="1.10958">
        <ele>297.93593</ele>
        <time>2022-01-11T12:37:51.103Z</time>
      </trkpt>
      <trkpt lat="44.40704" lon="1.1095">
        <ele>297.674063</ele>
        <time>2022-01-11T12:37:52.099Z</time>
      </trkpt>
      <trkpt lat="44.40718" lon="1.10935">
        <ele>297.184236</ele>
        <time>2022-01-11T12:37:54.111Z</time>
      </trkpt>
      <trkpt lat="44.40732" lon="1.1092">
        <ele>296.727323</ele>
        <time>2022-01-11T12:37:56.133Z</time>
      </trkpt>
      <trkpt lat="44.40739" lon="1.10912">
        <ele>296.492925</ele>
        <time>2022-01-11T12:37:57.117Z</time>
      </trkpt>
      <trkpt lat="44.40747" lon="1.10904">
        <ele>296.253106</ele>
        <time>2022-01-11T12:37:58.109Z</time>
      </trkpt>
      <trkpt lat="44.4076" lon="1.10888">
        <ele>295.794367</ele>
        <time>2022-01-11T12:38:00.112Z</time>
      </trkpt>
      <trkpt lat="44.40768" lon="1.10879">
        <ele>295.551405</ele>
        <time>2022-01-11T12:38:01.124Z</time>
      </trkpt>
      <trkpt lat="44.40775" lon="1.10871">
        <ele>295.312767</ele>
        <time>2022-01-11T12:38:02.131Z</time>
      </trkpt>
      <trkpt lat="44.40781" lon="1.10862">
        <ele>295.080396</ele>
        <time>2022-01-11T12:38:03.121Z</time>
      </trkpt>
      <trkpt lat="44.40788" lon="1.10853">
        <ele>294.841229</ele>
        <time>2022-01-11T12:38:04.115Z</time>
      </trkpt>
      <trkpt lat="44.40795" lon="1.10845">
        <ele>294.600825</ele>
        <time>2022-01-11T12:38:05.111Z</time>
      </trkpt>
      <trkpt lat="44.40802" lon="1.10835">
        <ele>294.35724</ele>
        <time>2022-01-11T12:38:06.114Z</time>
      </trkpt>
      <trkpt lat="44.40808" lon="1.10826">
        <ele>294.121317</ele>
        <time>2022-01-11T12:38:07.112Z</time>
      </trkpt>
      <trkpt lat="44.40816" lon="1.10815">
        <ele>293.840329</ele>
        <time>2022-01-11T12:38:08.139Z</time>
      </trkpt>
      <trkpt lat="44.40822" lon="1.10805">
        <ele>293.594212</ele>
        <time>2022-01-11T12:38:09.113Z</time>
      </trkpt>
      <trkpt lat="44.40828" lon="1.10794">
        <ele>293.344867</ele>
        <time>2022-01-11T12:38:10.132Z</time>
      </trkpt>
      <trkpt lat="44.40835" lon="1.10783">
        <ele>293.086382</ele>
        <time>2022-01-11T12:38:11.103Z</time>
      </trkpt>
      <trkpt lat="44.40842" lon="1.10772">
        <ele>292.822041</ele>
        <time>2022-01-11T12:38:12.111Z</time>
      </trkpt>
      <trkpt lat="44.40848" lon="1.10762">
        <ele>292.612994</ele>
        <time>2022-01-11T12:38:13.112Z</time>
      </trkpt>
      <trkpt lat="44.40854" lon="1.10752">
        <ele>292.60254</ele>
        <time>2022-01-11T12:38:14.128Z</time>
      </trkpt>
      <trkpt lat="44.40859" lon="1.10741">
        <ele>292.592173</ele>
        <time>2022-01-11T12:38:15.120Z</time>
      </trkpt>
      <trkpt lat="44.40865" lon="1.10731">
        <ele>292.581972</ele>
        <time>2022-01-11T12:38:16.103Z</time>
      </trkpt>
      <trkpt lat="44.40871" lon="1.10722">
        <ele>292.571688</ele>
        <time>2022-01-11T12:38:17.119Z</time>
      </trkpt>
      <trkpt lat="44.40876" lon="1.10711">
        <ele>292.561514</ele>
        <time>2022-01-11T12:38:18.114Z</time>
      </trkpt>
      <trkpt lat="44.40882" lon="1.10701">
        <ele>292.55134</ele>
        <time>2022-01-11T12:38:19.116Z</time>
      </trkpt>
      <trkpt lat="44.40887" lon="1.10691">
        <ele>292.541349</ele>
        <time>2022-01-11T12:38:20.095Z</time>
      </trkpt>
      <trkpt lat="44.40893" lon="1.10681">
        <ele>292.53133</ele>
        <time>2022-01-11T12:38:21.112Z</time>
      </trkpt>
      <trkpt lat="44.40899" lon="1.10672">
        <ele>292.521223</ele>
        <time>2022-01-11T12:38:22.114Z</time>
      </trkpt>
      <trkpt lat="44.40912" lon="1.10655">
        <ele>292.501681</ele>
        <time>2022-01-11T12:38:24.113Z</time>
      </trkpt>
      <trkpt lat="44.4092" lon="1.10647">
        <ele>292.491427</ele>
        <time>2022-01-11T12:38:25.110Z</time>
      </trkpt>
      <trkpt lat="44.40934" lon="1.10635">
        <ele>292.472364</ele>
        <time>2022-01-11T12:38:27.107Z</time>
      </trkpt>
      <trkpt lat="44.40949" lon="1.10622">
        <ele>292.453393</ele>
        <time>2022-01-11T12:38:29.114Z</time>
      </trkpt>
      <trkpt lat="44.40962" lon="1.10611">
        <ele>292.436132</ele>
        <time>2022-01-11T12:38:31.104Z</time>
      </trkpt>
      <trkpt lat="44.40977" lon="1.10602">
        <ele>292.418233</ele>
        <time>2022-01-11T12:38:33.113Z</time>
      </trkpt>
      <trkpt lat="44.40992" lon="1.10595">
        <ele>292.298321</ele>
        <time>2022-01-11T12:38:35.110Z</time>
      </trkpt>
      <trkpt lat="44.41008" lon="1.10589">
        <ele>292.156</ele>
        <time>2022-01-11T12:38:37.111Z</time>
      </trkpt>
      <trkpt lat="44.41017" lon="1.10585">
        <ele>292.073727</ele>
        <time>2022-01-11T12:38:38.138Z</time>
      </trkpt>
      <trkpt lat="44.41034" lon="1.10579">
        <ele>291.916212</ele>
        <time>2022-01-11T12:38:40.114Z</time>
      </trkpt>
      <trkpt lat="44.41043" lon="1.10576">
        <ele>291.835939</ele>
        <time>2022-01-11T12:38:41.105Z</time>
      </trkpt>
      <trkpt lat="44.41052" lon="1.10573">
        <ele>291.756591</ele>
        <time>2022-01-11T12:38:42.105Z</time>
      </trkpt>
      <trkpt lat="44.41069" lon="1.10569">
        <ele>291.603817</ele>
        <time>2022-01-11T12:38:44.139Z</time>
      </trkpt>
      <trkpt lat="44.41086" lon="1.10566">
        <ele>291.450439</ele>
        <time>2022-01-11T12:38:46.105Z</time>
      </trkpt>
      <trkpt lat="44.41103" lon="1.10563">
        <ele>291.299531</ele>
        <time>2022-01-11T12:38:48.117Z</time>
      </trkpt>
      <trkpt lat="44.4112" lon="1.10559">
        <ele>291.148751</ele>
        <time>2022-01-11T12:38:50.132Z</time>
      </trkpt>
      <trkpt lat="44.41137" lon="1.10556">
        <ele>290.999328</ele>
        <time>2022-01-11T12:38:52.100Z</time>
      </trkpt>
      <trkpt lat="44.41155" lon="1.10551">
        <ele>290.842056</ele>
        <time>2022-01-11T12:38:54.117Z</time>
      </trkpt>
      <trkpt lat="44.41171" lon="1.10542">
        <ele>290.461233</ele>
        <time>2022-01-11T12:38:56.140Z</time>
      </trkpt>
      <trkpt lat="44.41179" lon="1.10536">
        <ele>290.262457</ele>
        <time>2022-01-11T12:38:57.114Z</time>
      </trkpt>
      <trkpt lat="44.41187" lon="1.10529">
        <ele>290.061362</ele>
        <time>2022-01-11T12:38:58.110Z</time>
      </trkpt>
      <trkpt lat="44.41195" lon="1.10522">
        <ele>289.835585</ele>
        <time>2022-01-11T12:38:59.110Z</time>
      </trkpt>
      <trkpt lat="44.41204" lon="1.10515">
        <ele>289.622091</ele>
        <time>2022-01-11T12:39:00.109Z</time>
      </trkpt>
      <trkpt lat="44.41212" lon="1.10507">
        <ele>289.400165</ele>
        <time>2022-01-11T12:39:01.114Z</time>
      </trkpt>
      <trkpt lat="44.4122" lon="1.105">
        <ele>289.183954</ele>
        <time>2022-01-11T12:39:02.142Z</time>
      </trkpt>
      <trkpt lat="44.41235" lon="1.10485">
        <ele>288.780976</ele>
        <time>2022-01-11T12:39:04.112Z</time>
      </trkpt>
      <trkpt lat="44.41242" lon="1.10476">
        <ele>288.571052</ele>
        <time>2022-01-11T12:39:05.122Z</time>
      </trkpt>
      <trkpt lat="44.41254" lon="1.10458">
        <ele>288.175086</ele>
        <time>2022-01-11T12:39:07.117Z</time>
      </trkpt>
      <trkpt lat="44.41264" lon="1.10438">
        <ele>287.791774</ele>
        <time>2022-01-11T12:39:09.112Z</time>
      </trkpt>
      <trkpt lat="44.41274" lon="1.10418">
        <ele>287.40594</ele>
        <time>2022-01-11T12:39:11.112Z</time>
      </trkpt>
      <trkpt lat="44.41283" lon="1.104">
        <ele>287.052049</ele>
        <time>2022-01-11T12:39:13.105Z</time>
      </trkpt>
      <trkpt lat="44.41292" lon="1.10382">
        <ele>286.980381</ele>
        <time>2022-01-11T12:39:15.125Z</time>
      </trkpt>
      <trkpt lat="44.413" lon="1.10364">
        <ele>287.336988</ele>
        <time>2022-01-11T12:39:17.123Z</time>
      </trkpt>
      <trkpt lat="44.41308" lon="1.10348">
        <ele>287.653527</ele>
        <time>2022-01-11T12:39:19.109Z</time>
      </trkpt>
      <trkpt lat="44.41315" lon="1.10334">
        <ele>287.932959</ele>
        <time>2022-01-11T12:39:21.112Z</time>
      </trkpt>
      <trkpt lat="44.41322" lon="1.1032">
        <ele>288.21209</ele>
        <time>2022-01-11T12:39:23.110Z</time>
      </trkpt>
      <trkpt lat="44.41329" lon="1.10306">
        <ele>288.487309</ele>
        <time>2022-01-11T12:39:25.121Z</time>
      </trkpt>
      <trkpt lat="44.41335" lon="1.10292">
        <ele>288.753664</ele>
        <time>2022-01-11T12:39:27.111Z</time>
      </trkpt>
      <trkpt lat="44.41341" lon="1.10279">
        <ele>289.012796</ele>
        <time>2022-01-11T12:39:29.099Z</time>
      </trkpt>
      <trkpt lat="44.41349" lon="1.10268">
        <ele>289.271748</ele>
        <time>2022-01-11T12:39:31.113Z</time>
      </trkpt>
      <trkpt lat="44.41355" lon="1.10256">
        <ele>289.505468</ele>
        <time>2022-01-11T12:39:33.109Z</time>
      </trkpt>
      <trkpt lat="44.4136" lon="1.10244">
        <ele>289.741869</ele>
        <time>2022-01-11T12:39:35.113Z</time>
      </trkpt>
      <trkpt lat="44.41367" lon="1.10233">
        <ele>289.97834</ele>
        <time>2022-01-11T12:39:37.131Z</time>
      </trkpt>
      <trkpt lat="44.41374" lon="1.10216">
        <ele>290.290728</ele>
        <time>2022-01-11T12:39:40.111Z</time>
      </trkpt>
      <trkpt lat="44.41378" lon="1.10206">
        <ele>290.498103</ele>
        <time>2022-01-11T12:39:42.112Z</time>
      </trkpt>
      <trkpt lat="44.41386" lon="1.1019">
        <ele>290.810671</ele>
        <time>2022-01-11T12:39:45.103Z</time>
      </trkpt>
      <trkpt lat="44.41391" lon="1.10179">
        <ele>291.089219</ele>
        <time>2022-01-11T12:39:47.107Z</time>
      </trkpt>
      <trkpt lat="44.41397" lon="1.10168">
        <ele>291.647416</ele>
        <time>2022-01-11T12:39:49.111Z</time>
      </trkpt>
      <trkpt lat="44.41405" lon="1.10151">
        <ele>292.388321</ele>
        <time>2022-01-11T12:39:52.101Z</time>
      </trkpt>
      <trkpt lat="44.4141" lon="1.10141">
        <ele>292.879419</ele>
        <time>2022-01-11T12:39:54.114Z</time>
      </trkpt>
      <trkpt lat="44.4142" lon="1.10128">
        <ele>293.609704</ele>
        <time>2022-01-11T12:39:57.115Z</time>
      </trkpt>
      <trkpt lat="44.41429" lon="1.10115">
        <ele>294.309111</ele>
        <time>2022-01-11T12:40:00.113Z</time>
      </trkpt>
      <trkpt lat="44.41437" lon="1.10108">
        <ele>294.823842</ele>
        <time>2022-01-11T12:40:02.128Z</time>
      </trkpt>
      <trkpt lat="44.41447" lon="1.10097">
        <ele>295.518721</ele>
        <time>2022-01-11T12:40:05.116Z</time>
      </trkpt>
      <trkpt lat="44.41458" lon="1.10089">
        <ele>296.175039</ele>
        <time>2022-01-11T12:40:08.132Z</time>
      </trkpt>
      <trkpt lat="44.41467" lon="1.10077">
        <ele>296.848078</ele>
        <time>2022-01-11T12:40:11.123Z</time>
      </trkpt>
      <trkpt lat="44.41474" lon="1.10068">
        <ele>297.365369</ele>
        <time>2022-01-11T12:40:13.117Z</time>
      </trkpt>
      <trkpt lat="44.41482" lon="1.10059">
        <ele>297.927234</ele>
        <time>2022-01-11T12:40:15.124Z</time>
      </trkpt>
      <trkpt lat="44.4149" lon="1.1005">
        <ele>298.473558</ele>
        <time>2022-01-11T12:40:17.122Z</time>
      </trkpt>
      <trkpt lat="44.41499" lon="1.10038">
        <ele>299.146622</ele>
        <time>2022-01-11T12:40:20.126Z</time>
      </trkpt>
      <trkpt lat="44.41504" lon="1.10028">
        <ele>299.656595</ele>
        <time>2022-01-11T12:40:22.108Z</time>
      </trkpt>
      <trkpt lat="44.41512" lon="1.10012">
        <ele>300.365076</ele>
        <time>2022-01-11T12:40:25.103Z</time>
      </trkpt>
      <trkpt lat="44.41519" lon="1.09997">
        <ele>300.702066</ele>
        <time>2022-01-11T12:40:28.124Z</time>
      </trkpt>
      <trkpt lat="44.41525" lon="1.09987">
        <ele>300.684101</ele>
        <time>2022-01-11T12:40:30.122Z</time>
      </trkpt>
      <trkpt lat="44.41532" lon="1.09972">
        <ele>300.659428</ele>
        <time>2022-01-11T12:40:33.116Z</time>
      </trkpt>
      <trkpt lat="44.41538" lon="1.09961">
        <ele>300.640602</ele>
        <time>2022-01-11T12:40:35.117Z</time>
      </trkpt>
      <trkpt lat="44.41545" lon="1.09947">
        <ele>300.618253</ele>
        <time>2022-01-11T12:40:37.117Z</time>
      </trkpt>
      <trkpt lat="44.41554" lon="1.09933">
        <ele>300.593291</ele>
        <time>2022-01-11T12:40:39.117Z</time>
      </trkpt>
      <trkpt lat="44.41562" lon="1.09918">
        <ele>300.567386</ele>
        <time>2022-01-11T12:40:41.116Z</time>
      </trkpt>
      <trkpt lat="44.41571" lon="1.09905">
        <ele>300.542639</ele>
        <time>2022-01-11T12:40:43.113Z</time>
      </trkpt>
      <trkpt lat="44.41582" lon="1.09896">
        <ele>300.51899</ele>
        <time>2022-01-11T12:40:45.111Z</time>
      </trkpt>
      <trkpt lat="44.41594" lon="1.09888">
        <ele>300.493232</ele>
        <time>2022-01-11T12:40:47.119Z</time>
      </trkpt>
      <trkpt lat="44.41607" lon="1.09883">
        <ele>300.467754</ele>
        <time>2022-01-11T12:40:49.113Z</time>
      </trkpt>
      <trkpt lat="44.41619" lon="1.09881">
        <ele>300.444682</ele>
        <time>2022-01-11T12:40:51.107Z</time>
      </trkpt>
      <trkpt lat="44.41631" lon="1.09882">
        <ele>300.420802</ele>
        <time>2022-01-11T12:40:53.110Z</time>
      </trkpt>
      <trkpt lat="44.41644" lon="1.09884">
        <ele>300.397123</ele>
        <time>2022-01-11T12:40:55.122Z</time>
      </trkpt>
      <trkpt lat="44.41654" lon="1.09887">
        <ele>300.37762</ele>
        <time>2022-01-11T12:40:57.117Z</time>
      </trkpt>
      <trkpt lat="44.41663" lon="1.09892">
        <ele>300.673599</ele>
        <time>2022-01-11T12:40:59.123Z</time>
      </trkpt>
      <trkpt lat="44.41675" lon="1.09898">
        <ele>301.190459</ele>
        <time>2022-01-11T12:41:02.131Z</time>
      </trkpt>
      <trkpt lat="44.41688" lon="1.09903">
        <ele>301.698405</ele>
        <time>2022-01-11T12:41:05.115Z</time>
      </trkpt>
      <trkpt lat="44.41699" lon="1.09907">
        <ele>302.17419</ele>
        <time>2022-01-11T12:41:08.139Z</time>
      </trkpt>
      <trkpt lat="44.4171" lon="1.09915">
        <ele>302.659871</ele>
        <time>2022-01-11T12:41:11.135Z</time>
      </trkpt>
      <trkpt lat="44.41721" lon="1.0992">
        <ele>303.121178</ele>
        <time>2022-01-11T12:41:14.107Z</time>
      </trkpt>
      <trkpt lat="44.41732" lon="1.09924">
        <ele>303.579929</ele>
        <time>2022-01-11T12:41:17.114Z</time>
      </trkpt>
      <trkpt lat="44.41744" lon="1.09928">
        <ele>304.05008</ele>
        <time>2022-01-11T12:41:20.112Z</time>
      </trkpt>
      <trkpt lat="44.41755" lon="1.09931">
        <ele>304.514846</ele>
        <time>2022-01-11T12:41:23.118Z</time>
      </trkpt>
      <trkpt lat="44.41767" lon="1.09933">
        <ele>304.984978</ele>
        <time>2022-01-11T12:41:26.124Z</time>
      </trkpt>
      <trkpt lat="44.41779" lon="1.09936">
        <ele>305.463515</ele>
        <time>2022-01-11T12:41:29.116Z</time>
      </trkpt>
      <trkpt lat="44.4179" lon="1.09937">
        <ele>305.935348</ele>
        <time>2022-01-11T12:41:32.113Z</time>
      </trkpt>
      <trkpt lat="44.41802" lon="1.09939">
        <ele>306.418206</ele>
        <time>2022-01-11T12:41:35.114Z</time>
      </trkpt>
      <trkpt lat="44.41815" lon="1.09942">
        <ele>306.914941</ele>
        <time>2022-01-11T12:41:38.114Z</time>
      </trkpt>
      <trkpt lat="44.41827" lon="1.09943">
        <ele>307.398911</ele>
        <time>2022-01-11T12:41:41.107Z</time>
      </trkpt>
      <trkpt lat="44.41839" lon="1.09945">
        <ele>307.785637</ele>
        <time>2022-01-11T12:41:44.110Z</time>
      </trkpt>
      <trkpt lat="44.41852" lon="1.09946">
        <ele>308.109414</ele>
        <time>2022-01-11T12:41:47.109Z</time>
      </trkpt>
      <trkpt lat="44.41865" lon="1.09948">
        <ele>308.463195</ele>
        <time>2022-01-11T12:41:50.126Z</time>
      </trkpt>
      <trkpt lat="44.41874" lon="1.09951">
        <ele>308.706764</ele>
        <time>2022-01-11T12:41:52.095Z</time>
      </trkpt>
      <trkpt lat="44.41884" lon="1.09954">
        <ele>308.986328</ele>
        <time>2022-01-11T12:41:54.141Z</time>
      </trkpt>
      <trkpt lat="44.41894" lon="1.09955">
        <ele>309.234519</ele>
        <time>2022-01-11T12:41:56.122Z</time>
      </trkpt>
      <trkpt lat="44.41906" lon="1.09959">
        <ele>309.583755</ele>
        <time>2022-01-11T12:41:59.122Z</time>
      </trkpt>
      <trkpt lat="44.4192" lon="1.09962">
        <ele>309.938259</ele>
        <time>2022-01-11T12:42:02.115Z</time>
      </trkpt>
      <trkpt lat="44.41929" lon="1.09965">
        <ele>310.20153</ele>
        <time>2022-01-11T12:42:04.120Z</time>
      </trkpt>
      <trkpt lat="44.41939" lon="1.09967">
        <ele>310.446575</ele>
        <time>2022-01-11T12:42:06.123Z</time>
      </trkpt>
      <trkpt lat="44.41948" lon="1.0997">
        <ele>310.692732</ele>
        <time>2022-01-11T12:42:08.111Z</time>
      </trkpt>
      <trkpt lat="44.41957" lon="1.09974">
        <ele>310.939515</ele>
        <time>2022-01-11T12:42:10.117Z</time>
      </trkpt>
      <trkpt lat="44.41965" lon="1.09977">
        <ele>311.183151</ele>
        <time>2022-01-11T12:42:12.140Z</time>
      </trkpt>
      <trkpt lat="44.41975" lon="1.0998">
        <ele>311.445626</ele>
        <time>2022-01-11T12:42:14.107Z</time>
      </trkpt>
      <trkpt lat="44.41985" lon="1.09983">
        <ele>311.709932</ele>
        <time>2022-01-11T12:42:16.118Z</time>
      </trkpt>
      <trkpt lat="44.41998" lon="1.09988">
        <ele>312.06669</ele>
        <time>2022-01-11T12:42:19.118Z</time>
      </trkpt>
      <trkpt lat="44.42007" lon="1.09991">
        <ele>312.314547</ele>
        <time>2022-01-11T12:42:21.118Z</time>
      </trkpt>
      <trkpt lat="44.42016" lon="1.09995">
        <ele>312.391523</ele>
        <time>2022-01-11T12:42:23.114Z</time>
      </trkpt>
      <trkpt lat="44.42025" lon="1.09997">
        <ele>312.468168</ele>
        <time>2022-01-11T12:42:25.119Z</time>
      </trkpt>
      <trkpt lat="44.42038" lon="1.10001">
        <ele>312.578484</ele>
        <time>2022-01-11T12:42:28.113Z</time>
      </trkpt>
      <trkpt lat="44.42052" lon="1.10006">
        <ele>312.698822</ele>
        <time>2022-01-11T12:42:31.124Z</time>
      </trkpt>
      <trkpt lat="44.42063" lon="1.10008">
        <ele>312.787767</ele>
        <time>2022-01-11T12:42:33.109Z</time>
      </trkpt>
      <trkpt lat="44.42073" lon="1.10012">
        <ele>312.874896</ele>
        <time>2022-01-11T12:42:35.123Z</time>
      </trkpt>
      <trkpt lat="44.42081" lon="1.10017">
        <ele>312.955631</ele>
        <time>2022-01-11T12:42:37.131Z</time>
      </trkpt>
      <trkpt lat="44.42091" lon="1.10023">
        <ele>313.042682</ele>
        <time>2022-01-11T12:42:39.116Z</time>
      </trkpt>
      <trkpt lat="44.421" lon="1.1003">
        <ele>313.126713</ele>
        <time>2022-01-11T12:42:41.130Z</time>
      </trkpt>
      <trkpt lat="44.42109" lon="1.10036">
        <ele>313.210631</ele>
        <time>2022-01-11T12:42:43.111Z</time>
      </trkpt>
      <trkpt lat="44.42117" lon="1.10043">
        <ele>313.293707</ele>
        <time>2022-01-11T12:42:45.115Z</time>
      </trkpt>
      <trkpt lat="44.42126" lon="1.10048">
        <ele>313.372723</ele>
        <time>2022-01-11T12:42:47.115Z</time>
      </trkpt>
      <trkpt lat="44.42135" lon="1.10054">
        <ele>313.457498</ele>
        <time>2022-01-11T12:42:49.114Z</time>
      </trkpt>
      <trkpt lat="44.42145" lon="1.10061">
        <ele>313.545217</ele>
        <time>2022-01-11T12:42:51.115Z</time>
      </trkpt>
      <trkpt lat="44.42154" lon="1.10067">
        <ele>313.631518</ele>
        <time>2022-01-11T12:42:53.117Z</time>
      </trkpt>
      <trkpt lat="44.42163" lon="1.10072">
        <ele>313.717336</ele>
        <time>2022-01-11T12:42:55.118Z</time>
      </trkpt>
      <trkpt lat="44.42173" lon="1.10078">
        <ele>313.803154</ele>
        <time>2022-01-11T12:42:57.118Z</time>
      </trkpt>
      <trkpt lat="44.42183" lon="1.10084">
        <ele>313.960959</ele>
        <time>2022-01-11T12:42:59.111Z</time>
      </trkpt>
      <trkpt lat="44.42193" lon="1.10089">
        <ele>314.128756</ele>
        <time>2022-01-11T12:43:01.121Z</time>
      </trkpt>
      <trkpt lat="44.42203" lon="1.10095">
        <ele>314.284683</ele>
        <time>2022-01-11T12:43:03.106Z</time>
      </trkpt>
      <trkpt lat="44.42213" lon="1.10101">
        <ele>314.448251</ele>
        <time>2022-01-11T12:43:05.134Z</time>
      </trkpt>
      <trkpt lat="44.42222" lon="1.10106">
        <ele>314.60069</ele>
        <time>2022-01-11T12:43:07.132Z</time>
      </trkpt>
      <trkpt lat="44.42233" lon="1.10111">
        <ele>314.768087</ele>
        <time>2022-01-11T12:43:09.107Z</time>
      </trkpt>
      <trkpt lat="44.42242" lon="1.10116">
        <ele>314.91986</ele>
        <time>2022-01-11T12:43:11.135Z</time>
      </trkpt>
      <trkpt lat="44.42251" lon="1.10121">
        <ele>315.066004</ele>
        <time>2022-01-11T12:43:13.108Z</time>
      </trkpt>
      <trkpt lat="44.4226" lon="1.10125">
        <ele>315.210291</ele>
        <time>2022-01-11T12:43:15.117Z</time>
      </trkpt>
      <trkpt lat="44.42269" lon="1.1013">
        <ele>315.34667</ele>
        <time>2022-01-11T12:43:17.121Z</time>
      </trkpt>
      <trkpt lat="44.42281" lon="1.10138">
        <ele>315.547741</ele>
        <time>2022-01-11T12:43:20.120Z</time>
      </trkpt>
      <trkpt lat="44.42288" lon="1.10145">
        <ele>315.685725</ele>
        <time>2022-01-11T12:43:22.117Z</time>
      </trkpt>
      <trkpt lat="44.42296" lon="1.10152">
        <ele>315.823591</ele>
        <time>2022-01-11T12:43:24.139Z</time>
      </trkpt>
      <trkpt lat="44.42306" lon="1.10163">
        <ele>316.018054</ele>
        <time>2022-01-11T12:43:27.116Z</time>
      </trkpt>
      <trkpt lat="44.42316" lon="1.10176">
        <ele>316.221442</ele>
        <time>2022-01-11T12:43:30.156Z</time>
      </trkpt>
      <trkpt lat="44.42325" lon="1.1019">
        <ele>316.424684</ele>
        <time>2022-01-11T12:43:33.112Z</time>
      </trkpt>
      <trkpt lat="44.42332" lon="1.102">
        <ele>316.477687</ele>
        <time>2022-01-11T12:43:35.114Z</time>
      </trkpt>
      <trkpt lat="44.42338" lon="1.10209">
        <ele>316.313438</ele>
        <time>2022-01-11T12:43:37.138Z</time>
      </trkpt>
      <trkpt lat="44.42345" lon="1.10219">
        <ele>316.132493</ele>
        <time>2022-01-11T12:43:39.113Z</time>
      </trkpt>
      <trkpt lat="44.42352" lon="1.1023">
        <ele>315.956115</ele>
        <time>2022-01-11T12:43:41.107Z</time>
      </trkpt>
      <trkpt lat="44.42359" lon="1.1024">
        <ele>315.775514</ele>
        <time>2022-01-11T12:43:43.121Z</time>
      </trkpt>
      <trkpt lat="44.42367" lon="1.10251">
        <ele>315.572248</ele>
        <time>2022-01-11T12:43:45.114Z</time>
      </trkpt>
      <trkpt lat="44.42374" lon="1.10263">
        <ele>315.369547</ele>
        <time>2022-01-11T12:43:47.119Z</time>
      </trkpt>
      <trkpt lat="44.42383" lon="1.10274">
        <ele>315.155009</ele>
        <time>2022-01-11T12:43:49.116Z</time>
      </trkpt>
      <trkpt lat="44.42394" lon="1.10287">
        <ele>314.893046</ele>
        <time>2022-01-11T12:43:51.114Z</time>
      </trkpt>
      <trkpt lat="44.42407" lon="1.10299">
        <ele>314.614834</ele>
        <time>2022-01-11T12:43:53.110Z</time>
      </trkpt>
      <trkpt lat="44.42421" lon="1.10311">
        <ele>314.328037</ele>
        <time>2022-01-11T12:43:55.127Z</time>
      </trkpt>
      <trkpt lat="44.42435" lon="1.10321">
        <ele>314.037499</ele>
        <time>2022-01-11T12:43:57.117Z</time>
      </trkpt>
      <trkpt lat="44.4245" lon="1.10331">
        <ele>313.749312</ele>
        <time>2022-01-11T12:43:59.116Z</time>
      </trkpt>
      <trkpt lat="44.42466" lon="1.10338">
        <ele>313.449451</ele>
        <time>2022-01-11T12:44:01.104Z</time>
      </trkpt>
      <trkpt lat="44.42481" lon="1.10346">
        <ele>313.129369</ele>
        <time>2022-01-11T12:44:03.117Z</time>
      </trkpt>
      <trkpt lat="44.42496" lon="1.10352">
        <ele>312.787985</ele>
        <time>2022-01-11T12:44:05.129Z</time>
      </trkpt>
      <trkpt lat="44.42512" lon="1.10357">
        <ele>312.40903</ele>
        <time>2022-01-11T12:44:07.115Z</time>
      </trkpt>
      <trkpt lat="44.42528" lon="1.10361">
        <ele>312.066095</ele>
        <time>2022-01-11T12:44:09.116Z</time>
      </trkpt>
      <trkpt lat="44.42545" lon="1.10364">
        <ele>311.687943</ele>
        <time>2022-01-11T12:44:11.118Z</time>
      </trkpt>
      <trkpt lat="44.42561" lon="1.10365">
        <ele>311.333311</ele>
        <time>2022-01-11T12:44:13.114Z</time>
      </trkpt>
      <trkpt lat="44.42578" lon="1.10367">
        <ele>310.967071</ele>
        <time>2022-01-11T12:44:15.115Z</time>
      </trkpt>
      <trkpt lat="44.42593" lon="1.1037">
        <ele>310.621418</ele>
        <time>2022-01-11T12:44:17.119Z</time>
      </trkpt>
      <trkpt lat="44.4261" lon="1.10372">
        <ele>310.240886</ele>
        <time>2022-01-11T12:44:19.122Z</time>
      </trkpt>
      <trkpt lat="44.4262" lon="1.10373">
        <ele>310.037786</ele>
        <time>2022-01-11T12:44:20.110Z</time>
      </trkpt>
      <trkpt lat="44.42637" lon="1.10376">
        <ele>309.655618</ele>
        <time>2022-01-11T12:44:22.145Z</time>
      </trkpt>
      <trkpt lat="44.42654" lon="1.10378">
        <ele>309.22219</ele>
        <time>2022-01-11T12:44:24.119Z</time>
      </trkpt>
      <trkpt lat="44.42672" lon="1.10378">
        <ele>308.546659</ele>
        <time>2022-01-11T12:44:26.126Z</time>
      </trkpt>
      <trkpt lat="44.4269" lon="1.10374">
        <ele>307.877522</ele>
        <time>2022-01-11T12:44:28.130Z</time>
      </trkpt>
      <trkpt lat="44.42699" lon="1.10371">
        <ele>307.54154</ele>
        <time>2022-01-11T12:44:29.119Z</time>
      </trkpt>
      <trkpt lat="44.42708" lon="1.10366">
        <ele>307.195594</ele>
        <time>2022-01-11T12:44:30.112Z</time>
      </trkpt>
      <trkpt lat="44.42724" lon="1.10358">
        <ele>306.558878</ele>
        <time>2022-01-11T12:44:32.126Z</time>
      </trkpt>
      <trkpt lat="44.42741" lon="1.10351">
        <ele>305.905978</ele>
        <time>2022-01-11T12:44:34.157Z</time>
      </trkpt>
      <trkpt lat="44.42758" lon="1.10345">
        <ele>305.256852</ele>
        <time>2022-01-11T12:44:36.116Z</time>
      </trkpt>
      <trkpt lat="44.42767" lon="1.10342">
        <ele>304.917074</ele>
        <time>2022-01-11T12:44:37.135Z</time>
      </trkpt>
      <trkpt lat="44.42784" lon="1.10336">
        <ele>304.264018</ele>
        <time>2022-01-11T12:44:39.114Z</time>
      </trkpt>
      <trkpt lat="44.42801" lon="1.10329">
        <ele>303.597786</ele>
        <time>2022-01-11T12:44:41.123Z</time>
      </trkpt>
      <trkpt lat="44.4281" lon="1.10326">
        <ele>303.252429</ele>
        <time>2022-01-11T12:44:42.118Z</time>
      </trkpt>
      <trkpt lat="44.42827" lon="1.10319">
        <ele>302.637256</ele>
        <time>2022-01-11T12:44:44.115Z</time>
      </trkpt>
      <trkpt lat="44.42844" lon="1.10314">
        <ele>302.331077</ele>
        <time>2022-01-11T12:44:46.141Z</time>
      </trkpt>
      <trkpt lat="44.42854" lon="1.10315">
        <ele>302.165034</ele>
        <time>2022-01-11T12:44:47.123Z</time>
      </trkpt>
      <trkpt lat="44.4287" lon="1.10318">
        <ele>301.884195</ele>
        <time>2022-01-11T12:44:49.110Z</time>
      </trkpt>
      <trkpt lat="44.42886" lon="1.10331">
        <ele>301.578971</ele>
        <time>2022-01-11T12:44:51.115Z</time>
      </trkpt>
      <trkpt lat="44.429" lon="1.10346">
        <ele>301.268223</ele>
        <time>2022-01-11T12:44:53.113Z</time>
      </trkpt>
      <trkpt lat="44.42907" lon="1.10355">
        <ele>301.10874</ele>
        <time>2022-01-11T12:44:54.117Z</time>
      </trkpt>
      <trkpt lat="44.42915" lon="1.10363">
        <ele>300.934166</ele>
        <time>2022-01-11T12:44:55.096Z</time>
      </trkpt>
      <trkpt lat="44.4293" lon="1.1038">
        <ele>300.617708</ele>
        <time>2022-01-11T12:44:57.123Z</time>
      </trkpt>
      <trkpt lat="44.42937" lon="1.10386">
        <ele>300.462813</ele>
        <time>2022-01-11T12:44:58.155Z</time>
      </trkpt>
      <trkpt lat="44.42945" lon="1.10393">
        <ele>300.305252</ele>
        <time>2022-01-11T12:44:59.112Z</time>
      </trkpt>
      <trkpt lat="44.42963" lon="1.10402">
        <ele>299.986316</ele>
        <time>2022-01-11T12:45:01.130Z</time>
      </trkpt>
      <trkpt lat="44.42972" lon="1.10405">
        <ele>299.82605</ele>
        <time>2022-01-11T12:45:02.142Z</time>
      </trkpt>
      <trkpt lat="44.42982" lon="1.10405">
        <ele>299.661879</ele>
        <time>2022-01-11T12:45:03.124Z</time>
      </trkpt>
      <trkpt lat="44.43" lon="1.10405">
        <ele>299.583179</ele>
        <time>2022-01-11T12:45:05.116Z</time>
      </trkpt>
      <trkpt lat="44.43009" lon="1.10406">
        <ele>299.575176</ele>
        <time>2022-01-11T12:45:06.114Z</time>
      </trkpt>
      <trkpt lat="44.43018" lon="1.10406">
        <ele>299.567348</ele>
        <time>2022-01-11T12:45:07.113Z</time>
      </trkpt>
      <trkpt lat="44.43036" lon="1.10405">
        <ele>299.551697</ele>
        <time>2022-01-11T12:45:09.115Z</time>
      </trkpt>
      <trkpt lat="44.43045" lon="1.10405">
        <ele>299.543609</ele>
        <time>2022-01-11T12:45:10.142Z</time>
      </trkpt>
      <trkpt lat="44.43055" lon="1.10404">
        <ele>299.535516</ele>
        <time>2022-01-11T12:45:11.135Z</time>
      </trkpt>
      <trkpt lat="44.43072" lon="1.10403">
        <ele>299.52029</ele>
        <time>2022-01-11T12:45:13.107Z</time>
      </trkpt>
      <trkpt lat="44.43088" lon="1.10405">
        <ele>299.506591</ele>
        <time>2022-01-11T12:45:15.104Z</time>
      </trkpt>
      <trkpt lat="44.43103" lon="1.10405">
        <ele>299.49355</ele>
        <time>2022-01-11T12:45:17.107Z</time>
      </trkpt>
      <trkpt lat="44.43118" lon="1.10402">
        <ele>299.480481</ele>
        <time>2022-01-11T12:45:19.118Z</time>
      </trkpt>
      <trkpt lat="44.43132" lon="1.10401">
        <ele>299.468023</ele>
        <time>2022-01-11T12:45:21.137Z</time>
      </trkpt>
      <trkpt lat="44.43145" lon="1.10401">
        <ele>299.456459</ele>
        <time>2022-01-11T12:45:23.106Z</time>
      </trkpt>
      <trkpt lat="44.43158" lon="1.104">
        <ele>299.445329</ele>
        <time>2022-01-11T12:45:25.105Z</time>
      </trkpt>
      <trkpt lat="44.43172" lon="1.104">
        <ele>299.646613</ele>
        <time>2022-01-11T12:45:27.135Z</time>
      </trkpt>
      <trkpt lat="44.43185" lon="1.10398">
        <ele>300.061129</ele>
        <time>2022-01-11T12:45:29.107Z</time>
      </trkpt>
      <trkpt lat="44.43197" lon="1.10399">
        <ele>300.453298</ele>
        <time>2022-01-11T12:45:31.113Z</time>
      </trkpt>
      <trkpt lat="44.43209" lon="1.10399">
        <ele>300.838693</ele>
        <time>2022-01-11T12:45:33.152Z</time>
      </trkpt>
      <trkpt lat="44.43222" lon="1.10399">
        <ele>301.242728</ele>
        <time>2022-01-11T12:45:35.112Z</time>
      </trkpt>
      <trkpt lat="44.43235" lon="1.10398">
        <ele>301.653354</ele>
        <time>2022-01-11T12:45:37.113Z</time>
      </trkpt>
      <trkpt lat="44.43248" lon="1.10398">
        <ele>302.054233</ele>
        <time>2022-01-11T12:45:39.121Z</time>
      </trkpt>
      <trkpt lat="44.43259" lon="1.10398">
        <ele>302.423531</ele>
        <time>2022-01-11T12:45:41.114Z</time>
      </trkpt>
      <trkpt lat="44.43271" lon="1.10397">
        <ele>302.78676</ele>
        <time>2022-01-11T12:45:43.108Z</time>
      </trkpt>
      <trkpt lat="44.43284" lon="1.10397">
        <ele>303.188019</ele>
        <time>2022-01-11T12:45:45.152Z</time>
      </trkpt>
      <trkpt lat="44.43295" lon="1.10396">
        <ele>303.535574</ele>
        <time>2022-01-11T12:45:47.112Z</time>
      </trkpt>
      <trkpt lat="44.43305" lon="1.10394">
        <ele>303.873167</ele>
        <time>2022-01-11T12:45:49.117Z</time>
      </trkpt>
      <trkpt lat="44.43315" lon="1.1039">
        <ele>304.18017</ele>
        <time>2022-01-11T12:45:51.111Z</time>
      </trkpt>
      <trkpt lat="44.43325" lon="1.10386">
        <ele>304.519806</ele>
        <time>2022-01-11T12:45:53.107Z</time>
      </trkpt>
      <trkpt lat="44.43334" lon="1.1038">
        <ele>304.828733</ele>
        <time>2022-01-11T12:45:55.122Z</time>
      </trkpt>
      <trkpt lat="44.43342" lon="1.10373">
        <ele>305.120696</ele>
        <time>2022-01-11T12:45:57.110Z</time>
      </trkpt>
      <trkpt lat="44.43353" lon="1.10367">
        <ele>305.172518</ele>
        <time>2022-01-11T12:45:59.108Z</time>
      </trkpt>
      <trkpt lat="44.43363" lon="1.10361">
        <ele>305.224359</ele>
        <time>2022-01-11T12:46:01.112Z</time>
      </trkpt>
      <trkpt lat="44.43374" lon="1.10359">
        <ele>305.274388</ele>
        <time>2022-01-11T12:46:03.107Z</time>
      </trkpt>
      <trkpt lat="44.43384" lon="1.10359">
        <ele>305.320378</ele>
        <time>2022-01-11T12:46:05.108Z</time>
      </trkpt>
      <trkpt lat="44.43393" lon="1.10362">
        <ele>305.363902</ele>
        <time>2022-01-11T12:46:07.108Z</time>
      </trkpt>
      <trkpt lat="44.43388" lon="1.10335">
        <ele>305.455492</ele>
        <time>2022-01-11T12:47:07.104Z</time>
      </trkpt>
      <trkpt lat="44.43389" lon="1.10318">
        <ele>305.512536</ele>
        <time>2022-01-11T12:47:09.111Z</time>
      </trkpt>
      <trkpt lat="44.43389" lon="1.10302">
        <ele>305.565045</ele>
        <time>2022-01-11T12:47:11.112Z</time>
      </trkpt>
      <trkpt lat="44.43389" lon="1.10282">
        <ele>305.628064</ele>
        <time>2022-01-11T12:47:13.112Z</time>
      </trkpt>
      <trkpt lat="44.4339" lon="1.10264">
        <ele>305.687112</ele>
        <time>2022-01-11T12:47:15.105Z</time>
      </trkpt>
      <trkpt lat="44.43393" lon="1.10244">
        <ele>305.754821</ele>
        <time>2022-01-11T12:47:17.102Z</time>
      </trkpt>
      <trkpt lat="44.43395" lon="1.10226">
        <ele>305.816297</ele>
        <time>2022-01-11T12:47:19.103Z</time>
      </trkpt>
      <trkpt lat="44.43396" lon="1.10207">
        <ele>305.878462</ele>
        <time>2022-01-11T12:47:21.112Z</time>
      </trkpt>
      <trkpt lat="44.43396" lon="1.1019">
        <ele>305.934734</ele>
        <time>2022-01-11T12:47:23.106Z</time>
      </trkpt>
      <trkpt lat="44.43398" lon="1.10172">
        <ele>305.634269</ele>
        <time>2022-01-11T12:47:25.106Z</time>
      </trkpt>
      <trkpt lat="44.43398" lon="1.10155">
        <ele>305.301364</ele>
        <time>2022-01-11T12:47:27.103Z</time>
      </trkpt>
      <trkpt lat="44.43398" lon="1.10138">
        <ele>304.952602</ele>
        <time>2022-01-11T12:47:29.110Z</time>
      </trkpt>
      <trkpt lat="44.434" lon="1.1012">
        <ele>304.586697</ele>
        <time>2022-01-11T12:47:31.096Z</time>
      </trkpt>
      <trkpt lat="44.43402" lon="1.10102">
        <ele>304.224766</ele>
        <time>2022-01-11T12:47:33.095Z</time>
      </trkpt>
      <trkpt lat="44.43401" lon="1.10083">
        <ele>303.855876</ele>
        <time>2022-01-11T12:47:35.113Z</time>
      </trkpt>
      <trkpt lat="44.43401" lon="1.10066">
        <ele>303.508212</ele>
        <time>2022-01-11T12:47:37.100Z</time>
      </trkpt>
      <trkpt lat="44.43399" lon="1.10048">
        <ele>303.13733</ele>
        <time>2022-01-11T12:47:39.104Z</time>
      </trkpt>
      <trkpt lat="44.43398" lon="1.10026">
        <ele>302.699814</ele>
        <time>2022-01-11T12:47:41.107Z</time>
      </trkpt>
      <trkpt lat="44.43399" lon="1.10004">
        <ele>302.260789</ele>
        <time>2022-01-11T12:47:43.104Z</time>
      </trkpt>
      <trkpt lat="44.434" lon="1.09983">
        <ele>301.832544</ele>
        <time>2022-01-11T12:47:45.101Z</time>
      </trkpt>
      <trkpt lat="44.43401" lon="1.09959">
        <ele>301.361649</ele>
        <time>2022-01-11T12:47:47.103Z</time>
      </trkpt>
      <trkpt lat="44.43401" lon="1.09946">
        <ele>301.094706</ele>
        <time>2022-01-11T12:47:48.105Z</time>
      </trkpt>
      <trkpt lat="44.43402" lon="1.09933">
        <ele>300.835199</ele>
        <time>2022-01-11T12:47:49.114Z</time>
      </trkpt>
      <trkpt lat="44.43403" lon="1.09907">
        <ele>300.268991</ele>
        <time>2022-01-11T12:47:51.121Z</time>
      </trkpt>
      <trkpt lat="44.43403" lon="1.09894">
        <ele>299.979632</ele>
        <time>2022-01-11T12:47:52.123Z</time>
      </trkpt>
      <trkpt lat="44.43403" lon="1.09881">
        <ele>299.688032</ele>
        <time>2022-01-11T12:47:53.104Z</time>
      </trkpt>
      <trkpt lat="44.43403" lon="1.09868">
        <ele>299.40744</ele>
        <time>2022-01-11T12:47:54.096Z</time>
      </trkpt>
      <trkpt lat="44.43402" lon="1.09855">
        <ele>299.122068</ele>
        <time>2022-01-11T12:47:55.106Z</time>
      </trkpt>
      <trkpt lat="44.43402" lon="1.09842">
        <ele>298.826133</ele>
        <time>2022-01-11T12:47:56.128Z</time>
      </trkpt>
      <trkpt lat="44.43401" lon="1.09829">
        <ele>298.538392</ele>
        <time>2022-01-11T12:47:57.122Z</time>
      </trkpt>
      <trkpt lat="44.43402" lon="1.09815">
        <ele>298.251176</ele>
        <time>2022-01-11T12:47:58.099Z</time>
      </trkpt>
      <trkpt lat="44.43407" lon="1.09794">
        <ele>297.751485</ele>
        <time>2022-01-11T12:48:00.111Z</time>
      </trkpt>
      <trkpt lat="44.43419" lon="1.09776">
        <ele>297.233085</ele>
        <time>2022-01-11T12:48:02.113Z</time>
      </trkpt>
      <trkpt lat="44.43432" lon="1.09762">
        <ele>296.70948</ele>
        <time>2022-01-11T12:48:04.097Z</time>
      </trkpt>
      <trkpt lat="44.43445" lon="1.09748">
        <ele>296.220866</ele>
        <time>2022-01-11T12:48:06.095Z</time>
      </trkpt>
      <trkpt lat="44.43459" lon="1.09735">
        <ele>295.682228</ele>
        <time>2022-01-11T12:48:08.115Z</time>
      </trkpt>
      <trkpt lat="44.43467" lon="1.09727">
        <ele>295.401684</ele>
        <time>2022-01-11T12:48:09.102Z</time>
      </trkpt>
      <trkpt lat="44.4348" lon="1.09709">
        <ele>295.125984</ele>
        <time>2022-01-11T12:48:11.114Z</time>
      </trkpt>
      <trkpt lat="44.43489" lon="1.0969">
        <ele>294.89645</ele>
        <time>2022-01-11T12:48:13.097Z</time>
      </trkpt>
      <trkpt lat="44.43495" lon="1.0967">
        <ele>294.672238</ele>
        <time>2022-01-11T12:48:15.112Z</time>
      </trkpt>
      <trkpt lat="44.43498" lon="1.09658">
        <ele>294.542491</ele>
        <time>2022-01-11T12:48:16.102Z</time>
      </trkpt>
      <trkpt lat="44.43502" lon="1.09638">
        <ele>294.329304</ele>
        <time>2022-01-11T12:48:18.098Z</time>
      </trkpt>
      <trkpt lat="44.43508" lon="1.09618">
        <ele>294.113068</ele>
        <time>2022-01-11T12:48:20.110Z</time>
      </trkpt>
      <trkpt lat="44.43513" lon="1.09601">
        <ele>293.924717</ele>
        <time>2022-01-11T12:48:22.116Z</time>
      </trkpt>
      <trkpt lat="44.4352" lon="1.09582">
        <ele>293.711233</ele>
        <time>2022-01-11T12:48:24.099Z</time>
      </trkpt>
      <trkpt lat="44.43527" lon="1.09564">
        <ele>293.49962</ele>
        <time>2022-01-11T12:48:26.103Z</time>
      </trkpt>
      <trkpt lat="44.43536" lon="1.09545">
        <ele>293.27457</ele>
        <time>2022-01-11T12:48:28.104Z</time>
      </trkpt>
      <trkpt lat="44.43544" lon="1.09528">
        <ele>293.065708</ele>
        <time>2022-01-11T12:48:30.109Z</time>
      </trkpt>
      <trkpt lat="44.43553" lon="1.09511">
        <ele>292.854348</ele>
        <time>2022-01-11T12:48:32.102Z</time>
      </trkpt>
      <trkpt lat="44.43564" lon="1.09495">
        <ele>292.654092</ele>
        <time>2022-01-11T12:48:34.119Z</time>
      </trkpt>
      <trkpt lat="44.43575" lon="1.09479">
        <ele>292.461504</ele>
        <time>2022-01-11T12:48:36.115Z</time>
      </trkpt>
      <trkpt lat="44.43582" lon="1.09471">
        <ele>292.349236</ele>
        <time>2022-01-11T12:48:37.099Z</time>
      </trkpt>
      <trkpt lat="44.43594" lon="1.09458">
        <ele>292.163448</ele>
        <time>2022-01-11T12:48:39.113Z</time>
      </trkpt>
      <trkpt lat="44.43606" lon="1.09446">
        <ele>291.979515</ele>
        <time>2022-01-11T12:48:41.106Z</time>
      </trkpt>
      <trkpt lat="44.4362" lon="1.09435">
        <ele>291.789755</ele>
        <time>2022-01-11T12:48:43.110Z</time>
      </trkpt>
      <trkpt lat="44.43634" lon="1.09423">
        <ele>291.58737</ele>
        <time>2022-01-11T12:48:45.101Z</time>
      </trkpt>
      <trkpt lat="44.43646" lon="1.09412">
        <ele>291.405493</ele>
        <time>2022-01-11T12:48:47.098Z</time>
      </trkpt>
      <trkpt lat="44.4366" lon="1.09402">
        <ele>291.212443</ele>
        <time>2022-01-11T12:48:49.104Z</time>
      </trkpt>
      <trkpt lat="44.43674" lon="1.0939">
        <ele>291.007502</ele>
        <time>2022-01-11T12:48:51.107Z</time>
      </trkpt>
      <trkpt lat="44.43686" lon="1.09376">
        <ele>290.823737</ele>
        <time>2022-01-11T12:48:53.112Z</time>
      </trkpt>
      <trkpt lat="44.43698" lon="1.09359">
        <ele>290.61624</ele>
        <time>2022-01-11T12:48:55.110Z</time>
      </trkpt>
      <trkpt lat="44.43708" lon="1.09342">
        <ele>290.714082</ele>
        <time>2022-01-11T12:48:57.105Z</time>
      </trkpt>
      <trkpt lat="44.43718" lon="1.09323">
        <ele>290.815487</ele>
        <time>2022-01-11T12:48:59.103Z</time>
      </trkpt>
      <trkpt lat="44.43728" lon="1.09306">
        <ele>290.915788</ele>
        <time>2022-01-11T12:49:01.106Z</time>
      </trkpt>
      <trkpt lat="44.4374" lon="1.09288">
        <ele>291.02099</ele>
        <time>2022-01-11T12:49:03.100Z</time>
      </trkpt>
      <trkpt lat="44.43752" lon="1.09271">
        <ele>291.128629</ele>
        <time>2022-01-11T12:49:05.100Z</time>
      </trkpt>
      <trkpt lat="44.43764" lon="1.09255">
        <ele>291.228851</ele>
        <time>2022-01-11T12:49:07.106Z</time>
      </trkpt>
      <trkpt lat="44.43776" lon="1.09241">
        <ele>291.322122</ele>
        <time>2022-01-11T12:49:09.114Z</time>
      </trkpt>
      <trkpt lat="44.43789" lon="1.09229">
        <ele>291.414662</ele>
        <time>2022-01-11T12:49:11.094Z</time>
      </trkpt>
      <trkpt lat="44.43803" lon="1.09217">
        <ele>291.516181</ele>
        <time>2022-01-11T12:49:13.100Z</time>
      </trkpt>
      <trkpt lat="44.43817" lon="1.09204">
        <ele>291.62201</ele>
        <time>2022-01-11T12:49:15.095Z</time>
      </trkpt>
      <trkpt lat="44.43833" lon="1.09192">
        <ele>291.741088</ele>
        <time>2022-01-11T12:49:17.103Z</time>
      </trkpt>
      <trkpt lat="44.43849" lon="1.09184">
        <ele>291.911944</ele>
        <time>2022-01-11T12:49:19.111Z</time>
      </trkpt>
      <trkpt lat="44.43865" lon="1.09178">
        <ele>292.081076</ele>
        <time>2022-01-11T12:49:21.097Z</time>
      </trkpt>
      <trkpt lat="44.43874" lon="1.09176">
        <ele>292.178364</ele>
        <time>2022-01-11T12:49:22.114Z</time>
      </trkpt>
      <trkpt lat="44.43889" lon="1.09173">
        <ele>292.330583</ele>
        <time>2022-01-11T12:49:24.095Z</time>
      </trkpt>
      <trkpt lat="44.43898" lon="1.0917">
        <ele>292.430186</ele>
        <time>2022-01-11T12:49:25.112Z</time>
      </trkpt>
      <trkpt lat="44.43914" lon="1.09166">
        <ele>292.596274</ele>
        <time>2022-01-11T12:49:27.103Z</time>
      </trkpt>
      <trkpt lat="44.43925" lon="1.09163">
        <ele>292.707996</ele>
        <time>2022-01-11T12:49:28.098Z</time>
      </trkpt>
      <trkpt lat="44.43939" lon="1.09165">
        <ele>292.856772</ele>
        <time>2022-01-11T12:49:30.118Z</time>
      </trkpt>
      <trkpt lat="44.43955" lon="1.09166">
        <ele>293.016266</ele>
        <time>2022-01-11T12:49:32.096Z</time>
      </trkpt>
      <trkpt lat="44.43971" lon="1.09168">
        <ele>293.17508</ele>
        <time>2022-01-11T12:49:34.105Z</time>
      </trkpt>
      <trkpt lat="44.43987" lon="1.09168">
        <ele>293.342599</ele>
        <time>2022-01-11T12:49:36.103Z</time>
      </trkpt>
      <trkpt lat="44.44001" lon="1.09166">
        <ele>293.482021</ele>
        <time>2022-01-11T12:49:38.106Z</time>
      </trkpt>
      <trkpt lat="44.44018" lon="1.09163">
        <ele>292.724618</ele>
        <time>2022-01-11T12:49:40.110Z</time>
      </trkpt>
      <trkpt lat="44.44027" lon="1.09159">
        <ele>291.936282</ele>
        <time>2022-01-11T12:49:41.108Z</time>
      </trkpt>
      <trkpt lat="44.44041" lon="1.09153">
        <ele>290.715875</ele>
        <time>2022-01-11T12:49:43.115Z</time>
      </trkpt>
      <trkpt lat="44.4405" lon="1.0915">
        <ele>289.961794</ele>
        <time>2022-01-11T12:49:44.107Z</time>
      </trkpt>
      <trkpt lat="44.44059" lon="1.09145">
        <ele>289.198286</ele>
        <time>2022-01-11T12:49:45.112Z</time>
      </trkpt>
      <trkpt lat="44.44068" lon="1.09139">
        <ele>288.418457</ele>
        <time>2022-01-11T12:49:46.102Z</time>
      </trkpt>
      <trkpt lat="44.4408" lon="1.09124">
        <ele>287.101395</ele>
        <time>2022-01-11T12:49:48.123Z</time>
      </trkpt>
      <trkpt lat="44.44092" lon="1.09108">
        <ele>285.747358</ele>
        <time>2022-01-11T12:49:50.096Z</time>
      </trkpt>
      <trkpt lat="44.44099" lon="1.09099">
        <ele>285.013699</ele>
        <time>2022-01-11T12:49:51.113Z</time>
      </trkpt>
      <trkpt lat="44.44106" lon="1.09091">
        <ele>284.235831</ele>
        <time>2022-01-11T12:49:52.114Z</time>
      </trkpt>
      <trkpt lat="44.44119" lon="1.09075">
        <ele>282.867724</ele>
        <time>2022-01-11T12:49:54.094Z</time>
      </trkpt>
      <trkpt lat="44.44125" lon="1.09065">
        <ele>282.088749</ele>
        <time>2022-01-11T12:49:55.099Z</time>
      </trkpt>
      <trkpt lat="44.44131" lon="1.09055">
        <ele>281.356185</ele>
        <time>2022-01-11T12:49:56.094Z</time>
      </trkpt>
      <trkpt lat="44.44143" lon="1.09039">
        <ele>279.988252</ele>
        <time>2022-01-11T12:49:58.097Z</time>
      </trkpt>
      <trkpt lat="44.44157" lon="1.09023">
        <ele>278.932046</ele>
        <time>2022-01-11T12:50:00.110Z</time>
      </trkpt>
      <trkpt lat="44.4417" lon="1.09008">
        <ele>278.704226</ele>
        <time>2022-01-11T12:50:02.099Z</time>
      </trkpt>
      <trkpt lat="44.44184" lon="1.08996">
        <ele>278.488113</ele>
        <time>2022-01-11T12:50:04.101Z</time>
      </trkpt>
      <trkpt lat="44.44199" lon="1.08984">
        <ele>278.251553</ele>
        <time>2022-01-11T12:50:06.111Z</time>
      </trkpt>
      <trkpt lat="44.44213" lon="1.08975">
        <ele>278.045796</ele>
        <time>2022-01-11T12:50:08.098Z</time>
      </trkpt>
      <trkpt lat="44.44228" lon="1.08966">
        <ele>277.833563</ele>
        <time>2022-01-11T12:50:10.111Z</time>
      </trkpt>
      <trkpt lat="44.44243" lon="1.08959">
        <ele>277.615419</ele>
        <time>2022-01-11T12:50:12.114Z</time>
      </trkpt>
      <trkpt lat="44.44258" lon="1.08951">
        <ele>277.401932</ele>
        <time>2022-01-11T12:50:14.113Z</time>
      </trkpt>
      <trkpt lat="44.44267" lon="1.08947">
        <ele>277.280277</ele>
        <time>2022-01-11T12:50:15.118Z</time>
      </trkpt>
      <trkpt lat="44.44281" lon="1.08938">
        <ele>277.073306</ele>
        <time>2022-01-11T12:50:17.094Z</time>
      </trkpt>
      <trkpt lat="44.44295" lon="1.08929">
        <ele>276.867546</ele>
        <time>2022-01-11T12:50:19.106Z</time>
      </trkpt>
      <trkpt lat="44.44309" lon="1.08919">
        <ele>276.658138</ele>
        <time>2022-01-11T12:50:21.108Z</time>
      </trkpt>
      <trkpt lat="44.44316" lon="1.08912">
        <ele>276.447902</ele>
        <time>2022-01-11T12:50:22.117Z</time>
      </trkpt>
      <trkpt lat="44.44328" lon="1.08897">
        <ele>275.932696</ele>
        <time>2022-01-11T12:50:24.096Z</time>
      </trkpt>
      <trkpt lat="44.4434" lon="1.08881">
        <ele>275.400262</ele>
        <time>2022-01-11T12:50:26.110Z</time>
      </trkpt>
      <trkpt lat="44.44348" lon="1.08873">
        <ele>275.085469</ele>
        <time>2022-01-11T12:50:27.091Z</time>
      </trkpt>
      <trkpt lat="44.44356" lon="1.08865">
        <ele>274.766815</ele>
        <time>2022-01-11T12:50:28.099Z</time>
      </trkpt>
      <trkpt lat="44.44371" lon="1.0885">
        <ele>274.170575</ele>
        <time>2022-01-11T12:50:30.100Z</time>
      </trkpt>
      <trkpt lat="44.44384" lon="1.08834">
        <ele>273.608308</ele>
        <time>2022-01-11T12:50:32.094Z</time>
      </trkpt>
      <trkpt lat="44.44396" lon="1.08818">
        <ele>273.077333</ele>
        <time>2022-01-11T12:50:34.098Z</time>
      </trkpt>
      <trkpt lat="44.44403" lon="1.0881">
        <ele>272.772842</ele>
        <time>2022-01-11T12:50:35.109Z</time>
      </trkpt>
      <trkpt lat="44.44411" lon="1.08802">
        <ele>272.478048</ele>
        <time>2022-01-11T12:50:36.096Z</time>
      </trkpt>
      <trkpt lat="44.44425" lon="1.08787">
        <ele>271.896043</ele>
        <time>2022-01-11T12:50:38.096Z</time>
      </trkpt>
      <trkpt lat="44.44437" lon="1.0877">
        <ele>271.363595</ele>
        <time>2022-01-11T12:50:40.095Z</time>
      </trkpt>
      <trkpt lat="44.44448" lon="1.08755">
        <ele>270.846858</ele>
        <time>2022-01-11T12:50:42.112Z</time>
      </trkpt>
      <trkpt lat="44.4446" lon="1.08738">
        <ele>270.549809</ele>
        <time>2022-01-11T12:50:44.102Z</time>
      </trkpt>
      <trkpt lat="44.44469" lon="1.08718">
        <ele>270.274258</ele>
        <time>2022-01-11T12:50:46.109Z</time>
      </trkpt>
      <trkpt lat="44.44476" lon="1.08698">
        <ele>270.00491</ele>
        <time>2022-01-11T12:50:48.100Z</time>
      </trkpt>
      <trkpt lat="44.44481" lon="1.08677">
        <ele>269.749691</ele>
        <time>2022-01-11T12:50:50.116Z</time>
      </trkpt>
      <trkpt lat="44.44489" lon="1.08655">
        <ele>269.461146</ele>
        <time>2022-01-11T12:50:52.096Z</time>
      </trkpt>
      <trkpt lat="44.44495" lon="1.08635">
        <ele>269.212594</ele>
        <time>2022-01-11T12:50:54.111Z</time>
      </trkpt>
      <trkpt lat="44.44501" lon="1.08618">
        <ele>268.986008</ele>
        <time>2022-01-11T12:50:56.112Z</time>
      </trkpt>
      <trkpt lat="44.44509" lon="1.08599">
        <ele>268.721101</ele>
        <time>2022-01-11T12:50:58.097Z</time>
      </trkpt>
      <trkpt lat="44.44517" lon="1.08582">
        <ele>268.493015</ele>
        <time>2022-01-11T12:51:00.119Z</time>
      </trkpt>
      <trkpt lat="44.44524" lon="1.08566">
        <ele>268.270009</ele>
        <time>2022-01-11T12:51:02.116Z</time>
      </trkpt>
      <trkpt lat="44.44533" lon="1.0855">
        <ele>268.038477</ele>
        <time>2022-01-11T12:51:04.104Z</time>
      </trkpt>
      <trkpt lat="44.44542" lon="1.08534">
        <ele>267.826738</ele>
        <time>2022-01-11T12:51:06.096Z</time>
      </trkpt>
      <trkpt lat="44.44551" lon="1.08519">
        <ele>267.741625</ele>
        <time>2022-01-11T12:51:08.097Z</time>
      </trkpt>
      <trkpt lat="44.44563" lon="1.08505">
        <ele>267.652788</ele>
        <time>2022-01-11T12:51:10.104Z</time>
      </trkpt>
      <trkpt lat="44.44573" lon="1.08493">
        <ele>267.574228</ele>
        <time>2022-01-11T12:51:12.103Z</time>
      </trkpt>
      <trkpt lat="44.44585" lon="1.0848">
        <ele>267.485219</ele>
        <time>2022-01-11T12:51:14.113Z</time>
      </trkpt>
      <trkpt lat="44.44596" lon="1.08468">
        <ele>267.401851</ele>
        <time>2022-01-11T12:51:16.109Z</time>
      </trkpt>
      <trkpt lat="44.44607" lon="1.08454">
        <ele>267.314616</ele>
        <time>2022-01-11T12:51:18.113Z</time>
      </trkpt>
      <trkpt lat="44.44618" lon="1.08441">
        <ele>267.225771</ele>
        <time>2022-01-11T12:51:20.098Z</time>
      </trkpt>
      <trkpt lat="44.44632" lon="1.08431">
        <ele>267.135786</ele>
        <time>2022-01-11T12:51:22.112Z</time>
      </trkpt>
      <trkpt lat="44.44646" lon="1.08422">
        <ele>267.043906</ele>
        <time>2022-01-11T12:51:24.108Z</time>
      </trkpt>
      <trkpt lat="44.44662" lon="1.08415">
        <ele>266.943609</ele>
        <time>2022-01-11T12:51:26.099Z</time>
      </trkpt>
      <trkpt lat="44.44675" lon="1.08414">
        <ele>266.869556</ele>
        <time>2022-01-11T12:51:28.100Z</time>
      </trkpt>
      <trkpt lat="44.44688" lon="1.08413">
        <ele>266.792454</ele>
        <time>2022-01-11T12:51:30.096Z</time>
      </trkpt>
      <trkpt lat="44.44701" lon="1.08415">
        <ele>266.796635</ele>
        <time>2022-01-11T12:51:32.111Z</time>
      </trkpt>
      <trkpt lat="44.44716" lon="1.08418">
        <ele>266.816295</ele>
        <time>2022-01-11T12:51:34.108Z</time>
      </trkpt>
      <trkpt lat="44.4473" lon="1.08423">
        <ele>266.834854</ele>
        <time>2022-01-11T12:51:36.114Z</time>
      </trkpt>
      <trkpt lat="44.44742" lon="1.0843">
        <ele>266.852164</ele>
        <time>2022-01-11T12:51:38.102Z</time>
      </trkpt>
      <trkpt lat="44.44757" lon="1.08435">
        <ele>266.872525</ele>
        <time>2022-01-11T12:51:40.107Z</time>
      </trkpt>
      <trkpt lat="44.44773" lon="1.08441">
        <ele>266.893339</ele>
        <time>2022-01-11T12:51:42.106Z</time>
      </trkpt>
      <trkpt lat="44.44788" lon="1.08449">
        <ele>266.915121</ele>
        <time>2022-01-11T12:51:44.111Z</time>
      </trkpt>
      <trkpt lat="44.44804" lon="1.08455">
        <ele>266.936921</ele>
        <time>2022-01-11T12:51:46.112Z</time>
      </trkpt>
      <trkpt lat="44.44819" lon="1.0846">
        <ele>266.957278</ele>
        <time>2022-01-11T12:51:48.115Z</time>
      </trkpt>
      <trkpt lat="44.44836" lon="1.08463">
        <ele>266.979998</ele>
        <time>2022-01-11T12:51:50.095Z</time>
      </trkpt>
      <trkpt lat="44.44854" lon="1.08463">
        <ele>267.003534</ele>
        <time>2022-01-11T12:51:52.112Z</time>
      </trkpt>
      <trkpt lat="44.44868" lon="1.08455">
        <ele>267.054056</ele>
        <time>2022-01-11T12:51:54.110Z</time>
      </trkpt>
      <trkpt lat="44.44881" lon="1.08446">
        <ele>267.16435</ele>
        <time>2022-01-11T12:51:56.102Z</time>
      </trkpt>
      <trkpt lat="44.44893" lon="1.08436">
        <ele>267.27878</ele>
        <time>2022-01-11T12:51:58.103Z</time>
      </trkpt>
      <trkpt lat="44.44902" lon="1.08431">
        <ele>267.351846</ele>
        <time>2022-01-11T12:51:59.111Z</time>
      </trkpt>
      <trkpt lat="44.44918" lon="1.0842">
        <ele>267.49528</ele>
        <time>2022-01-11T12:52:01.107Z</time>
      </trkpt>
      <trkpt lat="44.4493" lon="1.08408">
        <ele>267.610503</ele>
        <time>2022-01-11T12:52:03.094Z</time>
      </trkpt>
      <trkpt lat="44.44939" lon="1.08394">
        <ele>267.719741</ele>
        <time>2022-01-11T12:52:05.106Z</time>
      </trkpt>
      <trkpt lat="44.44946" lon="1.08381">
        <ele>267.808914</ele>
        <time>2022-01-11T12:52:06.113Z</time>
      </trkpt>
      <trkpt lat="44.44952" lon="1.08364">
        <ele>267.918422</ele>
        <time>2022-01-11T12:52:08.106Z</time>
      </trkpt>
      <trkpt lat="44.44956" lon="1.08344">
        <ele>268.033629</ele>
        <time>2022-01-11T12:52:10.115Z</time>
      </trkpt>
      <trkpt lat="44.44961" lon="1.08323">
        <ele>268.160355</ele>
        <time>2022-01-11T12:52:12.112Z</time>
      </trkpt>
      <trkpt lat="44.44965" lon="1.08304">
        <ele>268.270656</ele>
        <time>2022-01-11T12:52:14.103Z</time>
      </trkpt>
      <trkpt lat="44.44971" lon="1.08284">
        <ele>268.395453</ele>
        <time>2022-01-11T12:52:16.095Z</time>
      </trkpt>
      <trkpt lat="44.44979" lon="1.08267">
        <ele>268.422022</ele>
        <time>2022-01-11T12:52:18.103Z</time>
      </trkpt>
      <trkpt lat="44.44989" lon="1.0825">
        <ele>268.39422</ele>
        <time>2022-01-11T12:52:20.114Z</time>
      </trkpt>
      <trkpt lat="44.45" lon="1.08235">
        <ele>268.366277</ele>
        <time>2022-01-11T12:52:22.106Z</time>
      </trkpt>
      <trkpt lat="44.45011" lon="1.08224">
        <ele>268.341146</ele>
        <time>2022-01-11T12:52:24.101Z</time>
      </trkpt>
      <trkpt lat="44.45026" lon="1.08216">
        <ele>268.311531</ele>
        <time>2022-01-11T12:52:26.112Z</time>
      </trkpt>
      <trkpt lat="44.45039" lon="1.08211">
        <ele>268.286018</ele>
        <time>2022-01-11T12:52:28.112Z</time>
      </trkpt>
      <trkpt lat="44.45049" lon="1.08207">
        <ele>268.267724</ele>
        <time>2022-01-11T12:52:29.107Z</time>
      </trkpt>
      <trkpt lat="44.45062" lon="1.08198">
        <ele>268.241527</ele>
        <time>2022-01-11T12:52:31.107Z</time>
      </trkpt>
      <trkpt lat="44.45077" lon="1.0819">
        <ele>268.211138</ele>
        <time>2022-01-11T12:52:33.103Z</time>
      </trkpt>
      <trkpt lat="44.45093" lon="1.08182">
        <ele>268.181087</ele>
        <time>2022-01-11T12:52:35.100Z</time>
      </trkpt>
      <trkpt lat="44.45109" lon="1.08167">
        <ele>268.145173</ele>
        <time>2022-01-11T12:52:37.100Z</time>
      </trkpt>
      <trkpt lat="44.4512" lon="1.08154">
        <ele>268.118166</ele>
        <time>2022-01-11T12:52:39.104Z</time>
      </trkpt>
      <trkpt lat="44.45127" lon="1.08145">
        <ele>268.074297</ele>
        <time>2022-01-11T12:52:40.118Z</time>
      </trkpt>
      <trkpt lat="44.45137" lon="1.08128">
        <ele>267.929677</ele>
        <time>2022-01-11T12:52:42.110Z</time>
      </trkpt>
      <trkpt lat="44.45145" lon="1.08109">
        <ele>267.7841</ele>
        <time>2022-01-11T12:52:44.113Z</time>
      </trkpt>
      <trkpt lat="44.45151" lon="1.08099">
        <ele>267.697289</ele>
        <time>2022-01-11T12:52:45.097Z</time>
      </trkpt>
      <trkpt lat="44.45158" lon="1.08081">
        <ele>267.565857</ele>
        <time>2022-01-11T12:52:47.109Z</time>
      </trkpt>
      <trkpt lat="44.45163" lon="1.08064">
        <ele>267.441651</ele>
        <time>2022-01-11T12:52:49.102Z</time>
      </trkpt>
      <trkpt lat="44.45166" lon="1.08044">
        <ele>267.309192</ele>
        <time>2022-01-11T12:52:51.098Z</time>
      </trkpt>
      <trkpt lat="44.45168" lon="1.08024">
        <ele>267.179134</ele>
        <time>2022-01-11T12:52:53.107Z</time>
      </trkpt>
      <trkpt lat="44.4517" lon="1.08005">
        <ele>267.056282</ele>
        <time>2022-01-11T12:52:55.114Z</time>
      </trkpt>
      <trkpt lat="44.45172" lon="1.07985">
        <ele>266.923833</ele>
        <time>2022-01-11T12:52:57.099Z</time>
      </trkpt>
      <trkpt lat="44.45175" lon="1.07965">
        <ele>266.789436</ele>
        <time>2022-01-11T12:52:59.109Z</time>
      </trkpt>
      <trkpt lat="44.4518" lon="1.07949">
        <ele>266.674265</ele>
        <time>2022-01-11T12:53:00.110Z</time>
      </trkpt>
      <trkpt lat="44.45188" lon="1.07934">
        <ele>266.549174</ele>
        <time>2022-01-11T12:53:02.096Z</time>
      </trkpt>
      <trkpt lat="44.45193" lon="1.07921">
        <ele>266.457364</ele>
        <time>2022-01-11T12:53:03.103Z</time>
      </trkpt>
      <trkpt lat="44.45204" lon="1.07907">
        <ele>266.312751</ele>
        <time>2022-01-11T12:53:05.111Z</time>
      </trkpt>
      <trkpt lat="44.45209" lon="1.07897">
        <ele>266.224663</ele>
        <time>2022-01-11T12:53:06.106Z</time>
      </trkpt>
      <trkpt lat="44.45216" lon="1.07877">
        <ele>266.076953</ele>
        <time>2022-01-11T12:53:08.103Z</time>
      </trkpt>
      <trkpt lat="44.45224" lon="1.07871">
        <ele>265.98995</ele>
        <time>2022-01-11T12:53:09.100Z</time>
      </trkpt>
      <trkpt lat="44.45231" lon="1.07854">
        <ele>265.858111</ele>
        <time>2022-01-11T12:53:11.096Z</time>
      </trkpt>
      <trkpt lat="44.45241" lon="1.07838">
        <ele>265.711383</ele>
        <time>2022-01-11T12:53:13.109Z</time>
      </trkpt>
      <trkpt lat="44.45256" lon="1.07824">
        <ele>265.536673</ele>
        <time>2022-01-11T12:53:15.094Z</time>
      </trkpt>
      <trkpt lat="44.45267" lon="1.0781">
        <ele>265.395125</ele>
        <time>2022-01-11T12:53:17.115Z</time>
      </trkpt>
      <trkpt lat="44.45281" lon="1.07799">
        <ele>265.240912</ele>
        <time>2022-01-11T12:53:19.101Z</time>
      </trkpt>
      <trkpt lat="44.45293" lon="1.07787">
        <ele>265.101919</ele>
        <time>2022-01-11T12:53:21.100Z</time>
      </trkpt>
      <trkpt lat="44.45305" lon="1.07775">
        <ele>264.959004</ele>
        <time>2022-01-11T12:53:23.104Z</time>
      </trkpt>
      <trkpt lat="44.4532" lon="1.07763">
        <ele>264.79107</ele>
        <time>2022-01-11T12:53:25.100Z</time>
      </trkpt>
      <trkpt lat="44.45335" lon="1.0775">
        <ele>264.663659</ele>
        <time>2022-01-11T12:53:27.100Z</time>
      </trkpt>
      <trkpt lat="44.45344" lon="1.07734">
        <ele>264.573131</ele>
        <time>2022-01-11T12:53:29.107Z</time>
      </trkpt>
      <trkpt lat="44.45354" lon="1.07719">
        <ele>264.48204</ele>
        <time>2022-01-11T12:53:31.112Z</time>
      </trkpt>
      <trkpt lat="44.45358" lon="1.07707">
        <ele>264.42191</ele>
        <time>2022-01-11T12:53:32.105Z</time>
      </trkpt>
      <trkpt lat="44.45361" lon="1.07684">
        <ele>264.318176</ele>
        <time>2022-01-11T12:53:34.102Z</time>
      </trkpt>
      <trkpt lat="44.45366" lon="1.07664">
        <ele>264.221554</ele>
        <time>2022-01-11T12:53:36.113Z</time>
      </trkpt>
      <trkpt lat="44.45374" lon="1.07644">
        <ele>264.122855</ele>
        <time>2022-01-11T12:53:38.106Z</time>
      </trkpt>
      <trkpt lat="44.45385" lon="1.07628">
        <ele>264.023393</ele>
        <time>2022-01-11T12:53:40.105Z</time>
      </trkpt>
      <trkpt lat="44.45393" lon="1.0762">
        <ele>263.960006</ele>
        <time>2022-01-11T12:53:41.112Z</time>
      </trkpt>
      <trkpt lat="44.45402" lon="1.07606">
        <ele>263.877144</ele>
        <time>2022-01-11T12:53:43.108Z</time>
      </trkpt>
      <trkpt lat="44.45412" lon="1.076">
        <ele>263.809815</ele>
        <time>2022-01-11T12:53:44.101Z</time>
      </trkpt>
      <trkpt lat="44.45424" lon="1.07592">
        <ele>263.72209</ele>
        <time>2022-01-11T12:53:46.114Z</time>
      </trkpt>
      <trkpt lat="44.45436" lon="1.07586">
        <ele>263.6448</ele>
        <time>2022-01-11T12:53:48.101Z</time>
      </trkpt>
      <trkpt lat="44.45449" lon="1.07589">
        <ele>263.815896</ele>
        <time>2022-01-11T12:53:50.105Z</time>
      </trkpt>
      <trkpt lat="44.4546" lon="1.07588">
        <ele>264.117254</ele>
        <time>2022-01-11T12:53:52.112Z</time>
      </trkpt>
      <trkpt lat="44.45473" lon="1.07586">
        <ele>264.483701</ele>
        <time>2022-01-11T12:53:54.101Z</time>
      </trkpt>
      <trkpt lat="44.45483" lon="1.07584">
        <ele>264.761048</ele>
        <time>2022-01-11T12:53:56.104Z</time>
      </trkpt>
      <trkpt lat="44.45497" lon="1.07585">
        <ele>265.119367</ele>
        <time>2022-01-11T12:54:00.096Z</time>
      </trkpt>
      <trkpt lat="44.45506" lon="1.0758">
        <ele>265.391458</ele>
        <time>2022-01-11T12:54:01.103Z</time>
      </trkpt>
      <trkpt lat="44.45517" lon="1.07577">
        <ele>265.698403</ele>
        <time>2022-01-11T12:54:03.114Z</time>
      </trkpt>
      <trkpt lat="44.45527" lon="1.07574">
        <ele>265.97565</ele>
        <time>2022-01-11T12:54:05.112Z</time>
      </trkpt>
      <trkpt lat="44.45539" lon="1.07574">
        <ele>266.309127</ele>
        <time>2022-01-11T12:54:08.112Z</time>
      </trkpt>
      <trkpt lat="44.45552" lon="1.07572">
        <ele>266.676803</ele>
        <time>2022-01-11T12:54:11.100Z</time>
      </trkpt>
      <trkpt lat="44.45562" lon="1.07571">
        <ele>266.929687</ele>
        <time>2022-01-11T12:54:13.102Z</time>
      </trkpt>
      <trkpt lat="44.45571" lon="1.07568">
        <ele>267.184712</ele>
        <time>2022-01-11T12:54:15.116Z</time>
      </trkpt>
      <trkpt lat="44.45583" lon="1.07568">
        <ele>267.507172</ele>
        <time>2022-01-11T12:54:18.120Z</time>
      </trkpt>
      <trkpt lat="44.45592" lon="1.07564">
        <ele>267.766687</ele>
        <time>2022-01-11T12:54:20.112Z</time>
      </trkpt>
      <trkpt lat="44.45603" lon="1.07561">
        <ele>268.079407</ele>
        <time>2022-01-11T12:54:22.104Z</time>
      </trkpt>
      <trkpt lat="44.45615" lon="1.07562">
        <ele>268.413482</ele>
        <time>2022-01-11T12:54:25.093Z</time>
      </trkpt>
      <trkpt lat="44.4563" lon="1.07558">
        <ele>268.689849</ele>
        <time>2022-01-11T12:54:28.101Z</time>
      </trkpt>
      <trkpt lat="44.45639" lon="1.07556">
        <ele>268.820633</ele>
        <time>2022-01-11T12:54:30.113Z</time>
      </trkpt>
      <trkpt lat="44.45651" lon="1.07555">
        <ele>268.984507</ele>
        <time>2022-01-11T12:54:33.102Z</time>
      </trkpt>
      <trkpt lat="44.45663" lon="1.07556">
        <ele>269.155987</ele>
        <time>2022-01-11T12:54:36.107Z</time>
      </trkpt>
      <trkpt lat="44.45676" lon="1.07554">
        <ele>269.342496</ele>
        <time>2022-01-11T12:54:39.100Z</time>
      </trkpt>
      <trkpt lat="44.45687" lon="1.07551">
        <ele>269.516214</ele>
        <time>2022-01-11T12:54:42.103Z</time>
      </trkpt>
      <trkpt lat="44.457" lon="1.07549">
        <ele>269.704148</ele>
        <time>2022-01-11T12:54:45.111Z</time>
      </trkpt>
      <trkpt lat="44.45712" lon="1.07546">
        <ele>269.871014</ele>
        <time>2022-01-11T12:54:48.103Z</time>
      </trkpt>
      <trkpt lat="44.45723" lon="1.07539">
        <ele>270.042234</ele>
        <time>2022-01-11T12:54:51.097Z</time>
      </trkpt>
      <trkpt lat="44.4573" lon="1.07529">
        <ele>270.185595</ele>
        <time>2022-01-11T12:54:54.103Z</time>
      </trkpt>
      <trkpt lat="44.45735" lon="1.07513">
        <ele>270.365693</ele>
        <time>2022-01-11T12:54:57.114Z</time>
      </trkpt>
      <trkpt lat="44.45738" lon="1.075">
        <ele>270.506877</ele>
        <time>2022-01-11T12:54:59.107Z</time>
      </trkpt>
      <trkpt lat="44.45741" lon="1.07483">
        <ele>270.690097</ele>
        <time>2022-01-11T12:55:02.099Z</time>
      </trkpt>
      <trkpt lat="44.45748" lon="1.07467">
        <ele>270.874989</ele>
        <time>2022-01-11T12:55:05.117Z</time>
      </trkpt>
      <trkpt lat="44.45752" lon="1.07451">
        <ele>271.053479</ele>
        <time>2022-01-11T12:55:07.113Z</time>
      </trkpt>
      <trkpt lat="44.45756" lon="1.07435">
        <ele>271.014934</ele>
        <time>2022-01-11T12:55:09.105Z</time>
      </trkpt>
      <trkpt lat="44.45765" lon="1.07426">
        <ele>270.893713</ele>
        <time>2022-01-11T12:55:11.106Z</time>
      </trkpt>
      <trkpt lat="44.45771" lon="1.07417">
        <ele>270.78627</ele>
        <time>2022-01-11T12:55:13.100Z</time>
      </trkpt>
      <trkpt lat="44.4578" lon="1.07406">
        <ele>270.650833</ele>
        <time>2022-01-11T12:55:15.110Z</time>
      </trkpt>
      <trkpt lat="44.45793" lon="1.07396">
        <ele>270.486225</ele>
        <time>2022-01-11T12:55:17.113Z</time>
      </trkpt>
      <trkpt lat="44.458" lon="1.07387">
        <ele>270.372957</ele>
        <time>2022-01-11T12:55:19.115Z</time>
      </trkpt>
      <trkpt lat="44.4581" lon="1.0738">
        <ele>270.245864</ele>
        <time>2022-01-11T12:55:21.100Z</time>
      </trkpt>
      <trkpt lat="44.4582" lon="1.07375">
        <ele>270.12184</ele>
        <time>2022-01-11T12:55:22.115Z</time>
      </trkpt>
      <trkpt lat="44.45827" lon="1.07363">
        <ele>269.99778</ele>
        <time>2022-01-11T12:55:24.110Z</time>
      </trkpt>
      <trkpt lat="44.45835" lon="1.07355">
        <ele>269.885573</ele>
        <time>2022-01-11T12:55:26.105Z</time>
      </trkpt>
      <trkpt lat="44.45848" lon="1.07345">
        <ele>269.714019</ele>
        <time>2022-01-11T12:55:28.098Z</time>
      </trkpt>
      <trkpt lat="44.45858" lon="1.07336">
        <ele>269.573239</ele>
        <time>2022-01-11T12:55:30.112Z</time>
      </trkpt>
      <trkpt lat="44.45871" lon="1.07328">
        <ele>269.41123</ele>
        <time>2022-01-11T12:55:32.110Z</time>
      </trkpt>
      <trkpt lat="44.45881" lon="1.07318">
        <ele>269.272772</ele>
        <time>2022-01-11T12:55:34.104Z</time>
      </trkpt>
      <trkpt lat="44.45893" lon="1.0731">
        <ele>269.119631</ele>
        <time>2022-01-11T12:55:36.109Z</time>
      </trkpt>
      <trkpt lat="44.45905" lon="1.07301">
        <ele>268.939762</ele>
        <time>2022-01-11T12:55:38.107Z</time>
      </trkpt>
      <trkpt lat="44.45915" lon="1.07296">
        <ele>268.79387</ele>
        <time>2022-01-11T12:55:39.097Z</time>
      </trkpt>
      <trkpt lat="44.45923" lon="1.07285">
        <ele>268.633188</ele>
        <time>2022-01-11T12:55:41.109Z</time>
      </trkpt>
      <trkpt lat="44.45939" lon="1.07275">
        <ele>268.377562</ele>
        <time>2022-01-11T12:55:43.102Z</time>
      </trkpt>
      <trkpt lat="44.4595" lon="1.07264">
        <ele>268.183469</ele>
        <time>2022-01-11T12:55:45.113Z</time>
      </trkpt>
      <trkpt lat="44.45962" lon="1.07254">
        <ele>267.976334</ele>
        <time>2022-01-11T12:55:47.118Z</time>
      </trkpt>
      <trkpt lat="44.45975" lon="1.07243">
        <ele>267.757083</ele>
        <time>2022-01-11T12:55:49.106Z</time>
      </trkpt>
      <trkpt lat="44.45987" lon="1.0723">
        <ele>267.536313</ele>
        <time>2022-01-11T12:55:51.114Z</time>
      </trkpt>
      <trkpt lat="44.46" lon="1.07219">
        <ele>267.31782</ele>
        <time>2022-01-11T12:55:53.103Z</time>
      </trkpt>
      <trkpt lat="44.46012" lon="1.07207">
        <ele>267.104096</ele>
        <time>2022-01-11T12:55:55.112Z</time>
      </trkpt>
      <trkpt lat="44.46023" lon="1.07196">
        <ele>266.907659</ele>
        <time>2022-01-11T12:55:57.103Z</time>
      </trkpt>
      <trkpt lat="44.46038" lon="1.07184">
        <ele>266.659158</ele>
        <time>2022-01-11T12:55:59.114Z</time>
      </trkpt>
      <trkpt lat="44.4605" lon="1.07171">
        <ele>266.448833</ele>
        <time>2022-01-11T12:56:01.103Z</time>
      </trkpt>
      <trkpt lat="44.46062" lon="1.0716">
        <ele>266.610406</ele>
        <time>2022-01-11T12:56:03.100Z</time>
      </trkpt>
      <trkpt lat="44.46072" lon="1.0715">
        <ele>266.751601</ele>
        <time>2022-01-11T12:56:05.113Z</time>
      </trkpt>
      <trkpt lat="44.46078" lon="1.07139">
        <ele>266.866911</ele>
        <time>2022-01-11T12:56:07.101Z</time>
      </trkpt>
      <trkpt lat="44.46087" lon="1.07133">
        <ele>266.97445</ele>
        <time>2022-01-11T12:56:08.113Z</time>
      </trkpt>
      <trkpt lat="44.46098" lon="1.07123">
        <ele>267.129548</ele>
        <time>2022-01-11T12:56:10.101Z</time>
      </trkpt>
      <trkpt lat="44.46111" lon="1.07115">
        <ele>267.283724</ele>
        <time>2022-01-11T12:56:12.115Z</time>
      </trkpt>
      <trkpt lat="44.4612" lon="1.07105">
        <ele>267.416645</ele>
        <time>2022-01-11T12:56:14.106Z</time>
      </trkpt>
      <trkpt lat="44.46131" lon="1.07097">
        <ele>267.553295</ele>
        <time>2022-01-11T12:56:16.110Z</time>
      </trkpt>
      <trkpt lat="44.46143" lon="1.07087">
        <ele>267.709793</ele>
        <time>2022-01-11T12:56:18.113Z</time>
      </trkpt>
      <trkpt lat="44.46152" lon="1.07078">
        <ele>267.829308</ele>
        <time>2022-01-11T12:56:20.118Z</time>
      </trkpt>
      <trkpt lat="44.46159" lon="1.07067">
        <ele>267.947554</ele>
        <time>2022-01-11T12:56:22.114Z</time>
      </trkpt>
      <trkpt lat="44.46169" lon="1.07063">
        <ele>268.073427</ele>
        <time>2022-01-11T12:56:24.105Z</time>
      </trkpt>
      <trkpt lat="44.46182" lon="1.07056">
        <ele>268.225495</ele>
        <time>2022-01-11T12:56:26.105Z</time>
      </trkpt>
      <trkpt lat="44.46193" lon="1.07052">
        <ele>268.357639</ele>
        <time>2022-01-11T12:56:28.110Z</time>
      </trkpt>
      <trkpt lat="44.46204" lon="1.07048">
        <ele>268.486169</ele>
        <time>2022-01-11T12:56:30.118Z</time>
      </trkpt>
      <trkpt lat="44.46215" lon="1.07044">
        <ele>268.786824</ele>
        <time>2022-01-11T12:56:32.110Z</time>
      </trkpt>
      <trkpt lat="44.46225" lon="1.07039">
        <ele>269.063173</ele>
        <time>2022-01-11T12:56:34.102Z</time>
      </trkpt>
      <trkpt lat="44.46237" lon="1.07034">
        <ele>269.376333</ele>
        <time>2022-01-11T12:56:36.113Z</time>
      </trkpt>
      <trkpt lat="44.4625" lon="1.07028">
        <ele>269.734764</ele>
        <time>2022-01-11T12:56:39.113Z</time>
      </trkpt>
      <trkpt lat="44.46259" lon="1.07024">
        <ele>269.975795</ele>
        <time>2022-01-11T12:56:40.102Z</time>
      </trkpt>
      <trkpt lat="44.46271" lon="1.07019">
        <ele>270.310884</ele>
        <time>2022-01-11T12:56:42.113Z</time>
      </trkpt>
      <trkpt lat="44.46283" lon="1.07016">
        <ele>270.615779</ele>
        <time>2022-01-11T12:56:45.117Z</time>
      </trkpt>
      <trkpt lat="44.46294" lon="1.07012">
        <ele>270.920761</ele>
        <time>2022-01-11T12:56:47.102Z</time>
      </trkpt>
      <trkpt lat="44.46304" lon="1.07008">
        <ele>271.194701</ele>
        <time>2022-01-11T12:56:48.105Z</time>
      </trkpt>
      <trkpt lat="44.46316" lon="1.07003">
        <ele>271.503461</ele>
        <time>2022-01-11T12:56:51.104Z</time>
      </trkpt>
      <trkpt lat="44.46325" lon="1.06997">
        <ele>271.775126</ele>
        <time>2022-01-11T12:56:54.112Z</time>
      </trkpt>
      <trkpt lat="44.46336" lon="1.06992">
        <ele>272.074035</ele>
        <time>2022-01-11T12:56:56.106Z</time>
      </trkpt>
      <trkpt lat="44.46346" lon="1.0699">
        <ele>272.319516</ele>
        <time>2022-01-11T12:56:58.103Z</time>
      </trkpt>
      <trkpt lat="44.46362" lon="1.06987">
        <ele>272.740983</ele>
        <time>2022-01-11T12:57:02.102Z</time>
      </trkpt>
      <trkpt lat="44.46371" lon="1.06982">
        <ele>272.99538</ele>
        <time>2022-01-11T12:57:04.103Z</time>
      </trkpt>
      <trkpt lat="44.4638" lon="1.06976">
        <ele>273.273335</ele>
        <time>2022-01-11T12:57:07.099Z</time>
      </trkpt>
      <trkpt lat="44.4639" lon="1.06975">
        <ele>273.535019</ele>
        <time>2022-01-11T12:57:09.113Z</time>
      </trkpt>
      <trkpt lat="44.46398" lon="1.06965">
        <ele>273.837689</ele>
        <time>2022-01-11T12:57:11.109Z</time>
      </trkpt>
      <trkpt lat="44.4641" lon="1.0696">
        <ele>274.186336</ele>
        <time>2022-01-11T12:57:15.115Z</time>
      </trkpt>
      <trkpt lat="44.46419" lon="1.06955">
        <ele>274.471594</ele>
        <time>2022-01-11T12:57:18.100Z</time>
      </trkpt>
      <trkpt lat="44.4643" lon="1.0695">
        <ele>274.770627</ele>
        <time>2022-01-11T12:57:21.110Z</time>
      </trkpt>
      <trkpt lat="44.4644" lon="1.06945">
        <ele>275.082622</ele>
        <time>2022-01-11T12:57:24.111Z</time>
      </trkpt>
      <trkpt lat="44.4645" lon="1.06939">
        <ele>275.386444</ele>
        <time>2022-01-11T12:57:27.104Z</time>
      </trkpt>
      <trkpt lat="44.4646" lon="1.06934">
        <ele>275.691466</ele>
        <time>2022-01-11T12:57:30.102Z</time>
      </trkpt>
      <trkpt lat="44.46469" lon="1.06928">
        <ele>275.959073</ele>
        <time>2022-01-11T12:57:33.110Z</time>
      </trkpt>
      <trkpt lat="44.46476" lon="1.06918">
        <ele>276.250736</ele>
        <time>2022-01-11T12:57:36.126Z</time>
      </trkpt>
      <trkpt lat="44.46482" lon="1.06904">
        <ele>276.578736</ele>
        <time>2022-01-11T12:57:39.111Z</time>
      </trkpt>
      <trkpt lat="44.46487" lon="1.06891">
        <ele>276.854018</ele>
        <time>2022-01-11T12:57:42.115Z</time>
      </trkpt>
      <trkpt lat="44.46492" lon="1.06881">
        <ele>277.112997</ele>
        <time>2022-01-11T12:57:45.106Z</time>
      </trkpt>
      <trkpt lat="44.46499" lon="1.06867">
        <ele>277.443643</ele>
        <time>2022-01-11T12:57:48.113Z</time>
      </trkpt>
      <trkpt lat="44.46505" lon="1.06853">
        <ele>277.782504</ele>
        <time>2022-01-11T12:57:51.102Z</time>
      </trkpt>
      <trkpt lat="44.46509" lon="1.06836">
        <ele>278.138791</ele>
        <time>2022-01-11T12:57:53.100Z</time>
      </trkpt>
      <trkpt lat="44.46516" lon="1.06821">
        <ele>277.936126</ele>
        <time>2022-01-11T12:57:56.102Z</time>
      </trkpt>
      <trkpt lat="44.46524" lon="1.06811">
        <ele>277.735557</ele>
        <time>2022-01-11T12:57:58.112Z</time>
      </trkpt>
      <trkpt lat="44.46532" lon="1.068">
        <ele>277.525948</ele>
        <time>2022-01-11T12:58:00.112Z</time>
      </trkpt>
      <trkpt lat="44.46542" lon="1.06789">
        <ele>277.280953</ele>
        <time>2022-01-11T12:58:02.111Z</time>
      </trkpt>
      <trkpt lat="44.46555" lon="1.06775">
        <ele>276.979042</ele>
        <time>2022-01-11T12:58:04.102Z</time>
      </trkpt>
      <trkpt lat="44.46568" lon="1.06766">
        <ele>276.704306</ele>
        <time>2022-01-11T12:58:06.095Z</time>
      </trkpt>
      <trkpt lat="44.46582" lon="1.06759">
        <ele>276.429488</ele>
        <time>2022-01-11T12:58:08.099Z</time>
      </trkpt>
      <trkpt lat="44.46598" lon="1.06752">
        <ele>276.097529</ele>
        <time>2022-01-11T12:58:10.114Z</time>
      </trkpt>
      <trkpt lat="44.46616" lon="1.06745">
        <ele>275.747597</ele>
        <time>2022-01-11T12:58:12.107Z</time>
      </trkpt>
      <trkpt lat="44.46626" lon="1.06742">
        <ele>275.564063</ele>
        <time>2022-01-11T12:58:13.115Z</time>
      </trkpt>
      <trkpt lat="44.46635" lon="1.0674">
        <ele>275.383424</ele>
        <time>2022-01-11T12:58:14.101Z</time>
      </trkpt>
      <trkpt lat="44.46645" lon="1.06736">
        <ele>275.183051</ele>
        <time>2022-01-11T12:58:15.097Z</time>
      </trkpt>
      <trkpt lat="44.46656" lon="1.06734">
        <ele>274.988334</ele>
        <time>2022-01-11T12:58:16.096Z</time>
      </trkpt>
      <trkpt lat="44.46666" lon="1.06734">
        <ele>274.795378</ele>
        <time>2022-01-11T12:58:17.111Z</time>
      </trkpt>
      <trkpt lat="44.46675" lon="1.06734">
        <ele>274.159545</ele>
        <time>2022-01-11T12:58:18.095Z</time>
      </trkpt>
      <trkpt lat="44.46686" lon="1.06736">
        <ele>273.377891</ele>
        <time>2022-01-11T12:58:19.103Z</time>
      </trkpt>
      <trkpt lat="44.46696" lon="1.06741">
        <ele>272.599156</ele>
        <time>2022-01-11T12:58:20.114Z</time>
      </trkpt>
      <trkpt lat="44.46705" lon="1.06747">
        <ele>271.817197</ele>
        <time>2022-01-11T12:58:21.101Z</time>
      </trkpt>
      <trkpt lat="44.46715" lon="1.06753">
        <ele>271.01718</ele>
        <time>2022-01-11T12:58:22.118Z</time>
      </trkpt>
      <trkpt lat="44.46724" lon="1.06762">
        <ele>270.195159</ele>
        <time>2022-01-11T12:58:23.106Z</time>
      </trkpt>
      <trkpt lat="44.46733" lon="1.06771">
        <ele>269.366993</ele>
        <time>2022-01-11T12:58:24.123Z</time>
      </trkpt>
      <trkpt lat="44.46738" lon="1.06782">
        <ele>268.659734</ele>
        <time>2022-01-11T12:58:25.113Z</time>
      </trkpt>
      <trkpt lat="44.46741" lon="1.06807">
        <ele>267.323353</ele>
        <time>2022-01-11T12:58:27.104Z</time>
      </trkpt>
      <trkpt lat="44.4674" lon="1.06821">
        <ele>266.54854</ele>
        <time>2022-01-11T12:58:28.098Z</time>
      </trkpt>
      <trkpt lat="44.46739" lon="1.06834">
        <ele>265.871134</ele>
        <time>2022-01-11T12:58:29.109Z</time>
      </trkpt>
      <trkpt lat="44.46737" lon="1.06848">
        <ele>265.136124</ele>
        <time>2022-01-11T12:58:30.103Z</time>
      </trkpt>
      <trkpt lat="44.46734" lon="1.06861">
        <ele>264.3703</ele>
        <time>2022-01-11T12:58:31.116Z</time>
      </trkpt>
      <trkpt lat="44.46732" lon="1.06875">
        <ele>263.601964</ele>
        <time>2022-01-11T12:58:32.101Z</time>
      </trkpt>
      <trkpt lat="44.46731" lon="1.0689">
        <ele>262.817755</ele>
        <time>2022-01-11T12:58:33.095Z</time>
      </trkpt>
      <trkpt lat="44.4673" lon="1.06905">
        <ele>262.032936</ele>
        <time>2022-01-11T12:58:34.100Z</time>
      </trkpt>
      <trkpt lat="44.4673" lon="1.0692">
        <ele>261.249608</ele>
        <time>2022-01-11T12:58:35.112Z</time>
      </trkpt>
      <trkpt lat="44.46732" lon="1.06935">
        <ele>260.51052</ele>
        <time>2022-01-11T12:58:36.091Z</time>
      </trkpt>
      <trkpt lat="44.46734" lon="1.06951">
        <ele>259.721959</ele>
        <time>2022-01-11T12:58:37.117Z</time>
      </trkpt>
      <trkpt lat="44.46737" lon="1.06968">
        <ele>258.915153</ele>
        <time>2022-01-11T12:58:38.093Z</time>
      </trkpt>
      <trkpt lat="44.46739" lon="1.06984">
        <ele>258.10516</ele>
        <time>2022-01-11T12:58:39.091Z</time>
      </trkpt>
      <trkpt lat="44.46742" lon="1.07">
        <ele>257.339177</ele>
        <time>2022-01-11T12:58:40.100Z</time>
      </trkpt>
      <trkpt lat="44.46743" lon="1.07016">
        <ele>256.589623</ele>
        <time>2022-01-11T12:58:41.103Z</time>
      </trkpt>
      <trkpt lat="44.46744" lon="1.07032">
        <ele>255.826794</ele>
        <time>2022-01-11T12:58:42.109Z</time>
      </trkpt>
      <trkpt lat="44.46744" lon="1.07049">
        <ele>255.016457</ele>
        <time>2022-01-11T12:58:43.105Z</time>
      </trkpt>
      <trkpt lat="44.46744" lon="1.07064">
        <ele>254.262949</ele>
        <time>2022-01-11T12:58:44.104Z</time>
      </trkpt>
      <trkpt lat="44.46743" lon="1.07081">
        <ele>253.48468</ele>
        <time>2022-01-11T12:58:45.104Z</time>
      </trkpt>
      <trkpt lat="44.46742" lon="1.07098">
        <ele>252.678777</ele>
        <time>2022-01-11T12:58:46.102Z</time>
      </trkpt>
      <trkpt lat="44.46741" lon="1.07114">
        <ele>251.893048</ele>
        <time>2022-01-11T12:58:47.099Z</time>
      </trkpt>
      <trkpt lat="44.46741" lon="1.07129">
        <ele>251.158592</ele>
        <time>2022-01-11T12:58:48.102Z</time>
      </trkpt>
      <trkpt lat="44.4674" lon="1.07145">
        <ele>250.413622</ele>
        <time>2022-01-11T12:58:49.102Z</time>
      </trkpt>
      <trkpt lat="44.4674" lon="1.07159">
        <ele>249.746343</ele>
        <time>2022-01-11T12:58:50.112Z</time>
      </trkpt>
      <trkpt lat="44.46741" lon="1.07173">
        <ele>249.106474</ele>
        <time>2022-01-11T12:58:51.114Z</time>
      </trkpt>
      <trkpt lat="44.46746" lon="1.07197">
        <ele>248.153504</ele>
        <time>2022-01-11T12:58:53.111Z</time>
      </trkpt>
      <trkpt lat="44.46759" lon="1.07214">
        <ele>247.195847</ele>
        <time>2022-01-11T12:58:55.106Z</time>
      </trkpt>
      <trkpt lat="44.46775" lon="1.07221">
        <ele>246.257785</ele>
        <time>2022-01-11T12:58:57.114Z</time>
      </trkpt>
      <trkpt lat="44.46792" lon="1.07213">
        <ele>245.303323</ele>
        <time>2022-01-11T12:58:59.100Z</time>
      </trkpt>
      <trkpt lat="44.468" lon="1.07205">
        <ele>244.769266</ele>
        <time>2022-01-11T12:59:00.101Z</time>
      </trkpt>
      <trkpt lat="44.46806" lon="1.07194">
        <ele>244.230999</ele>
        <time>2022-01-11T12:59:01.091Z</time>
      </trkpt>
      <trkpt lat="44.46812" lon="1.07184">
        <ele>243.716602</ele>
        <time>2022-01-11T12:59:02.096Z</time>
      </trkpt>
      <trkpt lat="44.46818" lon="1.07173">
        <ele>243.159566</ele>
        <time>2022-01-11T12:59:03.108Z</time>
      </trkpt>
      <trkpt lat="44.46823" lon="1.07161">
        <ele>242.601909</ele>
        <time>2022-01-11T12:59:04.120Z</time>
      </trkpt>
      <trkpt lat="44.46829" lon="1.07148">
        <ele>242.034995</ele>
        <time>2022-01-11T12:59:05.110Z</time>
      </trkpt>
      <trkpt lat="44.46834" lon="1.07132">
        <ele>241.333284</ele>
        <time>2022-01-11T12:59:06.125Z</time>
      </trkpt>
      <trkpt lat="44.4684" lon="1.07117">
        <ele>240.682556</ele>
        <time>2022-01-11T12:59:07.117Z</time>
      </trkpt>
      <trkpt lat="44.46844" lon="1.07104">
        <ele>240.087976</ele>
        <time>2022-01-11T12:59:08.118Z</time>
      </trkpt>
      <trkpt lat="44.46849" lon="1.07088">
        <ele>239.402325</ele>
        <time>2022-01-11T12:59:09.114Z</time>
      </trkpt>
      <trkpt lat="44.46852" lon="1.07072">
        <ele>238.490107</ele>
        <time>2022-01-11T12:59:10.100Z</time>
      </trkpt>
      <trkpt lat="44.46858" lon="1.07059">
        <ele>237.65818</ele>
        <time>2022-01-11T12:59:11.102Z</time>
      </trkpt>
      <trkpt lat="44.46859" lon="1.07044">
        <ele>236.78504</ele>
        <time>2022-01-11T12:59:12.113Z</time>
      </trkpt>
      <trkpt lat="44.46862" lon="1.07028">
        <ele>235.918916</ele>
        <time>2022-01-11T12:59:13.100Z</time>
      </trkpt>
      <trkpt lat="44.46862" lon="1.07011">
        <ele>234.979872</ele>
        <time>2022-01-11T12:59:14.105Z</time>
      </trkpt>
      <trkpt lat="44.46863" lon="1.06995">
        <ele>234.08889</ele>
        <time>2022-01-11T12:59:15.114Z</time>
      </trkpt>
      <trkpt lat="44.46864" lon="1.06978">
        <ele>233.179124</ele>
        <time>2022-01-11T12:59:16.093Z</time>
      </trkpt>
      <trkpt lat="44.46867" lon="1.06961">
        <ele>232.192842</ele>
        <time>2022-01-11T12:59:17.101Z</time>
      </trkpt>
      <trkpt lat="44.46869" lon="1.06943">
        <ele>231.193823</ele>
        <time>2022-01-11T12:59:18.112Z</time>
      </trkpt>
      <trkpt lat="44.46872" lon="1.06928">
        <ele>230.330394</ele>
        <time>2022-01-11T12:59:19.100Z</time>
      </trkpt>
      <trkpt lat="44.46877" lon="1.0691">
        <ele>229.279577</ele>
        <time>2022-01-11T12:59:20.097Z</time>
      </trkpt>
      <trkpt lat="44.46886" lon="1.06895">
        <ele>228.21708</ele>
        <time>2022-01-11T12:59:21.103Z</time>
      </trkpt>
      <trkpt lat="44.46896" lon="1.0688">
        <ele>227.070344</ele>
        <time>2022-01-11T12:59:22.100Z</time>
      </trkpt>
      <trkpt lat="44.46909" lon="1.06873">
        <ele>226.012003</ele>
        <time>2022-01-11T12:59:23.103Z</time>
      </trkpt>
      <trkpt lat="44.46923" lon="1.06866">
        <ele>224.801896</ele>
        <time>2022-01-11T12:59:24.092Z</time>
      </trkpt>
      <trkpt lat="44.46932" lon="1.06853">
        <ele>223.665913</ele>
        <time>2022-01-11T12:59:25.097Z</time>
      </trkpt>
      <trkpt lat="44.4694" lon="1.06842">
        <ele>222.644991</ele>
        <time>2022-01-11T12:59:26.104Z</time>
      </trkpt>
      <trkpt lat="44.46948" lon="1.06831">
        <ele>221.634824</ele>
        <time>2022-01-11T12:59:27.095Z</time>
      </trkpt>
      <trkpt lat="44.46961" lon="1.06824">
        <ele>220.420127</ele>
        <time>2022-01-11T12:59:28.115Z</time>
      </trkpt>
      <trkpt lat="44.46971" lon="1.06816">
        <ele>219.418744</ele>
        <time>2022-01-11T12:59:29.097Z</time>
      </trkpt>
      <trkpt lat="44.46981" lon="1.06807">
        <ele>218.351013</ele>
        <time>2022-01-11T12:59:30.100Z</time>
      </trkpt>
      <trkpt lat="44.46992" lon="1.06797">
        <ele>217.217436</ele>
        <time>2022-01-11T12:59:31.096Z</time>
      </trkpt>
      <trkpt lat="44.47003" lon="1.06786">
        <ele>216.003122</ele>
        <time>2022-01-11T12:59:32.090Z</time>
      </trkpt>
      <trkpt lat="44.47014" lon="1.06776">
        <ele>214.846849</ele>
        <time>2022-01-11T12:59:33.103Z</time>
      </trkpt>
      <trkpt lat="44.47025" lon="1.06767">
        <ele>213.746174</ele>
        <time>2022-01-11T12:59:34.102Z</time>
      </trkpt>
      <trkpt lat="44.47036" lon="1.06758">
        <ele>212.610206</ele>
        <time>2022-01-11T12:59:35.111Z</time>
      </trkpt>
      <trkpt lat="44.47047" lon="1.06748">
        <ele>211.465823</ele>
        <time>2022-01-11T12:59:36.112Z</time>
      </trkpt>
      <trkpt lat="44.47057" lon="1.0674">
        <ele>210.434428</ele>
        <time>2022-01-11T12:59:37.101Z</time>
      </trkpt>
      <trkpt lat="44.47069" lon="1.06733">
        <ele>209.44747</ele>
        <time>2022-01-11T12:59:38.096Z</time>
      </trkpt>
      <trkpt lat="44.4708" lon="1.06723">
        <ele>208.626281</ele>
        <time>2022-01-11T12:59:39.097Z</time>
      </trkpt>
      <trkpt lat="44.47094" lon="1.0672">
        <ele>207.742595</ele>
        <time>2022-01-11T12:59:40.111Z</time>
      </trkpt>
      <trkpt lat="44.47106" lon="1.06719">
        <ele>207.009148</ele>
        <time>2022-01-11T12:59:41.113Z</time>
      </trkpt>
      <trkpt lat="44.47116" lon="1.06717">
        <ele>206.369095</ele>
        <time>2022-01-11T12:59:42.105Z</time>
      </trkpt>
      <trkpt lat="44.47127" lon="1.06717">
        <ele>205.698575</ele>
        <time>2022-01-11T12:59:43.104Z</time>
      </trkpt>
      <trkpt lat="44.47137" lon="1.06723">
        <ele>205.038502</ele>
        <time>2022-01-11T12:59:44.108Z</time>
      </trkpt>
      <trkpt lat="44.47147" lon="1.06725">
        <ele>204.3756</ele>
        <time>2022-01-11T12:59:45.112Z</time>
      </trkpt>
      <trkpt lat="44.47156" lon="1.06732">
        <ele>203.73869</ele>
        <time>2022-01-11T12:59:46.113Z</time>
      </trkpt>
      <trkpt lat="44.47167" lon="1.06749">
        <ele>202.711286</ele>
        <time>2022-01-11T12:59:48.111Z</time>
      </trkpt>
      <trkpt lat="44.47169" lon="1.06761">
        <ele>202.140905</ele>
        <time>2022-01-11T12:59:49.102Z</time>
      </trkpt>
      <trkpt lat="44.47173" lon="1.06775">
        <ele>201.504507</ele>
        <time>2022-01-11T12:59:50.120Z</time>
      </trkpt>
      <trkpt lat="44.47181" lon="1.06798">
        <ele>200.336118</ele>
        <time>2022-01-11T12:59:52.113Z</time>
      </trkpt>
      <trkpt lat="44.47183" lon="1.06814">
        <ele>199.644663</ele>
        <time>2022-01-11T12:59:53.100Z</time>
      </trkpt>
      <trkpt lat="44.47187" lon="1.06827">
        <ele>199.018646</ele>
        <time>2022-01-11T12:59:54.109Z</time>
      </trkpt>
      <trkpt lat="44.4719" lon="1.06842">
        <ele>198.7823</ele>
        <time>2022-01-11T12:59:55.113Z</time>
      </trkpt>
      <trkpt lat="44.47193" lon="1.06858">
        <ele>199.189788</ele>
        <time>2022-01-11T12:59:56.116Z</time>
      </trkpt>
      <trkpt lat="44.47197" lon="1.06872">
        <ele>199.576607</ele>
        <time>2022-01-11T12:59:57.107Z</time>
      </trkpt>
      <trkpt lat="44.47201" lon="1.06886">
        <ele>199.980545</ele>
        <time>2022-01-11T12:59:58.108Z</time>
      </trkpt>
      <trkpt lat="44.47205" lon="1.06901">
        <ele>200.389303</ele>
        <time>2022-01-11T12:59:59.106Z</time>
      </trkpt>
      <trkpt lat="44.47209" lon="1.06916">
        <ele>200.82133</ele>
        <time>2022-01-11T13:00:00.090Z</time>
      </trkpt>
      <trkpt lat="44.47214" lon="1.0693">
        <ele>201.21943</ele>
        <time>2022-01-11T13:00:01.101Z</time>
      </trkpt>
      <trkpt lat="44.47218" lon="1.06945">
        <ele>201.629888</ele>
        <time>2022-01-11T13:00:02.116Z</time>
      </trkpt>
      <trkpt lat="44.47222" lon="1.06958">
        <ele>201.999438</ele>
        <time>2022-01-11T13:00:03.115Z</time>
      </trkpt>
      <trkpt lat="44.47226" lon="1.06971">
        <ele>202.372684</ele>
        <time>2022-01-11T13:00:04.108Z</time>
      </trkpt>
      <trkpt lat="44.47231" lon="1.06984">
        <ele>202.755156</ele>
        <time>2022-01-11T13:00:05.098Z</time>
      </trkpt>
      <trkpt lat="44.47238" lon="1.06997">
        <ele>203.168437</ele>
        <time>2022-01-11T13:00:06.093Z</time>
      </trkpt>
      <trkpt lat="44.47245" lon="1.07009">
        <ele>203.570528</ele>
        <time>2022-01-11T13:00:07.105Z</time>
      </trkpt>
      <trkpt lat="44.47253" lon="1.07018">
        <ele>203.928889</ele>
        <time>2022-01-11T13:00:08.113Z</time>
      </trkpt>
      <trkpt lat="44.47262" lon="1.07026">
        <ele>204.328825</ele>
        <time>2022-01-11T13:00:09.111Z</time>
      </trkpt>
      <trkpt lat="44.47272" lon="1.07033">
        <ele>204.729995</ele>
        <time>2022-01-11T13:00:10.098Z</time>
      </trkpt>
      <trkpt lat="44.47284" lon="1.0704">
        <ele>205.093494</ele>
        <time>2022-01-11T13:00:11.103Z</time>
      </trkpt>
      <trkpt lat="44.47296" lon="1.07042">
        <ele>204.791153</ele>
        <time>2022-01-11T13:00:12.103Z</time>
      </trkpt>
      <trkpt lat="44.47308" lon="1.07041">
        <ele>204.495664</ele>
        <time>2022-01-11T13:00:13.106Z</time>
      </trkpt>
      <trkpt lat="44.4732" lon="1.07037">
        <ele>204.187357</ele>
        <time>2022-01-11T13:00:14.109Z</time>
      </trkpt>
      <trkpt lat="44.47333" lon="1.07033">
        <ele>203.88182</ele>
        <time>2022-01-11T13:00:15.107Z</time>
      </trkpt>
      <trkpt lat="44.47344" lon="1.07026">
        <ele>203.575058</ele>
        <time>2022-01-11T13:00:16.114Z</time>
      </trkpt>
      <trkpt lat="44.47355" lon="1.07018">
        <ele>203.28273</ele>
        <time>2022-01-11T13:00:17.093Z</time>
      </trkpt>
      <trkpt lat="44.47365" lon="1.07009">
        <ele>202.978507</ele>
        <time>2022-01-11T13:00:18.107Z</time>
      </trkpt>
      <trkpt lat="44.47375" lon="1.06999">
        <ele>202.680446</ele>
        <time>2022-01-11T13:00:19.100Z</time>
      </trkpt>
      <trkpt lat="44.47384" lon="1.06989">
        <ele>202.401915</ele>
        <time>2022-01-11T13:00:20.112Z</time>
      </trkpt>
      <trkpt lat="44.47393" lon="1.06978">
        <ele>202.116974</ele>
        <time>2022-01-11T13:00:21.111Z</time>
      </trkpt>
      <trkpt lat="44.47401" lon="1.06967">
        <ele>201.848155</ele>
        <time>2022-01-11T13:00:22.113Z</time>
      </trkpt>
      <trkpt lat="44.47407" lon="1.06955">
        <ele>201.586932</ele>
        <time>2022-01-11T13:00:23.109Z</time>
      </trkpt>
      <trkpt lat="44.47414" lon="1.06944">
        <ele>201.319573</ele>
        <time>2022-01-11T13:00:24.108Z</time>
      </trkpt>
      <trkpt lat="44.4742" lon="1.06931">
        <ele>201.057194</ele>
        <time>2022-01-11T13:00:25.103Z</time>
      </trkpt>
      <trkpt lat="44.47426" lon="1.0692">
        <ele>200.809</ele>
        <time>2022-01-11T13:00:26.112Z</time>
      </trkpt>
      <trkpt lat="44.47432" lon="1.06908">
        <ele>200.356527</ele>
        <time>2022-01-11T13:00:27.115Z</time>
      </trkpt>
      <trkpt lat="44.47437" lon="1.06897">
        <ele>199.861546</ele>
        <time>2022-01-11T13:00:28.103Z</time>
      </trkpt>
      <trkpt lat="44.47444" lon="1.06888">
        <ele>199.340738</ele>
        <time>2022-01-11T13:00:29.100Z</time>
      </trkpt>
      <trkpt lat="44.4745" lon="1.06877">
        <ele>198.855185</ele>
        <time>2022-01-11T13:00:30.101Z</time>
      </trkpt>
      <trkpt lat="44.47455" lon="1.06865">
        <ele>198.315469</ele>
        <time>2022-01-11T13:00:31.094Z</time>
      </trkpt>
      <trkpt lat="44.4746" lon="1.06853">
        <ele>197.789105</ele>
        <time>2022-01-11T13:00:32.099Z</time>
      </trkpt>
      <trkpt lat="44.47466" lon="1.06841">
        <ele>197.250336</ele>
        <time>2022-01-11T13:00:33.105Z</time>
      </trkpt>
      <trkpt lat="44.47472" lon="1.06832">
        <ele>196.76258</ele>
        <time>2022-01-11T13:00:34.105Z</time>
      </trkpt>
      <trkpt lat="44.47479" lon="1.0682">
        <ele>196.205784</ele>
        <time>2022-01-11T13:00:35.111Z</time>
      </trkpt>
      <trkpt lat="44.47485" lon="1.0681">
        <ele>195.691282</ele>
        <time>2022-01-11T13:00:36.100Z</time>
      </trkpt>
      <trkpt lat="44.47491" lon="1.068">
        <ele>195.204795</ele>
        <time>2022-01-11T13:00:37.111Z</time>
      </trkpt>
      <trkpt lat="44.47497" lon="1.0679">
        <ele>194.708145</ele>
        <time>2022-01-11T13:00:38.099Z</time>
      </trkpt>
      <trkpt lat="44.47503" lon="1.06779">
        <ele>194.152996</ele>
        <time>2022-01-11T13:00:39.112Z</time>
      </trkpt>
      <trkpt lat="44.4751" lon="1.06767">
        <ele>193.605407</ele>
        <time>2022-01-11T13:00:40.114Z</time>
      </trkpt>
      <trkpt lat="44.47516" lon="1.06757">
        <ele>193.113341</ele>
        <time>2022-01-11T13:00:41.100Z</time>
      </trkpt>
      <trkpt lat="44.47522" lon="1.06747">
        <ele>192.597749</ele>
        <time>2022-01-11T13:00:42.112Z</time>
      </trkpt>
      <trkpt lat="44.47528" lon="1.06736">
        <ele>192.090637</ele>
        <time>2022-01-11T13:00:43.107Z</time>
      </trkpt>
      <trkpt lat="44.47533" lon="1.06725">
        <ele>191.595817</ele>
        <time>2022-01-11T13:00:44.105Z</time>
      </trkpt>
      <trkpt lat="44.47538" lon="1.06715">
        <ele>190.851322</ele>
        <time>2022-01-11T13:00:45.107Z</time>
      </trkpt>
      <trkpt lat="44.47544" lon="1.06704">
        <ele>189.160428</ele>
        <time>2022-01-11T13:00:46.108Z</time>
      </trkpt>
      <trkpt lat="44.47549" lon="1.06693">
        <ele>187.521292</ele>
        <time>2022-01-11T13:00:47.105Z</time>
      </trkpt>
      <trkpt lat="44.47555" lon="1.06683">
        <ele>185.887413</ele>
        <time>2022-01-11T13:00:48.110Z</time>
      </trkpt>
      <trkpt lat="44.47566" lon="1.06663">
        <ele>182.638603</ele>
        <time>2022-01-11T13:00:50.102Z</time>
      </trkpt>
      <trkpt lat="44.47577" lon="1.06644">
        <ele>179.472111</ele>
        <time>2022-01-11T13:00:52.115Z</time>
      </trkpt>
      <trkpt lat="44.47583" lon="1.06634">
        <ele>177.855484</ele>
        <time>2022-01-11T13:00:53.100Z</time>
      </trkpt>
      <trkpt lat="44.47588" lon="1.06624">
        <ele>176.206215</ele>
        <time>2022-01-11T13:00:54.117Z</time>
      </trkpt>
      <trkpt lat="44.47599" lon="1.06604">
        <ele>172.967504</ele>
        <time>2022-01-11T13:00:56.104Z</time>
      </trkpt>
      <trkpt lat="44.4761" lon="1.06584">
        <ele>169.823507</ele>
        <time>2022-01-11T13:00:58.114Z</time>
      </trkpt>
      <trkpt lat="44.47616" lon="1.06573">
        <ele>168.063852</ele>
        <time>2022-01-11T13:00:59.114Z</time>
      </trkpt>
      <trkpt lat="44.47628" lon="1.06554">
        <ele>164.782631</ele>
        <time>2022-01-11T13:01:01.106Z</time>
      </trkpt>
      <trkpt lat="44.47634" lon="1.06544">
        <ele>163.120674</ele>
        <time>2022-01-11T13:01:02.096Z</time>
      </trkpt>
      <trkpt lat="44.4764" lon="1.06533">
        <ele>161.405202</ele>
        <time>2022-01-11T13:01:03.112Z</time>
      </trkpt>
      <trkpt lat="44.47652" lon="1.06515">
        <ele>159.081493</ele>
        <time>2022-01-11T13:01:05.112Z</time>
      </trkpt>
      <trkpt lat="44.47657" lon="1.06504">
        <ele>159.028686</ele>
        <time>2022-01-11T13:01:06.100Z</time>
      </trkpt>
      <trkpt lat="44.47668" lon="1.06484">
        <ele>158.927471</ele>
        <time>2022-01-11T13:01:08.104Z</time>
      </trkpt>
      <trkpt lat="44.47674" lon="1.06474">
        <ele>158.875635</ele>
        <time>2022-01-11T13:01:09.114Z</time>
      </trkpt>
      <trkpt lat="44.47685" lon="1.06454">
        <ele>158.774805</ele>
        <time>2022-01-11T13:01:11.114Z</time>
      </trkpt>
      <trkpt lat="44.47696" lon="1.06436">
        <ele>158.67935</ele>
        <time>2022-01-11T13:01:13.100Z</time>
      </trkpt>
      <trkpt lat="44.47706" lon="1.06415">
        <ele>158.580518</ele>
        <time>2022-01-11T13:01:15.108Z</time>
      </trkpt>
      <trkpt lat="44.47711" lon="1.06393">
        <ele>158.486795</ele>
        <time>2022-01-11T13:01:17.106Z</time>
      </trkpt>
      <trkpt lat="44.47709" lon="1.06369">
        <ele>158.388959</ele>
        <time>2022-01-11T13:01:19.115Z</time>
      </trkpt>
      <trkpt lat="44.47705" lon="1.06345">
        <ele>158.290638</ele>
        <time>2022-01-11T13:01:21.106Z</time>
      </trkpt>
      <trkpt lat="44.47704" lon="1.06332">
        <ele>158.238942</ele>
        <time>2022-01-11T13:01:22.113Z</time>
      </trkpt>
      <trkpt lat="44.47704" lon="1.06306">
        <ele>158.136807</ele>
        <time>2022-01-11T13:01:24.100Z</time>
      </trkpt>
      <trkpt lat="44.47703" lon="1.06293">
        <ele>158.695758</ele>
        <time>2022-01-11T13:01:25.106Z</time>
      </trkpt>
      <trkpt lat="44.47703" lon="1.0628">
        <ele>160.773673</ele>
        <time>2022-01-11T13:01:26.112Z</time>
      </trkpt>
      <trkpt lat="44.47702" lon="1.06267">
        <ele>162.97871</ele>
        <time>2022-01-11T13:01:27.116Z</time>
      </trkpt>
      <trkpt lat="44.47703" lon="1.06254">
        <ele>165.08025</ele>
        <time>2022-01-11T13:01:28.105Z</time>
      </trkpt>
      <trkpt lat="44.4771" lon="1.06242">
        <ele>167.619596</ele>
        <time>2022-01-11T13:01:29.101Z</time>
      </trkpt>
      <trkpt lat="44.47722" lon="1.06222">
        <ele>171.895301</ele>
        <time>2022-01-11T13:01:31.116Z</time>
      </trkpt>
      <trkpt lat="44.47734" lon="1.06203">
        <ele>175.989188</ele>
        <time>2022-01-11T13:01:33.105Z</time>
      </trkpt>
      <trkpt lat="44.4774" lon="1.06193">
        <ele>178.068143</ele>
        <time>2022-01-11T13:01:34.108Z</time>
      </trkpt>
      <trkpt lat="44.47751" lon="1.06176">
        <ele>181.856192</ele>
        <time>2022-01-11T13:01:36.105Z</time>
      </trkpt>
      <trkpt lat="44.47755" lon="1.06164">
        <ele>184.054629</ele>
        <time>2022-01-11T13:01:37.097Z</time>
      </trkpt>
      <trkpt lat="44.4776" lon="1.06153">
        <ele>186.14728</ele>
        <time>2022-01-11T13:01:38.111Z</time>
      </trkpt>
      <trkpt lat="44.47766" lon="1.0613">
        <ele>190.160067</ele>
        <time>2022-01-11T13:01:40.100Z</time>
      </trkpt>
      <trkpt lat="44.4777" lon="1.06116">
        <ele>192.483889</ele>
        <time>2022-01-11T13:01:41.112Z</time>
      </trkpt>
      <trkpt lat="44.4777" lon="1.06103">
        <ele>194.614346</ele>
        <time>2022-01-11T13:01:42.111Z</time>
      </trkpt>
      <trkpt lat="44.47771" lon="1.06078">
        <ele>198.610981</ele>
        <time>2022-01-11T13:01:44.105Z</time>
      </trkpt>
      <trkpt lat="44.47771" lon="1.06065">
        <ele>198.158216</ele>
        <time>2022-01-11T13:01:45.108Z</time>
      </trkpt>
      <trkpt lat="44.47773" lon="1.06051">
        <ele>197.032931</ele>
        <time>2022-01-11T13:01:46.108Z</time>
      </trkpt>
      <trkpt lat="44.47771" lon="1.06038">
        <ele>195.976765</ele>
        <time>2022-01-11T13:01:47.113Z</time>
      </trkpt>
      <trkpt lat="44.47777" lon="1.06027">
        <ele>194.873635</ele>
        <time>2022-01-11T13:01:48.100Z</time>
      </trkpt>
      <trkpt lat="44.4778" lon="1.06015">
        <ele>193.837796</ele>
        <time>2022-01-11T13:01:49.110Z</time>
      </trkpt>
      <trkpt lat="44.47787" lon="1.06004">
        <ele>192.738558</ele>
        <time>2022-01-11T13:01:50.106Z</time>
      </trkpt>
      <trkpt lat="44.47793" lon="1.05994">
        <ele>191.65861</ele>
        <time>2022-01-11T13:01:51.112Z</time>
      </trkpt>
      <trkpt lat="44.47805" lon="1.05977">
        <ele>189.729034</ele>
        <time>2022-01-11T13:01:53.104Z</time>
      </trkpt>
      <trkpt lat="44.47813" lon="1.05969">
        <ele>188.669388</ele>
        <time>2022-01-11T13:01:54.115Z</time>
      </trkpt>
      <trkpt lat="44.47822" lon="1.05963">
        <ele>187.572624</ele>
        <time>2022-01-11T13:01:55.113Z</time>
      </trkpt>
      <trkpt lat="44.47835" lon="1.05948">
        <ele>185.689018</ele>
        <time>2022-01-11T13:01:57.110Z</time>
      </trkpt>
      <trkpt lat="44.47847" lon="1.05931">
        <ele>183.855688</ele>
        <time>2022-01-11T13:01:59.100Z</time>
      </trkpt>
      <trkpt lat="44.47853" lon="1.05909">
        <ele>181.965811</ele>
        <time>2022-01-11T13:02:01.108Z</time>
      </trkpt>
      <trkpt lat="44.47851" lon="1.05887">
        <ele>180.189861</ele>
        <time>2022-01-11T13:02:03.114Z</time>
      </trkpt>
      <trkpt lat="44.47843" lon="1.05867">
        <ele>177.667652</ele>
        <time>2022-01-11T13:02:05.093Z</time>
      </trkpt>
      <trkpt lat="44.47835" lon="1.05845">
        <ele>173.726981</ele>
        <time>2022-01-11T13:02:07.120Z</time>
      </trkpt>
      <trkpt lat="44.4783" lon="1.05834">
        <ele>171.607075</ele>
        <time>2022-01-11T13:02:08.118Z</time>
      </trkpt>
      <trkpt lat="44.47825" lon="1.05822">
        <ele>169.388254</ele>
        <time>2022-01-11T13:02:09.105Z</time>
      </trkpt>
      <trkpt lat="44.47822" lon="1.0581">
        <ele>167.219718</ele>
        <time>2022-01-11T13:02:10.119Z</time>
      </trkpt>
      <trkpt lat="44.47822" lon="1.05797">
        <ele>165.119816</ele>
        <time>2022-01-11T13:02:11.113Z</time>
      </trkpt>
      <trkpt lat="44.47825" lon="1.05782">
        <ele>162.726462</ele>
        <time>2022-01-11T13:02:12.104Z</time>
      </trkpt>
      <trkpt lat="44.47831" lon="1.0577">
        <ele>160.188006</ele>
        <time>2022-01-11T13:02:13.090Z</time>
      </trkpt>
      <trkpt lat="44.47838" lon="1.05756">
        <ele>157.53001</ele>
        <time>2022-01-11T13:02:14.091Z</time>
      </trkpt>
      <trkpt lat="44.47846" lon="1.05736">
        <ele>153.719623</ele>
        <time>2022-01-11T13:02:16.120Z</time>
      </trkpt>
      <trkpt lat="44.4785" lon="1.05723">
        <ele>151.520996</ele>
        <time>2022-01-11T13:02:17.110Z</time>
      </trkpt>
      <trkpt lat="44.47856" lon="1.05711">
        <ele>149.245792</ele>
        <time>2022-01-11T13:02:18.096Z</time>
      </trkpt>
      <trkpt lat="44.4786" lon="1.05698">
        <ele>146.920867</ele>
        <time>2022-01-11T13:02:19.100Z</time>
      </trkpt>
      <trkpt lat="44.47864" lon="1.05686">
        <ele>144.776851</ele>
        <time>2022-01-11T13:02:20.109Z</time>
      </trkpt>
      <trkpt lat="44.47869" lon="1.05675">
        <ele>142.63919</ele>
        <time>2022-01-11T13:02:21.094Z</time>
      </trkpt>
      <trkpt lat="44.47873" lon="1.05661">
        <ele>140.247492</ele>
        <time>2022-01-11T13:02:22.096Z</time>
      </trkpt>
      <trkpt lat="44.47877" lon="1.0565">
        <ele>138.300068</ele>
        <time>2022-01-11T13:02:23.106Z</time>
      </trkpt>
      <trkpt lat="44.47882" lon="1.05638">
        <ele>137.865275</ele>
        <time>2022-01-11T13:02:24.101Z</time>
      </trkpt>
      <trkpt lat="44.47886" lon="1.05626">
        <ele>137.4398</ele>
        <time>2022-01-11T13:02:25.096Z</time>
      </trkpt>
      <trkpt lat="44.4789" lon="1.05612">
        <ele>136.958878</ele>
        <time>2022-01-11T13:02:26.112Z</time>
      </trkpt>
      <trkpt lat="44.47894" lon="1.056">
        <ele>136.53367</ele>
        <time>2022-01-11T13:02:27.113Z</time>
      </trkpt>
      <trkpt lat="44.47899" lon="1.05575">
        <ele>135.725757</ele>
        <time>2022-01-11T13:02:29.098Z</time>
      </trkpt>
      <trkpt lat="44.479" lon="1.05551">
        <ele>134.953352</ele>
        <time>2022-01-11T13:02:31.110Z</time>
      </trkpt>
      <trkpt lat="44.47896" lon="1.05539">
        <ele>134.551056</ele>
        <time>2022-01-11T13:02:32.108Z</time>
      </trkpt>
      <trkpt lat="44.4789" lon="1.05529">
        <ele>134.121238</ele>
        <time>2022-01-11T13:02:33.103Z</time>
      </trkpt>
      <trkpt lat="44.47878" lon="1.05513">
        <ele>133.385346</ele>
        <time>2022-01-11T13:02:35.094Z</time>
      </trkpt>
      <trkpt lat="44.47868" lon="1.05495">
        <ele>132.661184</ele>
        <time>2022-01-11T13:02:37.099Z</time>
      </trkpt>
      <trkpt lat="44.47865" lon="1.0548">
        <ele>132.141017</ele>
        <time>2022-01-11T13:02:39.097Z</time>
      </trkpt>
      <trkpt lat="44.47874" lon="1.05466">
        <ele>131.532305</ele>
        <time>2022-01-11T13:02:40.105Z</time>
      </trkpt>
      <trkpt lat="44.4788" lon="1.05444">
        <ele>130.783274</ele>
        <time>2022-01-11T13:02:42.099Z</time>
      </trkpt>
      <trkpt lat="44.47884" lon="1.05432">
        <ele>130.373343</ele>
        <time>2022-01-11T13:02:44.092Z</time>
      </trkpt>
      <trkpt lat="44.47887" lon="1.0542">
        <ele>130.056258</ele>
        <time>2022-01-11T13:02:46.111Z</time>
      </trkpt>
      <trkpt lat="44.47888" lon="1.05407">
        <ele>129.761899</ele>
        <time>2022-01-11T13:02:48.111Z</time>
      </trkpt>
      <trkpt lat="44.47895" lon="1.05396">
        <ele>129.424759</ele>
        <time>2022-01-11T13:02:50.108Z</time>
      </trkpt>
      <trkpt lat="44.47906" lon="1.05389">
        <ele>129.044641</ele>
        <time>2022-01-11T13:02:52.101Z</time>
      </trkpt>
      <trkpt lat="44.47917" lon="1.05383">
        <ele>128.662681</ele>
        <time>2022-01-11T13:02:54.106Z</time>
      </trkpt>
      <trkpt lat="44.4793" lon="1.05378">
        <ele>128.2295</ele>
        <time>2022-01-11T13:02:56.113Z</time>
      </trkpt>
      <trkpt lat="44.47949" lon="1.05366">
        <ele>127.546363</ele>
        <time>2022-01-11T13:02:58.096Z</time>
      </trkpt>
      <trkpt lat="44.47963" lon="1.05361">
        <ele>127.076248</ele>
        <time>2022-01-11T13:03:00.099Z</time>
      </trkpt>
      <trkpt lat="44.47972" lon="1.05356">
        <ele>126.757204</ele>
        <time>2022-01-11T13:03:01.104Z</time>
      </trkpt>
      <trkpt lat="44.47981" lon="1.05348">
        <ele>126.407756</ele>
        <time>2022-01-11T13:03:02.100Z</time>
      </trkpt>
      <trkpt lat="44.47995" lon="1.05337">
        <ele>125.868442</ele>
        <time>2022-01-11T13:03:04.113Z</time>
      </trkpt>
      <trkpt lat="44.48002" lon="1.05328">
        <ele>125.571944</ele>
        <time>2022-01-11T13:03:05.111Z</time>
      </trkpt>
      <trkpt lat="44.4801" lon="1.0532">
        <ele>125.26498</ele>
        <time>2022-01-11T13:03:06.104Z</time>
      </trkpt>
      <trkpt lat="44.48017" lon="1.05312">
        <ele>124.963012</ele>
        <time>2022-01-11T13:03:07.096Z</time>
      </trkpt>
      <trkpt lat="44.48023" lon="1.05301">
        <ele>124.635032</ele>
        <time>2022-01-11T13:03:08.109Z</time>
      </trkpt>
      <trkpt lat="44.48029" lon="1.05291">
        <ele>124.308417</ele>
        <time>2022-01-11T13:03:09.098Z</time>
      </trkpt>
      <trkpt lat="44.48033" lon="1.05279">
        <ele>123.935743</ele>
        <time>2022-01-11T13:03:10.099Z</time>
      </trkpt>
      <trkpt lat="44.48036" lon="1.05264">
        <ele>123.505873</ele>
        <time>2022-01-11T13:03:11.113Z</time>
      </trkpt>
      <trkpt lat="44.48039" lon="1.05252">
        <ele>123.141979</ele>
        <time>2022-01-11T13:03:12.094Z</time>
      </trkpt>
      <trkpt lat="44.48041" lon="1.05239">
        <ele>122.777759</ele>
        <time>2022-01-11T13:03:13.110Z</time>
      </trkpt>
      <trkpt lat="44.48045" lon="1.05226">
        <ele>122.367911</ele>
        <time>2022-01-11T13:03:14.100Z</time>
      </trkpt>
      <trkpt lat="44.48049" lon="1.05214">
        <ele>122.001436</ele>
        <time>2022-01-11T13:03:15.101Z</time>
      </trkpt>
      <trkpt lat="44.4805" lon="1.05199">
        <ele>121.578193</ele>
        <time>2022-01-11T13:03:16.113Z</time>
      </trkpt>
      <trkpt lat="44.48065" lon="1.05187">
        <ele>120.901505</ele>
        <time>2022-01-11T13:03:18.103Z</time>
      </trkpt>
      <trkpt lat="44.48074" lon="1.05187">
        <ele>120.523752</ele>
        <time>2022-01-11T13:03:19.098Z</time>
      </trkpt>
      <trkpt lat="44.48083" lon="1.05189">
        <ele>120.169159</ele>
        <time>2022-01-11T13:03:20.097Z</time>
      </trkpt>
      <trkpt lat="44.481" lon="1.05196">
        <ele>119.503081</ele>
        <time>2022-01-11T13:03:22.112Z</time>
      </trkpt>
      <trkpt lat="44.48115" lon="1.05204">
        <ele>118.866584</ele>
        <time>2022-01-11T13:03:24.099Z</time>
      </trkpt>
      <trkpt lat="44.48131" lon="1.05211">
        <ele>118.191339</ele>
        <time>2022-01-11T13:03:26.122Z</time>
      </trkpt>
      <trkpt lat="44.48147" lon="1.05218">
        <ele>117.544057</ele>
        <time>2022-01-11T13:03:28.108Z</time>
      </trkpt>
      <trkpt lat="44.4816" lon="1.05225">
        <ele>117.147345</ele>
        <time>2022-01-11T13:03:30.089Z</time>
      </trkpt>
      <trkpt lat="44.48176" lon="1.05231">
        <ele>116.746673</ele>
        <time>2022-01-11T13:03:32.097Z</time>
      </trkpt>
      <trkpt lat="44.4819" lon="1.05239">
        <ele>116.390099</ele>
        <time>2022-01-11T13:03:34.103Z</time>
      </trkpt>
      <trkpt lat="44.48205" lon="1.05244">
        <ele>116.027684</ele>
        <time>2022-01-11T13:03:36.111Z</time>
      </trkpt>
      <trkpt lat="44.48219" lon="1.05252">
        <ele>115.65938</ele>
        <time>2022-01-11T13:03:38.102Z</time>
      </trkpt>
      <trkpt lat="44.48234" lon="1.05258">
        <ele>115.291822</ele>
        <time>2022-01-11T13:03:40.099Z</time>
      </trkpt>
      <trkpt lat="44.48248" lon="1.0526">
        <ele>114.969538</ele>
        <time>2022-01-11T13:03:42.112Z</time>
      </trkpt>
      <trkpt lat="44.48265" lon="1.05261">
        <ele>114.554338</ele>
        <time>2022-01-11T13:03:44.090Z</time>
      </trkpt>
      <trkpt lat="44.48282" lon="1.0526">
        <ele>114.158296</ele>
        <time>2022-01-11T13:03:46.094Z</time>
      </trkpt>
      <trkpt lat="44.48295" lon="1.0526">
        <ele>113.831343</ele>
        <time>2022-01-11T13:03:48.095Z</time>
      </trkpt>
      <trkpt lat="44.48311" lon="1.05257">
        <ele>113.442523</ele>
        <time>2022-01-11T13:03:50.104Z</time>
      </trkpt>
      <trkpt lat="44.48328" lon="1.05258">
        <ele>113.108001</ele>
        <time>2022-01-11T13:03:52.111Z</time>
      </trkpt>
      <trkpt lat="44.48338" lon="1.05259">
        <ele>113.096493</ele>
        <time>2022-01-11T13:03:53.098Z</time>
      </trkpt>
      <trkpt lat="44.48348" lon="1.05257">
        <ele>113.084298</ele>
        <time>2022-01-11T13:03:54.095Z</time>
      </trkpt>
      <trkpt lat="44.48366" lon="1.05264">
        <ele>113.063246</ele>
        <time>2022-01-11T13:03:56.100Z</time>
      </trkpt>
      <trkpt lat="44.48382" lon="1.0527">
        <ele>113.043402</ele>
        <time>2022-01-11T13:03:58.110Z</time>
      </trkpt>
      <trkpt lat="44.48391" lon="1.05272">
        <ele>113.032791</ele>
        <time>2022-01-11T13:03:59.098Z</time>
      </trkpt>
      <trkpt lat="44.48407" lon="1.05278">
        <ele>113.013053</ele>
        <time>2022-01-11T13:04:01.096Z</time>
      </trkpt>
      <trkpt lat="44.48423" lon="1.05283">
        <ele>112.993537</ele>
        <time>2022-01-11T13:04:03.113Z</time>
      </trkpt>
      <trkpt lat="44.48438" lon="1.05287">
        <ele>112.975834</ele>
        <time>2022-01-11T13:04:05.118Z</time>
      </trkpt>
      <trkpt lat="44.48453" lon="1.05293">
        <ele>112.95649</ele>
        <time>2022-01-11T13:04:07.093Z</time>
      </trkpt>
      <trkpt lat="44.48468" lon="1.05298">
        <ele>112.938478</ele>
        <time>2022-01-11T13:04:09.096Z</time>
      </trkpt>
      <trkpt lat="44.48484" lon="1.05301">
        <ele>112.919765</ele>
        <time>2022-01-11T13:04:11.096Z</time>
      </trkpt>
      <trkpt lat="44.48498" lon="1.05303">
        <ele>112.90249</ele>
        <time>2022-01-11T13:04:13.095Z</time>
      </trkpt>
      <trkpt lat="44.48512" lon="1.05307">
        <ele>113.276528</ele>
        <time>2022-01-11T13:04:15.101Z</time>
      </trkpt>
      <trkpt lat="44.48527" lon="1.05309">
        <ele>113.787809</ele>
        <time>2022-01-11T13:04:17.095Z</time>
      </trkpt>
      <trkpt lat="44.48543" lon="1.0531">
        <ele>114.334744</ele>
        <time>2022-01-11T13:04:19.100Z</time>
      </trkpt>
      <trkpt lat="44.48557" lon="1.05312">
        <ele>114.826638</ele>
        <time>2022-01-11T13:04:21.098Z</time>
      </trkpt>
      <trkpt lat="44.48571" lon="1.05314">
        <ele>115.314821</ele>
        <time>2022-01-11T13:04:23.100Z</time>
      </trkpt>
      <trkpt lat="44.48585" lon="1.05318">
        <ele>115.804036</ele>
        <time>2022-01-11T13:04:25.110Z</time>
      </trkpt>
      <trkpt lat="44.486" lon="1.05318">
        <ele>116.302461</ele>
        <time>2022-01-11T13:04:27.099Z</time>
      </trkpt>
      <trkpt lat="44.48615" lon="1.0532">
        <ele>116.830843</ele>
        <time>2022-01-11T13:04:29.094Z</time>
      </trkpt>
      <trkpt lat="44.48628" lon="1.05325">
        <ele>117.305017</ele>
        <time>2022-01-11T13:04:31.099Z</time>
      </trkpt>
      <trkpt lat="44.48642" lon="1.05328">
        <ele>117.780187</ele>
        <time>2022-01-11T13:04:33.094Z</time>
      </trkpt>
      <trkpt lat="44.48657" lon="1.05331">
        <ele>118.295655</ele>
        <time>2022-01-11T13:04:35.098Z</time>
      </trkpt>
      <trkpt lat="44.4867" lon="1.05334">
        <ele>118.76545</ele>
        <time>2022-01-11T13:04:37.109Z</time>
      </trkpt>
      <trkpt lat="44.48685" lon="1.05335">
        <ele>119.051286</ele>
        <time>2022-01-11T13:04:39.114Z</time>
      </trkpt>
      <trkpt lat="44.48699" lon="1.0534">
        <ele>118.978583</ele>
        <time>2022-01-11T13:04:41.103Z</time>
      </trkpt>
      <trkpt lat="44.48714" lon="1.05343">
        <ele>118.906079</ele>
        <time>2022-01-11T13:04:43.098Z</time>
      </trkpt>
      <trkpt lat="44.48729" lon="1.05341">
        <ele>118.828832</ele>
        <time>2022-01-11T13:04:45.115Z</time>
      </trkpt>
      <trkpt lat="44.48742" lon="1.05344">
        <ele>118.762242</ele>
        <time>2022-01-11T13:04:47.106Z</time>
      </trkpt>
      <trkpt lat="44.48756" lon="1.05347">
        <ele>118.691564</ele>
        <time>2022-01-11T13:04:49.096Z</time>
      </trkpt>
      <trkpt lat="44.48771" lon="1.05351">
        <ele>118.614287</ele>
        <time>2022-01-11T13:04:51.099Z</time>
      </trkpt>
      <trkpt lat="44.48785" lon="1.05349">
        <ele>118.542186</ele>
        <time>2022-01-11T13:04:53.112Z</time>
      </trkpt>
      <trkpt lat="44.48799" lon="1.05351">
        <ele>118.47111</ele>
        <time>2022-01-11T13:04:55.096Z</time>
      </trkpt>
      <trkpt lat="44.48814" lon="1.0535">
        <ele>118.397122</ele>
        <time>2022-01-11T13:04:57.110Z</time>
      </trkpt>
      <trkpt lat="44.48829" lon="1.05345">
        <ele>118.320638</ele>
        <time>2022-01-11T13:04:59.100Z</time>
      </trkpt>
      <trkpt lat="44.48842" lon="1.05342">
        <ele>118.25245</ele>
        <time>2022-01-11T13:05:01.099Z</time>
      </trkpt>
      <trkpt lat="44.48856" lon="1.05339">
        <ele>118.182108</ele>
        <time>2022-01-11T13:05:03.114Z</time>
      </trkpt>
      <trkpt lat="44.4887" lon="1.05336">
        <ele>117.990193</ele>
        <time>2022-01-11T13:05:05.110Z</time>
      </trkpt>
      <trkpt lat="44.48883" lon="1.05332">
        <ele>117.789095</ele>
        <time>2022-01-11T13:05:07.104Z</time>
      </trkpt>
      <trkpt lat="44.48897" lon="1.05326">
        <ele>117.579157</ele>
        <time>2022-01-11T13:05:09.097Z</time>
      </trkpt>
      <trkpt lat="44.4891" lon="1.0532">
        <ele>117.36609</ele>
        <time>2022-01-11T13:05:11.113Z</time>
      </trkpt>
      <trkpt lat="44.48923" lon="1.05313">
        <ele>117.164969</ele>
        <time>2022-01-11T13:05:13.107Z</time>
      </trkpt>
      <trkpt lat="44.48935" lon="1.05313">
        <ele>116.989435</ele>
        <time>2022-01-11T13:05:15.107Z</time>
      </trkpt>
      <trkpt lat="44.48949" lon="1.05313">
        <ele>116.781508</ele>
        <time>2022-01-11T13:05:17.092Z</time>
      </trkpt>
      <trkpt lat="44.48964" lon="1.05311">
        <ele>116.561141</ele>
        <time>2022-01-11T13:05:19.091Z</time>
      </trkpt>
      <trkpt lat="44.48974" lon="1.05312">
        <ele>116.420571</ele>
        <time>2022-01-11T13:05:20.088Z</time>
      </trkpt>
      <trkpt lat="44.48989" lon="1.05309">
        <ele>116.184258</ele>
        <time>2022-01-11T13:05:22.095Z</time>
      </trkpt>
      <trkpt lat="44.49004" lon="1.05301">
        <ele>115.952709</ele>
        <time>2022-01-11T13:05:24.101Z</time>
      </trkpt>
      <trkpt lat="44.4902" lon="1.05298">
        <ele>115.719393</ele>
        <time>2022-01-11T13:05:26.108Z</time>
      </trkpt>
      <trkpt lat="44.49034" lon="1.05297">
        <ele>115.526177</ele>
        <time>2022-01-11T13:05:28.098Z</time>
      </trkpt>
      <trkpt lat="44.4905" lon="1.05299">
        <ele>115.553174</ele>
        <time>2022-01-11T13:05:30.096Z</time>
      </trkpt>
      <trkpt lat="44.49066" lon="1.05298">
        <ele>115.580273</ele>
        <time>2022-01-11T13:05:32.090Z</time>
      </trkpt>
      <trkpt lat="44.49081" lon="1.05294">
        <ele>115.606756</ele>
        <time>2022-01-11T13:05:34.089Z</time>
      </trkpt>
      <trkpt lat="44.49096" lon="1.05286">
        <ele>115.635279</ele>
        <time>2022-01-11T13:05:36.088Z</time>
      </trkpt>
      <trkpt lat="44.49107" lon="1.05301">
        <ele>115.66158</ele>
        <time>2022-01-11T13:05:38.092Z</time>
      </trkpt>
      <trkpt lat="44.49123" lon="1.05303">
        <ele>115.689798</ele>
        <time>2022-01-11T13:05:40.091Z</time>
      </trkpt>
      <trkpt lat="44.49138" lon="1.0531">
        <ele>115.718061</ele>
        <time>2022-01-11T13:05:42.113Z</time>
      </trkpt>
      <trkpt lat="44.49152" lon="1.05313">
        <ele>115.742436</ele>
        <time>2022-01-11T13:05:44.112Z</time>
      </trkpt>
      <trkpt lat="44.49169" lon="1.05311">
        <ele>115.770768</ele>
        <time>2022-01-11T13:05:46.116Z</time>
      </trkpt>
      <trkpt lat="44.49183" lon="1.05313">
        <ele>115.796189</ele>
        <time>2022-01-11T13:05:48.095Z</time>
      </trkpt>
      <trkpt lat="44.49199" lon="1.05313">
        <ele>115.823595</ele>
        <time>2022-01-11T13:05:50.098Z</time>
      </trkpt>
      <trkpt lat="44.49212" lon="1.05315">
        <ele>116.044156</ele>
        <time>2022-01-11T13:05:52.113Z</time>
      </trkpt>
      <trkpt lat="44.49228" lon="1.05317">
        <ele>116.576786</ele>
        <time>2022-01-11T13:05:54.099Z</time>
      </trkpt>
      <trkpt lat="44.49242" lon="1.05322">
        <ele>117.070526</ele>
        <time>2022-01-11T13:05:56.101Z</time>
      </trkpt>
      <trkpt lat="44.49257" lon="1.05327">
        <ele>117.593576</ele>
        <time>2022-01-11T13:05:58.092Z</time>
      </trkpt>
      <trkpt lat="44.4927" lon="1.05327">
        <ele>118.062616</ele>
        <time>2022-01-11T13:06:00.100Z</time>
      </trkpt>
      <trkpt lat="44.49286" lon="1.0533">
        <ele>118.603579</ele>
        <time>2022-01-11T13:06:02.091Z</time>
      </trkpt>
      <trkpt lat="44.49302" lon="1.05333">
        <ele>119.129692</ele>
        <time>2022-01-11T13:06:04.090Z</time>
      </trkpt>
      <trkpt lat="44.49316" lon="1.05339">
        <ele>119.644911</ele>
        <time>2022-01-11T13:06:06.095Z</time>
      </trkpt>
      <trkpt lat="44.49332" lon="1.05339">
        <ele>120.198914</ele>
        <time>2022-01-11T13:06:08.094Z</time>
      </trkpt>
      <trkpt lat="44.49346" lon="1.05342">
        <ele>120.681405</ele>
        <time>2022-01-11T13:06:10.092Z</time>
      </trkpt>
      <trkpt lat="44.4936" lon="1.05347">
        <ele>121.144272</ele>
        <time>2022-01-11T13:06:12.090Z</time>
      </trkpt>
      <trkpt lat="44.49377" lon="1.05354">
        <ele>121.757604</ele>
        <time>2022-01-11T13:06:14.098Z</time>
      </trkpt>
      <trkpt lat="44.49393" lon="1.0536">
        <ele>122.328173</ele>
        <time>2022-01-11T13:06:16.091Z</time>
      </trkpt>
      <trkpt lat="44.49408" lon="1.05366">
        <ele>122.867976</ele>
        <time>2022-01-11T13:06:18.096Z</time>
      </trkpt>
      <trkpt lat="44.49418" lon="1.05371">
        <ele>123.253512</ele>
        <time>2022-01-11T13:06:20.099Z</time>
      </trkpt>
      <trkpt lat="44.4943" lon="1.05379">
        <ele>123.688256</ele>
        <time>2022-01-11T13:06:22.100Z</time>
      </trkpt>
      <trkpt lat="44.49444" lon="1.05383">
        <ele>124.183071</ele>
        <time>2022-01-11T13:06:24.106Z</time>
      </trkpt>
      <trkpt lat="44.49456" lon="1.05385">
        <ele>124.606882</ele>
        <time>2022-01-11T13:06:26.105Z</time>
      </trkpt>
      <trkpt lat="44.49469" lon="1.0539">
        <ele>125.068753</ele>
        <time>2022-01-11T13:06:28.095Z</time>
      </trkpt>
      <trkpt lat="44.49481" lon="1.05397">
        <ele>125.532751</ele>
        <time>2022-01-11T13:06:30.112Z</time>
      </trkpt>
      <trkpt lat="44.49495" lon="1.05404">
        <ele>126.044054</ele>
        <time>2022-01-11T13:06:32.115Z</time>
      </trkpt>
      <trkpt lat="44.49507" lon="1.05413">
        <ele>126.520602</ele>
        <time>2022-01-11T13:06:34.110Z</time>
      </trkpt>
      <trkpt lat="44.4952" lon="1.0542">
        <ele>126.97453</ele>
        <time>2022-01-11T13:06:36.099Z</time>
      </trkpt>
      <trkpt lat="44.49532" lon="1.05426">
        <ele>127.45146</ele>
        <time>2022-01-11T13:06:38.108Z</time>
      </trkpt>
      <trkpt lat="44.49544" lon="1.0543">
        <ele>127.867635</ele>
        <time>2022-01-11T13:06:40.113Z</time>
      </trkpt>
      <trkpt lat="44.49557" lon="1.05436">
        <ele>128.162819</ele>
        <time>2022-01-11T13:06:42.102Z</time>
      </trkpt>
      <trkpt lat="44.49567" lon="1.0544">
        <ele>128.140606</ele>
        <time>2022-01-11T13:06:44.112Z</time>
      </trkpt>
      <trkpt lat="44.49579" lon="1.05446">
        <ele>128.113911</ele>
        <time>2022-01-11T13:06:46.103Z</time>
      </trkpt>
      <trkpt lat="44.49592" lon="1.05449">
        <ele>128.085685</ele>
        <time>2022-01-11T13:06:48.094Z</time>
      </trkpt>
      <trkpt lat="44.49605" lon="1.05452">
        <ele>128.056523</ele>
        <time>2022-01-11T13:06:50.107Z</time>
      </trkpt>
      <trkpt lat="44.49615" lon="1.05453">
        <ele>128.035093</ele>
        <time>2022-01-11T13:06:51.106Z</time>
      </trkpt>
      <trkpt lat="44.49629" lon="1.0546">
        <ele>128.003054</ele>
        <time>2022-01-11T13:06:53.094Z</time>
      </trkpt>
      <trkpt lat="44.49641" lon="1.05462">
        <ele>127.978716</ele>
        <time>2022-01-11T13:06:55.103Z</time>
      </trkpt>
      <trkpt lat="44.49655" lon="1.05459">
        <ele>127.948515</ele>
        <time>2022-01-11T13:06:57.101Z</time>
      </trkpt>
      <trkpt lat="44.49666" lon="1.05454">
        <ele>127.923309</ele>
        <time>2022-01-11T13:06:59.092Z</time>
      </trkpt>
      <trkpt lat="44.49676" lon="1.05451">
        <ele>127.900608</ele>
        <time>2022-01-11T13:07:01.104Z</time>
      </trkpt>
      <trkpt lat="44.49689" lon="1.05449">
        <ele>127.873751</ele>
        <time>2022-01-11T13:07:03.113Z</time>
      </trkpt>
      <trkpt lat="44.49698" lon="1.05453">
        <ele>127.85381</ele>
        <time>2022-01-11T13:07:05.101Z</time>
      </trkpt>
      <trkpt lat="44.49704" lon="1.05463">
        <ele>127.832624</ele>
        <time>2022-01-11T13:07:11.197Z</time>
      </trkpt>
      <trkpt lat="44.49713" lon="1.05479">
        <ele>127.801827</ele>
        <time>2022-01-11T13:07:11.256Z</time>
      </trkpt>
      <trkpt lat="44.4972" lon="1.05492">
        <ele>127.868541</ele>
        <time>2022-01-11T13:07:12.109Z</time>
      </trkpt>
      <trkpt lat="44.49727" lon="1.05503">
        <ele>128.042757</ele>
        <time>2022-01-11T13:07:14.098Z</time>
      </trkpt>
      <trkpt lat="44.49732" lon="1.05515">
        <ele>128.207165</ele>
        <time>2022-01-11T13:07:16.106Z</time>
      </trkpt>
      <trkpt lat="44.49738" lon="1.05526">
        <ele>128.367592</ele>
        <time>2022-01-11T13:07:18.099Z</time>
      </trkpt>
      <trkpt lat="44.49745" lon="1.05542">
        <ele>128.58918</ele>
        <time>2022-01-11T13:07:21.111Z</time>
      </trkpt>
      <trkpt lat="44.4975" lon="1.05553">
        <ele>128.743032</ele>
        <time>2022-01-11T13:07:23.103Z</time>
      </trkpt>
      <trkpt lat="44.49756" lon="1.05563">
        <ele>128.900631</ele>
        <time>2022-01-11T13:07:25.112Z</time>
      </trkpt>
      <trkpt lat="44.49762" lon="1.05581">
        <ele>129.131556</ele>
        <time>2022-01-11T13:07:28.109Z</time>
      </trkpt>
      <trkpt lat="44.49767" lon="1.05596">
        <ele>129.316343</ele>
        <time>2022-01-11T13:07:30.116Z</time>
      </trkpt>
      <trkpt lat="44.49771" lon="1.05609">
        <ele>129.490413</ele>
        <time>2022-01-11T13:07:32.114Z</time>
      </trkpt>
      <trkpt lat="44.49774" lon="1.05622">
        <ele>129.647298</ele>
        <time>2022-01-11T13:07:34.106Z</time>
      </trkpt>
      <trkpt lat="44.49777" lon="1.05635">
        <ele>129.805803</ele>
        <time>2022-01-11T13:07:36.103Z</time>
      </trkpt>
      <trkpt lat="44.49781" lon="1.05649">
        <ele>129.984137</ele>
        <time>2022-01-11T13:07:38.097Z</time>
      </trkpt>
      <trkpt lat="44.49784" lon="1.05661">
        <ele>130.142136</ele>
        <time>2022-01-11T13:07:40.092Z</time>
      </trkpt>
      <trkpt lat="44.498" lon="1.05706">
        <ele>130.721079</ele>
        <time>2022-01-11T13:08:28.108Z</time>
      </trkpt>
      <trkpt lat="44.49804" lon="1.05721">
        <ele>130.851775</ele>
        <time>2022-01-11T13:08:30.104Z</time>
      </trkpt>
      <trkpt lat="44.49808" lon="1.05736">
        <ele>130.980139</ele>
        <time>2022-01-11T13:08:32.119Z</time>
      </trkpt>
      <trkpt lat="44.49812" lon="1.05751">
        <ele>131.10296</ele>
        <time>2022-01-11T13:08:34.101Z</time>
      </trkpt>
      <trkpt lat="44.49817" lon="1.05766">
        <ele>131.232881</ele>
        <time>2022-01-11T13:08:36.095Z</time>
      </trkpt>
      <trkpt lat="44.49822" lon="1.05781">
        <ele>131.363262</ele>
        <time>2022-01-11T13:08:38.106Z</time>
      </trkpt>
      <trkpt lat="44.49829" lon="1.05796">
        <ele>131.501057</ele>
        <time>2022-01-11T13:08:40.093Z</time>
      </trkpt>
      <trkpt lat="44.49839" lon="1.05809">
        <ele>131.648047</ele>
        <time>2022-01-11T13:08:42.098Z</time>
      </trkpt>
      <trkpt lat="44.49847" lon="1.05822">
        <ele>131.782613</ele>
        <time>2022-01-11T13:08:44.110Z</time>
      </trkpt>
      <trkpt lat="44.49855" lon="1.05835">
        <ele>131.911397</ele>
        <time>2022-01-11T13:08:46.111Z</time>
      </trkpt>
      <trkpt lat="44.49865" lon="1.05844">
        <ele>132.043379</ele>
        <time>2022-01-11T13:08:48.096Z</time>
      </trkpt>
      <trkpt lat="44.49876" lon="1.05852">
        <ele>132.178145</ele>
        <time>2022-01-11T13:08:50.100Z</time>
      </trkpt>
      <trkpt lat="44.49888" lon="1.05859">
        <ele>132.321434</ele>
        <time>2022-01-11T13:08:52.108Z</time>
      </trkpt>
      <trkpt lat="44.49898" lon="1.05867">
        <ele>132.442961</ele>
        <time>2022-01-11T13:08:54.095Z</time>
      </trkpt>
      <trkpt lat="44.49908" lon="1.05878">
        <ele>132.583328</ele>
        <time>2022-01-11T13:08:56.101Z</time>
      </trkpt>
      <trkpt lat="44.49921" lon="1.05886">
        <ele>132.69992</ele>
        <time>2022-01-11T13:08:58.094Z</time>
      </trkpt>
      <trkpt lat="44.4993" lon="1.05896">
        <ele>132.688334</ele>
        <time>2022-01-11T13:09:00.105Z</time>
      </trkpt>
      <trkpt lat="44.49941" lon="1.05909">
        <ele>132.675175</ele>
        <time>2022-01-11T13:09:02.099Z</time>
      </trkpt>
      <trkpt lat="44.49951" lon="1.05921">
        <ele>132.661801</ele>
        <time>2022-01-11T13:09:04.114Z</time>
      </trkpt>
      <trkpt lat="44.49962" lon="1.05933">
        <ele>132.649297</ele>
        <time>2022-01-11T13:09:06.109Z</time>
      </trkpt>
      <trkpt lat="44.49972" lon="1.05944">
        <ele>132.636491</ele>
        <time>2022-01-11T13:09:08.106Z</time>
      </trkpt>
      <trkpt lat="44.49983" lon="1.05954">
        <ele>132.624022</ele>
        <time>2022-01-11T13:09:10.097Z</time>
      </trkpt>
      <trkpt lat="44.49994" lon="1.05965">
        <ele>132.611209</ele>
        <time>2022-01-11T13:09:12.102Z</time>
      </trkpt>
      <trkpt lat="44.50003" lon="1.05977">
        <ele>132.599312</ele>
        <time>2022-01-11T13:09:14.106Z</time>
      </trkpt>
      <trkpt lat="44.50013" lon="1.05989">
        <ele>132.586787</ele>
        <time>2022-01-11T13:09:16.098Z</time>
      </trkpt>
      <trkpt lat="44.50024" lon="1.06001">
        <ele>132.573501</ele>
        <time>2022-01-11T13:09:18.096Z</time>
      </trkpt>
      <trkpt lat="44.50033" lon="1.06016">
        <ele>132.560176</ele>
        <time>2022-01-11T13:09:20.098Z</time>
      </trkpt>
      <trkpt lat="44.50043" lon="1.06028">
        <ele>132.547833</ele>
        <time>2022-01-11T13:09:22.098Z</time>
      </trkpt>
      <trkpt lat="44.50052" lon="1.06041">
        <ele>132.535528</ele>
        <time>2022-01-11T13:09:24.093Z</time>
      </trkpt>
      <trkpt lat="44.50061" lon="1.06054">
        <ele>132.583227</ele>
        <time>2022-01-11T13:09:26.102Z</time>
      </trkpt>
      <trkpt lat="44.5007" lon="1.06067">
        <ele>132.662464</ele>
        <time>2022-01-11T13:09:28.093Z</time>
      </trkpt>
      <trkpt lat="44.5008" lon="1.06078">
        <ele>132.744331</ele>
        <time>2022-01-11T13:09:30.110Z</time>
      </trkpt>
      <trkpt lat="44.5009" lon="1.06087">
        <ele>132.823774</ele>
        <time>2022-01-11T13:09:32.101Z</time>
      </trkpt>
      <trkpt lat="44.50101" lon="1.06099">
        <ele>132.91116</ele>
        <time>2022-01-11T13:09:34.110Z</time>
      </trkpt>
      <trkpt lat="44.50113" lon="1.06109">
        <ele>133.000273</ele>
        <time>2022-01-11T13:09:36.099Z</time>
      </trkpt>
      <trkpt lat="44.50124" lon="1.06119">
        <ele>133.085747</ele>
        <time>2022-01-11T13:09:38.096Z</time>
      </trkpt>
      <trkpt lat="44.50135" lon="1.0613">
        <ele>133.1728</ele>
        <time>2022-01-11T13:09:40.105Z</time>
      </trkpt>
      <trkpt lat="44.50148" lon="1.06141">
        <ele>133.267897</ele>
        <time>2022-01-11T13:09:42.109Z</time>
      </trkpt>
      <trkpt lat="44.50158" lon="1.06152">
        <ele>133.350832</ele>
        <time>2022-01-11T13:09:44.122Z</time>
      </trkpt>
      <trkpt lat="44.50168" lon="1.0616">
        <ele>133.428373</ele>
        <time>2022-01-11T13:09:46.092Z</time>
      </trkpt>
      <trkpt lat="44.5018" lon="1.06167">
        <ele>133.508539</ele>
        <time>2022-01-11T13:09:48.092Z</time>
      </trkpt>
      <trkpt lat="44.50191" lon="1.06174">
        <ele>133.586128</ele>
        <time>2022-01-11T13:09:50.106Z</time>
      </trkpt>
      <trkpt lat="44.50202" lon="1.06179">
        <ele>133.664352</ele>
        <time>2022-01-11T13:09:52.108Z</time>
      </trkpt>
      <trkpt lat="44.50213" lon="1.06187">
        <ele>133.818868</ele>
        <time>2022-01-11T13:09:54.112Z</time>
      </trkpt>
      <trkpt lat="44.50224" lon="1.06194">
        <ele>134.018774</ele>
        <time>2022-01-11T13:09:56.095Z</time>
      </trkpt>
      <trkpt lat="44.50236" lon="1.06201">
        <ele>134.233294</ele>
        <time>2022-01-11T13:09:58.110Z</time>
      </trkpt>
      <trkpt lat="44.50247" lon="1.06211">
        <ele>134.442884</ele>
        <time>2022-01-11T13:10:00.090Z</time>
      </trkpt>
      <trkpt lat="44.50258" lon="1.06222">
        <ele>134.660178</ele>
        <time>2022-01-11T13:10:02.100Z</time>
      </trkpt>
      <trkpt lat="44.50267" lon="1.06234">
        <ele>134.87691</ele>
        <time>2022-01-11T13:10:04.093Z</time>
      </trkpt>
      <trkpt lat="44.50277" lon="1.06247">
        <ele>135.088497</ele>
        <time>2022-01-11T13:10:06.091Z</time>
      </trkpt>
      <trkpt lat="44.50287" lon="1.06259">
        <ele>135.312041</ele>
        <time>2022-01-11T13:10:08.096Z</time>
      </trkpt>
      <trkpt lat="44.50297" lon="1.06272">
        <ele>135.523628</ele>
        <time>2022-01-11T13:10:10.094Z</time>
      </trkpt>
      <trkpt lat="44.50306" lon="1.06284">
        <ele>135.730026</ele>
        <time>2022-01-11T13:10:12.095Z</time>
      </trkpt>
      <trkpt lat="44.50315" lon="1.06296">
        <ele>135.934032</ele>
        <time>2022-01-11T13:10:14.096Z</time>
      </trkpt>
      <trkpt lat="44.50324" lon="1.06308">
        <ele>136.141627</ele>
        <time>2022-01-11T13:10:16.090Z</time>
      </trkpt>
      <trkpt lat="44.50333" lon="1.06321">
        <ele>136.353322</ele>
        <time>2022-01-11T13:10:18.102Z</time>
      </trkpt>
      <trkpt lat="44.50342" lon="1.06335">
        <ele>136.572558</ele>
        <time>2022-01-11T13:10:20.090Z</time>
      </trkpt>
      <trkpt lat="44.50352" lon="1.06348">
        <ele>136.595554</ele>
        <time>2022-01-11T13:10:22.106Z</time>
      </trkpt>
      <trkpt lat="44.50362" lon="1.06362">
        <ele>136.560166</ele>
        <time>2022-01-11T13:10:24.095Z</time>
      </trkpt>
      <trkpt lat="44.50372" lon="1.06376">
        <ele>136.523828</ele>
        <time>2022-01-11T13:10:26.104Z</time>
      </trkpt>
      <trkpt lat="44.50382" lon="1.06391">
        <ele>136.48604</ele>
        <time>2022-01-11T13:10:28.108Z</time>
      </trkpt>
      <trkpt lat="44.50391" lon="1.06407">
        <ele>136.448881</ele>
        <time>2022-01-11T13:10:30.093Z</time>
      </trkpt>
      <trkpt lat="44.50401" lon="1.06423">
        <ele>136.410451</ele>
        <time>2022-01-11T13:10:32.109Z</time>
      </trkpt>
      <trkpt lat="44.50411" lon="1.06439">
        <ele>136.370214</ele>
        <time>2022-01-11T13:10:34.109Z</time>
      </trkpt>
      <trkpt lat="44.50421" lon="1.06455">
        <ele>136.331359</ele>
        <time>2022-01-11T13:10:36.098Z</time>
      </trkpt>
      <trkpt lat="44.50432" lon="1.06471">
        <ele>136.291233</ele>
        <time>2022-01-11T13:10:38.099Z</time>
      </trkpt>
      <trkpt lat="44.50442" lon="1.06488">
        <ele>136.251385</ele>
        <time>2022-01-11T13:10:40.094Z</time>
      </trkpt>
      <trkpt lat="44.50455" lon="1.06497">
        <ele>136.213288</ele>
        <time>2022-01-11T13:10:42.093Z</time>
      </trkpt>
      <trkpt lat="44.50469" lon="1.06499">
        <ele>136.176694</ele>
        <time>2022-01-11T13:10:44.088Z</time>
      </trkpt>
      <trkpt lat="44.50483" lon="1.06494">
        <ele>136.098872</ele>
        <time>2022-01-11T13:10:46.097Z</time>
      </trkpt>
      <trkpt lat="44.50496" lon="1.06487">
        <ele>135.995179</ele>
        <time>2022-01-11T13:10:48.100Z</time>
      </trkpt>
      <trkpt lat="44.50508" lon="1.06481">
        <ele>135.894591</ele>
        <time>2022-01-11T13:10:50.107Z</time>
      </trkpt>
      <trkpt lat="44.50519" lon="1.06474">
        <ele>135.803517</ele>
        <time>2022-01-11T13:10:52.131Z</time>
      </trkpt>
      <trkpt lat="44.5053" lon="1.06465">
        <ele>135.706556</ele>
        <time>2022-01-11T13:10:54.095Z</time>
      </trkpt>
      <trkpt lat="44.50542" lon="1.06452">
        <ele>135.591706</ele>
        <time>2022-01-11T13:10:56.105Z</time>
      </trkpt>
      <trkpt lat="44.50554" lon="1.06441">
        <ele>135.482073</ele>
        <time>2022-01-11T13:10:58.100Z</time>
      </trkpt>
      <trkpt lat="44.50565" lon="1.06431">
        <ele>135.381626</ele>
        <time>2022-01-11T13:11:00.117Z</time>
      </trkpt>
      <trkpt lat="44.50575" lon="1.06418">
        <ele>135.278168</ele>
        <time>2022-01-11T13:11:02.094Z</time>
      </trkpt>
      <trkpt lat="44.50585" lon="1.06405">
        <ele>135.175803</ele>
        <time>2022-01-11T13:11:04.097Z</time>
      </trkpt>
      <trkpt lat="44.50591" lon="1.0639">
        <ele>135.079704</ele>
        <time>2022-01-11T13:11:06.097Z</time>
      </trkpt>
      <trkpt lat="44.50598" lon="1.06373">
        <ele>134.974346</ele>
        <time>2022-01-11T13:11:08.102Z</time>
      </trkpt>
      <trkpt lat="44.50606" lon="1.06357">
        <ele>134.866891</ele>
        <time>2022-01-11T13:11:10.097Z</time>
      </trkpt>
      <trkpt lat="44.50614" lon="1.06343">
        <ele>134.789345</ele>
        <time>2022-01-11T13:11:12.096Z</time>
      </trkpt>
      <trkpt lat="44.50621" lon="1.06326">
        <ele>134.775545</ele>
        <time>2022-01-11T13:11:14.093Z</time>
      </trkpt>
      <trkpt lat="44.50629" lon="1.06308">
        <ele>134.760558</ele>
        <time>2022-01-11T13:11:16.100Z</time>
      </trkpt>
      <trkpt lat="44.50638" lon="1.06295">
        <ele>134.747282</ele>
        <time>2022-01-11T13:11:18.096Z</time>
      </trkpt>
      <trkpt lat="44.50651" lon="1.06285">
        <ele>134.732953</ele>
        <time>2022-01-11T13:11:20.100Z</time>
      </trkpt>
      <trkpt lat="44.50661" lon="1.06275">
        <ele>134.720944</ele>
        <time>2022-01-11T13:11:22.098Z</time>
      </trkpt>
      <trkpt lat="44.50673" lon="1.06263">
        <ele>134.706796</ele>
        <time>2022-01-11T13:11:24.105Z</time>
      </trkpt>
      <trkpt lat="44.50686" lon="1.06252">
        <ele>134.691768</ele>
        <time>2022-01-11T13:11:26.100Z</time>
      </trkpt>
      <trkpt lat="44.50697" lon="1.06244">
        <ele>134.679029</ele>
        <time>2022-01-11T13:11:28.094Z</time>
      </trkpt>
      <trkpt lat="44.50711" lon="1.06234">
        <ele>134.663768</ele>
        <time>2022-01-11T13:11:30.097Z</time>
      </trkpt>
      <trkpt lat="44.50723" lon="1.06225">
        <ele>134.650349</ele>
        <time>2022-01-11T13:11:32.096Z</time>
      </trkpt>
      <trkpt lat="44.50735" lon="1.06219">
        <ele>134.637831</ele>
        <time>2022-01-11T13:11:34.097Z</time>
      </trkpt>
      <trkpt lat="44.50748" lon="1.0621">
        <ele>134.623728</ele>
        <time>2022-01-11T13:11:36.093Z</time>
      </trkpt>
      <trkpt lat="44.50759" lon="1.06202">
        <ele>134.64995</ele>
        <time>2022-01-11T13:11:38.096Z</time>
      </trkpt>
      <trkpt lat="44.50769" lon="1.06191">
        <ele>134.792773</ele>
        <time>2022-01-11T13:11:40.091Z</time>
      </trkpt>
      <trkpt lat="44.50778" lon="1.0618">
        <ele>134.927689</ele>
        <time>2022-01-11T13:11:42.094Z</time>
      </trkpt>
      <trkpt lat="44.50788" lon="1.06166">
        <ele>135.078377</ele>
        <time>2022-01-11T13:11:44.091Z</time>
      </trkpt>
      <trkpt lat="44.50797" lon="1.06154">
        <ele>135.219216</ele>
        <time>2022-01-11T13:11:46.095Z</time>
      </trkpt>
      <trkpt lat="44.50806" lon="1.0614">
        <ele>135.368562</ele>
        <time>2022-01-11T13:11:48.098Z</time>
      </trkpt>
      <trkpt lat="44.50817" lon="1.06128">
        <ele>135.520271</ele>
        <time>2022-01-11T13:11:50.099Z</time>
      </trkpt>
      <trkpt lat="44.50828" lon="1.06113">
        <ele>135.690576</ele>
        <time>2022-01-11T13:11:52.092Z</time>
      </trkpt>
      <trkpt lat="44.50837" lon="1.06097">
        <ele>135.85519</ele>
        <time>2022-01-11T13:11:54.096Z</time>
      </trkpt>
      <trkpt lat="44.50848" lon="1.06082">
        <ele>136.023911</ele>
        <time>2022-01-11T13:11:56.093Z</time>
      </trkpt>
      <trkpt lat="44.50859" lon="1.06067">
        <ele>136.195654</ele>
        <time>2022-01-11T13:11:58.101Z</time>
      </trkpt>
      <trkpt lat="44.5087" lon="1.06051">
        <ele>136.368697</ele>
        <time>2022-01-11T13:12:00.092Z</time>
      </trkpt>
      <trkpt lat="44.5088" lon="1.06036">
        <ele>136.531989</ele>
        <time>2022-01-11T13:12:02.097Z</time>
      </trkpt>
      <trkpt lat="44.50889" lon="1.06017">
        <ele>136.539941</ele>
        <time>2022-01-11T13:12:04.099Z</time>
      </trkpt>
      <trkpt lat="44.50897" lon="1.06">
        <ele>136.423255</ele>
        <time>2022-01-11T13:12:06.094Z</time>
      </trkpt>
      <trkpt lat="44.50905" lon="1.05981">
        <ele>136.303455</ele>
        <time>2022-01-11T13:12:08.092Z</time>
      </trkpt>
      <trkpt lat="44.50912" lon="1.05963">
        <ele>136.184681</ele>
        <time>2022-01-11T13:12:10.098Z</time>
      </trkpt>
      <trkpt lat="44.50918" lon="1.05945">
        <ele>136.070188</ele>
        <time>2022-01-11T13:12:12.099Z</time>
      </trkpt>
      <trkpt lat="44.50923" lon="1.05925">
        <ele>135.952393</ele>
        <time>2022-01-11T13:12:14.099Z</time>
      </trkpt>
      <trkpt lat="44.50927" lon="1.05906">
        <ele>135.840527</ele>
        <time>2022-01-11T13:12:16.091Z</time>
      </trkpt>
      <trkpt lat="44.50928" lon="1.05888">
        <ele>135.742363</ele>
        <time>2022-01-11T13:12:18.094Z</time>
      </trkpt>
      <trkpt lat="44.50924" lon="1.05875">
        <ele>135.661834</ele>
        <time>2022-01-11T13:12:20.106Z</time>
      </trkpt>
      <trkpt lat="44.50914" lon="1.05865">
        <ele>135.566963</ele>
        <time>2022-01-11T13:12:22.093Z</time>
      </trkpt>
      <trkpt lat="44.50905" lon="1.05857">
        <ele>135.476585</ele>
        <time>2022-01-11T13:12:24.102Z</time>
      </trkpt>
      <trkpt lat="44.50894" lon="1.05848">
        <ele>135.38048</ele>
        <time>2022-01-11T13:12:26.111Z</time>
      </trkpt>
      <trkpt lat="44.50884" lon="1.05842">
        <ele>135.289671</ele>
        <time>2022-01-11T13:12:28.096Z</time>
      </trkpt>
      <trkpt lat="44.50873" lon="1.05837">
        <ele>135.198723</ele>
        <time>2022-01-11T13:12:30.096Z</time>
      </trkpt>
      <trkpt lat="44.50861" lon="1.05831">
        <ele>135.088742</ele>
        <time>2022-01-11T13:12:32.097Z</time>
      </trkpt>
      <trkpt lat="44.50849" lon="1.05827">
        <ele>134.977088</ele>
        <time>2022-01-11T13:12:34.096Z</time>
      </trkpt>
      <trkpt lat="44.50837" lon="1.05821">
        <ele>134.859322</ele>
        <time>2022-01-11T13:12:36.096Z</time>
      </trkpt>
      <trkpt lat="44.50823" lon="1.05817">
        <ele>134.729419</ele>
        <time>2022-01-11T13:12:38.092Z</time>
      </trkpt>
      <trkpt lat="44.50811" lon="1.05811">
        <ele>134.611187</ele>
        <time>2022-01-11T13:12:40.097Z</time>
      </trkpt>
      <trkpt lat="44.50798" lon="1.05805">
        <ele>134.486719</ele>
        <time>2022-01-11T13:12:42.094Z</time>
      </trkpt>
      <trkpt lat="44.50785" lon="1.058">
        <ele>134.362854</ele>
        <time>2022-01-11T13:12:44.100Z</time>
      </trkpt>
      <trkpt lat="44.50773" lon="1.05793">
        <ele>134.240438</ele>
        <time>2022-01-11T13:12:46.094Z</time>
      </trkpt>
      <trkpt lat="44.50759" lon="1.05787">
        <ele>134.108688</ele>
        <time>2022-01-11T13:12:48.099Z</time>
      </trkpt>
      <trkpt lat="44.50746" lon="1.0578">
        <ele>133.980347</ele>
        <time>2022-01-11T13:12:50.093Z</time>
      </trkpt>
      <trkpt lat="44.50733" lon="1.05773">
        <ele>133.851857</ele>
        <time>2022-01-11T13:12:52.100Z</time>
      </trkpt>
      <trkpt lat="44.5072" lon="1.05764">
        <ele>133.718559</ele>
        <time>2022-01-11T13:12:54.096Z</time>
      </trkpt>
      <trkpt lat="44.50706" lon="1.05758">
        <ele>133.584371</ele>
        <time>2022-01-11T13:12:56.103Z</time>
      </trkpt>
      <trkpt lat="44.50692" lon="1.05749">
        <ele>133.684839</ele>
        <time>2022-01-11T13:12:58.092Z</time>
      </trkpt>
      <trkpt lat="44.50677" lon="1.05742">
        <ele>133.884793</ele>
        <time>2022-01-11T13:13:00.097Z</time>
      </trkpt>
      <trkpt lat="44.50663" lon="1.05735">
        <ele>134.062497</ele>
        <time>2022-01-11T13:13:02.095Z</time>
      </trkpt>
      <trkpt lat="44.50649" lon="1.05728">
        <ele>134.251616</ele>
        <time>2022-01-11T13:13:04.096Z</time>
      </trkpt>
      <trkpt lat="44.50635" lon="1.05721">
        <ele>134.431068</ele>
        <time>2022-01-11T13:13:06.096Z</time>
      </trkpt>
      <trkpt lat="44.50622" lon="1.05713">
        <ele>134.612759</ele>
        <time>2022-01-11T13:13:08.089Z</time>
      </trkpt>
      <trkpt lat="44.50608" lon="1.05704">
        <ele>134.800025</ele>
        <time>2022-01-11T13:13:10.093Z</time>
      </trkpt>
      <trkpt lat="44.50595" lon="1.05693">
        <ele>134.985532</ele>
        <time>2022-01-11T13:13:12.092Z</time>
      </trkpt>
      <trkpt lat="44.50583" lon="1.05683">
        <ele>135.161557</ele>
        <time>2022-01-11T13:13:14.111Z</time>
      </trkpt>
      <trkpt lat="44.5057" lon="1.05672">
        <ele>135.345542</ele>
        <time>2022-01-11T13:13:16.091Z</time>
      </trkpt>
      <trkpt lat="44.50557" lon="1.05663">
        <ele>135.530742</ele>
        <time>2022-01-11T13:13:18.107Z</time>
      </trkpt>
      <trkpt lat="44.50544" lon="1.05651">
        <ele>135.721186</ele>
        <time>2022-01-11T13:13:20.095Z</time>
      </trkpt>
      <trkpt lat="44.50531" lon="1.0564">
        <ele>135.66688</ele>
        <time>2022-01-11T13:13:22.091Z</time>
      </trkpt>
      <trkpt lat="44.50519" lon="1.05628">
        <ele>135.505025</ele>
        <time>2022-01-11T13:13:24.101Z</time>
      </trkpt>
      <trkpt lat="44.50506" lon="1.05616">
        <ele>135.334914</ele>
        <time>2022-01-11T13:13:26.097Z</time>
      </trkpt>
      <trkpt lat="44.50493" lon="1.05605">
        <ele>135.16701</ele>
        <time>2022-01-11T13:13:28.092Z</time>
      </trkpt>
      <trkpt lat="44.5048" lon="1.05595">
        <ele>135.0041</ele>
        <time>2022-01-11T13:13:30.098Z</time>
      </trkpt>
      <trkpt lat="44.5047" lon="1.05583">
        <ele>134.85713</ele>
        <time>2022-01-11T13:13:32.093Z</time>
      </trkpt>
      <trkpt lat="44.50458" lon="1.05574">
        <ele>134.704798</ele>
        <time>2022-01-11T13:13:34.094Z</time>
      </trkpt>
      <trkpt lat="44.50446" lon="1.05562">
        <ele>134.547902</ele>
        <time>2022-01-11T13:13:36.094Z</time>
      </trkpt>
      <trkpt lat="44.50434" lon="1.05554">
        <ele>134.397797</ele>
        <time>2022-01-11T13:13:38.094Z</time>
      </trkpt>
      <trkpt lat="44.50423" lon="1.05541">
        <ele>134.242483</ele>
        <time>2022-01-11T13:13:40.097Z</time>
      </trkpt>
      <trkpt lat="44.50411" lon="1.0553">
        <ele>134.083773</ele>
        <time>2022-01-11T13:13:42.094Z</time>
      </trkpt>
      <trkpt lat="44.50398" lon="1.0552">
        <ele>133.920685</ele>
        <time>2022-01-11T13:13:44.109Z</time>
      </trkpt>
      <trkpt lat="44.50385" lon="1.05509">
        <ele>133.773908</ele>
        <time>2022-01-11T13:13:46.092Z</time>
      </trkpt>
      <trkpt lat="44.50371" lon="1.05502">
        <ele>133.67771</ele>
        <time>2022-01-11T13:13:48.098Z</time>
      </trkpt>
      <trkpt lat="44.50358" lon="1.05494">
        <ele>133.584186</ele>
        <time>2022-01-11T13:13:50.092Z</time>
      </trkpt>
      <trkpt lat="44.50344" lon="1.05488">
        <ele>133.488154</ele>
        <time>2022-01-11T13:13:52.102Z</time>
      </trkpt>
      <trkpt lat="44.5033" lon="1.05482">
        <ele>133.393959</ele>
        <time>2022-01-11T13:13:54.097Z</time>
      </trkpt>
      <trkpt lat="44.50316" lon="1.05477">
        <ele>133.298491</ele>
        <time>2022-01-11T13:13:56.095Z</time>
      </trkpt>
      <trkpt lat="44.50302" lon="1.05474">
        <ele>133.208274</ele>
        <time>2022-01-11T13:13:58.095Z</time>
      </trkpt>
      <trkpt lat="44.50286" lon="1.05474">
        <ele>133.106047</ele>
        <time>2022-01-11T13:14:00.105Z</time>
      </trkpt>
      <trkpt lat="44.50271" lon="1.05474">
        <ele>133.008994</ele>
        <time>2022-01-11T13:14:02.094Z</time>
      </trkpt>
      <trkpt lat="44.50256" lon="1.05474">
        <ele>132.911942</ele>
        <time>2022-01-11T13:14:04.093Z</time>
      </trkpt>
      <trkpt lat="44.50242" lon="1.05475">
        <ele>132.819347</ele>
        <time>2022-01-11T13:14:06.094Z</time>
      </trkpt>
      <trkpt lat="44.50226" lon="1.05477">
        <ele>132.719881</ele>
        <time>2022-01-11T13:14:08.096Z</time>
      </trkpt>
      <trkpt lat="44.50212" lon="1.05481">
        <ele>132.67654</ele>
        <time>2022-01-11T13:14:10.104Z</time>
      </trkpt>
      <trkpt lat="44.50197" lon="1.05484">
        <ele>133.032427</ele>
        <time>2022-01-11T13:14:12.093Z</time>
      </trkpt>
      <trkpt lat="44.50183" lon="1.05486">
        <ele>133.373818</ele>
        <time>2022-01-11T13:14:14.091Z</time>
      </trkpt>
      <trkpt lat="44.50169" lon="1.05488">
        <ele>133.713756</ele>
        <time>2022-01-11T13:14:16.093Z</time>
      </trkpt>
      <trkpt lat="44.50154" lon="1.0549">
        <ele>134.06171</ele>
        <time>2022-01-11T13:14:18.092Z</time>
      </trkpt>
      <trkpt lat="44.5014" lon="1.05491">
        <ele>134.400139</ele>
        <time>2022-01-11T13:14:20.097Z</time>
      </trkpt>
      <trkpt lat="44.50125" lon="1.05493">
        <ele>134.755801</ele>
        <time>2022-01-11T13:14:22.121Z</time>
      </trkpt>
      <trkpt lat="44.50111" lon="1.05493">
        <ele>135.075016</ele>
        <time>2022-01-11T13:14:24.095Z</time>
      </trkpt>
      <trkpt lat="44.50097" lon="1.05493">
        <ele>135.408414</ele>
        <time>2022-01-11T13:14:26.104Z</time>
      </trkpt>
      <trkpt lat="44.50085" lon="1.05494">
        <ele>135.695089</ele>
        <time>2022-01-11T13:14:28.097Z</time>
      </trkpt>
      <trkpt lat="44.50072" lon="1.05494">
        <ele>136.002484</ele>
        <time>2022-01-11T13:14:30.121Z</time>
      </trkpt>
      <trkpt lat="44.50059" lon="1.05494">
        <ele>136.316934</ele>
        <time>2022-01-11T13:14:32.108Z</time>
      </trkpt>
      <trkpt lat="44.50047" lon="1.05496">
        <ele>136.594557</ele>
        <time>2022-01-11T13:14:34.108Z</time>
      </trkpt>
      <trkpt lat="44.50033" lon="1.05497">
        <ele>137.002449</ele>
        <time>2022-01-11T13:14:36.116Z</time>
      </trkpt>
      <trkpt lat="44.50019" lon="1.05497">
        <ele>138.007761</ele>
        <time>2022-01-11T13:14:38.114Z</time>
      </trkpt>
      <trkpt lat="44.50007" lon="1.055">
        <ele>138.905892</ele>
        <time>2022-01-11T13:14:40.104Z</time>
      </trkpt>
      <trkpt lat="44.49995" lon="1.05502">
        <ele>139.778568</ele>
        <time>2022-01-11T13:14:42.106Z</time>
      </trkpt>
      <trkpt lat="44.49984" lon="1.05509">
        <ele>140.616544</ele>
        <time>2022-01-11T13:14:44.097Z</time>
      </trkpt>
      <trkpt lat="44.49974" lon="1.0552">
        <ele>141.536437</ele>
        <time>2022-01-11T13:14:46.093Z</time>
      </trkpt>
      <trkpt lat="44.49969" lon="1.05537">
        <ele>142.485689</ele>
        <time>2022-01-11T13:14:48.095Z</time>
      </trkpt>
      <trkpt lat="44.49969" lon="1.05552">
        <ele>143.249092</ele>
        <time>2022-01-11T13:14:50.101Z</time>
      </trkpt>
      <trkpt lat="44.49962" lon="1.05566">
        <ele>144.105043</ele>
        <time>2022-01-11T13:14:52.115Z</time>
      </trkpt>
      <trkpt lat="44.49951" lon="1.05573">
        <ele>144.946955</ele>
        <time>2022-01-11T13:14:54.100Z</time>
      </trkpt>
      <trkpt lat="44.49942" lon="1.05573">
        <ele>145.601096</ele>
        <time>2022-01-11T13:14:56.098Z</time>
      </trkpt>
      <trkpt lat="44.49933" lon="1.05571">
        <ele>146.295149</ele>
        <time>2022-01-11T13:14:58.111Z</time>
      </trkpt>
      <trkpt lat="44.49921" lon="1.05567">
        <ele>147.182017</ele>
        <time>2022-01-11T13:15:01.112Z</time>
      </trkpt>
      <trkpt lat="44.4991" lon="1.05565">
        <ele>147.983246</ele>
        <time>2022-01-11T13:15:04.109Z</time>
      </trkpt>
      <trkpt lat="44.49874" lon="1.05557">
        <ele>149.158152</ele>
        <time>2022-01-11T13:16:13.120Z</time>
      </trkpt>
      <trkpt lat="44.49864" lon="1.05554">
        <ele>148.560473</ele>
        <time>2022-01-11T13:16:15.109Z</time>
      </trkpt>
      <trkpt lat="44.49853" lon="1.05554">
        <ele>147.892035</ele>
        <time>2022-01-11T13:16:17.106Z</time>
      </trkpt>
      <trkpt lat="44.4984" lon="1.0555">
        <ele>147.064446</ele>
        <time>2022-01-11T13:16:19.103Z</time>
      </trkpt>
      <trkpt lat="44.49827" lon="1.05551">
        <ele>146.231024</ele>
        <time>2022-01-11T13:16:21.097Z</time>
      </trkpt>
      <trkpt lat="44.49809" lon="1.05551">
        <ele>145.161384</ele>
        <time>2022-01-11T13:16:23.098Z</time>
      </trkpt>
      <trkpt lat="44.49797" lon="1.05547">
        <ele>144.424677</ele>
        <time>2022-01-11T13:16:25.108Z</time>
      </trkpt>
      <trkpt lat="44.49785" lon="1.05548">
        <ele>143.669062</ele>
        <time>2022-01-11T13:16:27.118Z</time>
      </trkpt>
      <trkpt lat="44.49773" lon="1.05545">
        <ele>142.925962</ele>
        <time>2022-01-11T13:16:30.111Z</time>
      </trkpt>
      <trkpt lat="44.49761" lon="1.05547">
        <ele>142.217661</ele>
        <time>2022-01-11T13:16:33.113Z</time>
      </trkpt>
      <trkpt lat="44.49758" lon="1.0556">
        <ele>141.611397</ele>
        <time>2022-01-11T13:16:38.102Z</time>
      </trkpt>
      <trkpt lat="44.49762" lon="1.05573">
        <ele>141.008097</ele>
        <time>2022-01-11T13:16:41.127Z</time>
      </trkpt>
      <trkpt lat="44.49765" lon="1.05588">
        <ele>140.291417</ele>
        <time>2022-01-11T13:16:44.101Z</time>
      </trkpt>
      <trkpt lat="44.4977" lon="1.05601">
        <ele>139.67024</ele>
        <time>2022-01-11T13:16:46.111Z</time>
      </trkpt>
      <trkpt lat="44.49775" lon="1.05616">
        <ele>138.971783</ele>
        <time>2022-01-11T13:16:48.105Z</time>
      </trkpt>
      <trkpt lat="44.49779" lon="1.0563">
        <ele>138.700268</ele>
        <time>2022-01-11T13:16:50.110Z</time>
      </trkpt>
      <trkpt lat="44.49782" lon="1.05648">
        <ele>138.469076</ele>
        <time>2022-01-11T13:16:52.112Z</time>
      </trkpt>
      <trkpt lat="44.49786" lon="1.05664">
        <ele>138.245036</ele>
        <time>2022-01-11T13:16:54.098Z</time>
      </trkpt>
      <trkpt lat="44.49791" lon="1.05681">
        <ele>138.003925</ele>
        <time>2022-01-11T13:16:56.097Z</time>
      </trkpt>
      <trkpt lat="44.49796" lon="1.05699">
        <ele>137.755272</ele>
        <time>2022-01-11T13:16:58.101Z</time>
      </trkpt>
      <trkpt lat="44.49801" lon="1.05715">
        <ele>137.530158</ele>
        <time>2022-01-11T13:17:00.095Z</time>
      </trkpt>
      <trkpt lat="44.49806" lon="1.05732">
        <ele>137.291518</ele>
        <time>2022-01-11T13:17:02.118Z</time>
      </trkpt>
      <trkpt lat="44.49811" lon="1.05748">
        <ele>137.061203</ele>
        <time>2022-01-11T13:17:04.108Z</time>
      </trkpt>
      <trkpt lat="44.49815" lon="1.05765">
        <ele>136.837931</ele>
        <time>2022-01-11T13:17:06.118Z</time>
      </trkpt>
      <trkpt lat="44.49819" lon="1.05781">
        <ele>136.612107</ele>
        <time>2022-01-11T13:17:08.115Z</time>
      </trkpt>
      <trkpt lat="44.49825" lon="1.05796">
        <ele>136.396517</ele>
        <time>2022-01-11T13:17:10.097Z</time>
      </trkpt>
      <trkpt lat="44.49829" lon="1.05811">
        <ele>136.186213</ele>
        <time>2022-01-11T13:17:12.103Z</time>
      </trkpt>
      <trkpt lat="44.49833" lon="1.05827">
        <ele>135.961059</ele>
        <time>2022-01-11T13:17:14.096Z</time>
      </trkpt>
      <trkpt lat="44.49837" lon="1.05841">
        <ele>135.768787</ele>
        <time>2022-01-11T13:17:16.100Z</time>
      </trkpt>
      <trkpt lat="44.49841" lon="1.05857">
        <ele>135.676514</ele>
        <time>2022-01-11T13:17:18.096Z</time>
      </trkpt>
      <trkpt lat="44.49845" lon="1.05872">
        <ele>135.917969</ele>
        <time>2022-01-11T13:17:20.099Z</time>
      </trkpt>
      <trkpt lat="44.49849" lon="1.05889">
        <ele>136.17631</ele>
        <time>2022-01-11T13:17:22.111Z</time>
      </trkpt>
      <trkpt lat="44.49853" lon="1.05903">
        <ele>136.402335</ele>
        <time>2022-01-11T13:17:24.122Z</time>
      </trkpt>
      <trkpt lat="44.49857" lon="1.05915">
        <ele>136.608989</ele>
        <time>2022-01-11T13:17:26.104Z</time>
      </trkpt>
      <trkpt lat="44.49862" lon="1.05932">
        <ele>136.878301</ele>
        <time>2022-01-11T13:17:29.091Z</time>
      </trkpt>
      <trkpt lat="44.49865" lon="1.05949">
        <ele>137.144503</ele>
        <time>2022-01-11T13:17:32.108Z</time>
      </trkpt>
      <trkpt lat="44.49869" lon="1.05962">
        <ele>137.347988</ele>
        <time>2022-01-11T13:17:34.101Z</time>
      </trkpt>
      <trkpt lat="44.49874" lon="1.05978">
        <ele>137.618958</ele>
        <time>2022-01-11T13:17:37.092Z</time>
      </trkpt>
      <trkpt lat="44.49877" lon="1.05994">
        <ele>137.859378</ele>
        <time>2022-01-11T13:17:40.096Z</time>
      </trkpt>
      <trkpt lat="44.49879" lon="1.0601">
        <ele>138.106933</ele>
        <time>2022-01-11T13:17:43.094Z</time>
      </trkpt>
      <trkpt lat="44.4988" lon="1.06027">
        <ele>138.358007</ele>
        <time>2022-01-11T13:17:46.099Z</time>
      </trkpt>
      <trkpt lat="44.49881" lon="1.06043">
        <ele>138.594296</ele>
        <time>2022-01-11T13:17:49.110Z</time>
      </trkpt>
      <trkpt lat="44.49882" lon="1.06059">
        <ele>138.842288</ele>
        <time>2022-01-11T13:17:52.109Z</time>
      </trkpt>
      <trkpt lat="44.49885" lon="1.06076">
        <ele>139.097228</ele>
        <time>2022-01-11T13:17:55.116Z</time>
      </trkpt>
      <trkpt lat="44.49887" lon="1.06091">
        <ele>139.328045</ele>
        <time>2022-01-11T13:17:58.093Z</time>
      </trkpt>
      <trkpt lat="44.49889" lon="1.06106">
        <ele>140.022883</ele>
        <time>2022-01-11T13:18:01.094Z</time>
      </trkpt>
      <trkpt lat="44.49892" lon="1.06122">
        <ele>140.986894</ele>
        <time>2022-01-11T13:18:04.099Z</time>
      </trkpt>
      <trkpt lat="44.49898" lon="1.06135">
        <ele>141.862869</ele>
        <time>2022-01-11T13:18:07.107Z</time>
      </trkpt>
      <trkpt lat="44.49905" lon="1.0615">
        <ele>142.877078</ele>
        <time>2022-01-11T13:18:10.093Z</time>
      </trkpt>
      <trkpt lat="44.49912" lon="1.06163">
        <ele>143.832571</ele>
        <time>2022-01-11T13:18:13.109Z</time>
      </trkpt>
      <trkpt lat="44.49921" lon="1.06175">
        <ele>144.793785</ele>
        <time>2022-01-11T13:18:16.095Z</time>
      </trkpt>
      <trkpt lat="44.49928" lon="1.06187">
        <ele>145.678444</ele>
        <time>2022-01-11T13:18:19.094Z</time>
      </trkpt>
      <trkpt lat="44.49935" lon="1.06198">
        <ele>146.54089</ele>
        <time>2022-01-11T13:18:22.107Z</time>
      </trkpt>
      <trkpt lat="44.49943" lon="1.0621">
        <ele>147.435101</ele>
        <time>2022-01-11T13:18:25.093Z</time>
      </trkpt>
      <trkpt lat="44.49949" lon="1.06223">
        <ele>148.328344</ele>
        <time>2022-01-11T13:18:28.095Z</time>
      </trkpt>
      <trkpt lat="44.49953" lon="1.06237">
        <ele>149.161071</ele>
        <time>2022-01-11T13:18:31.099Z</time>
      </trkpt>
      <trkpt lat="44.49954" lon="1.0625">
        <ele>149.93654</ele>
        <time>2022-01-11T13:18:34.111Z</time>
      </trkpt>
      <trkpt lat="44.49952" lon="1.06263">
        <ele>150.679451</ele>
        <time>2022-01-11T13:18:37.090Z</time>
      </trkpt>
      <trkpt lat="44.49947" lon="1.06276">
        <ele>151.528284</ele>
        <time>2022-01-11T13:18:40.098Z</time>
      </trkpt>
      <trkpt lat="44.49942" lon="1.06289">
        <ele>152.349063</ele>
        <time>2022-01-11T13:18:43.097Z</time>
      </trkpt>
      <trkpt lat="44.49937" lon="1.06301">
        <ele>153.183349</ele>
        <time>2022-01-11T13:18:46.093Z</time>
      </trkpt>
      <trkpt lat="44.49932" lon="1.06313">
        <ele>153.89149</ele>
        <time>2022-01-11T13:18:49.100Z</time>
      </trkpt>
      <trkpt lat="44.49926" lon="1.06323">
        <ele>154.415117</ele>
        <time>2022-01-11T13:18:52.091Z</time>
      </trkpt>
      <trkpt lat="44.4992" lon="1.06334">
        <ele>154.968242</ele>
        <time>2022-01-11T13:18:55.098Z</time>
      </trkpt>
      <trkpt lat="44.49913" lon="1.06346">
        <ele>155.561547</ele>
        <time>2022-01-11T13:18:58.103Z</time>
      </trkpt>
      <trkpt lat="44.49906" lon="1.06356">
        <ele>156.131536</ele>
        <time>2022-01-11T13:19:01.103Z</time>
      </trkpt>
      <trkpt lat="44.49898" lon="1.06367">
        <ele>156.756164</ele>
        <time>2022-01-11T13:19:05.105Z</time>
      </trkpt>
      <trkpt lat="44.49889" lon="1.06376">
        <ele>157.372148</ele>
        <time>2022-01-11T13:19:09.099Z</time>
      </trkpt>
      <trkpt lat="44.49881" lon="1.06382">
        <ele>157.903037</ele>
        <time>2022-01-11T13:19:12.091Z</time>
      </trkpt>
      <trkpt lat="44.49872" lon="1.0639">
        <ele>158.490088</ele>
        <time>2022-01-11T13:19:15.093Z</time>
      </trkpt>
      <trkpt lat="44.49862" lon="1.064">
        <ele>159.18228</ele>
        <time>2022-01-11T13:19:18.095Z</time>
      </trkpt>
      <trkpt lat="44.49854" lon="1.06407">
        <ele>159.693789</ele>
        <time>2022-01-11T13:19:20.096Z</time>
      </trkpt>
      <trkpt lat="44.49846" lon="1.06414">
        <ele>160.22849</ele>
        <time>2022-01-11T13:19:22.097Z</time>
      </trkpt>
      <trkpt lat="44.49838" lon="1.06422">
        <ele>160.758085</ele>
        <time>2022-01-11T13:19:24.091Z</time>
      </trkpt>
      <trkpt lat="44.4983" lon="1.06429">
        <ele>161.287679</ele>
        <time>2022-01-11T13:19:26.098Z</time>
      </trkpt>
      <trkpt lat="44.49823" lon="1.06435">
        <ele>161.794435</ele>
        <time>2022-01-11T13:19:28.102Z</time>
      </trkpt>
      <trkpt lat="44.49811" lon="1.06445">
        <ele>162.546384</ele>
        <time>2022-01-11T13:19:31.087Z</time>
      </trkpt>
      <trkpt lat="44.49802" lon="1.06455">
        <ele>163.183137</ele>
        <time>2022-01-11T13:19:33.093Z</time>
      </trkpt>
      <trkpt lat="44.49795" lon="1.06463">
        <ele>163.694236</ele>
        <time>2022-01-11T13:19:35.105Z</time>
      </trkpt>
      <trkpt lat="44.49788" lon="1.06472">
        <ele>163.809042</ele>
        <time>2022-01-11T13:19:37.099Z</time>
      </trkpt>
      <trkpt lat="44.49781" lon="1.06479">
        <ele>163.842973</ele>
        <time>2022-01-11T13:19:39.104Z</time>
      </trkpt>
      <trkpt lat="44.49773" lon="1.06488">
        <ele>163.878652</ele>
        <time>2022-01-11T13:19:41.090Z</time>
      </trkpt>
      <trkpt lat="44.49765" lon="1.065">
        <ele>163.92354</ele>
        <time>2022-01-11T13:19:44.089Z</time>
      </trkpt>
      <trkpt lat="44.49757" lon="1.06512">
        <ele>163.970113</ele>
        <time>2022-01-11T13:19:47.090Z</time>
      </trkpt>
      <trkpt lat="44.49751" lon="1.06522">
        <ele>164.004024</ele>
        <time>2022-01-11T13:19:49.109Z</time>
      </trkpt>
      <trkpt lat="44.49744" lon="1.06537">
        <ele>164.051469</ele>
        <time>2022-01-11T13:19:52.093Z</time>
      </trkpt>
      <trkpt lat="44.49738" lon="1.06547">
        <ele>164.087548</ele>
        <time>2022-01-11T13:19:54.102Z</time>
      </trkpt>
      <trkpt lat="44.49732" lon="1.06561">
        <ele>164.131511</ele>
        <time>2022-01-11T13:19:57.090Z</time>
      </trkpt>
      <trkpt lat="44.49727" lon="1.06572">
        <ele>164.166313</ele>
        <time>2022-01-11T13:19:59.092Z</time>
      </trkpt>
      <trkpt lat="44.49719" lon="1.06584">
        <ele>164.211163</ele>
        <time>2022-01-11T13:20:02.089Z</time>
      </trkpt>
      <trkpt lat="44.49711" lon="1.06599">
        <ele>164.2602</ele>
        <time>2022-01-11T13:20:05.094Z</time>
      </trkpt>
      <trkpt lat="44.49703" lon="1.06613">
        <ele>164.308083</ele>
        <time>2022-01-11T13:20:08.096Z</time>
      </trkpt>
      <trkpt lat="44.49696" lon="1.06628">
        <ele>164.355745</ele>
        <time>2022-01-11T13:20:11.097Z</time>
      </trkpt>
      <trkpt lat="44.49688" lon="1.06642">
        <ele>164.403433</ele>
        <time>2022-01-11T13:20:14.092Z</time>
      </trkpt>
      <trkpt lat="44.4968" lon="1.06655">
        <ele>164.450534</ele>
        <time>2022-01-11T13:20:17.104Z</time>
      </trkpt>
      <trkpt lat="44.49673" lon="1.06668">
        <ele>164.353236</ele>
        <time>2022-01-11T13:20:20.095Z</time>
      </trkpt>
      <trkpt lat="44.49665" lon="1.06681">
        <ele>164.226924</ele>
        <time>2022-01-11T13:20:23.096Z</time>
      </trkpt>
      <trkpt lat="44.49658" lon="1.06691">
        <ele>164.132102</ele>
        <time>2022-01-11T13:20:25.109Z</time>
      </trkpt>
      <trkpt lat="44.49651" lon="1.067">
        <ele>164.033547</ele>
        <time>2022-01-11T13:20:27.090Z</time>
      </trkpt>
      <trkpt lat="44.49644" lon="1.0671">
        <ele>163.934181</ele>
        <time>2022-01-11T13:20:29.095Z</time>
      </trkpt>
      <trkpt lat="44.49635" lon="1.0672">
        <ele>163.814367</ele>
        <time>2022-01-11T13:20:31.103Z</time>
      </trkpt>
      <trkpt lat="44.49625" lon="1.06731">
        <ele>163.686773</ele>
        <time>2022-01-11T13:20:33.094Z</time>
      </trkpt>
      <trkpt lat="44.49615" lon="1.0674">
        <ele>163.563728</ele>
        <time>2022-01-11T13:20:35.098Z</time>
      </trkpt>
      <trkpt lat="44.49603" lon="1.0675">
        <ele>163.422622</ele>
        <time>2022-01-11T13:20:37.096Z</time>
      </trkpt>
      <trkpt lat="44.49591" lon="1.0676">
        <ele>163.283871</ele>
        <time>2022-01-11T13:20:39.090Z</time>
      </trkpt>
      <trkpt lat="44.49578" lon="1.0677">
        <ele>163.135628</ele>
        <time>2022-01-11T13:20:41.095Z</time>
      </trkpt>
      <trkpt lat="44.49565" lon="1.0678">
        <ele>162.982488</ele>
        <time>2022-01-11T13:20:43.091Z</time>
      </trkpt>
      <trkpt lat="44.4955" lon="1.0679">
        <ele>162.814923</ele>
        <time>2022-01-11T13:20:45.093Z</time>
      </trkpt>
      <trkpt lat="44.49535" lon="1.068">
        <ele>162.647431</ele>
        <time>2022-01-11T13:20:47.098Z</time>
      </trkpt>
      <trkpt lat="44.4952" lon="1.06812">
        <ele>161.292086</ele>
        <time>2022-01-11T13:20:49.091Z</time>
      </trkpt>
      <trkpt lat="44.49513" lon="1.06819">
        <ele>160.52885</ele>
        <time>2022-01-11T13:20:50.093Z</time>
      </trkpt>
      <trkpt lat="44.49497" lon="1.06833">
        <ele>158.993843</ele>
        <time>2022-01-11T13:20:52.094Z</time>
      </trkpt>
      <trkpt lat="44.49489" lon="1.0684">
        <ele>158.198511</ele>
        <time>2022-01-11T13:20:53.101Z</time>
      </trkpt>
      <trkpt lat="44.49481" lon="1.06847">
        <ele>157.396012</ele>
        <time>2022-01-11T13:20:54.111Z</time>
      </trkpt>
      <trkpt lat="44.49475" lon="1.06856">
        <ele>156.635744</ele>
        <time>2022-01-11T13:20:55.098Z</time>
      </trkpt>
      <trkpt lat="44.49466" lon="1.06863">
        <ele>155.789308</ele>
        <time>2022-01-11T13:20:56.094Z</time>
      </trkpt>
      <trkpt lat="44.49457" lon="1.06867">
        <ele>154.967103</ele>
        <time>2022-01-11T13:20:57.097Z</time>
      </trkpt>
      <trkpt lat="44.4945" lon="1.06876">
        <ele>154.136925</ele>
        <time>2022-01-11T13:20:58.095Z</time>
      </trkpt>
      <trkpt lat="44.49442" lon="1.06885">
        <ele>153.265249</ele>
        <time>2022-01-11T13:20:59.102Z</time>
      </trkpt>
      <trkpt lat="44.49434" lon="1.06895">
        <ele>152.377863</ele>
        <time>2022-01-11T13:21:00.097Z</time>
      </trkpt>
      <trkpt lat="44.49426" lon="1.06904">
        <ele>151.534901</ele>
        <time>2022-01-11T13:21:01.112Z</time>
      </trkpt>
      <trkpt lat="44.49418" lon="1.06913">
        <ele>150.650679</ele>
        <time>2022-01-11T13:21:02.112Z</time>
      </trkpt>
      <trkpt lat="44.4941" lon="1.06925">
        <ele>149.663921</ele>
        <time>2022-01-11T13:21:03.097Z</time>
      </trkpt>
      <trkpt lat="44.49402" lon="1.06934">
        <ele>148.806751</ele>
        <time>2022-01-11T13:21:04.103Z</time>
      </trkpt>
      <trkpt lat="44.49393" lon="1.06944">
        <ele>147.854091</ele>
        <time>2022-01-11T13:21:05.095Z</time>
      </trkpt>
      <trkpt lat="44.49385" lon="1.06954">
        <ele>147.222218</ele>
        <time>2022-01-11T13:21:06.110Z</time>
      </trkpt>
      <trkpt lat="44.49376" lon="1.06963">
        <ele>146.779808</ele>
        <time>2022-01-11T13:21:07.094Z</time>
      </trkpt>
      <trkpt lat="44.49367" lon="1.06974">
        <ele>146.323541</ele>
        <time>2022-01-11T13:21:08.095Z</time>
      </trkpt>
      <trkpt lat="44.49359" lon="1.06986">
        <ele>145.856785</ele>
        <time>2022-01-11T13:21:09.095Z</time>
      </trkpt>
      <trkpt lat="44.4935" lon="1.06997">
        <ele>145.383573</ele>
        <time>2022-01-11T13:21:10.090Z</time>
      </trkpt>
      <trkpt lat="44.49342" lon="1.07008">
        <ele>144.947261</ele>
        <time>2022-01-11T13:21:11.094Z</time>
      </trkpt>
      <trkpt lat="44.49334" lon="1.07019">
        <ele>144.489966</ele>
        <time>2022-01-11T13:21:12.098Z</time>
      </trkpt>
      <trkpt lat="44.49325" lon="1.07031">
        <ele>144.020336</ele>
        <time>2022-01-11T13:21:13.111Z</time>
      </trkpt>
      <trkpt lat="44.49317" lon="1.07042">
        <ele>143.56123</ele>
        <time>2022-01-11T13:21:14.103Z</time>
      </trkpt>
      <trkpt lat="44.49309" lon="1.07055">
        <ele>143.088813</ele>
        <time>2022-01-11T13:21:15.096Z</time>
      </trkpt>
      <trkpt lat="44.49301" lon="1.07067">
        <ele>142.623739</ele>
        <time>2022-01-11T13:21:16.092Z</time>
      </trkpt>
      <trkpt lat="44.49293" lon="1.07079">
        <ele>142.171779</ele>
        <time>2022-01-11T13:21:17.090Z</time>
      </trkpt>
      <trkpt lat="44.49287" lon="1.07093">
        <ele>141.716345</ele>
        <time>2022-01-11T13:21:18.094Z</time>
      </trkpt>
      <trkpt lat="44.49281" lon="1.07105">
        <ele>141.285796</ele>
        <time>2022-01-11T13:21:19.097Z</time>
      </trkpt>
      <trkpt lat="44.49275" lon="1.07119">
        <ele>140.831163</ele>
        <time>2022-01-11T13:21:20.099Z</time>
      </trkpt>
      <trkpt lat="44.49268" lon="1.07133">
        <ele>140.361983</ele>
        <time>2022-01-11T13:21:21.103Z</time>
      </trkpt>
      <trkpt lat="44.49263" lon="1.07147">
        <ele>140.083226</ele>
        <time>2022-01-11T13:21:22.110Z</time>
      </trkpt>
      <trkpt lat="44.49256" lon="1.0716">
        <ele>139.785794</ele>
        <time>2022-01-11T13:21:23.102Z</time>
      </trkpt>
      <trkpt lat="44.49249" lon="1.07174">
        <ele>139.485412</ele>
        <time>2022-01-11T13:21:24.099Z</time>
      </trkpt>
      <trkpt lat="44.49244" lon="1.07188">
        <ele>139.206981</ele>
        <time>2022-01-11T13:21:25.098Z</time>
      </trkpt>
      <trkpt lat="44.49238" lon="1.07202">
        <ele>138.914477</ele>
        <time>2022-01-11T13:21:26.098Z</time>
      </trkpt>
      <trkpt lat="44.49233" lon="1.07216">
        <ele>138.63412</ele>
        <time>2022-01-11T13:21:27.091Z</time>
      </trkpt>
      <trkpt lat="44.49227" lon="1.07228">
        <ele>138.367253</ele>
        <time>2022-01-11T13:21:28.097Z</time>
      </trkpt>
      <trkpt lat="44.49221" lon="1.0724">
        <ele>138.101795</ele>
        <time>2022-01-11T13:21:29.100Z</time>
      </trkpt>
      <trkpt lat="44.49213" lon="1.07252">
        <ele>137.817596</ele>
        <time>2022-01-11T13:21:30.094Z</time>
      </trkpt>
      <trkpt lat="44.49204" lon="1.07262">
        <ele>137.5267</ele>
        <time>2022-01-11T13:21:31.094Z</time>
      </trkpt>
      <trkpt lat="44.49198" lon="1.07276">
        <ele>137.223164</ele>
        <time>2022-01-11T13:21:32.094Z</time>
      </trkpt>
      <trkpt lat="44.49192" lon="1.0729">
        <ele>136.942468</ele>
        <time>2022-01-11T13:21:33.101Z</time>
      </trkpt>
      <trkpt lat="44.49186" lon="1.07305">
        <ele>136.631198</ele>
        <time>2022-01-11T13:21:34.094Z</time>
      </trkpt>
      <trkpt lat="44.49181" lon="1.0732">
        <ele>136.338395</ele>
        <time>2022-01-11T13:21:35.089Z</time>
      </trkpt>
      <trkpt lat="44.49179" lon="1.07337">
        <ele>136.03505</ele>
        <time>2022-01-11T13:21:36.091Z</time>
      </trkpt>
      <trkpt lat="44.49176" lon="1.07354">
        <ele>135.719653</ele>
        <time>2022-01-11T13:21:37.098Z</time>
      </trkpt>
      <trkpt lat="44.49177" lon="1.07375">
        <ele>135.361044</ele>
        <time>2022-01-11T13:21:38.092Z</time>
      </trkpt>
      <trkpt lat="44.49176" lon="1.07393">
        <ele>135.057487</ele>
        <time>2022-01-11T13:21:39.095Z</time>
      </trkpt>
      <trkpt lat="44.49176" lon="1.07411">
        <ele>134.752822</ele>
        <time>2022-01-11T13:21:40.097Z</time>
      </trkpt>
      <trkpt lat="44.49177" lon="1.07426">
        <ele>134.488808</ele>
        <time>2022-01-11T13:21:41.094Z</time>
      </trkpt>
      <trkpt lat="44.49179" lon="1.07442">
        <ele>134.217264</ele>
        <time>2022-01-11T13:21:42.094Z</time>
      </trkpt>
      <trkpt lat="44.49179" lon="1.07457">
        <ele>133.956001</ele>
        <time>2022-01-11T13:21:43.094Z</time>
      </trkpt>
      <trkpt lat="44.4918" lon="1.0747">
        <ele>133.73446</ele>
        <time>2022-01-11T13:21:44.093Z</time>
      </trkpt>
      <trkpt lat="44.49181" lon="1.07484">
        <ele>133.499568</ele>
        <time>2022-01-11T13:21:45.117Z</time>
      </trkpt>
      <trkpt lat="44.49181" lon="1.07498">
        <ele>133.253668</ele>
        <time>2022-01-11T13:21:46.096Z</time>
      </trkpt>
      <trkpt lat="44.49182" lon="1.07513">
        <ele>133.007395</ele>
        <time>2022-01-11T13:21:47.108Z</time>
      </trkpt>
      <trkpt lat="44.49182" lon="1.07526">
        <ele>132.778502</ele>
        <time>2022-01-11T13:21:48.102Z</time>
      </trkpt>
      <trkpt lat="44.49182" lon="1.07549">
        <ele>132.37899</ele>
        <time>2022-01-11T13:21:50.093Z</time>
      </trkpt>
      <trkpt lat="44.49183" lon="1.07574">
        <ele>131.963554</ele>
        <time>2022-01-11T13:21:52.103Z</time>
      </trkpt>
      <trkpt lat="44.49184" lon="1.07597">
        <ele>131.564714</ele>
        <time>2022-01-11T13:21:54.104Z</time>
      </trkpt>
      <trkpt lat="44.49186" lon="1.07622">
        <ele>131.385918</ele>
        <time>2022-01-11T13:21:56.094Z</time>
      </trkpt>
      <trkpt lat="44.49188" lon="1.07645">
        <ele>131.226267</ele>
        <time>2022-01-11T13:21:58.094Z</time>
      </trkpt>
      <trkpt lat="44.49189" lon="1.07667">
        <ele>131.072139</ele>
        <time>2022-01-11T13:22:00.093Z</time>
      </trkpt>
      <trkpt lat="44.4919" lon="1.0769">
        <ele>130.912847</ele>
        <time>2022-01-11T13:22:02.098Z</time>
      </trkpt>
      <trkpt lat="44.49192" lon="1.07712">
        <ele>130.758744</ele>
        <time>2022-01-11T13:22:04.092Z</time>
      </trkpt>
      <trkpt lat="44.49193" lon="1.07734">
        <ele>130.604215</ele>
        <time>2022-01-11T13:22:06.093Z</time>
      </trkpt>
      <trkpt lat="44.49194" lon="1.07757">
        <ele>130.447326</ele>
        <time>2022-01-11T13:22:08.109Z</time>
      </trkpt>
      <trkpt lat="44.49195" lon="1.0778">
        <ele>130.289815</ele>
        <time>2022-01-11T13:22:10.093Z</time>
      </trkpt>
      <trkpt lat="44.49196" lon="1.07802">
        <ele>130.135932</ele>
        <time>2022-01-11T13:22:12.099Z</time>
      </trkpt>
      <trkpt lat="44.49198" lon="1.07824">
        <ele>129.979296</ele>
        <time>2022-01-11T13:22:14.099Z</time>
      </trkpt>
      <trkpt lat="44.49199" lon="1.07845">
        <ele>129.833018</ele>
        <time>2022-01-11T13:22:16.099Z</time>
      </trkpt>
      <trkpt lat="44.49199" lon="1.07867">
        <ele>129.893125</ele>
        <time>2022-01-11T13:22:18.097Z</time>
      </trkpt>
      <trkpt lat="44.49201" lon="1.07889">
        <ele>129.996299</ele>
        <time>2022-01-11T13:22:20.093Z</time>
      </trkpt>
      <trkpt lat="44.49202" lon="1.0791">
        <ele>130.094688</ele>
        <time>2022-01-11T13:22:22.101Z</time>
      </trkpt>
      <trkpt lat="44.49203" lon="1.07932">
        <ele>130.196811</ele>
        <time>2022-01-11T13:22:24.090Z</time>
      </trkpt>
      <trkpt lat="44.49204" lon="1.07953">
        <ele>130.29664</ele>
        <time>2022-01-11T13:22:26.097Z</time>
      </trkpt>
      <trkpt lat="44.49206" lon="1.07975">
        <ele>130.400527</ele>
        <time>2022-01-11T13:22:28.102Z</time>
      </trkpt>
      <trkpt lat="44.49206" lon="1.07995">
        <ele>130.494565</ele>
        <time>2022-01-11T13:22:30.093Z</time>
      </trkpt>
      <trkpt lat="44.49208" lon="1.08016">
        <ele>130.593267</ele>
        <time>2022-01-11T13:22:32.107Z</time>
      </trkpt>
      <trkpt lat="44.49209" lon="1.08037">
        <ele>130.689052</ele>
        <time>2022-01-11T13:22:34.094Z</time>
      </trkpt>
      <trkpt lat="44.4921" lon="1.08058">
        <ele>130.788304</ele>
        <time>2022-01-11T13:22:36.096Z</time>
      </trkpt>
      <trkpt lat="44.49211" lon="1.08077">
        <ele>130.880829</ele>
        <time>2022-01-11T13:22:38.100Z</time>
      </trkpt>
      <trkpt lat="44.49212" lon="1.08098">
        <ele>130.978713</ele>
        <time>2022-01-11T13:22:40.094Z</time>
      </trkpt>
      <trkpt lat="44.49213" lon="1.08119">
        <ele>131.088878</ele>
        <time>2022-01-11T13:22:42.094Z</time>
      </trkpt>
      <trkpt lat="44.49217" lon="1.0814">
        <ele>131.202277</ele>
        <time>2022-01-11T13:22:44.095Z</time>
      </trkpt>
      <trkpt lat="44.49221" lon="1.0816">
        <ele>131.308027</ele>
        <time>2022-01-11T13:22:46.098Z</time>
      </trkpt>
      <trkpt lat="44.49225" lon="1.0818">
        <ele>131.41893</ele>
        <time>2022-01-11T13:22:48.109Z</time>
      </trkpt>
      <trkpt lat="44.49228" lon="1.08199">
        <ele>131.524057</ele>
        <time>2022-01-11T13:22:50.106Z</time>
      </trkpt>
      <trkpt lat="44.49232" lon="1.08219">
        <ele>131.630906</ele>
        <time>2022-01-11T13:22:52.088Z</time>
      </trkpt>
      <trkpt lat="44.49237" lon="1.08237">
        <ele>131.731603</ele>
        <time>2022-01-11T13:22:54.100Z</time>
      </trkpt>
      <trkpt lat="44.49241" lon="1.08253">
        <ele>131.822408</ele>
        <time>2022-01-11T13:22:56.101Z</time>
      </trkpt>
      <trkpt lat="44.49243" lon="1.08269">
        <ele>131.906429</ele>
        <time>2022-01-11T13:22:58.104Z</time>
      </trkpt>
      <trkpt lat="44.49244" lon="1.08287">
        <ele>132.002899</ele>
        <time>2022-01-11T13:23:00.097Z</time>
      </trkpt>
      <trkpt lat="44.49248" lon="1.08304">
        <ele>132.096907</ele>
        <time>2022-01-11T13:23:02.091Z</time>
      </trkpt>
      <trkpt lat="44.49254" lon="1.0832">
        <ele>132.189975</ele>
        <time>2022-01-11T13:23:04.090Z</time>
      </trkpt>
      <trkpt lat="44.49259" lon="1.08337">
        <ele>132.288349</ele>
        <time>2022-01-11T13:23:06.095Z</time>
      </trkpt>
      <trkpt lat="44.49262" lon="1.08355">
        <ele>132.288261</ele>
        <time>2022-01-11T13:23:08.093Z</time>
      </trkpt>
      <trkpt lat="44.49266" lon="1.08373">
        <ele>132.248862</ele>
        <time>2022-01-11T13:23:10.108Z</time>
      </trkpt>
      <trkpt lat="44.49271" lon="1.08392">
        <ele>132.206752</ele>
        <time>2022-01-11T13:23:12.093Z</time>
      </trkpt>
      <trkpt lat="44.49276" lon="1.0841">
        <ele>132.166688</ele>
        <time>2022-01-11T13:23:14.105Z</time>
      </trkpt>
      <trkpt lat="44.49281" lon="1.0843">
        <ele>132.12233</ele>
        <time>2022-01-11T13:23:16.092Z</time>
      </trkpt>
      <trkpt lat="44.49286" lon="1.08449">
        <ele>132.080705</ele>
        <time>2022-01-11T13:23:18.093Z</time>
      </trkpt>
      <trkpt lat="44.4929" lon="1.08468">
        <ele>132.040882</ele>
        <time>2022-01-11T13:23:20.093Z</time>
      </trkpt>
      <trkpt lat="44.49296" lon="1.08487">
        <ele>131.996061</ele>
        <time>2022-01-11T13:23:22.100Z</time>
      </trkpt>
      <trkpt lat="44.49298" lon="1.085">
        <ele>131.968813</ele>
        <time>2022-01-11T13:23:24.107Z</time>
      </trkpt>
      <trkpt lat="44.49301" lon="1.08521">
        <ele>131.923736</ele>
        <time>2022-01-11T13:23:26.104Z</time>
      </trkpt>
      <trkpt lat="44.49307" lon="1.08542">
        <ele>131.877875</ele>
        <time>2022-01-11T13:23:28.107Z</time>
      </trkpt>
      <trkpt lat="44.49312" lon="1.08556">
        <ele>131.84465</ele>
        <time>2022-01-11T13:23:30.104Z</time>
      </trkpt>
      <trkpt lat="44.49315" lon="1.08575">
        <ele>131.8061</ele>
        <time>2022-01-11T13:23:32.109Z</time>
      </trkpt>
      <trkpt lat="44.49317" lon="1.08592">
        <ele>132.067381</ele>
        <time>2022-01-11T13:23:34.112Z</time>
      </trkpt>
      <trkpt lat="44.49321" lon="1.08609">
        <ele>132.509698</ele>
        <time>2022-01-11T13:23:36.113Z</time>
      </trkpt>
      <trkpt lat="44.49322" lon="1.08625">
        <ele>132.925826</ele>
        <time>2022-01-11T13:23:38.095Z</time>
      </trkpt>
      <trkpt lat="44.49325" lon="1.08642">
        <ele>133.355992</ele>
        <time>2022-01-11T13:23:40.117Z</time>
      </trkpt>
      <trkpt lat="44.49328" lon="1.08659">
        <ele>133.804742</ele>
        <time>2022-01-11T13:23:42.104Z</time>
      </trkpt>
      <trkpt lat="44.49333" lon="1.08676">
        <ele>134.247539</ele>
        <time>2022-01-11T13:23:44.098Z</time>
      </trkpt>
      <trkpt lat="44.49339" lon="1.08693">
        <ele>134.716752</ele>
        <time>2022-01-11T13:23:46.093Z</time>
      </trkpt>
      <trkpt lat="44.49342" lon="1.08709">
        <ele>135.140546</ele>
        <time>2022-01-11T13:23:48.103Z</time>
      </trkpt>
      <trkpt lat="44.49345" lon="1.08728">
        <ele>135.622022</ele>
        <time>2022-01-11T13:23:50.099Z</time>
      </trkpt>
      <trkpt lat="44.49349" lon="1.08745">
        <ele>136.06794</ele>
        <time>2022-01-11T13:23:52.121Z</time>
      </trkpt>
      <trkpt lat="44.49355" lon="1.08761">
        <ele>136.513839</ele>
        <time>2022-01-11T13:23:54.115Z</time>
      </trkpt>
      <trkpt lat="44.4936" lon="1.08777">
        <ele>136.961991</ele>
        <time>2022-01-11T13:23:56.106Z</time>
      </trkpt>
      <trkpt lat="44.49364" lon="1.08794">
        <ele>137.404609</ele>
        <time>2022-01-11T13:23:58.105Z</time>
      </trkpt>
      <trkpt lat="44.49369" lon="1.0881">
        <ele>137.846087</ele>
        <time>2022-01-11T13:24:00.096Z</time>
      </trkpt>
      <trkpt lat="44.49372" lon="1.08827">
        <ele>137.94462</ele>
        <time>2022-01-11T13:24:02.107Z</time>
      </trkpt>
      <trkpt lat="44.49376" lon="1.08844">
        <ele>137.623156</ele>
        <time>2022-01-11T13:24:04.090Z</time>
      </trkpt>
      <trkpt lat="44.49379" lon="1.08861">
        <ele>137.309439</ele>
        <time>2022-01-11T13:24:06.098Z</time>
      </trkpt>
      <trkpt lat="44.49383" lon="1.08877">
        <ele>136.992813</ele>
        <time>2022-01-11T13:24:08.102Z</time>
      </trkpt>
      <trkpt lat="44.49388" lon="1.08894">
        <ele>136.655811</ele>
        <time>2022-01-11T13:24:10.116Z</time>
      </trkpt>
      <trkpt lat="44.49394" lon="1.08911">
        <ele>136.298602</ele>
        <time>2022-01-11T13:24:12.102Z</time>
      </trkpt>
      <trkpt lat="44.49399" lon="1.08928">
        <ele>135.959611</ele>
        <time>2022-01-11T13:24:14.113Z</time>
      </trkpt>
      <trkpt lat="44.49405" lon="1.08944">
        <ele>135.634418</ele>
        <time>2022-01-11T13:24:16.114Z</time>
      </trkpt>
      <trkpt lat="44.4941" lon="1.08961">
        <ele>135.30612</ele>
        <time>2022-01-11T13:24:18.116Z</time>
      </trkpt>
      <trkpt lat="44.49414" lon="1.08978">
        <ele>134.964095</ele>
        <time>2022-01-11T13:24:20.111Z</time>
      </trkpt>
      <trkpt lat="44.49418" lon="1.08996">
        <ele>134.63038</ele>
        <time>2022-01-11T13:24:22.114Z</time>
      </trkpt>
      <trkpt lat="44.49425" lon="1.09013">
        <ele>134.26855</ele>
        <time>2022-01-11T13:24:24.120Z</time>
      </trkpt>
      <trkpt lat="44.49429" lon="1.09029">
        <ele>133.945158</ele>
        <time>2022-01-11T13:24:26.110Z</time>
      </trkpt>
      <trkpt lat="44.49433" lon="1.09047">
        <ele>133.612586</ele>
        <time>2022-01-11T13:24:28.112Z</time>
      </trkpt>
      <trkpt lat="44.49439" lon="1.09066">
        <ele>133.504153</ele>
        <time>2022-01-11T13:24:30.110Z</time>
      </trkpt>
      <trkpt lat="44.49444" lon="1.09084">
        <ele>133.56192</ele>
        <time>2022-01-11T13:24:32.116Z</time>
      </trkpt>
      <trkpt lat="44.49449" lon="1.09102">
        <ele>133.618868</ele>
        <time>2022-01-11T13:24:34.105Z</time>
      </trkpt>
      <trkpt lat="44.49455" lon="1.09121">
        <ele>133.678739</ele>
        <time>2022-01-11T13:24:36.120Z</time>
      </trkpt>
      <trkpt lat="44.49461" lon="1.09138">
        <ele>133.735792</ele>
        <time>2022-01-11T13:24:38.117Z</time>
      </trkpt>
      <trkpt lat="44.49467" lon="1.09154">
        <ele>133.790175</ele>
        <time>2022-01-11T13:24:40.104Z</time>
      </trkpt>
      <trkpt lat="44.49473" lon="1.0917">
        <ele>133.844629</ele>
        <time>2022-01-11T13:24:42.101Z</time>
      </trkpt>
      <trkpt lat="44.4948" lon="1.09187">
        <ele>133.90156</ele>
        <time>2022-01-11T13:24:44.095Z</time>
      </trkpt>
      <trkpt lat="44.49487" lon="1.09204">
        <ele>133.958533</ele>
        <time>2022-01-11T13:24:46.107Z</time>
      </trkpt>
      <trkpt lat="44.49495" lon="1.0922">
        <ele>134.015344</ele>
        <time>2022-01-11T13:24:48.109Z</time>
      </trkpt>
      <trkpt lat="44.49502" lon="1.09238">
        <ele>134.076677</ele>
        <time>2022-01-11T13:24:50.115Z</time>
      </trkpt>
      <trkpt lat="44.4951" lon="1.09256">
        <ele>134.13975</ele>
        <time>2022-01-11T13:24:52.107Z</time>
      </trkpt>
      <trkpt lat="44.49517" lon="1.09274">
        <ele>134.200839</ele>
        <time>2022-01-11T13:24:54.106Z</time>
      </trkpt>
      <trkpt lat="44.49525" lon="1.09294">
        <ele>133.993438</ele>
        <time>2022-01-11T13:24:56.105Z</time>
      </trkpt>
      <trkpt lat="44.49534" lon="1.09313">
        <ele>133.739223</ele>
        <time>2022-01-11T13:24:58.099Z</time>
      </trkpt>
      <trkpt lat="44.49542" lon="1.09333">
        <ele>133.478419</ele>
        <time>2022-01-11T13:25:00.110Z</time>
      </trkpt>
      <trkpt lat="44.49552" lon="1.09353">
        <ele>133.211085</ele>
        <time>2022-01-11T13:25:02.104Z</time>
      </trkpt>
      <trkpt lat="44.49556" lon="1.09364">
        <ele>133.06691</ele>
        <time>2022-01-11T13:25:03.116Z</time>
      </trkpt>
      <trkpt lat="44.49564" lon="1.09384">
        <ele>132.805155</ele>
        <time>2022-01-11T13:25:05.112Z</time>
      </trkpt>
      <trkpt lat="44.49572" lon="1.09406">
        <ele>132.535656</ele>
        <time>2022-01-11T13:25:07.112Z</time>
      </trkpt>
      <trkpt lat="44.4958" lon="1.09425">
        <ele>132.285567</ele>
        <time>2022-01-11T13:25:09.097Z</time>
      </trkpt>
      <trkpt lat="44.49587" lon="1.09446">
        <ele>132.026622</ele>
        <time>2022-01-11T13:25:11.099Z</time>
      </trkpt>
      <trkpt lat="44.49591" lon="1.09458">
        <ele>131.875423</ele>
        <time>2022-01-11T13:25:12.110Z</time>
      </trkpt>
      <trkpt lat="44.49595" lon="1.09469">
        <ele>131.733263</ele>
        <time>2022-01-11T13:25:13.119Z</time>
      </trkpt>
      <trkpt lat="44.49603" lon="1.0949">
        <ele>131.468779</ele>
        <time>2022-01-11T13:25:15.119Z</time>
      </trkpt>
      <trkpt lat="44.49611" lon="1.09509">
        <ele>131.376017</ele>
        <time>2022-01-11T13:25:17.097Z</time>
      </trkpt>
      <trkpt lat="44.49618" lon="1.0953">
        <ele>131.375454</ele>
        <time>2022-01-11T13:25:19.099Z</time>
      </trkpt>
      <trkpt lat="44.49625" lon="1.09551">
        <ele>131.374883</ele>
        <time>2022-01-11T13:25:21.107Z</time>
      </trkpt>
      <trkpt lat="44.49632" lon="1.09571">
        <ele>131.374328</ele>
        <time>2022-01-11T13:25:23.115Z</time>
      </trkpt>
      <trkpt lat="44.4964" lon="1.09591">
        <ele>131.373771</ele>
        <time>2022-01-11T13:25:25.110Z</time>
      </trkpt>
      <trkpt lat="44.49648" lon="1.09609">
        <ele>131.373238</ele>
        <time>2022-01-11T13:25:27.116Z</time>
      </trkpt>
      <trkpt lat="44.49658" lon="1.09628">
        <ele>131.372678</ele>
        <time>2022-01-11T13:25:29.113Z</time>
      </trkpt>
      <trkpt lat="44.49667" lon="1.09646">
        <ele>131.372126</ele>
        <time>2022-01-11T13:25:31.105Z</time>
      </trkpt>
      <trkpt lat="44.49677" lon="1.09663">
        <ele>131.37159</ele>
        <time>2022-01-11T13:25:33.113Z</time>
      </trkpt>
      <trkpt lat="44.49685" lon="1.0968">
        <ele>131.37109</ele>
        <time>2022-01-11T13:25:35.114Z</time>
      </trkpt>
      <trkpt lat="44.49694" lon="1.09698">
        <ele>131.37054</ele>
        <time>2022-01-11T13:25:37.105Z</time>
      </trkpt>
      <trkpt lat="44.49704" lon="1.09716">
        <ele>131.352624</ele>
        <time>2022-01-11T13:25:39.108Z</time>
      </trkpt>
      <trkpt lat="44.49714" lon="1.09733">
        <ele>131.296089</ele>
        <time>2022-01-11T13:25:41.104Z</time>
      </trkpt>
      <trkpt lat="44.49723" lon="1.09751">
        <ele>131.240626</ele>
        <time>2022-01-11T13:25:43.113Z</time>
      </trkpt>
      <trkpt lat="44.49733" lon="1.09769">
        <ele>131.18389</ele>
        <time>2022-01-11T13:25:45.114Z</time>
      </trkpt>
      <trkpt lat="44.49743" lon="1.09787">
        <ele>131.125294</ele>
        <time>2022-01-11T13:25:47.103Z</time>
      </trkpt>
      <trkpt lat="44.49752" lon="1.09805">
        <ele>131.068356</ele>
        <time>2022-01-11T13:25:49.119Z</time>
      </trkpt>
      <trkpt lat="44.49761" lon="1.09822">
        <ele>131.013923</ele>
        <time>2022-01-11T13:25:51.103Z</time>
      </trkpt>
      <trkpt lat="44.4977" lon="1.09839">
        <ele>130.959499</ele>
        <time>2022-01-11T13:25:53.116Z</time>
      </trkpt>
      <trkpt lat="44.4978" lon="1.09856">
        <ele>130.904304</ele>
        <time>2022-01-11T13:25:55.117Z</time>
      </trkpt>
      <trkpt lat="44.4979" lon="1.09873">
        <ele>130.84911</ele>
        <time>2022-01-11T13:25:57.102Z</time>
      </trkpt>
      <trkpt lat="44.49799" lon="1.09889">
        <ele>130.795037</ele>
        <time>2022-01-11T13:25:59.111Z</time>
      </trkpt>
      <trkpt lat="44.49809" lon="1.09906">
        <ele>130.740144</ele>
        <time>2022-01-11T13:26:01.106Z</time>
      </trkpt>
      <trkpt lat="44.49817" lon="1.09924">
        <ele>130.809046</ele>
        <time>2022-01-11T13:26:03.118Z</time>
      </trkpt>
      <trkpt lat="44.49827" lon="1.09941">
        <ele>130.911502</ele>
        <time>2022-01-11T13:26:05.104Z</time>
      </trkpt>
      <trkpt lat="44.49837" lon="1.09959">
        <ele>131.016661</ele>
        <time>2022-01-11T13:26:07.102Z</time>
      </trkpt>
      <trkpt lat="44.49845" lon="1.09977">
        <ele>131.11909</ele>
        <time>2022-01-11T13:26:09.118Z</time>
      </trkpt>
      <trkpt lat="44.49853" lon="1.09995">
        <ele>131.221327</ele>
        <time>2022-01-11T13:26:11.110Z</time>
      </trkpt>
      <trkpt lat="44.4986" lon="1.10014">
        <ele>131.31851</ele>
        <time>2022-01-11T13:26:13.105Z</time>
      </trkpt>
      <trkpt lat="44.49867" lon="1.10032">
        <ele>131.416196</ele>
        <time>2022-01-11T13:26:15.105Z</time>
      </trkpt>
      <trkpt lat="44.49872" lon="1.10051">
        <ele>131.509033</ele>
        <time>2022-01-11T13:26:17.108Z</time>
      </trkpt>
      <trkpt lat="44.49878" lon="1.10071">
        <ele>131.61402</ele>
        <time>2022-01-11T13:26:19.115Z</time>
      </trkpt>
      <trkpt lat="44.49883" lon="1.10091">
        <ele>131.710516</ele>
        <time>2022-01-11T13:26:21.114Z</time>
      </trkpt>
      <trkpt lat="44.49888" lon="1.10111">
        <ele>131.814384</ele>
        <time>2022-01-11T13:26:23.100Z</time>
      </trkpt>
      <trkpt lat="44.49895" lon="1.1013">
        <ele>131.911383</ele>
        <time>2022-01-11T13:26:25.106Z</time>
      </trkpt>
      <trkpt lat="44.499" lon="1.10148">
        <ele>131.965366</ele>
        <time>2022-01-11T13:26:27.103Z</time>
      </trkpt>
      <trkpt lat="44.49906" lon="1.10167">
        <ele>132.015896</ele>
        <time>2022-01-11T13:26:29.108Z</time>
      </trkpt>
      <trkpt lat="44.49911" lon="1.10186">
        <ele>132.067948</ele>
        <time>2022-01-11T13:26:31.110Z</time>
      </trkpt>
      <trkpt lat="44.49916" lon="1.10205">
        <ele>132.1221</ele>
        <time>2022-01-11T13:26:33.118Z</time>
      </trkpt>
      <trkpt lat="44.49921" lon="1.10224">
        <ele>132.172366</ele>
        <time>2022-01-11T13:26:35.118Z</time>
      </trkpt>
      <trkpt lat="44.49926" lon="1.10242">
        <ele>132.223452</ele>
        <time>2022-01-11T13:26:37.105Z</time>
      </trkpt>
      <trkpt lat="44.49931" lon="1.10261">
        <ele>132.275264</ele>
        <time>2022-01-11T13:26:39.117Z</time>
      </trkpt>
      <trkpt lat="44.49936" lon="1.10279">
        <ele>132.324814</ele>
        <time>2022-01-11T13:26:41.113Z</time>
      </trkpt>
      <trkpt lat="44.49941" lon="1.10298">
        <ele>132.376022</ele>
        <time>2022-01-11T13:26:43.122Z</time>
      </trkpt>
      <trkpt lat="44.49946" lon="1.10316">
        <ele>132.42518</ele>
        <time>2022-01-11T13:26:45.121Z</time>
      </trkpt>
      <trkpt lat="44.4995" lon="1.10335">
        <ele>132.4747</ele>
        <time>2022-01-11T13:26:47.103Z</time>
      </trkpt>
      <trkpt lat="44.49955" lon="1.10352">
        <ele>132.521935</ele>
        <time>2022-01-11T13:26:49.111Z</time>
      </trkpt>
      <trkpt lat="44.4996" lon="1.1037">
        <ele>132.587439</ele>
        <time>2022-01-11T13:26:51.115Z</time>
      </trkpt>
      <trkpt lat="44.49965" lon="1.10388">
        <ele>132.721778</ele>
        <time>2022-01-11T13:26:53.108Z</time>
      </trkpt>
      <trkpt lat="44.49971" lon="1.10407">
        <ele>132.861969</ele>
        <time>2022-01-11T13:26:55.108Z</time>
      </trkpt>
      <trkpt lat="44.49976" lon="1.10426">
        <ele>132.995553</ele>
        <time>2022-01-11T13:26:57.114Z</time>
      </trkpt>
      <trkpt lat="44.49981" lon="1.10445">
        <ele>133.134944</ele>
        <time>2022-01-11T13:26:59.104Z</time>
      </trkpt>
      <trkpt lat="44.49986" lon="1.10462">
        <ele>133.260641</ele>
        <time>2022-01-11T13:27:01.105Z</time>
      </trkpt>
      <trkpt lat="44.49992" lon="1.10479">
        <ele>133.38995</ele>
        <time>2022-01-11T13:27:03.110Z</time>
      </trkpt>
      <trkpt lat="44.49996" lon="1.10497">
        <ele>133.51586</ele>
        <time>2022-01-11T13:27:05.107Z</time>
      </trkpt>
      <trkpt lat="44.49999" lon="1.10514">
        <ele>133.640481</ele>
        <time>2022-01-11T13:27:07.116Z</time>
      </trkpt>
      <trkpt lat="44.50004" lon="1.10532">
        <ele>133.767352</ele>
        <time>2022-01-11T13:27:09.104Z</time>
      </trkpt>
      <trkpt lat="44.50008" lon="1.10549">
        <ele>133.891073</ele>
        <time>2022-01-11T13:27:11.105Z</time>
      </trkpt>
      <trkpt lat="44.50014" lon="1.10568">
        <ele>134.02885</ele>
        <time>2022-01-11T13:27:13.104Z</time>
      </trkpt>
      <trkpt lat="44.50018" lon="1.10586">
        <ele>134.158895</ele>
        <time>2022-01-11T13:27:15.111Z</time>
      </trkpt>
      <trkpt lat="44.50023" lon="1.10603">
        <ele>134.296915</ele>
        <time>2022-01-11T13:27:17.112Z</time>
      </trkpt>
      <trkpt lat="44.50028" lon="1.1062">
        <ele>134.551969</ele>
        <time>2022-01-11T13:27:19.104Z</time>
      </trkpt>
      <trkpt lat="44.50031" lon="1.10638">
        <ele>134.81346</ele>
        <time>2022-01-11T13:27:21.108Z</time>
      </trkpt>
      <trkpt lat="44.50037" lon="1.10655">
        <ele>135.08389</ele>
        <time>2022-01-11T13:27:23.117Z</time>
      </trkpt>
      <trkpt lat="44.50042" lon="1.10673">
        <ele>135.359794</ele>
        <time>2022-01-11T13:27:25.116Z</time>
      </trkpt>
      <trkpt lat="44.50046" lon="1.1069">
        <ele>135.61963</ele>
        <time>2022-01-11T13:27:27.103Z</time>
      </trkpt>
      <trkpt lat="44.50051" lon="1.10708">
        <ele>135.888917</ele>
        <time>2022-01-11T13:27:29.115Z</time>
      </trkpt>
      <trkpt lat="44.50055" lon="1.10727">
        <ele>136.171812</ele>
        <time>2022-01-11T13:27:31.106Z</time>
      </trkpt>
      <trkpt lat="44.50058" lon="1.10745">
        <ele>136.43941</ele>
        <time>2022-01-11T13:27:33.109Z</time>
      </trkpt>
      <trkpt lat="44.5006" lon="1.10765">
        <ele>136.728476</ele>
        <time>2022-01-11T13:27:35.105Z</time>
      </trkpt>
      <trkpt lat="44.50062" lon="1.10784">
        <ele>137.000486</ele>
        <time>2022-01-11T13:27:37.113Z</time>
      </trkpt>
      <trkpt lat="44.50063" lon="1.10803">
        <ele>137.270575</ele>
        <time>2022-01-11T13:27:39.105Z</time>
      </trkpt>
      <trkpt lat="44.50064" lon="1.10822">
        <ele>137.537343</ele>
        <time>2022-01-11T13:27:41.106Z</time>
      </trkpt>
      <trkpt lat="44.50063" lon="1.10841">
        <ele>137.806166</ele>
        <time>2022-01-11T13:27:43.109Z</time>
      </trkpt>
      <trkpt lat="44.50061" lon="1.10861">
        <ele>137.863829</ele>
        <time>2022-01-11T13:27:45.112Z</time>
      </trkpt>
      <trkpt lat="44.50058" lon="1.1088">
        <ele>137.854643</ele>
        <time>2022-01-11T13:27:47.110Z</time>
      </trkpt>
      <trkpt lat="44.50055" lon="1.10899">
        <ele>137.846</ele>
        <time>2022-01-11T13:27:49.105Z</time>
      </trkpt>
      <trkpt lat="44.50051" lon="1.10918">
        <ele>137.836731</ele>
        <time>2022-01-11T13:27:51.110Z</time>
      </trkpt>
      <trkpt lat="44.50047" lon="1.10937">
        <ele>137.827954</ele>
        <time>2022-01-11T13:27:53.114Z</time>
      </trkpt>
      <trkpt lat="44.50043" lon="1.10956">
        <ele>137.81894</ele>
        <time>2022-01-11T13:27:55.108Z</time>
      </trkpt>
      <trkpt lat="44.50039" lon="1.10974">
        <ele>137.810082</ele>
        <time>2022-01-11T13:27:57.114Z</time>
      </trkpt>
      <trkpt lat="44.50036" lon="1.10993">
        <ele>137.801277</ele>
        <time>2022-01-11T13:27:59.115Z</time>
      </trkpt>
      <trkpt lat="44.50032" lon="1.1101">
        <ele>137.793105</ele>
        <time>2022-01-11T13:28:01.108Z</time>
      </trkpt>
      <trkpt lat="44.50028" lon="1.11028">
        <ele>137.78454</ele>
        <time>2022-01-11T13:28:03.109Z</time>
      </trkpt>
      <trkpt lat="44.50025" lon="1.11047">
        <ele>137.77579</ele>
        <time>2022-01-11T13:28:05.099Z</time>
      </trkpt>
      <trkpt lat="44.50022" lon="1.11065">
        <ele>137.767075</ele>
        <time>2022-01-11T13:28:07.114Z</time>
      </trkpt>
      <trkpt lat="44.50018" lon="1.11085">
        <ele>137.757736</ele>
        <time>2022-01-11T13:28:09.112Z</time>
      </trkpt>
      <trkpt lat="44.50015" lon="1.11105">
        <ele>137.773415</ele>
        <time>2022-01-11T13:28:11.112Z</time>
      </trkpt>
      <trkpt lat="44.50012" lon="1.11124">
        <ele>137.794784</ele>
        <time>2022-01-11T13:28:13.101Z</time>
      </trkpt>
      <trkpt lat="44.5001" lon="1.11143">
        <ele>137.816382</ele>
        <time>2022-01-11T13:28:15.116Z</time>
      </trkpt>
      <trkpt lat="44.50009" lon="1.11163">
        <ele>137.837783</ele>
        <time>2022-01-11T13:28:17.112Z</time>
      </trkpt>
      <trkpt lat="44.50008" lon="1.11183">
        <ele>137.85989</ele>
        <time>2022-01-11T13:28:19.112Z</time>
      </trkpt>
      <trkpt lat="44.50009" lon="1.11203">
        <ele>137.881788</ele>
        <time>2022-01-11T13:28:21.109Z</time>
      </trkpt>
      <trkpt lat="44.50011" lon="1.11223">
        <ele>137.903686</ele>
        <time>2022-01-11T13:28:23.110Z</time>
      </trkpt>
      <trkpt lat="44.50016" lon="1.11241">
        <ele>137.92494</ele>
        <time>2022-01-11T13:28:25.109Z</time>
      </trkpt>
      <trkpt lat="44.5002" lon="1.1126">
        <ele>137.946665</ele>
        <time>2022-01-11T13:28:27.112Z</time>
      </trkpt>
      <trkpt lat="44.50025" lon="1.11278">
        <ele>137.968021</ele>
        <time>2022-01-11T13:28:29.112Z</time>
      </trkpt>
      <trkpt lat="44.50031" lon="1.11298">
        <ele>137.991813</ele>
        <time>2022-01-11T13:28:31.109Z</time>
      </trkpt>
      <trkpt lat="44.50036" lon="1.11317">
        <ele>138.013787</ele>
        <time>2022-01-11T13:28:33.120Z</time>
      </trkpt>
      <trkpt lat="44.50042" lon="1.11336">
        <ele>138.059318</ele>
        <time>2022-01-11T13:28:35.105Z</time>
      </trkpt>
      <trkpt lat="44.50046" lon="1.11355">
        <ele>138.177296</ele>
        <time>2022-01-11T13:28:37.100Z</time>
      </trkpt>
      <trkpt lat="44.50052" lon="1.11373">
        <ele>138.300652</ele>
        <time>2022-01-11T13:28:39.123Z</time>
      </trkpt>
      <trkpt lat="44.50056" lon="1.11392">
        <ele>138.422668</ele>
        <time>2022-01-11T13:28:41.105Z</time>
      </trkpt>
      <trkpt lat="44.50061" lon="1.11411">
        <ele>138.545825</ele>
        <time>2022-01-11T13:28:43.110Z</time>
      </trkpt>
      <trkpt lat="44.50064" lon="1.1143">
        <ele>138.665994</ele>
        <time>2022-01-11T13:28:45.096Z</time>
      </trkpt>
      <trkpt lat="44.50066" lon="1.1145">
        <ele>138.789567</ele>
        <time>2022-01-11T13:28:47.117Z</time>
      </trkpt>
      <trkpt lat="44.50067" lon="1.11471">
        <ele>138.917553</ele>
        <time>2022-01-11T13:28:49.100Z</time>
      </trkpt>
      <trkpt lat="44.50066" lon="1.11491">
        <ele>139.039764</ele>
        <time>2022-01-11T13:28:51.116Z</time>
      </trkpt>
      <trkpt lat="44.50066" lon="1.11512">
        <ele>139.167036</ele>
        <time>2022-01-11T13:28:53.111Z</time>
      </trkpt>
      <trkpt lat="44.50065" lon="1.11532">
        <ele>139.290564</ele>
        <time>2022-01-11T13:28:55.107Z</time>
      </trkpt>
      <trkpt lat="44.50064" lon="1.11552">
        <ele>139.411299</ele>
        <time>2022-01-11T13:28:57.111Z</time>
      </trkpt>
      <trkpt lat="44.50062" lon="1.11572">
        <ele>139.535479</ele>
        <time>2022-01-11T13:28:59.110Z</time>
      </trkpt>
      <trkpt lat="44.50062" lon="1.11592">
        <ele>139.591799</ele>
        <time>2022-01-11T13:29:01.115Z</time>
      </trkpt>
      <trkpt lat="44.50061" lon="1.11613">
        <ele>139.619851</ele>
        <time>2022-01-11T13:29:03.117Z</time>
      </trkpt>
      <trkpt lat="44.50061" lon="1.11633">
        <ele>139.647054</ele>
        <time>2022-01-11T13:29:05.092Z</time>
      </trkpt>
      <trkpt lat="44.5006" lon="1.11654">
        <ele>139.676041</ele>
        <time>2022-01-11T13:29:07.108Z</time>
      </trkpt>
      <trkpt lat="44.50059" lon="1.11675">
        <ele>139.705541</ele>
        <time>2022-01-11T13:29:09.101Z</time>
      </trkpt>
      <trkpt lat="44.50058" lon="1.11696">
        <ele>139.734615</ele>
        <time>2022-01-11T13:29:11.112Z</time>
      </trkpt>
      <trkpt lat="44.50056" lon="1.11717">
        <ele>139.763307</ele>
        <time>2022-01-11T13:29:13.107Z</time>
      </trkpt>
      <trkpt lat="44.50055" lon="1.11739">
        <ele>139.793006</ele>
        <time>2022-01-11T13:29:15.113Z</time>
      </trkpt>
      <trkpt lat="44.50054" lon="1.1176">
        <ele>139.82244</ele>
        <time>2022-01-11T13:29:17.114Z</time>
      </trkpt>
      <trkpt lat="44.50053" lon="1.11781">
        <ele>139.85083</ele>
        <time>2022-01-11T13:29:19.106Z</time>
      </trkpt>
      <trkpt lat="44.50051" lon="1.11801">
        <ele>139.879633</ele>
        <time>2022-01-11T13:29:21.107Z</time>
      </trkpt>
      <trkpt lat="44.5005" lon="1.11821">
        <ele>139.907158</ele>
        <time>2022-01-11T13:29:23.109Z</time>
      </trkpt>
      <trkpt lat="44.5005" lon="1.11843">
        <ele>139.943076</ele>
        <time>2022-01-11T13:29:25.107Z</time>
      </trkpt>
      <trkpt lat="44.5005" lon="1.11864">
        <ele>139.981473</ele>
        <time>2022-01-11T13:29:27.116Z</time>
      </trkpt>
      <trkpt lat="44.5005" lon="1.11884">
        <ele>140.019163</ele>
        <time>2022-01-11T13:29:29.110Z</time>
      </trkpt>
      <trkpt lat="44.50049" lon="1.11905">
        <ele>140.057185</ele>
        <time>2022-01-11T13:29:31.114Z</time>
      </trkpt>
      <trkpt lat="44.50048" lon="1.11925">
        <ele>140.095005</ele>
        <time>2022-01-11T13:29:33.115Z</time>
      </trkpt>
      <trkpt lat="44.50047" lon="1.11945">
        <ele>140.132227</ele>
        <time>2022-01-11T13:29:35.100Z</time>
      </trkpt>
      <trkpt lat="44.50044" lon="1.11968">
        <ele>140.173953</ele>
        <time>2022-01-11T13:29:37.113Z</time>
      </trkpt>
      <trkpt lat="44.50043" lon="1.11988">
        <ele>140.211305</ele>
        <time>2022-01-11T13:29:39.111Z</time>
      </trkpt>
      <trkpt lat="44.5004" lon="1.12007">
        <ele>140.248186</ele>
        <time>2022-01-11T13:29:41.110Z</time>
      </trkpt>
      <trkpt lat="44.50037" lon="1.12027">
        <ele>140.285848</ele>
        <time>2022-01-11T13:29:43.107Z</time>
      </trkpt>
      <trkpt lat="44.50035" lon="1.12049">
        <ele>140.325311</ele>
        <time>2022-01-11T13:29:45.115Z</time>
      </trkpt>
      <trkpt lat="44.50034" lon="1.1207">
        <ele>140.364074</ele>
        <time>2022-01-11T13:29:47.115Z</time>
      </trkpt>
      <trkpt lat="44.50032" lon="1.12091">
        <ele>140.328874</ele>
        <time>2022-01-11T13:29:49.110Z</time>
      </trkpt>
      <trkpt lat="44.50029" lon="1.12111">
        <ele>140.218483</ele>
        <time>2022-01-11T13:29:51.112Z</time>
      </trkpt>
      <trkpt lat="44.50026" lon="1.12132">
        <ele>140.108891</ele>
        <time>2022-01-11T13:29:53.107Z</time>
      </trkpt>
      <trkpt lat="44.50024" lon="1.12152">
        <ele>140.002669</ele>
        <time>2022-01-11T13:29:55.117Z</time>
      </trkpt>
      <trkpt lat="44.5002" lon="1.12172">
        <ele>139.895565</ele>
        <time>2022-01-11T13:29:57.098Z</time>
      </trkpt>
      <trkpt lat="44.50018" lon="1.12191">
        <ele>139.792021</ele>
        <time>2022-01-11T13:29:59.102Z</time>
      </trkpt>
      <trkpt lat="44.50016" lon="1.12212">
        <ele>139.683054</ele>
        <time>2022-01-11T13:30:01.101Z</time>
      </trkpt>
      <trkpt lat="44.50015" lon="1.12231">
        <ele>139.578344</ele>
        <time>2022-01-11T13:30:03.093Z</time>
      </trkpt>
      <trkpt lat="44.50011" lon="1.12251">
        <ele>139.474111</ele>
        <time>2022-01-11T13:30:05.104Z</time>
      </trkpt>
      <trkpt lat="44.50008" lon="1.1227">
        <ele>139.368702</ele>
        <time>2022-01-11T13:30:07.099Z</time>
      </trkpt>
      <trkpt lat="44.50006" lon="1.12289">
        <ele>139.268488</ele>
        <time>2022-01-11T13:30:09.112Z</time>
      </trkpt>
      <trkpt lat="44.50002" lon="1.12308">
        <ele>139.166902</ele>
        <time>2022-01-11T13:30:11.095Z</time>
      </trkpt>
      <trkpt lat="44.49999" lon="1.12326">
        <ele>139.067737</ele>
        <time>2022-01-11T13:30:13.093Z</time>
      </trkpt>
      <trkpt lat="44.49994" lon="1.12345">
        <ele>139.104071</ele>
        <time>2022-01-11T13:30:15.098Z</time>
      </trkpt>
      <trkpt lat="44.49991" lon="1.12364">
        <ele>139.151903</ele>
        <time>2022-01-11T13:30:17.097Z</time>
      </trkpt>
      <trkpt lat="44.49986" lon="1.12383">
        <ele>139.199425</ele>
        <time>2022-01-11T13:30:19.112Z</time>
      </trkpt>
      <trkpt lat="44.49981" lon="1.12401">
        <ele>139.24595</ele>
        <time>2022-01-11T13:30:21.104Z</time>
      </trkpt>
      <trkpt lat="44.49977" lon="1.12421">
        <ele>139.294905</ele>
        <time>2022-01-11T13:30:23.094Z</time>
      </trkpt>
      <trkpt lat="44.49974" lon="1.12442">
        <ele>139.345299</ele>
        <time>2022-01-11T13:30:25.103Z</time>
      </trkpt>
      <trkpt lat="44.49971" lon="1.12463">
        <ele>139.395586</ele>
        <time>2022-01-11T13:30:27.098Z</time>
      </trkpt>
      <trkpt lat="44.49972" lon="1.12483">
        <ele>139.445421</ele>
        <time>2022-01-11T13:30:29.099Z</time>
      </trkpt>
      <trkpt lat="44.49974" lon="1.12504">
        <ele>139.49604</ele>
        <time>2022-01-11T13:30:31.097Z</time>
      </trkpt>
      <trkpt lat="44.49978" lon="1.12525">
        <ele>139.545336</ele>
        <time>2022-01-11T13:30:33.098Z</time>
      </trkpt>
      <trkpt lat="44.49981" lon="1.12545">
        <ele>139.595333</ele>
        <time>2022-01-11T13:30:35.095Z</time>
      </trkpt>
      <trkpt lat="44.49984" lon="1.12564">
        <ele>139.642851</ele>
        <time>2022-01-11T13:30:37.096Z</time>
      </trkpt>
      <trkpt lat="44.49988" lon="1.12585">
        <ele>139.60688</ele>
        <time>2022-01-11T13:30:39.099Z</time>
      </trkpt>
      <trkpt lat="44.49991" lon="1.12605">
        <ele>139.523559</ele>
        <time>2022-01-11T13:30:41.099Z</time>
      </trkpt>
      <trkpt lat="44.49996" lon="1.12622">
        <ele>139.448747</ele>
        <time>2022-01-11T13:30:43.091Z</time>
      </trkpt>
      <trkpt lat="44.5" lon="1.12642">
        <ele>139.364488</ele>
        <time>2022-01-11T13:30:45.105Z</time>
      </trkpt>
      <trkpt lat="44.50003" lon="1.12662">
        <ele>139.277721</ele>
        <time>2022-01-11T13:30:47.095Z</time>
      </trkpt>
      <trkpt lat="44.50008" lon="1.12684">
        <ele>139.184312</ele>
        <time>2022-01-11T13:30:49.097Z</time>
      </trkpt>
      <trkpt lat="44.50013" lon="1.12707">
        <ele>139.089485</ele>
        <time>2022-01-11T13:30:51.095Z</time>
      </trkpt>
      <trkpt lat="44.50016" lon="1.12728">
        <ele>138.99905</ele>
        <time>2022-01-11T13:30:53.108Z</time>
      </trkpt>
      <trkpt lat="44.5002" lon="1.12751">
        <ele>138.902668</ele>
        <time>2022-01-11T13:30:55.094Z</time>
      </trkpt>
      <trkpt lat="44.50024" lon="1.12774">
        <ele>138.807297</ele>
        <time>2022-01-11T13:30:57.112Z</time>
      </trkpt>
      <trkpt lat="44.50029" lon="1.12796">
        <ele>138.715516</ele>
        <time>2022-01-11T13:30:59.090Z</time>
      </trkpt>
      <trkpt lat="44.50033" lon="1.12818">
        <ele>138.604529</ele>
        <time>2022-01-11T13:31:01.094Z</time>
      </trkpt>
      <trkpt lat="44.50038" lon="1.12841">
        <ele>138.374291</ele>
        <time>2022-01-11T13:31:03.094Z</time>
      </trkpt>
      <trkpt lat="44.50042" lon="1.12864">
        <ele>138.13983</ele>
        <time>2022-01-11T13:31:05.096Z</time>
      </trkpt>
      <trkpt lat="44.50047" lon="1.12886">
        <ele>137.913583</ele>
        <time>2022-01-11T13:31:07.096Z</time>
      </trkpt>
      <trkpt lat="44.50052" lon="1.12908">
        <ele>137.689973</ele>
        <time>2022-01-11T13:31:09.096Z</time>
      </trkpt>
      <trkpt lat="44.50056" lon="1.12931">
        <ele>137.461589</ele>
        <time>2022-01-11T13:31:11.096Z</time>
      </trkpt>
      <trkpt lat="44.5006" lon="1.12954">
        <ele>137.233868</ele>
        <time>2022-01-11T13:31:13.098Z</time>
      </trkpt>
      <trkpt lat="44.50064" lon="1.12977">
        <ele>137.001409</ele>
        <time>2022-01-11T13:31:15.096Z</time>
      </trkpt>
      <trkpt lat="44.50069" lon="1.13">
        <ele>136.771266</ele>
        <time>2022-01-11T13:31:17.096Z</time>
      </trkpt>
      <trkpt lat="44.50072" lon="1.13023">
        <ele>136.54703</ele>
        <time>2022-01-11T13:31:19.101Z</time>
      </trkpt>
      <trkpt lat="44.50078" lon="1.13045">
        <ele>136.314655</ele>
        <time>2022-01-11T13:31:21.098Z</time>
      </trkpt>
      <trkpt lat="44.50078" lon="1.13067">
        <ele>136.230484</ele>
        <time>2022-01-11T13:31:23.098Z</time>
      </trkpt>
      <trkpt lat="44.50074" lon="1.13087">
        <ele>136.335723</ele>
        <time>2022-01-11T13:31:25.096Z</time>
      </trkpt>
      <trkpt lat="44.50065" lon="1.13104">
        <ele>136.441832</ele>
        <time>2022-01-11T13:31:27.113Z</time>
      </trkpt>
      <trkpt lat="44.50054" lon="1.13116">
        <ele>136.544214</ele>
        <time>2022-01-11T13:31:29.103Z</time>
      </trkpt>
      <trkpt lat="44.50041" lon="1.13125">
        <ele>136.648035</ele>
        <time>2022-01-11T13:31:31.100Z</time>
      </trkpt>
      <trkpt lat="44.50027" lon="1.13131">
        <ele>136.750458</ele>
        <time>2022-01-11T13:31:33.112Z</time>
      </trkpt>
      <trkpt lat="44.50014" lon="1.13138">
        <ele>136.852522</ele>
        <time>2022-01-11T13:31:35.103Z</time>
      </trkpt>
      <trkpt lat="44.50001" lon="1.13143">
        <ele>136.950033</ele>
        <time>2022-01-11T13:31:37.107Z</time>
      </trkpt>
      <trkpt lat="44.49989" lon="1.13148">
        <ele>137.038621</ele>
        <time>2022-01-11T13:31:39.098Z</time>
      </trkpt>
      <trkpt lat="44.49978" lon="1.13154">
        <ele>137.1206</ele>
        <time>2022-01-11T13:31:41.113Z</time>
      </trkpt>
      <trkpt lat="44.49991" lon="1.13147">
        <ele>137.218244</ele>
        <time>2022-01-11T13:31:51.112Z</time>
      </trkpt>
      <trkpt lat="44.50003" lon="1.13139">
        <ele>137.31714</ele>
        <time>2022-01-11T13:31:54.114Z</time>
      </trkpt>
      <trkpt lat="44.50013" lon="1.13134">
        <ele>137.393352</ele>
        <time>2022-01-11T13:31:56.114Z</time>
      </trkpt>
      <trkpt lat="44.50025" lon="1.1313">
        <ele>137.472174</ele>
        <time>2022-01-11T13:31:58.090Z</time>
      </trkpt>
      <trkpt lat="44.50036" lon="1.13125">
        <ele>137.452236</ele>
        <time>2022-01-11T13:32:00.087Z</time>
      </trkpt>
      <trkpt lat="44.50047" lon="1.13119">
        <ele>137.431176</ele>
        <time>2022-01-11T13:32:02.107Z</time>
      </trkpt>
      <trkpt lat="44.50059" lon="1.13118">
        <ele>137.411589</ele>
        <time>2022-01-11T13:32:04.109Z</time>
      </trkpt>
      <trkpt lat="44.50067" lon="1.13121">
        <ele>137.396209</ele>
        <time>2022-01-11T13:32:06.116Z</time>
      </trkpt>
      <trkpt lat="44.50076" lon="1.13129">
        <ele>137.378737</ele>
        <time>2022-01-11T13:32:08.111Z</time>
      </trkpt>
      <trkpt lat="44.50083" lon="1.13141">
        <ele>137.359981</ele>
        <time>2022-01-11T13:32:10.113Z</time>
      </trkpt>
      <trkpt lat="44.50086" lon="1.13156">
        <ele>137.339997</ele>
        <time>2022-01-11T13:32:12.110Z</time>
      </trkpt>
      <trkpt lat="44.50088" lon="1.13172">
        <ele>137.319866</ele>
        <time>2022-01-11T13:32:14.106Z</time>
      </trkpt>
      <trkpt lat="44.50089" lon="1.1319">
        <ele>137.298212</ele>
        <time>2022-01-11T13:32:16.107Z</time>
      </trkpt>
      <trkpt lat="44.50089" lon="1.1321">
        <ele>137.274383</ele>
        <time>2022-01-11T13:32:18.098Z</time>
      </trkpt>
      <trkpt lat="44.50089" lon="1.13228">
        <ele>137.252263</ele>
        <time>2022-01-11T13:32:20.114Z</time>
      </trkpt>
      <trkpt lat="44.50089" lon="1.13244">
        <ele>137.231855</ele>
        <time>2022-01-11T13:32:22.094Z</time>
      </trkpt>
      <trkpt lat="44.50088" lon="1.13263">
        <ele>137.209726</ele>
        <time>2022-01-11T13:32:24.098Z</time>
      </trkpt>
      <trkpt lat="44.5009" lon="1.13281">
        <ele>137.186351</ele>
        <time>2022-01-11T13:32:26.094Z</time>
      </trkpt>
      <trkpt lat="44.50093" lon="1.13299">
        <ele>137.164966</ele>
        <time>2022-01-11T13:32:28.106Z</time>
      </trkpt>
      <trkpt lat="44.50095" lon="1.13317">
        <ele>137.272423</ele>
        <time>2022-01-11T13:32:30.101Z</time>
      </trkpt>
      <trkpt lat="44.50097" lon="1.13335">
        <ele>137.373941</ele>
        <time>2022-01-11T13:32:32.107Z</time>
      </trkpt>
      <trkpt lat="44.501" lon="1.13353">
        <ele>137.479668</ele>
        <time>2022-01-11T13:32:34.114Z</time>
      </trkpt>
      <trkpt lat="44.50102" lon="1.1337">
        <ele>137.58298</ele>
        <time>2022-01-11T13:32:36.104Z</time>
      </trkpt>
      <trkpt lat="44.50106" lon="1.13389">
        <ele>137.693087</ele>
        <time>2022-01-11T13:32:38.113Z</time>
      </trkpt>
      <trkpt lat="44.50112" lon="1.13404">
        <ele>137.793839</ele>
        <time>2022-01-11T13:32:40.117Z</time>
      </trkpt>
      <trkpt lat="44.50118" lon="1.13422">
        <ele>137.908299</ele>
        <time>2022-01-11T13:32:42.108Z</time>
      </trkpt>
      <trkpt lat="44.50124" lon="1.1344">
        <ele>138.022355</ele>
        <time>2022-01-11T13:32:44.102Z</time>
      </trkpt>
      <trkpt lat="44.50132" lon="1.13454">
        <ele>138.128396</ele>
        <time>2022-01-11T13:32:46.103Z</time>
      </trkpt>
      <trkpt lat="44.50143" lon="1.13469">
        <ele>138.247343</ele>
        <time>2022-01-11T13:32:48.110Z</time>
      </trkpt>
      <trkpt lat="44.5015" lon="1.13477">
        <ele>138.324345</ele>
        <time>2022-01-11T13:32:49.106Z</time>
      </trkpt>
      <trkpt lat="44.50155" lon="1.13494">
        <ele>138.428673</ele>
        <time>2022-01-11T13:32:51.104Z</time>
      </trkpt>
      <trkpt lat="44.50159" lon="1.13506">
        <ele>138.504666</ele>
        <time>2022-01-11T13:32:52.103Z</time>
      </trkpt>
      <trkpt lat="44.50164" lon="1.13519">
        <ele>138.587156</ele>
        <time>2022-01-11T13:32:53.104Z</time>
      </trkpt>
      <trkpt lat="44.50169" lon="1.13538">
        <ele>138.533395</ele>
        <time>2022-01-11T13:32:55.106Z</time>
      </trkpt>
      <trkpt lat="44.5017" lon="1.13552">
        <ele>138.458789</ele>
        <time>2022-01-11T13:32:57.098Z</time>
      </trkpt>
      <trkpt lat="44.50174" lon="1.13574">
        <ele>138.339965</ele>
        <time>2022-01-11T13:32:59.114Z</time>
      </trkpt>
      <trkpt lat="44.50178" lon="1.13593">
        <ele>138.238486</ele>
        <time>2022-01-11T13:33:01.103Z</time>
      </trkpt>
      <trkpt lat="44.50182" lon="1.13611">
        <ele>138.138517</ele>
        <time>2022-01-11T13:33:03.107Z</time>
      </trkpt>
      <trkpt lat="44.50184" lon="1.13628">
        <ele>138.048989</ele>
        <time>2022-01-11T13:33:05.114Z</time>
      </trkpt>
      <trkpt lat="44.50187" lon="1.13646">
        <ele>137.954786</ele>
        <time>2022-01-11T13:33:07.103Z</time>
      </trkpt>
      <trkpt lat="44.50191" lon="1.13666">
        <ele>137.846282</ele>
        <time>2022-01-11T13:33:09.109Z</time>
      </trkpt>
      <trkpt lat="44.50195" lon="1.13686">
        <ele>137.738426</ele>
        <time>2022-01-11T13:33:11.119Z</time>
      </trkpt>
      <trkpt lat="44.50199" lon="1.13706">
        <ele>137.632679</ele>
        <time>2022-01-11T13:33:13.108Z</time>
      </trkpt>
      <trkpt lat="44.50203" lon="1.13726">
        <ele>137.5245</ele>
        <time>2022-01-11T13:33:15.116Z</time>
      </trkpt>
      <trkpt lat="44.50205" lon="1.13747">
        <ele>137.415718</ele>
        <time>2022-01-11T13:33:17.101Z</time>
      </trkpt>
      <trkpt lat="44.5021" lon="1.13763">
        <ele>137.327253</ele>
        <time>2022-01-11T13:33:19.113Z</time>
      </trkpt>
      <trkpt lat="44.50214" lon="1.13781">
        <ele>137.366866</ele>
        <time>2022-01-11T13:33:21.107Z</time>
      </trkpt>
      <trkpt lat="44.50217" lon="1.13796">
        <ele>137.434546</ele>
        <time>2022-01-11T13:33:23.105Z</time>
      </trkpt>
      <trkpt lat="44.5022" lon="1.13814">
        <ele>137.508345</ele>
        <time>2022-01-11T13:33:25.104Z</time>
      </trkpt>
      <trkpt lat="44.50222" lon="1.13831">
        <ele>137.581083</ele>
        <time>2022-01-11T13:33:27.116Z</time>
      </trkpt>
      <trkpt lat="44.50225" lon="1.13847">
        <ele>137.648212</ele>
        <time>2022-01-11T13:33:29.116Z</time>
      </trkpt>
      <trkpt lat="44.50228" lon="1.13863">
        <ele>137.718571</ele>
        <time>2022-01-11T13:33:31.104Z</time>
      </trkpt>
      <trkpt lat="44.5023" lon="1.13878">
        <ele>137.781299</ele>
        <time>2022-01-11T13:33:33.113Z</time>
      </trkpt>
      <trkpt lat="44.50233" lon="1.13894">
        <ele>137.84788</ele>
        <time>2022-01-11T13:33:35.106Z</time>
      </trkpt>
      <trkpt lat="44.50235" lon="1.13908">
        <ele>137.907144</ele>
        <time>2022-01-11T13:33:37.091Z</time>
      </trkpt>
      <trkpt lat="44.5024" lon="1.13925">
        <ele>137.984076</ele>
        <time>2022-01-11T13:33:39.103Z</time>
      </trkpt>
      <trkpt lat="44.50247" lon="1.13938">
        <ele>138.049308</ele>
        <time>2022-01-11T13:33:41.086Z</time>
      </trkpt>
      <trkpt lat="44.50251" lon="1.13951">
        <ele>138.108137</ele>
        <time>2022-01-11T13:33:43.128Z</time>
      </trkpt>
      <trkpt lat="44.50263" lon="1.13955">
        <ele>138.175272</ele>
        <time>2022-01-11T13:33:45.104Z</time>
      </trkpt>
      <trkpt lat="44.50261" lon="1.13971">
        <ele>138.242191</ele>
        <time>2022-01-11T13:33:47.096Z</time>
      </trkpt>
      <trkpt lat="44.50256" lon="1.13987">
        <ele>138.313442</ele>
        <time>2022-01-11T13:33:49.118Z</time>
      </trkpt>
      <trkpt lat="44.50251" lon="1.14002">
        <ele>138.292326</ele>
        <time>2022-01-11T13:33:51.117Z</time>
      </trkpt>
      <trkpt lat="44.50246" lon="1.14018">
        <ele>138.178241</ele>
        <time>2022-01-11T13:33:53.098Z</time>
      </trkpt>
      <trkpt lat="44.50242" lon="1.14036">
        <ele>138.059824</ele>
        <time>2022-01-11T13:33:55.099Z</time>
      </trkpt>
      <trkpt lat="44.50241" lon="1.1405">
        <ele>137.967467</ele>
        <time>2022-01-11T13:33:56.117Z</time>
      </trkpt>
      <trkpt lat="44.50239" lon="1.14066">
        <ele>137.86012</ele>
        <time>2022-01-11T13:33:58.096Z</time>
      </trkpt>
      <trkpt lat="44.50233" lon="1.14083">
        <ele>137.738572</ele>
        <time>2022-01-11T13:34:00.115Z</time>
      </trkpt>
      <trkpt lat="44.50225" lon="1.14096">
        <ele>137.630518</ele>
        <time>2022-01-11T13:34:02.107Z</time>
      </trkpt>
      <trkpt lat="44.50215" lon="1.1411">
        <ele>137.496846</ele>
        <time>2022-01-11T13:34:04.111Z</time>
      </trkpt>
      <trkpt lat="44.50207" lon="1.14123">
        <ele>137.393895</ele>
        <time>2022-01-11T13:34:06.110Z</time>
      </trkpt>
      <trkpt lat="44.502" lon="1.14135">
        <ele>137.291241</ele>
        <time>2022-01-11T13:34:08.112Z</time>
      </trkpt>
      <trkpt lat="44.50194" lon="1.14148">
        <ele>137.189505</ele>
        <time>2022-01-11T13:34:10.106Z</time>
      </trkpt>
      <trkpt lat="44.50186" lon="1.14165">
        <ele>137.060533</ele>
        <time>2022-01-11T13:34:12.106Z</time>
      </trkpt>
      <trkpt lat="44.50177" lon="1.14178">
        <ele>136.946114</ele>
        <time>2022-01-11T13:34:14.109Z</time>
      </trkpt>
      <trkpt lat="44.50171" lon="1.14194">
        <ele>136.827683</ele>
        <time>2022-01-11T13:34:16.099Z</time>
      </trkpt>
      <trkpt lat="44.50162" lon="1.14206">
        <ele>136.729133</ele>
        <time>2022-01-11T13:34:18.110Z</time>
      </trkpt>
      <trkpt lat="44.50153" lon="1.14219">
        <ele>136.771912</ele>
        <time>2022-01-11T13:34:20.114Z</time>
      </trkpt>
      <trkpt lat="44.50144" lon="1.14231">
        <ele>136.816504</ele>
        <time>2022-01-11T13:34:22.118Z</time>
      </trkpt>
      <trkpt lat="44.50133" lon="1.14242">
        <ele>136.86355</ele>
        <time>2022-01-11T13:34:24.106Z</time>
      </trkpt>
      <trkpt lat="44.50126" lon="1.14256">
        <ele>136.902751</ele>
        <time>2022-01-11T13:34:26.107Z</time>
      </trkpt>
      <trkpt lat="44.50121" lon="1.1427">
        <ele>136.941294</ele>
        <time>2022-01-11T13:34:28.104Z</time>
      </trkpt>
      <trkpt lat="44.50113" lon="1.14283">
        <ele>136.98333</ele>
        <time>2022-01-11T13:34:30.107Z</time>
      </trkpt>
      <trkpt lat="44.50104" lon="1.14295">
        <ele>137.025354</ele>
        <time>2022-01-11T13:34:32.107Z</time>
      </trkpt>
      <trkpt lat="44.50094" lon="1.14309">
        <ele>137.072582</ele>
        <time>2022-01-11T13:34:34.115Z</time>
      </trkpt>
      <trkpt lat="44.50086" lon="1.14324">
        <ele>137.119743</ele>
        <time>2022-01-11T13:34:36.119Z</time>
      </trkpt>
      <trkpt lat="44.50079" lon="1.14341">
        <ele>137.166436</ele>
        <time>2022-01-11T13:34:38.113Z</time>
      </trkpt>
      <trkpt lat="44.50072" lon="1.14357">
        <ele>137.212566</ele>
        <time>2022-01-11T13:34:40.113Z</time>
      </trkpt>
      <trkpt lat="44.50067" lon="1.14372">
        <ele>137.252546</ele>
        <time>2022-01-11T13:34:42.104Z</time>
      </trkpt>
      <trkpt lat="44.50061" lon="1.14387">
        <ele>137.294682</ele>
        <time>2022-01-11T13:34:44.099Z</time>
      </trkpt>
      <trkpt lat="44.50056" lon="1.14402">
        <ele>137.333848</ele>
        <time>2022-01-11T13:34:46.113Z</time>
      </trkpt>
      <trkpt lat="44.50055" lon="1.14419">
        <ele>137.968448</ele>
        <time>2022-01-11T13:34:48.103Z</time>
      </trkpt>
      <trkpt lat="44.50055" lon="1.14439">
        <ele>138.780557</ele>
        <time>2022-01-11T13:34:51.121Z</time>
      </trkpt>
      <trkpt lat="44.50057" lon="1.14453">
        <ele>139.384826</ele>
        <time>2022-01-11T13:34:53.114Z</time>
      </trkpt>
      <trkpt lat="44.5006" lon="1.1447">
        <ele>140.104437</ele>
        <time>2022-01-11T13:34:55.106Z</time>
      </trkpt>
      <trkpt lat="44.50065" lon="1.14485">
        <ele>140.771878</ele>
        <time>2022-01-11T13:34:57.110Z</time>
      </trkpt>
      <trkpt lat="44.50073" lon="1.14499">
        <ele>141.497658</ele>
        <time>2022-01-11T13:34:59.096Z</time>
      </trkpt>
      <trkpt lat="44.50082" lon="1.14509">
        <ele>142.174136</ele>
        <time>2022-01-11T13:35:01.115Z</time>
      </trkpt>
      <trkpt lat="44.50091" lon="1.14523">
        <ele>142.98775</ele>
        <time>2022-01-11T13:35:04.106Z</time>
      </trkpt>
      <trkpt lat="44.50101" lon="1.14534">
        <ele>143.687441</ele>
        <time>2022-01-11T13:35:07.107Z</time>
      </trkpt>
      <trkpt lat="44.50112" lon="1.14537">
        <ele>144.365029</ele>
        <time>2022-01-11T13:35:10.117Z</time>
      </trkpt>
      <trkpt lat="44.50121" lon="1.14527">
        <ele>145.025396</ele>
        <time>2022-01-11T13:35:14.103Z</time>
      </trkpt>
      <trkpt lat="44.5013" lon="1.14534">
        <ele>145.602046</ele>
        <time>2022-01-11T13:35:18.107Z</time>
      </trkpt>
      <trkpt lat="44.50142" lon="1.14537">
        <ele>146.298283</ele>
        <time>2022-01-11T13:35:22.108Z</time>
      </trkpt>
      <trkpt lat="44.50153" lon="1.14542">
        <ele>146.926642</ele>
        <time>2022-01-11T13:35:25.098Z</time>
      </trkpt>
      <trkpt lat="44.50163" lon="1.14548">
        <ele>147.573353</ele>
        <time>2022-01-11T13:35:27.102Z</time>
      </trkpt>
      <trkpt lat="44.50172" lon="1.1456">
        <ele>147.799733</ele>
        <time>2022-01-11T13:35:29.112Z</time>
      </trkpt>
      <trkpt lat="44.50181" lon="1.14572">
        <ele>147.946752</ele>
        <time>2022-01-11T13:35:31.102Z</time>
      </trkpt>
      <trkpt lat="44.50188" lon="1.14584">
        <ele>148.074444</ele>
        <time>2022-01-11T13:35:33.096Z</time>
      </trkpt>
      <trkpt lat="44.50196" lon="1.14601">
        <ele>148.240057</ele>
        <time>2022-01-11T13:35:35.113Z</time>
      </trkpt>
      <trkpt lat="44.50203" lon="1.14617">
        <ele>148.39045</ele>
        <time>2022-01-11T13:35:37.101Z</time>
      </trkpt>
      <trkpt lat="44.5021" lon="1.14631">
        <ele>148.532638</ele>
        <time>2022-01-11T13:35:39.108Z</time>
      </trkpt>
      <trkpt lat="44.50218" lon="1.14646">
        <ele>148.680704</ele>
        <time>2022-01-11T13:35:41.103Z</time>
      </trkpt>
      <trkpt lat="44.50227" lon="1.1466">
        <ele>148.835017</ele>
        <time>2022-01-11T13:35:43.107Z</time>
      </trkpt>
      <trkpt lat="44.50238" lon="1.14677">
        <ele>149.028138</ele>
        <time>2022-01-11T13:35:45.112Z</time>
      </trkpt>
      <trkpt lat="44.50246" lon="1.14695">
        <ele>149.19436</ele>
        <time>2022-01-11T13:35:47.104Z</time>
      </trkpt>
      <trkpt lat="44.50258" lon="1.1471">
        <ele>149.376189</ele>
        <time>2022-01-11T13:35:49.113Z</time>
      </trkpt>
      <trkpt lat="44.50268" lon="1.14717">
        <ele>149.508264</ele>
        <time>2022-01-11T13:35:50.112Z</time>
      </trkpt>
      <trkpt lat="44.5028" lon="1.14727">
        <ele>149.6627</ele>
        <time>2022-01-11T13:35:52.115Z</time>
      </trkpt>
      <trkpt lat="44.50287" lon="1.14739">
        <ele>149.698833</ele>
        <time>2022-01-11T13:35:54.107Z</time>
      </trkpt>
      <trkpt lat="44.50297" lon="1.14743">
        <ele>149.617019</ele>
        <time>2022-01-11T13:35:55.112Z</time>
      </trkpt>
      <trkpt lat="44.50307" lon="1.14746">
        <ele>149.526971</ele>
        <time>2022-01-11T13:35:56.112Z</time>
      </trkpt>
      <trkpt lat="44.50314" lon="1.14755">
        <ele>149.451528</ele>
        <time>2022-01-11T13:35:57.112Z</time>
      </trkpt>
      <trkpt lat="44.50324" lon="1.14759">
        <ele>149.368317</ele>
        <time>2022-01-11T13:35:58.111Z</time>
      </trkpt>
      <trkpt lat="44.50341" lon="1.14775">
        <ele>149.198547</ele>
        <time>2022-01-11T13:36:00.113Z</time>
      </trkpt>
      <trkpt lat="44.50347" lon="1.14786">
        <ele>149.116961</ele>
        <time>2022-01-11T13:36:03.123Z</time>
      </trkpt>
      <trkpt lat="44.50359" lon="1.14804">
        <ele>148.973706</ele>
        <time>2022-01-11T13:36:05.103Z</time>
      </trkpt>
      <trkpt lat="44.50371" lon="1.14812">
        <ele>148.869313</ele>
        <time>2022-01-11T13:36:07.112Z</time>
      </trkpt>
      <trkpt lat="44.50379" lon="1.14822">
        <ele>148.778163</ele>
        <time>2022-01-11T13:36:09.101Z</time>
      </trkpt>
      <trkpt lat="44.5039" lon="1.14832">
        <ele>148.672122</ele>
        <time>2022-01-11T13:36:11.103Z</time>
      </trkpt>
      <trkpt lat="44.50399" lon="1.14847">
        <ele>148.556124</ele>
        <time>2022-01-11T13:36:13.108Z</time>
      </trkpt>
      <trkpt lat="44.50411" lon="1.14862">
        <ele>148.426578</ele>
        <time>2022-01-11T13:36:15.105Z</time>
      </trkpt>
      <trkpt lat="44.50422" lon="1.14878">
        <ele>148.296981</ele>
        <time>2022-01-11T13:36:17.114Z</time>
      </trkpt>
      <trkpt lat="44.50429" lon="1.14886">
        <ele>148.293219</ele>
        <time>2022-01-11T13:36:18.106Z</time>
      </trkpt>
      <trkpt lat="44.5044" lon="1.14901">
        <ele>148.360088</ele>
        <time>2022-01-11T13:36:20.105Z</time>
      </trkpt>
      <trkpt lat="44.50449" lon="1.14913">
        <ele>148.410608</ele>
        <time>2022-01-11T13:36:22.117Z</time>
      </trkpt>
      <trkpt lat="44.50455" lon="1.14924">
        <ele>148.450274</ele>
        <time>2022-01-11T13:36:23.104Z</time>
      </trkpt>
      <trkpt lat="44.50465" lon="1.14928">
        <ele>148.496349</ele>
        <time>2022-01-11T13:36:24.103Z</time>
      </trkpt>
      <trkpt lat="44.50473" lon="1.14939">
        <ele>148.542044</ele>
        <time>2022-01-11T13:36:26.107Z</time>
      </trkpt>
      <trkpt lat="44.50483" lon="1.14958">
        <ele>148.612678</ele>
        <time>2022-01-11T13:36:28.101Z</time>
      </trkpt>
      <trkpt lat="44.50493" lon="1.14971">
        <ele>148.671412</ele>
        <time>2022-01-11T13:36:30.119Z</time>
      </trkpt>
      <trkpt lat="44.505" lon="1.14986">
        <ele>148.722988</ele>
        <time>2022-01-11T13:36:32.120Z</time>
      </trkpt>
      <trkpt lat="44.50508" lon="1.15001">
        <ele>148.781753</ele>
        <time>2022-01-11T13:36:34.110Z</time>
      </trkpt>
      <trkpt lat="44.50516" lon="1.15019">
        <ele>148.844684</ele>
        <time>2022-01-11T13:36:36.113Z</time>
      </trkpt>
      <trkpt lat="44.50527" lon="1.15033">
        <ele>148.905685</ele>
        <time>2022-01-11T13:36:38.113Z</time>
      </trkpt>
      <trkpt lat="44.50534" lon="1.1505">
        <ele>148.966503</ele>
        <time>2022-01-11T13:36:40.117Z</time>
      </trkpt>
      <trkpt lat="44.50543" lon="1.15066">
        <ele>149.026734</ele>
        <time>2022-01-11T13:36:42.102Z</time>
      </trkpt>
      <trkpt lat="44.50551" lon="1.15082">
        <ele>149.273496</ele>
        <time>2022-01-11T13:36:44.106Z</time>
      </trkpt>
      <trkpt lat="44.50558" lon="1.151">
        <ele>149.532284</ele>
        <time>2022-01-11T13:36:46.112Z</time>
      </trkpt>
      <trkpt lat="44.50566" lon="1.15118">
        <ele>149.803084</ele>
        <time>2022-01-11T13:36:48.120Z</time>
      </trkpt>
      <trkpt lat="44.50573" lon="1.15135">
        <ele>150.049108</ele>
        <time>2022-01-11T13:36:50.111Z</time>
      </trkpt>
      <trkpt lat="44.5058" lon="1.15152">
        <ele>150.287295</ele>
        <time>2022-01-11T13:36:52.110Z</time>
      </trkpt>
      <trkpt lat="44.50586" lon="1.15167">
        <ele>150.515551</ele>
        <time>2022-01-11T13:36:54.110Z</time>
      </trkpt>
      <trkpt lat="44.50592" lon="1.15184">
        <ele>150.747082</ele>
        <time>2022-01-11T13:36:56.104Z</time>
      </trkpt>
      <trkpt lat="44.506" lon="1.15203">
        <ele>151.028317</ele>
        <time>2022-01-11T13:36:58.119Z</time>
      </trkpt>
      <trkpt lat="44.50607" lon="1.1522">
        <ele>151.279138</ele>
        <time>2022-01-11T13:37:00.114Z</time>
      </trkpt>
      <trkpt lat="44.50613" lon="1.15238">
        <ele>151.520426</ele>
        <time>2022-01-11T13:37:02.109Z</time>
      </trkpt>
      <trkpt lat="44.50618" lon="1.15255">
        <ele>151.756392</ele>
        <time>2022-01-11T13:37:04.107Z</time>
      </trkpt>
      <trkpt lat="44.50624" lon="1.15271">
        <ele>151.99242</ele>
        <time>2022-01-11T13:37:06.109Z</time>
      </trkpt>
      <trkpt lat="44.50633" lon="1.15291">
        <ele>152.154766</ele>
        <time>2022-01-11T13:37:08.105Z</time>
      </trkpt>
      <trkpt lat="44.50639" lon="1.15307">
        <ele>151.969178</ele>
        <time>2022-01-11T13:37:10.117Z</time>
      </trkpt>
      <trkpt lat="44.50649" lon="1.15327">
        <ele>151.736854</ele>
        <time>2022-01-11T13:37:12.110Z</time>
      </trkpt>
      <trkpt lat="44.50657" lon="1.15345">
        <ele>151.524545</ele>
        <time>2022-01-11T13:37:14.112Z</time>
      </trkpt>
      <trkpt lat="44.50666" lon="1.15365">
        <ele>151.294045</ele>
        <time>2022-01-11T13:37:16.104Z</time>
      </trkpt>
      <trkpt lat="44.50675" lon="1.15381">
        <ele>151.094804</ele>
        <time>2022-01-11T13:37:18.113Z</time>
      </trkpt>
      <trkpt lat="44.50684" lon="1.15398">
        <ele>150.887518</ele>
        <time>2022-01-11T13:37:20.120Z</time>
      </trkpt>
      <trkpt lat="44.50691" lon="1.15414">
        <ele>150.700103</ele>
        <time>2022-01-11T13:37:22.116Z</time>
      </trkpt>
      <trkpt lat="44.50701" lon="1.15433">
        <ele>150.471764</ele>
        <time>2022-01-11T13:37:24.107Z</time>
      </trkpt>
      <trkpt lat="44.50711" lon="1.15449">
        <ele>150.264488</ele>
        <time>2022-01-11T13:37:26.105Z</time>
      </trkpt>
      <trkpt lat="44.50721" lon="1.15465">
        <ele>150.046905</ele>
        <time>2022-01-11T13:37:28.111Z</time>
      </trkpt>
      <trkpt lat="44.50727" lon="1.15475">
        <ele>149.921275</ele>
        <time>2022-01-11T13:37:29.099Z</time>
      </trkpt>
      <trkpt lat="44.50734" lon="1.1549">
        <ele>149.745545</ele>
        <time>2022-01-11T13:37:31.108Z</time>
      </trkpt>
      <trkpt lat="44.5074" lon="1.15505">
        <ele>149.925708</ele>
        <time>2022-01-11T13:37:33.104Z</time>
      </trkpt>
      <trkpt lat="44.50746" lon="1.1552">
        <ele>150.138986</ele>
        <time>2022-01-11T13:37:35.106Z</time>
      </trkpt>
      <trkpt lat="44.50752" lon="1.15534">
        <ele>150.343287</ele>
        <time>2022-01-11T13:37:37.110Z</time>
      </trkpt>
      <trkpt lat="44.50757" lon="1.15549">
        <ele>150.549595</ele>
        <time>2022-01-11T13:37:39.107Z</time>
      </trkpt>
      <trkpt lat="44.50762" lon="1.15566">
        <ele>150.77264</ele>
        <time>2022-01-11T13:37:41.105Z</time>
      </trkpt>
      <trkpt lat="44.50767" lon="1.15581">
        <ele>150.973445</ele>
        <time>2022-01-11T13:37:43.112Z</time>
      </trkpt>
      <trkpt lat="44.50771" lon="1.15594">
        <ele>151.150672</ele>
        <time>2022-01-11T13:37:45.110Z</time>
      </trkpt>
      <trkpt lat="44.50775" lon="1.15607">
        <ele>151.320887</ele>
        <time>2022-01-11T13:37:47.102Z</time>
      </trkpt>
      <trkpt lat="44.50779" lon="1.15624">
        <ele>151.546674</ele>
        <time>2022-01-11T13:37:50.114Z</time>
      </trkpt>
      <trkpt lat="44.50782" lon="1.15637">
        <ele>151.716163</ele>
        <time>2022-01-11T13:37:52.117Z</time>
      </trkpt>
      <trkpt lat="44.50786" lon="1.15651">
        <ele>151.892125</ele>
        <time>2022-01-11T13:37:54.112Z</time>
      </trkpt>
      <trkpt lat="44.50789" lon="1.15664">
        <ele>152.069752</ele>
        <time>2022-01-11T13:37:56.107Z</time>
      </trkpt>
      <trkpt lat="44.50795" lon="1.1568">
        <ele>152.290135</ele>
        <time>2022-01-11T13:37:58.106Z</time>
      </trkpt>
      <trkpt lat="44.50798" lon="1.15697">
        <ele>152.499988</ele>
        <time>2022-01-11T13:38:00.105Z</time>
      </trkpt>
      <trkpt lat="44.50802" lon="1.15715">
        <ele>152.732862</ele>
        <time>2022-01-11T13:38:02.113Z</time>
      </trkpt>
      <trkpt lat="44.50806" lon="1.15732">
        <ele>152.555279</ele>
        <time>2022-01-11T13:38:04.113Z</time>
      </trkpt>
      <trkpt lat="44.50811" lon="1.15752">
        <ele>151.915949</ele>
        <time>2022-01-11T13:38:06.119Z</time>
      </trkpt>
      <trkpt lat="44.50815" lon="1.15773">
        <ele>151.246382</ele>
        <time>2022-01-11T13:38:08.106Z</time>
      </trkpt>
      <trkpt lat="44.50818" lon="1.15793">
        <ele>150.62803</ele>
        <time>2022-01-11T13:38:10.114Z</time>
      </trkpt>
      <trkpt lat="44.50823" lon="1.15817">
        <ele>149.877376</ele>
        <time>2022-01-11T13:38:12.098Z</time>
      </trkpt>
      <trkpt lat="44.50825" lon="1.1584">
        <ele>149.190202</ele>
        <time>2022-01-11T13:38:14.096Z</time>
      </trkpt>
      <trkpt lat="44.50827" lon="1.15863">
        <ele>148.499704</ele>
        <time>2022-01-11T13:38:16.117Z</time>
      </trkpt>
      <trkpt lat="44.50828" lon="1.15884">
        <ele>147.83567</ele>
        <time>2022-01-11T13:38:18.113Z</time>
      </trkpt>
      <trkpt lat="44.50829" lon="1.15907">
        <ele>147.154603</ele>
        <time>2022-01-11T13:38:20.115Z</time>
      </trkpt>
      <trkpt lat="44.50829" lon="1.1593">
        <ele>146.465312</ele>
        <time>2022-01-11T13:38:22.121Z</time>
      </trkpt>
      <trkpt lat="44.50829" lon="1.15953">
        <ele>145.77288</ele>
        <time>2022-01-11T13:38:24.093Z</time>
      </trkpt>
      <trkpt lat="44.5083" lon="1.15966">
        <ele>145.353529</ele>
        <time>2022-01-11T13:38:25.104Z</time>
      </trkpt>
      <trkpt lat="44.50831" lon="1.1599">
        <ele>145.11731</ele>
        <time>2022-01-11T13:38:27.109Z</time>
      </trkpt>
      <trkpt lat="44.50833" lon="1.16013">
        <ele>144.992197</ele>
        <time>2022-01-11T13:38:29.115Z</time>
      </trkpt>
      <trkpt lat="44.50835" lon="1.16027">
        <ele>144.918317</ele>
        <time>2022-01-11T13:38:30.105Z</time>
      </trkpt>
      <trkpt lat="44.50837" lon="1.16039">
        <ele>144.848368</ele>
        <time>2022-01-11T13:38:31.110Z</time>
      </trkpt>
      <trkpt lat="44.50841" lon="1.16063">
        <ele>144.723237</ele>
        <time>2022-01-11T13:38:33.112Z</time>
      </trkpt>
      <trkpt lat="44.50845" lon="1.16085">
        <ele>144.60005</ele>
        <time>2022-01-11T13:38:35.112Z</time>
      </trkpt>
      <trkpt lat="44.5085" lon="1.16108">
        <ele>144.472389</ele>
        <time>2022-01-11T13:38:37.105Z</time>
      </trkpt>
      <trkpt lat="44.50853" lon="1.16127">
        <ele>144.368048</ele>
        <time>2022-01-11T13:38:39.114Z</time>
      </trkpt>
      <trkpt lat="44.50859" lon="1.16151">
        <ele>144.238665</ele>
        <time>2022-01-11T13:38:41.101Z</time>
      </trkpt>
      <trkpt lat="44.50863" lon="1.16163">
        <ele>144.170717</ele>
        <time>2022-01-11T13:38:42.099Z</time>
      </trkpt>
      <trkpt lat="44.50863" lon="1.16181">
        <ele>144.07502</ele>
        <time>2022-01-11T13:38:44.102Z</time>
      </trkpt>
      <trkpt lat="44.50863" lon="1.162">
        <ele>143.971975</ele>
        <time>2022-01-11T13:38:46.114Z</time>
      </trkpt>
      <trkpt lat="44.50864" lon="1.1622">
        <ele>143.891588</ele>
        <time>2022-01-11T13:38:48.105Z</time>
      </trkpt>
      <trkpt lat="44.50865" lon="1.16239">
        <ele>143.945531</ele>
        <time>2022-01-11T13:38:50.111Z</time>
      </trkpt>
      <trkpt lat="44.50865" lon="1.16256">
        <ele>143.99371</ele>
        <time>2022-01-11T13:38:52.117Z</time>
      </trkpt>
      <trkpt lat="44.50859" lon="1.16272">
        <ele>144.043563</ele>
        <time>2022-01-11T13:38:54.106Z</time>
      </trkpt>
      <trkpt lat="44.50849" lon="1.16283">
        <ele>144.093115</ele>
        <time>2022-01-11T13:38:56.102Z</time>
      </trkpt>
      <trkpt lat="44.50838" lon="1.16287">
        <ele>144.137148</ele>
        <time>2022-01-11T13:38:58.107Z</time>
      </trkpt>
      <trkpt lat="44.5082" lon="1.16278">
        <ele>144.212546</ele>
        <time>2022-01-11T13:39:00.112Z</time>
      </trkpt>
      <trkpt lat="44.50814" lon="1.16269">
        <ele>144.247803</ele>
        <time>2022-01-11T13:39:01.114Z</time>
      </trkpt>
      <trkpt lat="44.50804" lon="1.16249">
        <ele>144.316165</ele>
        <time>2022-01-11T13:39:03.110Z</time>
      </trkpt>
      <trkpt lat="44.50801" lon="1.16237">
        <ele>144.352044</ele>
        <time>2022-01-11T13:39:04.119Z</time>
      </trkpt>
      <trkpt lat="44.50802" lon="1.16215">
        <ele>144.413719</ele>
        <time>2022-01-11T13:39:06.106Z</time>
      </trkpt>
      <trkpt lat="44.50803" lon="1.16195">
        <ele>144.470881</ele>
        <time>2022-01-11T13:39:08.107Z</time>
      </trkpt>
      <trkpt lat="44.50806" lon="1.16177">
        <ele>144.523076</ele>
        <time>2022-01-11T13:39:10.114Z</time>
      </trkpt>
      <trkpt lat="44.50809" lon="1.1616">
        <ele>144.57119</ele>
        <time>2022-01-11T13:39:12.111Z</time>
      </trkpt>
      <trkpt lat="44.50811" lon="1.16143">
        <ele>144.490185</ele>
        <time>2022-01-11T13:39:14.109Z</time>
      </trkpt>
      <trkpt lat="44.50813" lon="1.16126">
        <ele>144.322497</ele>
        <time>2022-01-11T13:39:16.112Z</time>
      </trkpt>
      <trkpt lat="44.50816" lon="1.1611">
        <ele>144.162736</ele>
        <time>2022-01-11T13:39:18.101Z</time>
      </trkpt>
      <trkpt lat="44.50818" lon="1.16095">
        <ele>144.018761</ele>
        <time>2022-01-11T13:39:20.109Z</time>
      </trkpt>
      <trkpt lat="44.5082" lon="1.16081">
        <ele>143.882596</ele>
        <time>2022-01-11T13:39:22.114Z</time>
      </trkpt>
      <trkpt lat="44.50823" lon="1.16068">
        <ele>143.747448</ele>
        <time>2022-01-11T13:39:24.113Z</time>
      </trkpt>
      <trkpt lat="44.50825" lon="1.1605">
        <ele>143.579285</ele>
        <time>2022-01-11T13:39:27.115Z</time>
      </trkpt>
      <trkpt lat="44.50828" lon="1.16037">
        <ele>143.443908</ele>
        <time>2022-01-11T13:39:29.115Z</time>
      </trkpt>
      <trkpt lat="44.50831" lon="1.16018">
        <ele>143.258416</ele>
        <time>2022-01-11T13:39:32.110Z</time>
      </trkpt>
      <trkpt lat="44.5083" lon="1.16003">
        <ele>143.111911</ele>
        <time>2022-01-11T13:39:35.107Z</time>
      </trkpt>
      <trkpt lat="44.5082" lon="1.15993">
        <ele>142.943059</ele>
        <time>2022-01-11T13:39:38.119Z</time>
      </trkpt>
      <trkpt lat="44.50809" lon="1.15992">
        <ele>142.79518</ele>
        <time>2022-01-11T13:39:40.105Z</time>
      </trkpt>
      <trkpt lat="44.50797" lon="1.15988">
        <ele>142.629921</ele>
        <time>2022-01-11T13:39:42.099Z</time>
      </trkpt>
      <trkpt lat="44.50784" lon="1.15985">
        <ele>142.456914</ele>
        <time>2022-01-11T13:39:44.096Z</time>
      </trkpt>
      <trkpt lat="44.50771" lon="1.15982">
        <ele>142.276086</ele>
        <time>2022-01-11T13:39:46.116Z</time>
      </trkpt>
      <trkpt lat="44.50758" lon="1.15978">
        <ele>142.136019</ele>
        <time>2022-01-11T13:39:48.100Z</time>
      </trkpt>
      <trkpt lat="44.50743" lon="1.15975">
        <ele>142.0423</ele>
        <time>2022-01-11T13:39:50.105Z</time>
      </trkpt>
      <trkpt lat="44.50729" lon="1.15972">
        <ele>141.95004</ele>
        <time>2022-01-11T13:39:52.100Z</time>
      </trkpt>
      <trkpt lat="44.50714" lon="1.15968">
        <ele>141.854507</ele>
        <time>2022-01-11T13:39:54.113Z</time>
      </trkpt>
      <trkpt lat="44.50698" lon="1.15963">
        <ele>141.750425</ele>
        <time>2022-01-11T13:39:56.109Z</time>
      </trkpt>
      <trkpt lat="44.50684" lon="1.15959">
        <ele>141.658459</ele>
        <time>2022-01-11T13:39:58.116Z</time>
      </trkpt>
      <trkpt lat="44.50675" lon="1.15957">
        <ele>141.60077</ele>
        <time>2022-01-11T13:39:59.114Z</time>
      </trkpt>
      <trkpt lat="44.50658" lon="1.15952">
        <ele>141.490815</ele>
        <time>2022-01-11T13:40:01.098Z</time>
      </trkpt>
      <trkpt lat="44.50643" lon="1.15949">
        <ele>141.392498</ele>
        <time>2022-01-11T13:40:03.107Z</time>
      </trkpt>
      <trkpt lat="44.50628" lon="1.15947">
        <ele>141.297907</ele>
        <time>2022-01-11T13:40:05.094Z</time>
      </trkpt>
      <trkpt lat="44.50613" lon="1.15945">
        <ele>141.204672</ele>
        <time>2022-01-11T13:40:07.112Z</time>
      </trkpt>
      <trkpt lat="44.506" lon="1.15944">
        <ele>141.119333</ele>
        <time>2022-01-11T13:40:09.096Z</time>
      </trkpt>
      <trkpt lat="44.50587" lon="1.15944">
        <ele>141.036072</ele>
        <time>2022-01-11T13:40:11.100Z</time>
      </trkpt>
      <trkpt lat="44.50574" lon="1.15944">
        <ele>141.076121</ele>
        <time>2022-01-11T13:40:13.117Z</time>
      </trkpt>
      <trkpt lat="44.50559" lon="1.15945">
        <ele>141.132197</ele>
        <time>2022-01-11T13:40:15.100Z</time>
      </trkpt>
      <trkpt lat="44.50546" lon="1.15945">
        <ele>141.182161</ele>
        <time>2022-01-11T13:40:17.103Z</time>
      </trkpt>
      <trkpt lat="44.50533" lon="1.15945">
        <ele>141.230226</ele>
        <time>2022-01-11T13:40:19.112Z</time>
      </trkpt>
      <trkpt lat="44.50522" lon="1.15947">
        <ele>141.274266</ele>
        <time>2022-01-11T13:40:21.102Z</time>
      </trkpt>
      <trkpt lat="44.50509" lon="1.15947">
        <ele>141.324636</ele>
        <time>2022-01-11T13:40:23.101Z</time>
      </trkpt>
      <trkpt lat="44.50497" lon="1.15946">
        <ele>141.369749</ele>
        <time>2022-01-11T13:40:25.102Z</time>
      </trkpt>
      <trkpt lat="44.50486" lon="1.15947">
        <ele>141.409846</ele>
        <time>2022-01-11T13:40:27.113Z</time>
      </trkpt>
      <trkpt lat="44.50479" lon="1.15954">
        <ele>141.445596</ele>
        <time>2022-01-11T13:40:29.105Z</time>
      </trkpt>
      <trkpt lat="44.50477" lon="1.15974">
        <ele>141.49998</ele>
        <time>2022-01-11T13:40:31.115Z</time>
      </trkpt>
      <trkpt lat="44.50475" lon="1.1599">
        <ele>141.543972</ele>
        <time>2022-01-11T13:40:33.113Z</time>
      </trkpt>
      <trkpt lat="44.50474" lon="1.16006">
        <ele>141.58751</ele>
        <time>2022-01-11T13:40:35.103Z</time>
      </trkpt>
      <trkpt lat="44.50474" lon="1.16024">
        <ele>141.636213</ele>
        <time>2022-01-11T13:40:37.115Z</time>
      </trkpt>
      <trkpt lat="44.50474" lon="1.16043">
        <ele>141.688722</ele>
        <time>2022-01-11T13:40:39.104Z</time>
      </trkpt>
      <trkpt lat="44.50474" lon="1.16061">
        <ele>141.529925</ele>
        <time>2022-01-11T13:40:41.110Z</time>
      </trkpt>
      <trkpt lat="44.50474" lon="1.16078">
        <ele>141.148323</ele>
        <time>2022-01-11T13:40:43.111Z</time>
      </trkpt>
      <trkpt lat="44.50469" lon="1.16096">
        <ele>140.711907</ele>
        <time>2022-01-11T13:40:45.117Z</time>
      </trkpt>
      <trkpt lat="44.50461" lon="1.16113">
        <ele>140.259146</ele>
        <time>2022-01-11T13:40:47.104Z</time>
      </trkpt>
      <trkpt lat="44.50453" lon="1.16128">
        <ele>139.819664</ele>
        <time>2022-01-11T13:40:49.113Z</time>
      </trkpt>
      <trkpt lat="44.50442" lon="1.16143">
        <ele>139.334819</ele>
        <time>2022-01-11T13:40:51.107Z</time>
      </trkpt>
      <trkpt lat="44.50432" lon="1.16158">
        <ele>138.879663</ele>
        <time>2022-01-11T13:40:53.107Z</time>
      </trkpt>
      <trkpt lat="44.50423" lon="1.16173">
        <ele>138.419133</ele>
        <time>2022-01-11T13:40:55.104Z</time>
      </trkpt>
      <trkpt lat="44.50413" lon="1.16188">
        <ele>137.95959</ele>
        <time>2022-01-11T13:40:57.113Z</time>
      </trkpt>
      <trkpt lat="44.50403" lon="1.16202">
        <ele>137.522813</ele>
        <time>2022-01-11T13:40:59.110Z</time>
      </trkpt>
      <trkpt lat="44.50393" lon="1.16216">
        <ele>137.074773</ele>
        <time>2022-01-11T13:41:01.104Z</time>
      </trkpt>
      <trkpt lat="44.50382" lon="1.16227">
        <ele>136.629015</ele>
        <time>2022-01-11T13:41:03.107Z</time>
      </trkpt>
      <trkpt lat="44.50369" lon="1.16235">
        <ele>136.175094</ele>
        <time>2022-01-11T13:41:05.113Z</time>
      </trkpt>
      <trkpt lat="44.50355" lon="1.16239">
        <ele>136.273076</ele>
        <time>2022-01-11T13:41:07.098Z</time>
      </trkpt>
      <trkpt lat="44.50341" lon="1.16243">
        <ele>136.768874</ele>
        <time>2022-01-11T13:41:09.091Z</time>
      </trkpt>
      <trkpt lat="44.50328" lon="1.16246">
        <ele>137.205563</ele>
        <time>2022-01-11T13:41:11.097Z</time>
      </trkpt>
      <trkpt lat="44.50316" lon="1.16253">
        <ele>137.660091</ele>
        <time>2022-01-11T13:41:13.093Z</time>
      </trkpt>
      <trkpt lat="44.50307" lon="1.16264">
        <ele>138.076567</ele>
        <time>2022-01-11T13:41:15.106Z</time>
      </trkpt>
      <trkpt lat="44.50301" lon="1.16276">
        <ele>138.446596</ele>
        <time>2022-01-11T13:41:17.101Z</time>
      </trkpt>
      <trkpt lat="44.50296" lon="1.1629">
        <ele>138.818124</ele>
        <time>2022-01-11T13:41:19.097Z</time>
      </trkpt>
      <trkpt lat="44.5029" lon="1.16305">
        <ele>139.242189</ele>
        <time>2022-01-11T13:41:21.097Z</time>
      </trkpt>
      <trkpt lat="44.50285" lon="1.1632">
        <ele>139.651043</ele>
        <time>2022-01-11T13:41:23.097Z</time>
      </trkpt>
      <trkpt lat="44.5028" lon="1.16336">
        <ele>140.068223</ele>
        <time>2022-01-11T13:41:25.113Z</time>
      </trkpt>
      <trkpt lat="44.50275" lon="1.16351">
        <ele>140.477482</ele>
        <time>2022-01-11T13:41:27.112Z</time>
      </trkpt>
      <trkpt lat="44.50269" lon="1.16367">
        <ele>140.925931</ele>
        <time>2022-01-11T13:41:29.097Z</time>
      </trkpt>
      <trkpt lat="44.50263" lon="1.16385">
        <ele>141.420043</ele>
        <time>2022-01-11T13:41:31.099Z</time>
      </trkpt>
      <trkpt lat="44.50257" lon="1.16404">
        <ele>141.918756</ele>
        <time>2022-01-11T13:41:33.093Z</time>
      </trkpt>
      <trkpt lat="44.50252" lon="1.1642">
        <ele>142.116951</ele>
        <time>2022-01-11T13:41:35.094Z</time>
      </trkpt>
      <trkpt lat="44.50246" lon="1.1644">
        <ele>141.90829</ele>
        <time>2022-01-11T13:41:37.104Z</time>
      </trkpt>
      <trkpt lat="44.5024" lon="1.16461">
        <ele>141.681502</ele>
        <time>2022-01-11T13:41:39.096Z</time>
      </trkpt>
      <trkpt lat="44.50232" lon="1.16479">
        <ele>141.46945</ele>
        <time>2022-01-11T13:41:41.097Z</time>
      </trkpt>
      <trkpt lat="44.50223" lon="1.16495">
        <ele>141.268572</ele>
        <time>2022-01-11T13:41:43.098Z</time>
      </trkpt>
      <trkpt lat="44.50214" lon="1.16511">
        <ele>141.066918</ele>
        <time>2022-01-11T13:41:45.096Z</time>
      </trkpt>
      <trkpt lat="44.50205" lon="1.16529">
        <ele>140.858153</ele>
        <time>2022-01-11T13:41:47.094Z</time>
      </trkpt>
      <trkpt lat="44.50197" lon="1.16545">
        <ele>140.663126</ele>
        <time>2022-01-11T13:41:49.104Z</time>
      </trkpt>
      <trkpt lat="44.5019" lon="1.16564">
        <ele>140.454696</ele>
        <time>2022-01-11T13:41:51.107Z</time>
      </trkpt>
      <trkpt lat="44.50183" lon="1.16582">
        <ele>140.24919</ele>
        <time>2022-01-11T13:41:53.099Z</time>
      </trkpt>
      <trkpt lat="44.50176" lon="1.166">
        <ele>140.05013</ele>
        <time>2022-01-11T13:41:55.093Z</time>
      </trkpt>
      <trkpt lat="44.50169" lon="1.16616">
        <ele>139.861053</ele>
        <time>2022-01-11T13:41:57.096Z</time>
      </trkpt>
      <trkpt lat="44.50163" lon="1.16635">
        <ele>139.676629</ele>
        <time>2022-01-11T13:41:59.096Z</time>
      </trkpt>
      <trkpt lat="44.50159" lon="1.16654">
        <ele>139.567645</ele>
        <time>2022-01-11T13:42:01.097Z</time>
      </trkpt>
      <trkpt lat="44.50154" lon="1.16672">
        <ele>139.459959</ele>
        <time>2022-01-11T13:42:03.096Z</time>
      </trkpt>
      <trkpt lat="44.50149" lon="1.16691">
        <ele>139.347614</ele>
        <time>2022-01-11T13:42:05.109Z</time>
      </trkpt>
      <trkpt lat="44.50142" lon="1.1671">
        <ele>139.236004</ele>
        <time>2022-01-11T13:42:07.099Z</time>
      </trkpt>
      <trkpt lat="44.50135" lon="1.16725">
        <ele>139.131074</ele>
        <time>2022-01-11T13:42:09.093Z</time>
      </trkpt>
      <trkpt lat="44.50123" lon="1.16736">
        <ele>139.025943</ele>
        <time>2022-01-11T13:42:11.096Z</time>
      </trkpt>
      <trkpt lat="44.50112" lon="1.16746">
        <ele>138.922141</ele>
        <time>2022-01-11T13:42:13.095Z</time>
      </trkpt>
      <trkpt lat="44.501" lon="1.16755">
        <ele>138.820932</ele>
        <time>2022-01-11T13:42:15.095Z</time>
      </trkpt>
      <trkpt lat="44.50087" lon="1.16765">
        <ele>138.703548</ele>
        <time>2022-01-11T13:42:17.095Z</time>
      </trkpt>
      <trkpt lat="44.50075" lon="1.16775">
        <ele>138.596226</ele>
        <time>2022-01-11T13:42:19.098Z</time>
      </trkpt>
      <trkpt lat="44.50062" lon="1.16785">
        <ele>138.483838</ele>
        <time>2022-01-11T13:42:21.096Z</time>
      </trkpt>
      <trkpt lat="44.50049" lon="1.16795">
        <ele>138.371635</ele>
        <time>2022-01-11T13:42:23.093Z</time>
      </trkpt>
      <trkpt lat="44.50037" lon="1.16806">
        <ele>138.277906</ele>
        <time>2022-01-11T13:42:25.093Z</time>
      </trkpt>
      <trkpt lat="44.50025" lon="1.16816">
        <ele>138.209036</ele>
        <time>2022-01-11T13:42:27.092Z</time>
      </trkpt>
      <trkpt lat="44.50013" lon="1.16825">
        <ele>138.137795</ele>
        <time>2022-01-11T13:42:29.095Z</time>
      </trkpt>
      <trkpt lat="44.5" lon="1.16835">
        <ele>138.066371</ele>
        <time>2022-01-11T13:42:31.093Z</time>
      </trkpt>
      <trkpt lat="44.49989" lon="1.16844">
        <ele>137.998923</ele>
        <time>2022-01-11T13:42:33.105Z</time>
      </trkpt>
      <trkpt lat="44.49977" lon="1.16854">
        <ele>137.929539</ele>
        <time>2022-01-11T13:42:35.102Z</time>
      </trkpt>
      <trkpt lat="44.49964" lon="1.16864">
        <ele>137.85552</ele>
        <time>2022-01-11T13:42:37.096Z</time>
      </trkpt>
      <trkpt lat="44.49952" lon="1.16874">
        <ele>137.78354</ele>
        <time>2022-01-11T13:42:39.093Z</time>
      </trkpt>
      <trkpt lat="44.49939" lon="1.16882">
        <ele>137.709024</ele>
        <time>2022-01-11T13:42:41.096Z</time>
      </trkpt>
      <trkpt lat="44.49926" lon="1.1689">
        <ele>137.637659</ele>
        <time>2022-01-11T13:42:43.097Z</time>
      </trkpt>
      <trkpt lat="44.49911" lon="1.16897">
        <ele>137.562341</ele>
        <time>2022-01-11T13:42:45.098Z</time>
      </trkpt>
      <trkpt lat="44.49898" lon="1.16902">
        <ele>137.491389</ele>
        <time>2022-01-11T13:42:47.095Z</time>
      </trkpt>
      <trkpt lat="44.49884" lon="1.16907">
        <ele>137.418364</ele>
        <time>2022-01-11T13:42:49.104Z</time>
      </trkpt>
      <trkpt lat="44.4987" lon="1.16913">
        <ele>137.39793</ele>
        <time>2022-01-11T13:42:51.097Z</time>
      </trkpt>
      <trkpt lat="44.49857" lon="1.16918">
        <ele>137.38914</ele>
        <time>2022-01-11T13:42:53.101Z</time>
      </trkpt>
      <trkpt lat="44.49843" lon="1.16923">
        <ele>137.380149</ele>
        <time>2022-01-11T13:42:55.098Z</time>
      </trkpt>
      <trkpt lat="44.49829" lon="1.16927">
        <ele>137.370817</ele>
        <time>2022-01-11T13:42:57.098Z</time>
      </trkpt>
      <trkpt lat="44.49815" lon="1.16932">
        <ele>137.361869</ele>
        <time>2022-01-11T13:42:59.097Z</time>
      </trkpt>
      <trkpt lat="44.49802" lon="1.16935">
        <ele>137.353114</ele>
        <time>2022-01-11T13:43:01.119Z</time>
      </trkpt>
      <trkpt lat="44.49788" lon="1.16939">
        <ele>137.343887</ele>
        <time>2022-01-11T13:43:03.098Z</time>
      </trkpt>
      <trkpt lat="44.49774" lon="1.16941">
        <ele>137.334728</ele>
        <time>2022-01-11T13:43:05.099Z</time>
      </trkpt>
      <trkpt lat="44.49759" lon="1.16943">
        <ele>137.325588</ele>
        <time>2022-01-11T13:43:07.094Z</time>
      </trkpt>
      <trkpt lat="44.49745" lon="1.16944">
        <ele>137.316471</ele>
        <time>2022-01-11T13:43:09.096Z</time>
      </trkpt>
      <trkpt lat="44.49732" lon="1.16945">
        <ele>137.307726</ele>
        <time>2022-01-11T13:43:11.094Z</time>
      </trkpt>
      <trkpt lat="44.49718" lon="1.16946">
        <ele>137.29913</ele>
        <time>2022-01-11T13:43:13.095Z</time>
      </trkpt>
      <trkpt lat="44.49704" lon="1.16946">
        <ele>137.289562</ele>
        <time>2022-01-11T13:43:15.098Z</time>
      </trkpt>
      <trkpt lat="44.4969" lon="1.16946">
        <ele>137.273325</ele>
        <time>2022-01-11T13:43:17.109Z</time>
      </trkpt>
      <trkpt lat="44.49676" lon="1.16945">
        <ele>137.256959</ele>
        <time>2022-01-11T13:43:19.099Z</time>
      </trkpt>
      <trkpt lat="44.49662" lon="1.16944">
        <ele>137.240798</ele>
        <time>2022-01-11T13:43:21.119Z</time>
      </trkpt>
      <trkpt lat="44.49648" lon="1.16943">
        <ele>137.223968</ele>
        <time>2022-01-11T13:43:23.099Z</time>
      </trkpt>
      <trkpt lat="44.49633" lon="1.16943">
        <ele>137.207031</ele>
        <time>2022-01-11T13:43:25.096Z</time>
      </trkpt>
      <trkpt lat="44.49619" lon="1.16944">
        <ele>137.190181</ele>
        <time>2022-01-11T13:43:27.096Z</time>
      </trkpt>
      <trkpt lat="44.49605" lon="1.16947">
        <ele>137.173779</ele>
        <time>2022-01-11T13:43:29.095Z</time>
      </trkpt>
      <trkpt lat="44.49591" lon="1.1695">
        <ele>137.157758</ele>
        <time>2022-01-11T13:43:31.103Z</time>
      </trkpt>
      <trkpt lat="44.49578" lon="1.16954">
        <ele>137.141184</ele>
        <time>2022-01-11T13:43:33.094Z</time>
      </trkpt>
      <trkpt lat="44.49564" lon="1.16959">
        <ele>137.124709</ele>
        <time>2022-01-11T13:43:35.096Z</time>
      </trkpt>
      <trkpt lat="44.4955" lon="1.16962">
        <ele>137.107948</ele>
        <time>2022-01-11T13:43:37.097Z</time>
      </trkpt>
      <trkpt lat="44.49536" lon="1.16961">
        <ele>137.091465</ele>
        <time>2022-01-11T13:43:39.093Z</time>
      </trkpt>
      <trkpt lat="44.49522" lon="1.16956">
        <ele>137.240065</ele>
        <time>2022-01-11T13:43:41.095Z</time>
      </trkpt>
      <trkpt lat="44.49509" lon="1.1695">
        <ele>137.707919</ele>
        <time>2022-01-11T13:43:43.098Z</time>
      </trkpt>
      <trkpt lat="44.495" lon="1.16944">
        <ele>138.095417</ele>
        <time>2022-01-11T13:43:45.107Z</time>
      </trkpt>
      <trkpt lat="44.49489" lon="1.16938">
        <ele>138.511216</ele>
        <time>2022-01-11T13:43:47.112Z</time>
      </trkpt>
      <trkpt lat="44.49477" lon="1.16931">
        <ele>138.944362</ele>
        <time>2022-01-11T13:43:49.108Z</time>
      </trkpt>
      <trkpt lat="44.49467" lon="1.16927">
        <ele>139.310597</ele>
        <time>2022-01-11T13:43:51.108Z</time>
      </trkpt>
      <trkpt lat="44.49454" lon="1.16924">
        <ele>139.777593</ele>
        <time>2022-01-11T13:43:53.111Z</time>
      </trkpt>
      <trkpt lat="44.49444" lon="1.16923">
        <ele>140.124745</ele>
        <time>2022-01-11T13:43:55.105Z</time>
      </trkpt>
      <trkpt lat="44.49435" lon="1.16924">
        <ele>140.475271</ele>
        <time>2022-01-11T13:43:57.102Z</time>
      </trkpt>
      <trkpt lat="44.49425" lon="1.16927">
        <ele>140.836235</ele>
        <time>2022-01-11T13:43:59.096Z</time>
      </trkpt>
      <trkpt lat="44.49415" lon="1.16929">
        <ele>141.167018</ele>
        <time>2022-01-11T13:44:01.105Z</time>
      </trkpt>
      <trkpt lat="44.49406" lon="1.16932">
        <ele>141.498762</ele>
        <time>2022-01-11T13:44:03.119Z</time>
      </trkpt>
      <trkpt lat="44.49397" lon="1.16934">
        <ele>141.826071</ele>
        <time>2022-01-11T13:44:05.111Z</time>
      </trkpt>
      <trkpt lat="44.49388" lon="1.16937">
        <ele>142.15597</ele>
        <time>2022-01-11T13:44:07.104Z</time>
      </trkpt>
      <trkpt lat="44.49379" lon="1.16938">
        <ele>142.482819</ele>
        <time>2022-01-11T13:44:09.113Z</time>
      </trkpt>
      <trkpt lat="44.4937" lon="1.16936">
        <ele>142.799241</ele>
        <time>2022-01-11T13:44:11.101Z</time>
      </trkpt>
      <trkpt lat="44.49362" lon="1.16929">
        <ele>143.130502</ele>
        <time>2022-01-11T13:44:13.108Z</time>
      </trkpt>
      <trkpt lat="44.4935" lon="1.16923">
        <ele>143.423061</ele>
        <time>2022-01-11T13:44:16.104Z</time>
      </trkpt>
      <trkpt lat="44.4934" lon="1.16922">
        <ele>143.384532</ele>
        <time>2022-01-11T13:44:18.106Z</time>
      </trkpt>
      <trkpt lat="44.4933" lon="1.16925">
        <ele>143.345556</ele>
        <time>2022-01-11T13:44:20.105Z</time>
      </trkpt>
      <trkpt lat="44.49321" lon="1.16931">
        <ele>143.306156</ele>
        <time>2022-01-11T13:44:22.103Z</time>
      </trkpt>
      <trkpt lat="44.49312" lon="1.16939">
        <ele>143.268305</ele>
        <time>2022-01-11T13:44:24.103Z</time>
      </trkpt>
      <trkpt lat="44.49302" lon="1.16946">
        <ele>143.224577</ele>
        <time>2022-01-11T13:44:26.103Z</time>
      </trkpt>
      <trkpt lat="44.49292" lon="1.16945">
        <ele>143.18399</ele>
        <time>2022-01-11T13:44:28.092Z</time>
      </trkpt>
      <trkpt lat="44.49281" lon="1.16943">
        <ele>143.143347</ele>
        <time>2022-01-11T13:44:30.123Z</time>
      </trkpt>
      <trkpt lat="44.4927" lon="1.16942">
        <ele>143.100946</ele>
        <time>2022-01-11T13:44:32.098Z</time>
      </trkpt>
      <trkpt lat="44.49259" lon="1.16941">
        <ele>143.055759</ele>
        <time>2022-01-11T13:44:34.104Z</time>
      </trkpt>
      <trkpt lat="44.49246" lon="1.16943">
        <ele>143.007512</ele>
        <time>2022-01-11T13:44:36.100Z</time>
      </trkpt>
      <trkpt lat="44.49236" lon="1.16947">
        <ele>142.967783</ele>
        <time>2022-01-11T13:44:38.112Z</time>
      </trkpt>
      <trkpt lat="44.49225" lon="1.16946">
        <ele>142.923386</ele>
        <time>2022-01-11T13:44:40.106Z</time>
      </trkpt>
      <trkpt lat="44.49215" lon="1.16943">
        <ele>142.885574</ele>
        <time>2022-01-11T13:44:42.113Z</time>
      </trkpt>
      <trkpt lat="44.49204" lon="1.1694">
        <ele>142.841669</ele>
        <time>2022-01-11T13:44:44.112Z</time>
      </trkpt>
      <trkpt lat="44.49195" lon="1.16936">
        <ele>142.804603</ele>
        <time>2022-01-11T13:44:47.116Z</time>
      </trkpt>
      <trkpt lat="44.4918" lon="1.16928">
        <ele>142.746883</ele>
        <time>2022-01-11T13:44:49.115Z</time>
      </trkpt>
      <trkpt lat="44.49168" lon="1.16921">
        <ele>142.780365</ele>
        <time>2022-01-11T13:44:51.145Z</time>
      </trkpt>
      <trkpt lat="44.49158" lon="1.16916">
        <ele>142.807294</ele>
        <time>2022-01-11T13:44:53.113Z</time>
      </trkpt>
      <trkpt lat="44.49149" lon="1.16913">
        <ele>142.832745</ele>
        <time>2022-01-11T13:44:55.115Z</time>
      </trkpt>
      <trkpt lat="44.49138" lon="1.1691">
        <ele>142.861948</ele>
        <time>2022-01-11T13:44:58.123Z</time>
      </trkpt>
      <trkpt lat="44.49129" lon="1.16908">
        <ele>142.885489</ele>
        <time>2022-01-11T13:45:01.108Z</time>
      </trkpt>
      <trkpt lat="44.49121" lon="1.16916">
        <ele>142.9092</ele>
        <time>2022-01-11T13:45:04.106Z</time>
      </trkpt>
      <trkpt lat="44.4912" lon="1.1693">
        <ele>142.935717</ele>
        <time>2022-01-11T13:45:07.119Z</time>
      </trkpt>
      <trkpt lat="44.49118" lon="1.16966">
        <ele>143.001367</ele>
        <time>2022-01-11T13:45:38.091Z</time>
      </trkpt>
      <trkpt lat="44.49115" lon="1.16982">
        <ele>143.032651</ele>
        <time>2022-01-11T13:45:40.096Z</time>
      </trkpt>
      <trkpt lat="44.4911" lon="1.16999">
        <ele>143.065597</ele>
        <time>2022-01-11T13:45:42.103Z</time>
      </trkpt>
      <trkpt lat="44.49104" lon="1.17016">
        <ele>143.100647</ele>
        <time>2022-01-11T13:45:44.122Z</time>
      </trkpt>
      <trkpt lat="44.49096" lon="1.17031">
        <ele>143.134907</ele>
        <time>2022-01-11T13:45:46.112Z</time>
      </trkpt>
      <trkpt lat="44.49086" lon="1.17043">
        <ele>143.168066</ele>
        <time>2022-01-11T13:45:48.105Z</time>
      </trkpt>
      <trkpt lat="44.49074" lon="1.17056">
        <ele>143.206951</ele>
        <time>2022-01-11T13:45:50.101Z</time>
      </trkpt>
      <trkpt lat="44.49061" lon="1.17066">
        <ele>143.153945</ele>
        <time>2022-01-11T13:45:52.112Z</time>
      </trkpt>
      <trkpt lat="44.49049" lon="1.17077">
        <ele>143.094958</ele>
        <time>2022-01-11T13:45:54.113Z</time>
      </trkpt>
      <trkpt lat="44.49035" lon="1.17086">
        <ele>143.032587</ele>
        <time>2022-01-11T13:45:56.110Z</time>
      </trkpt>
      <trkpt lat="44.49023" lon="1.17093">
        <ele>142.981419</ele>
        <time>2022-01-11T13:45:58.112Z</time>
      </trkpt>
      <trkpt lat="44.49008" lon="1.17101">
        <ele>142.918761</ele>
        <time>2022-01-11T13:46:00.099Z</time>
      </trkpt>
      <trkpt lat="44.48995" lon="1.1711">
        <ele>142.861216</ele>
        <time>2022-01-11T13:46:02.115Z</time>
      </trkpt>
      <trkpt lat="44.48981" lon="1.17118">
        <ele>142.801013</ele>
        <time>2022-01-11T13:46:04.101Z</time>
      </trkpt>
      <trkpt lat="44.48968" lon="1.17125">
        <ele>142.743703</ele>
        <time>2022-01-11T13:46:06.101Z</time>
      </trkpt>
      <trkpt lat="44.48955" lon="1.17132">
        <ele>142.687835</ele>
        <time>2022-01-11T13:46:08.110Z</time>
      </trkpt>
      <trkpt lat="44.48941" lon="1.17139">
        <ele>142.628677</ele>
        <time>2022-01-11T13:46:10.104Z</time>
      </trkpt>
      <trkpt lat="44.48927" lon="1.17146">
        <ele>142.571367</ele>
        <time>2022-01-11T13:46:12.119Z</time>
      </trkpt>
      <trkpt lat="44.48914" lon="1.17154">
        <ele>142.512941</ele>
        <time>2022-01-11T13:46:14.100Z</time>
      </trkpt>
      <trkpt lat="44.489" lon="1.1716">
        <ele>142.606436</ele>
        <time>2022-01-11T13:46:16.095Z</time>
      </trkpt>
      <trkpt lat="44.48886" lon="1.17167">
        <ele>142.788819</ele>
        <time>2022-01-11T13:46:18.100Z</time>
      </trkpt>
      <trkpt lat="44.48873" lon="1.17174">
        <ele>142.962064</ele>
        <time>2022-01-11T13:46:20.106Z</time>
      </trkpt>
      <trkpt lat="44.48859" lon="1.17183">
        <ele>143.146386</ele>
        <time>2022-01-11T13:46:22.092Z</time>
      </trkpt>
      <trkpt lat="44.48846" lon="1.17187">
        <ele>143.308617</ele>
        <time>2022-01-11T13:46:24.095Z</time>
      </trkpt>
      <trkpt lat="44.48833" lon="1.17191">
        <ele>143.476022</ele>
        <time>2022-01-11T13:46:26.095Z</time>
      </trkpt>
      <trkpt lat="44.48819" lon="1.17196">
        <ele>143.655592</ele>
        <time>2022-01-11T13:46:28.096Z</time>
      </trkpt>
      <trkpt lat="44.48804" lon="1.17199">
        <ele>143.831673</ele>
        <time>2022-01-11T13:46:30.091Z</time>
      </trkpt>
      <trkpt lat="44.4879" lon="1.17203">
        <ele>144.007474</ele>
        <time>2022-01-11T13:46:32.093Z</time>
      </trkpt>
      <trkpt lat="44.48776" lon="1.17207">
        <ele>144.193069</ele>
        <time>2022-01-11T13:46:34.102Z</time>
      </trkpt>
      <trkpt lat="44.48764" lon="1.17211">
        <ele>144.343333</ele>
        <time>2022-01-11T13:46:36.103Z</time>
      </trkpt>
      <trkpt lat="44.48749" lon="1.17216">
        <ele>144.527335</ele>
        <time>2022-01-11T13:46:38.095Z</time>
      </trkpt>
      <trkpt lat="44.48736" lon="1.17219">
        <ele>144.687492</ele>
        <time>2022-01-11T13:46:40.100Z</time>
      </trkpt>
      <trkpt lat="44.48723" lon="1.17224">
        <ele>144.571402</ele>
        <time>2022-01-11T13:46:42.095Z</time>
      </trkpt>
      <trkpt lat="44.48708" lon="1.17229">
        <ele>144.425959</ele>
        <time>2022-01-11T13:46:44.102Z</time>
      </trkpt>
      <trkpt lat="44.48695" lon="1.17234">
        <ele>144.284537</ele>
        <time>2022-01-11T13:46:46.096Z</time>
      </trkpt>
      <trkpt lat="44.48682" lon="1.17236">
        <ele>144.153791</ele>
        <time>2022-01-11T13:46:48.095Z</time>
      </trkpt>
      <trkpt lat="44.48668" lon="1.17242">
        <ele>144.017358</ele>
        <time>2022-01-11T13:46:50.098Z</time>
      </trkpt>
      <trkpt lat="44.48656" lon="1.17245">
        <ele>143.89254</ele>
        <time>2022-01-11T13:46:52.098Z</time>
      </trkpt>
      <trkpt lat="44.48642" lon="1.1725">
        <ele>143.753561</ele>
        <time>2022-01-11T13:46:54.096Z</time>
      </trkpt>
      <trkpt lat="44.48632" lon="1.17251">
        <ele>143.646935</ele>
        <time>2022-01-11T13:46:56.107Z</time>
      </trkpt>
      <trkpt lat="44.48619" lon="1.17257">
        <ele>143.517764</ele>
        <time>2022-01-11T13:46:58.103Z</time>
      </trkpt>
      <trkpt lat="44.48607" lon="1.1726">
        <ele>143.396823</ele>
        <time>2022-01-11T13:47:00.093Z</time>
      </trkpt>
      <trkpt lat="44.48595" lon="1.17265">
        <ele>143.271287</ele>
        <time>2022-01-11T13:47:02.113Z</time>
      </trkpt>
      <trkpt lat="44.48585" lon="1.1727">
        <ele>143.163366</ele>
        <time>2022-01-11T13:47:03.094Z</time>
      </trkpt>
      <trkpt lat="44.48575" lon="1.17274">
        <ele>143.060748</ele>
        <time>2022-01-11T13:47:05.105Z</time>
      </trkpt>
      <trkpt lat="44.48561" lon="1.17279">
        <ele>142.91457</ele>
        <time>2022-01-11T13:47:07.093Z</time>
      </trkpt>
      <trkpt lat="44.48547" lon="1.17282">
        <ele>142.828583</ele>
        <time>2022-01-11T13:47:09.096Z</time>
      </trkpt>
      <trkpt lat="44.48535" lon="1.17287">
        <ele>142.74566</ele>
        <time>2022-01-11T13:47:11.095Z</time>
      </trkpt>
      <trkpt lat="44.48522" lon="1.17291">
        <ele>142.666651</ele>
        <time>2022-01-11T13:47:13.100Z</time>
      </trkpt>
      <trkpt lat="44.4851" lon="1.17289">
        <ele>142.589629</ele>
        <time>2022-01-11T13:47:15.093Z</time>
      </trkpt>
      <trkpt lat="44.48497" lon="1.17292">
        <ele>142.502108</ele>
        <time>2022-01-11T13:47:17.095Z</time>
      </trkpt>
      <trkpt lat="44.48487" lon="1.17292">
        <ele>142.440437</ele>
        <time>2022-01-11T13:47:18.101Z</time>
      </trkpt>
      <trkpt lat="44.48476" lon="1.17293">
        <ele>142.37374</ele>
        <time>2022-01-11T13:47:20.115Z</time>
      </trkpt>
      <trkpt lat="44.48463" lon="1.173">
        <ele>142.281036</ele>
        <time>2022-01-11T13:47:22.096Z</time>
      </trkpt>
      <trkpt lat="44.48452" lon="1.17306">
        <ele>142.205715</ele>
        <time>2022-01-11T13:47:24.092Z</time>
      </trkpt>
      <trkpt lat="44.48436" lon="1.1731">
        <ele>142.104007</ele>
        <time>2022-01-11T13:47:26.097Z</time>
      </trkpt>
      <trkpt lat="44.48423" lon="1.17315">
        <ele>142.02064</ele>
        <time>2022-01-11T13:47:28.100Z</time>
      </trkpt>
      <trkpt lat="44.48409" lon="1.17318">
        <ele>141.932089</ele>
        <time>2022-01-11T13:47:30.095Z</time>
      </trkpt>
      <trkpt lat="44.48397" lon="1.17325">
        <ele>141.845527</ele>
        <time>2022-01-11T13:47:32.099Z</time>
      </trkpt>
      <trkpt lat="44.48383" lon="1.1733">
        <ele>141.773048</ele>
        <time>2022-01-11T13:47:34.098Z</time>
      </trkpt>
      <trkpt lat="44.48369" lon="1.17333">
        <ele>141.766427</ele>
        <time>2022-01-11T13:47:36.105Z</time>
      </trkpt>
      <trkpt lat="44.48356" lon="1.17339">
        <ele>141.760087</ele>
        <time>2022-01-11T13:47:38.092Z</time>
      </trkpt>
      <trkpt lat="44.48343" lon="1.17343">
        <ele>141.753803</ele>
        <time>2022-01-11T13:47:40.093Z</time>
      </trkpt>
      <trkpt lat="44.48329" lon="1.1735">
        <ele>141.747156</ele>
        <time>2022-01-11T13:47:42.097Z</time>
      </trkpt>
      <trkpt lat="44.48318" lon="1.17356">
        <ele>141.74144</ele>
        <time>2022-01-11T13:47:44.094Z</time>
      </trkpt>
      <trkpt lat="44.48305" lon="1.17361">
        <ele>141.73549</ele>
        <time>2022-01-11T13:47:46.094Z</time>
      </trkpt>
      <trkpt lat="44.48291" lon="1.17365">
        <ele>141.728587</ele>
        <time>2022-01-11T13:47:48.099Z</time>
      </trkpt>
      <trkpt lat="44.48277" lon="1.1737">
        <ele>141.721878</ele>
        <time>2022-01-11T13:47:50.099Z</time>
      </trkpt>
      <trkpt lat="44.48265" lon="1.17372">
        <ele>141.716586</ele>
        <time>2022-01-11T13:47:52.105Z</time>
      </trkpt>
      <trkpt lat="44.48251" lon="1.17378">
        <ele>141.709436</ele>
        <time>2022-01-11T13:47:54.103Z</time>
      </trkpt>
      <trkpt lat="44.48237" lon="1.17385">
        <ele>141.702824</ele>
        <time>2022-01-11T13:47:56.096Z</time>
      </trkpt>
      <trkpt lat="44.48225" lon="1.1739">
        <ele>141.69701</ele>
        <time>2022-01-11T13:47:58.094Z</time>
      </trkpt>
      <trkpt lat="44.48213" lon="1.17393">
        <ele>141.691261</ele>
        <time>2022-01-11T13:48:00.092Z</time>
      </trkpt>
      <trkpt lat="44.482" lon="1.17398">
        <ele>141.666481</ele>
        <time>2022-01-11T13:48:02.100Z</time>
      </trkpt>
      <trkpt lat="44.48186" lon="1.17401">
        <ele>141.637827</ele>
        <time>2022-01-11T13:48:04.090Z</time>
      </trkpt>
      <trkpt lat="44.48178" lon="1.17406">
        <ele>141.619876</ele>
        <time>2022-01-11T13:48:05.095Z</time>
      </trkpt>
      <trkpt lat="44.48165" lon="1.17411">
        <ele>141.593966</ele>
        <time>2022-01-11T13:48:07.099Z</time>
      </trkpt>
      <trkpt lat="44.48153" lon="1.17416">
        <ele>141.569882</ele>
        <time>2022-01-11T13:48:09.101Z</time>
      </trkpt>
      <trkpt lat="44.4814" lon="1.17419">
        <ele>141.543198</ele>
        <time>2022-01-11T13:48:11.108Z</time>
      </trkpt>
      <trkpt lat="44.48128" lon="1.17423">
        <ele>141.517928</ele>
        <time>2022-01-11T13:48:13.111Z</time>
      </trkpt>
      <trkpt lat="44.48113" lon="1.17427">
        <ele>141.488676</ele>
        <time>2022-01-11T13:48:15.094Z</time>
      </trkpt>
      <trkpt lat="44.481" lon="1.17433">
        <ele>141.461281</ele>
        <time>2022-01-11T13:48:17.095Z</time>
      </trkpt>
      <trkpt lat="44.48087" lon="1.17436">
        <ele>141.436055</ele>
        <time>2022-01-11T13:48:19.094Z</time>
      </trkpt>
      <trkpt lat="44.48075" lon="1.17444">
        <ele>141.40908</ele>
        <time>2022-01-11T13:48:21.093Z</time>
      </trkpt>
      <trkpt lat="44.48061" lon="1.17448">
        <ele>141.381825</ele>
        <time>2022-01-11T13:48:23.106Z</time>
      </trkpt>
      <trkpt lat="44.48046" lon="1.17453">
        <ele>141.351713</ele>
        <time>2022-01-11T13:48:25.095Z</time>
      </trkpt>
      <trkpt lat="44.48035" lon="1.17454">
        <ele>141.403984</ele>
        <time>2022-01-11T13:48:27.093Z</time>
      </trkpt>
      <trkpt lat="44.48021" lon="1.1746">
        <ele>141.709449</ele>
        <time>2022-01-11T13:48:29.092Z</time>
      </trkpt>
      <trkpt lat="44.48007" lon="1.17465">
        <ele>142.010927</ele>
        <time>2022-01-11T13:48:31.097Z</time>
      </trkpt>
      <trkpt lat="44.47994" lon="1.17468">
        <ele>142.295684</ele>
        <time>2022-01-11T13:48:33.094Z</time>
      </trkpt>
      <trkpt lat="44.47981" lon="1.17471">
        <ele>142.557366</ele>
        <time>2022-01-11T13:48:35.095Z</time>
      </trkpt>
      <trkpt lat="44.47965" lon="1.17476">
        <ele>142.902346</ele>
        <time>2022-01-11T13:48:37.097Z</time>
      </trkpt>
      <trkpt lat="44.47954" lon="1.17478">
        <ele>143.124982</ele>
        <time>2022-01-11T13:48:39.099Z</time>
      </trkpt>
      <trkpt lat="44.47943" lon="1.17483">
        <ele>143.375466</ele>
        <time>2022-01-11T13:48:41.098Z</time>
      </trkpt>
      <trkpt lat="44.4793" lon="1.17489">
        <ele>143.650982</ele>
        <time>2022-01-11T13:48:43.094Z</time>
      </trkpt>
      <trkpt lat="44.4792" lon="1.17498">
        <ele>143.904883</ele>
        <time>2022-01-11T13:48:45.097Z</time>
      </trkpt>
      <trkpt lat="44.47906" lon="1.17507">
        <ele>144.224267</ele>
        <time>2022-01-11T13:48:47.094Z</time>
      </trkpt>
      <trkpt lat="44.4789" lon="1.17506">
        <ele>144.56024</ele>
        <time>2022-01-11T13:48:49.095Z</time>
      </trkpt>
      <trkpt lat="44.47874" lon="1.17511">
        <ele>144.893803</ele>
        <time>2022-01-11T13:48:52.095Z</time>
      </trkpt>
      <trkpt lat="44.47864" lon="1.17517">
        <ele>145.094756</ele>
        <time>2022-01-11T13:48:54.094Z</time>
      </trkpt>
      <trkpt lat="44.47852" lon="1.17521">
        <ele>145.162514</ele>
        <time>2022-01-11T13:48:56.100Z</time>
      </trkpt>
      <trkpt lat="44.47841" lon="1.17524">
        <ele>145.227746</ele>
        <time>2022-01-11T13:48:58.094Z</time>
      </trkpt>
      <trkpt lat="44.4783" lon="1.17527">
        <ele>145.295241</ele>
        <time>2022-01-11T13:49:00.098Z</time>
      </trkpt>
      <trkpt lat="44.47819" lon="1.1753">
        <ele>145.359584</ele>
        <time>2022-01-11T13:49:02.093Z</time>
      </trkpt>
      <trkpt lat="44.47805" lon="1.17538">
        <ele>145.444253</ele>
        <time>2022-01-11T13:49:04.097Z</time>
      </trkpt>
      <trkpt lat="44.47794" lon="1.17539">
        <ele>145.50886</ele>
        <time>2022-01-11T13:49:06.103Z</time>
      </trkpt>
      <trkpt lat="44.47781" lon="1.17542">
        <ele>145.584495</ele>
        <time>2022-01-11T13:49:08.116Z</time>
      </trkpt>
      <trkpt lat="44.47773" lon="1.17551">
        <ele>145.644374</ele>
        <time>2022-01-11T13:49:09.093Z</time>
      </trkpt>
      <trkpt lat="44.47761" lon="1.17557">
        <ele>145.717459</ele>
        <time>2022-01-11T13:49:11.098Z</time>
      </trkpt>
      <trkpt lat="44.47749" lon="1.17565">
        <ele>145.797076</ele>
        <time>2022-01-11T13:49:13.100Z</time>
      </trkpt>
      <trkpt lat="44.47736" lon="1.17568">
        <ele>145.86845</ele>
        <time>2022-01-11T13:49:15.096Z</time>
      </trkpt>
      <trkpt lat="44.47726" lon="1.17569">
        <ele>145.93143</ele>
        <time>2022-01-11T13:49:17.097Z</time>
      </trkpt>
      <trkpt lat="44.47711" lon="1.17574">
        <ele>146.018293</ele>
        <time>2022-01-11T13:49:19.096Z</time>
      </trkpt>
      <trkpt lat="44.47702" lon="1.17579">
        <ele>146.074778</ele>
        <time>2022-01-11T13:49:20.097Z</time>
      </trkpt>
      <trkpt lat="44.47689" lon="1.17584">
        <ele>146.116259</ele>
        <time>2022-01-11T13:49:22.097Z</time>
      </trkpt>
      <trkpt lat="44.47677" lon="1.1759">
        <ele>146.114543</ele>
        <time>2022-01-11T13:49:24.105Z</time>
      </trkpt>
      <trkpt lat="44.47668" lon="1.17591">
        <ele>146.113279</ele>
        <time>2022-01-11T13:49:25.094Z</time>
      </trkpt>
      <trkpt lat="44.47655" lon="1.17596">
        <ele>146.111333</ele>
        <time>2022-01-11T13:49:27.097Z</time>
      </trkpt>
      <trkpt lat="44.47645" lon="1.17602">
        <ele>146.109867</ele>
        <time>2022-01-11T13:49:29.098Z</time>
      </trkpt>
      <trkpt lat="44.4763" lon="1.17605">
        <ele>146.10771</ele>
        <time>2022-01-11T13:49:31.103Z</time>
      </trkpt>
      <trkpt lat="44.47611" lon="1.1761">
        <ele>146.105073</ele>
        <time>2022-01-11T13:49:34.097Z</time>
      </trkpt>
      <trkpt lat="44.47596" lon="1.17617">
        <ele>146.102845</ele>
        <time>2022-01-11T13:49:36.096Z</time>
      </trkpt>
      <trkpt lat="44.47581" lon="1.17626">
        <ele>146.100499</ele>
        <time>2022-01-11T13:49:39.096Z</time>
      </trkpt>
      <trkpt lat="44.47565" lon="1.17636">
        <ele>146.098047</ele>
        <time>2022-01-11T13:49:41.099Z</time>
      </trkpt>
      <trkpt lat="44.47555" lon="1.17639">
        <ele>146.096691</ele>
        <time>2022-01-11T13:49:42.103Z</time>
      </trkpt>
      <trkpt lat="44.47545" lon="1.17639">
        <ele>146.095221</ele>
        <time>2022-01-11T13:49:44.095Z</time>
      </trkpt>
      <trkpt lat="44.47533" lon="1.17648">
        <ele>146.093349</ele>
        <time>2022-01-11T13:49:46.099Z</time>
      </trkpt>
      <trkpt lat="44.4752" lon="1.17658">
        <ele>146.13071</ele>
        <time>2022-01-11T13:49:48.093Z</time>
      </trkpt>
      <trkpt lat="44.47507" lon="1.17661">
        <ele>146.23358</ele>
        <time>2022-01-11T13:49:50.096Z</time>
      </trkpt>
      <trkpt lat="44.47492" lon="1.17668">
        <ele>146.353285</ele>
        <time>2022-01-11T13:49:52.098Z</time>
      </trkpt>
      <trkpt lat="44.47482" lon="1.17671">
        <ele>146.437851</ele>
        <time>2022-01-11T13:49:55.097Z</time>
      </trkpt>
      <trkpt lat="44.47471" lon="1.17668">
        <ele>146.523499</ele>
        <time>2022-01-11T13:49:57.093Z</time>
      </trkpt>
      <trkpt lat="44.47458" lon="1.17674">
        <ele>146.626891</ele>
        <time>2022-01-11T13:49:59.107Z</time>
      </trkpt>
      <trkpt lat="44.47448" lon="1.17686">
        <ele>146.728454</ele>
        <time>2022-01-11T13:50:01.100Z</time>
      </trkpt>
      <trkpt lat="44.47438" lon="1.17698">
        <ele>146.834674</ele>
        <time>2022-01-11T13:50:03.096Z</time>
      </trkpt>
      <trkpt lat="44.47428" lon="1.17707">
        <ele>146.928606</ele>
        <time>2022-01-11T13:50:05.098Z</time>
      </trkpt>
      <trkpt lat="44.47413" lon="1.17714">
        <ele>147.049224</ele>
        <time>2022-01-11T13:50:08.097Z</time>
      </trkpt>
      <trkpt lat="44.47398" lon="1.17727">
        <ele>147.187723</ele>
        <time>2022-01-11T13:50:10.096Z</time>
      </trkpt>
      <trkpt lat="44.47381" lon="1.17735">
        <ele>147.327402</ele>
        <time>2022-01-11T13:50:12.098Z</time>
      </trkpt>
      <trkpt lat="44.47369" lon="1.17748">
        <ele>147.438841</ele>
        <time>2022-01-11T13:50:15.106Z</time>
      </trkpt>
      <trkpt lat="44.47354" lon="1.17754">
        <ele>147.611119</ele>
        <time>2022-01-11T13:50:17.103Z</time>
      </trkpt>
      <trkpt lat="44.47342" lon="1.17766">
        <ele>147.818204</ele>
        <time>2022-01-11T13:50:19.099Z</time>
      </trkpt>
      <trkpt lat="44.47329" lon="1.17775">
        <ele>148.011609</ele>
        <time>2022-01-11T13:50:21.100Z</time>
      </trkpt>
      <trkpt lat="44.47316" lon="1.17783">
        <ele>148.19983</ele>
        <time>2022-01-11T13:50:24.114Z</time>
      </trkpt>
      <trkpt lat="44.47309" lon="1.17792">
        <ele>148.32499</ele>
        <time>2022-01-11T13:50:25.095Z</time>
      </trkpt>
      <trkpt lat="44.473" lon="1.17795">
        <ele>148.45714</ele>
        <time>2022-01-11T13:50:26.103Z</time>
      </trkpt>
      <trkpt lat="44.47287" lon="1.1781">
        <ele>148.677891</ele>
        <time>2022-01-11T13:50:28.094Z</time>
      </trkpt>
      <trkpt lat="44.47279" lon="1.17822">
        <ele>148.840859</ele>
        <time>2022-01-11T13:50:30.110Z</time>
      </trkpt>
      <trkpt lat="44.47266" lon="1.17834">
        <ele>149.044817</ele>
        <time>2022-01-11T13:50:32.094Z</time>
      </trkpt>
      <trkpt lat="44.47258" lon="1.17843">
        <ele>149.182431</ele>
        <time>2022-01-11T13:50:34.096Z</time>
      </trkpt>
      <trkpt lat="44.47247" lon="1.17853">
        <ele>149.362613</ele>
        <time>2022-01-11T13:50:36.096Z</time>
      </trkpt>
      <trkpt lat="44.47238" lon="1.17861">
        <ele>149.50887</ele>
        <time>2022-01-11T13:50:38.106Z</time>
      </trkpt>
      <trkpt lat="44.47227" lon="1.17868">
        <ele>149.663634</ele>
        <time>2022-01-11T13:50:40.091Z</time>
      </trkpt>
      <trkpt lat="44.47215" lon="1.17874">
        <ele>149.839097</ele>
        <time>2022-01-11T13:50:42.099Z</time>
      </trkpt>
      <trkpt lat="44.47205" lon="1.17875">
        <ele>150.020172</ele>
        <time>2022-01-11T13:50:44.090Z</time>
      </trkpt>
      <trkpt lat="44.47194" lon="1.17888">
        <ele>150.358322</ele>
        <time>2022-01-11T13:50:46.095Z</time>
      </trkpt>
      <trkpt lat="44.47183" lon="1.179">
        <ele>150.670906</ele>
        <time>2022-01-11T13:50:49.090Z</time>
      </trkpt>
      <trkpt lat="44.47176" lon="1.17918">
        <ele>151.012299</ele>
        <time>2022-01-11T13:50:51.097Z</time>
      </trkpt>
      <trkpt lat="44.47165" lon="1.17926">
        <ele>151.302428</ele>
        <time>2022-01-11T13:50:54.107Z</time>
      </trkpt>
      <trkpt lat="44.47158" lon="1.17937">
        <ele>151.543246</ele>
        <time>2022-01-11T13:50:56.096Z</time>
      </trkpt>
      <trkpt lat="44.47142" lon="1.17944">
        <ele>151.936382</ele>
        <time>2022-01-11T13:50:58.095Z</time>
      </trkpt>
      <trkpt lat="44.47126" lon="1.17955">
        <ele>152.350152</ele>
        <time>2022-01-11T13:51:00.097Z</time>
      </trkpt>
      <trkpt lat="44.47114" lon="1.17966">
        <ele>152.672157</ele>
        <time>2022-01-11T13:51:02.095Z</time>
      </trkpt>
      <trkpt lat="44.47107" lon="1.17974">
        <ele>152.879189</ele>
        <time>2022-01-11T13:51:03.096Z</time>
      </trkpt>
      <trkpt lat="44.47096" lon="1.1798">
        <ele>153.149593</ele>
        <time>2022-01-11T13:51:05.095Z</time>
      </trkpt>
      <trkpt lat="44.47085" lon="1.17987">
        <ele>153.431584</ele>
        <time>2022-01-11T13:51:08.096Z</time>
      </trkpt>
      <trkpt lat="44.47075" lon="1.18">
        <ele>153.759079</ele>
        <time>2022-01-11T13:51:11.101Z</time>
      </trkpt>
      <trkpt lat="44.47064" lon="1.1801">
        <ele>154.050328</ele>
        <time>2022-01-11T13:51:13.099Z</time>
      </trkpt>
      <trkpt lat="44.47058" lon="1.18019">
        <ele>154.155194</ele>
        <time>2022-01-11T13:51:15.104Z</time>
      </trkpt>
      <trkpt lat="44.47044" lon="1.1803">
        <ele>154.332255</ele>
        <time>2022-01-11T13:51:17.103Z</time>
      </trkpt>
      <trkpt lat="44.47037" lon="1.18045">
        <ele>154.473293</ele>
        <time>2022-01-11T13:51:19.097Z</time>
      </trkpt>
      <trkpt lat="44.47026" lon="1.1806">
        <ele>154.649646</ele>
        <time>2022-01-11T13:51:21.096Z</time>
      </trkpt>
      <trkpt lat="44.47014" lon="1.18069">
        <ele>154.794778</ele>
        <time>2022-01-11T13:51:23.096Z</time>
      </trkpt>
      <trkpt lat="44.47006" lon="1.1808">
        <ele>154.921446</ele>
        <time>2022-01-11T13:51:25.096Z</time>
      </trkpt>
      <trkpt lat="44.46997" lon="1.18095">
        <ele>155.083204</ele>
        <time>2022-01-11T13:51:27.094Z</time>
      </trkpt>
      <trkpt lat="44.46987" lon="1.18104">
        <ele>155.216346</ele>
        <time>2022-01-11T13:51:29.103Z</time>
      </trkpt>
      <trkpt lat="44.46978" lon="1.18117">
        <ele>155.36335</ele>
        <time>2022-01-11T13:51:31.095Z</time>
      </trkpt>
      <trkpt lat="44.4697" lon="1.18124">
        <ele>155.467885</ele>
        <time>2022-01-11T13:51:33.094Z</time>
      </trkpt>
      <trkpt lat="44.46962" lon="1.18133">
        <ele>155.583569</ele>
        <time>2022-01-11T13:51:35.095Z</time>
      </trkpt>
      <trkpt lat="44.46951" lon="1.18143">
        <ele>155.727311</ele>
        <time>2022-01-11T13:51:36.104Z</time>
      </trkpt>
      <trkpt lat="44.46945" lon="1.18153">
        <ele>155.831804</ele>
        <time>2022-01-11T13:51:37.102Z</time>
      </trkpt>
      <trkpt lat="44.46942" lon="1.18166">
        <ele>155.937577</ele>
        <time>2022-01-11T13:51:39.092Z</time>
      </trkpt>
      <trkpt lat="44.46932" lon="1.18179">
        <ele>156.026207</ele>
        <time>2022-01-11T13:51:41.097Z</time>
      </trkpt>
      <trkpt lat="44.46923" lon="1.18192">
        <ele>155.740369</ele>
        <time>2022-01-11T13:51:43.093Z</time>
      </trkpt>
      <trkpt lat="44.46919" lon="1.18205">
        <ele>155.505941</ele>
        <time>2022-01-11T13:51:45.095Z</time>
      </trkpt>
      <trkpt lat="44.4691" lon="1.18209">
        <ele>155.281041</ele>
        <time>2022-01-11T13:51:46.106Z</time>
      </trkpt>
      <trkpt lat="44.46906" lon="1.18225">
        <ele>155.006069</ele>
        <time>2022-01-11T13:51:48.103Z</time>
      </trkpt>
      <trkpt lat="44.46894" lon="1.18237">
        <ele>154.690347</ele>
        <time>2022-01-11T13:51:50.096Z</time>
      </trkpt>
      <trkpt lat="44.46886" lon="1.18241">
        <ele>154.486748</ele>
        <time>2022-01-11T13:51:51.098Z</time>
      </trkpt>
      <trkpt lat="44.46874" lon="1.18254">
        <ele>154.156316</ele>
        <time>2022-01-11T13:51:53.109Z</time>
      </trkpt>
      <trkpt lat="44.46864" lon="1.18269">
        <ele>153.830172</ele>
        <time>2022-01-11T13:51:55.112Z</time>
      </trkpt>
      <trkpt lat="44.46859" lon="1.18287">
        <ele>153.524864</ele>
        <time>2022-01-11T13:51:57.094Z</time>
      </trkpt>
      <trkpt lat="44.4685" lon="1.18302">
        <ele>153.204164</ele>
        <time>2022-01-11T13:51:59.099Z</time>
      </trkpt>
      <trkpt lat="44.46838" lon="1.18315">
        <ele>152.864556</ele>
        <time>2022-01-11T13:52:01.093Z</time>
      </trkpt>
      <trkpt lat="44.46833" lon="1.18333">
        <ele>152.552629</ele>
        <time>2022-01-11T13:52:03.097Z</time>
      </trkpt>
      <trkpt lat="44.46828" lon="1.18345">
        <ele>152.325099</ele>
        <time>2022-01-11T13:52:05.097Z</time>
      </trkpt>
      <trkpt lat="44.46824" lon="1.18359">
        <ele>152.092301</ele>
        <time>2022-01-11T13:52:07.108Z</time>
      </trkpt>
      <trkpt lat="44.46815" lon="1.18374">
        <ele>151.930752</ele>
        <time>2022-01-11T13:52:09.102Z</time>
      </trkpt>
      <trkpt lat="44.46808" lon="1.18391">
        <ele>151.795114</ele>
        <time>2022-01-11T13:52:11.092Z</time>
      </trkpt>
      <trkpt lat="44.46807" lon="1.1841">
        <ele>151.661126</ele>
        <time>2022-01-11T13:52:13.104Z</time>
      </trkpt>
      <trkpt lat="44.46798" lon="1.18424">
        <ele>151.537087</ele>
        <time>2022-01-11T13:52:15.094Z</time>
      </trkpt>
      <trkpt lat="44.46787" lon="1.18438">
        <ele>151.39164</ele>
        <time>2022-01-11T13:52:17.094Z</time>
      </trkpt>
      <trkpt lat="44.46782" lon="1.18453">
        <ele>151.276301</ele>
        <time>2022-01-11T13:52:19.104Z</time>
      </trkpt>
      <trkpt lat="44.46772" lon="1.18468">
        <ele>151.138089</ele>
        <time>2022-01-11T13:52:21.094Z</time>
      </trkpt>
      <trkpt lat="44.46764" lon="1.18485">
        <ele>150.999035</ele>
        <time>2022-01-11T13:52:23.095Z</time>
      </trkpt>
      <trkpt lat="44.4676" lon="1.18504">
        <ele>150.865653</ele>
        <time>2022-01-11T13:52:25.095Z</time>
      </trkpt>
      <trkpt lat="44.46754" lon="1.18521">
        <ele>150.735978</ele>
        <time>2022-01-11T13:52:27.093Z</time>
      </trkpt>
      <trkpt lat="44.46748" lon="1.18538">
        <ele>150.6052</ele>
        <time>2022-01-11T13:52:29.096Z</time>
      </trkpt>
      <trkpt lat="44.4674" lon="1.18555">
        <ele>150.467753</ele>
        <time>2022-01-11T13:52:31.095Z</time>
      </trkpt>
      <trkpt lat="44.46731" lon="1.18575">
        <ele>150.325712</ele>
        <time>2022-01-11T13:52:33.108Z</time>
      </trkpt>
      <trkpt lat="44.46724" lon="1.18594">
        <ele>150.381485</ele>
        <time>2022-01-11T13:52:35.095Z</time>
      </trkpt>
      <trkpt lat="44.46721" lon="1.18608">
        <ele>150.422978</ele>
        <time>2022-01-11T13:52:37.096Z</time>
      </trkpt>
      <trkpt lat="44.46717" lon="1.18625">
        <ele>150.470565</ele>
        <time>2022-01-11T13:52:39.093Z</time>
      </trkpt>
      <trkpt lat="44.46709" lon="1.18642">
        <ele>150.525759</ele>
        <time>2022-01-11T13:52:41.095Z</time>
      </trkpt>
      <trkpt lat="44.46705" lon="1.18659">
        <ele>150.573735</ele>
        <time>2022-01-11T13:52:43.093Z</time>
      </trkpt>
      <trkpt lat="44.46705" lon="1.18676">
        <ele>150.618768</ele>
        <time>2022-01-11T13:52:45.098Z</time>
      </trkpt>
      <trkpt lat="44.46699" lon="1.18694">
        <ele>150.673387</ele>
        <time>2022-01-11T13:52:47.097Z</time>
      </trkpt>
      <trkpt lat="44.46699" lon="1.18715">
        <ele>150.728868</ele>
        <time>2022-01-11T13:52:49.093Z</time>
      </trkpt>
      <trkpt lat="44.46692" lon="1.18732">
        <ele>150.780445</ele>
        <time>2022-01-11T13:52:51.110Z</time>
      </trkpt>
      <trkpt lat="44.46688" lon="1.18752">
        <ele>150.835003</ele>
        <time>2022-01-11T13:52:53.096Z</time>
      </trkpt>
      <trkpt lat="44.46683" lon="1.1877">
        <ele>150.887891</ele>
        <time>2022-01-11T13:52:55.100Z</time>
      </trkpt>
      <trkpt lat="44.4668" lon="1.18787">
        <ele>150.935781</ele>
        <time>2022-01-11T13:52:57.098Z</time>
      </trkpt>
      <trkpt lat="44.46675" lon="1.18805">
        <ele>150.986296</ele>
        <time>2022-01-11T13:52:59.094Z</time>
      </trkpt>
      <trkpt lat="44.46672" lon="1.18822">
        <ele>151.163695</ele>
        <time>2022-01-11T13:53:01.094Z</time>
      </trkpt>
      <trkpt lat="44.46672" lon="1.18837">
        <ele>151.33418</ele>
        <time>2022-01-11T13:53:03.093Z</time>
      </trkpt>
      <trkpt lat="44.46671" lon="1.18852">
        <ele>151.500328</ele>
        <time>2022-01-11T13:53:05.097Z</time>
      </trkpt>
      <trkpt lat="44.4667" lon="1.18867">
        <ele>151.66617</ele>
        <time>2022-01-11T13:53:07.110Z</time>
      </trkpt>
      <trkpt lat="44.46671" lon="1.18884">
        <ele>151.85973</ele>
        <time>2022-01-11T13:53:09.092Z</time>
      </trkpt>
      <trkpt lat="44.4667" lon="1.18902">
        <ele>152.073612</ele>
        <time>2022-01-11T13:53:11.094Z</time>
      </trkpt>
      <trkpt lat="44.4667" lon="1.18918">
        <ele>152.253464</ele>
        <time>2022-01-11T13:53:13.101Z</time>
      </trkpt>
      <trkpt lat="44.46667" lon="1.18939">
        <ele>152.492329</ele>
        <time>2022-01-11T13:53:15.095Z</time>
      </trkpt>
      <trkpt lat="44.46665" lon="1.18961">
        <ele>152.746289</ele>
        <time>2022-01-11T13:53:17.097Z</time>
      </trkpt>
      <trkpt lat="44.46668" lon="1.18982">
        <ele>152.986545</ele>
        <time>2022-01-11T13:53:19.096Z</time>
      </trkpt>
      <trkpt lat="44.46666" lon="1.19001">
        <ele>153.203556</ele>
        <time>2022-01-11T13:53:21.100Z</time>
      </trkpt>
      <trkpt lat="44.46666" lon="1.19021">
        <ele>153.433058</ele>
        <time>2022-01-11T13:53:23.096Z</time>
      </trkpt>
      <trkpt lat="44.46667" lon="1.19044">
        <ele>153.68873</ele>
        <time>2022-01-11T13:53:25.090Z</time>
      </trkpt>
      <trkpt lat="44.46667" lon="1.19064">
        <ele>154.04716</ele>
        <time>2022-01-11T13:53:27.104Z</time>
      </trkpt>
      <trkpt lat="44.46667" lon="1.19085">
        <ele>154.75054</ele>
        <time>2022-01-11T13:53:29.094Z</time>
      </trkpt>
      <trkpt lat="44.46667" lon="1.19106">
        <ele>155.452907</ele>
        <time>2022-01-11T13:53:31.097Z</time>
      </trkpt>
      <trkpt lat="44.46667" lon="1.19123">
        <ele>156.037741</ele>
        <time>2022-01-11T13:53:33.099Z</time>
      </trkpt>
      <trkpt lat="44.46666" lon="1.19143">
        <ele>156.733323</ele>
        <time>2022-01-11T13:53:35.113Z</time>
      </trkpt>
      <trkpt lat="44.46667" lon="1.19164">
        <ele>157.440091</ele>
        <time>2022-01-11T13:53:37.099Z</time>
      </trkpt>
      <trkpt lat="44.46669" lon="1.19185">
        <ele>158.149429</ele>
        <time>2022-01-11T13:53:39.103Z</time>
      </trkpt>
      <trkpt lat="44.46669" lon="1.19205">
        <ele>158.821663</ele>
        <time>2022-01-11T13:53:41.098Z</time>
      </trkpt>
      <trkpt lat="44.4667" lon="1.19222">
        <ele>159.401287</ele>
        <time>2022-01-11T13:53:43.096Z</time>
      </trkpt>
      <trkpt lat="44.46671" lon="1.19242">
        <ele>160.10404</ele>
        <time>2022-01-11T13:53:45.095Z</time>
      </trkpt>
      <trkpt lat="44.46674" lon="1.19262">
        <ele>160.783794</ele>
        <time>2022-01-11T13:53:47.100Z</time>
      </trkpt>
      <trkpt lat="44.46675" lon="1.19281">
        <ele>161.413296</ele>
        <time>2022-01-11T13:53:49.097Z</time>
      </trkpt>
      <trkpt lat="44.46676" lon="1.19299">
        <ele>162.041146</ele>
        <time>2022-01-11T13:53:51.097Z</time>
      </trkpt>
      <trkpt lat="44.46677" lon="1.19318">
        <ele>162.329842</ele>
        <time>2022-01-11T13:53:53.099Z</time>
      </trkpt>
      <trkpt lat="44.46677" lon="1.19338">
        <ele>162.151204</ele>
        <time>2022-01-11T13:53:55.098Z</time>
      </trkpt>
      <trkpt lat="44.4668" lon="1.19357">
        <ele>161.968066</ele>
        <time>2022-01-11T13:53:57.096Z</time>
      </trkpt>
      <trkpt lat="44.46684" lon="1.19375">
        <ele>161.791144</ele>
        <time>2022-01-11T13:53:59.093Z</time>
      </trkpt>
      <trkpt lat="44.46687" lon="1.19395">
        <ele>161.607352</ele>
        <time>2022-01-11T13:54:01.094Z</time>
      </trkpt>
      <trkpt lat="44.46691" lon="1.19415">
        <ele>161.418573</ele>
        <time>2022-01-11T13:54:03.098Z</time>
      </trkpt>
      <trkpt lat="44.46695" lon="1.19431">
        <ele>161.256843</ele>
        <time>2022-01-11T13:54:05.095Z</time>
      </trkpt>
      <trkpt lat="44.46698" lon="1.1945">
        <ele>161.08065</ele>
        <time>2022-01-11T13:54:07.103Z</time>
      </trkpt>
      <trkpt lat="44.46704" lon="1.19467">
        <ele>160.906034</ele>
        <time>2022-01-11T13:54:09.112Z</time>
      </trkpt>
      <trkpt lat="44.46708" lon="1.19486">
        <ele>160.723463</ele>
        <time>2022-01-11T13:54:11.097Z</time>
      </trkpt>
      <trkpt lat="44.46713" lon="1.19507">
        <ele>160.520827</ele>
        <time>2022-01-11T13:54:13.101Z</time>
      </trkpt>
      <trkpt lat="44.46718" lon="1.19526">
        <ele>160.330026</ele>
        <time>2022-01-11T13:54:15.099Z</time>
      </trkpt>
      <trkpt lat="44.46723" lon="1.19544">
        <ele>160.15483</ele>
        <time>2022-01-11T13:54:17.099Z</time>
      </trkpt>
      <trkpt lat="44.46728" lon="1.19564">
        <ele>159.671724</ele>
        <time>2022-01-11T13:54:19.093Z</time>
      </trkpt>
      <trkpt lat="44.46733" lon="1.19583">
        <ele>159.049843</ele>
        <time>2022-01-11T13:54:21.098Z</time>
      </trkpt>
      <trkpt lat="44.46737" lon="1.19603">
        <ele>158.413441</ele>
        <time>2022-01-11T13:54:23.107Z</time>
      </trkpt>
      <trkpt lat="44.46743" lon="1.19621">
        <ele>157.76465</ele>
        <time>2022-01-11T13:54:25.093Z</time>
      </trkpt>
      <trkpt lat="44.4675" lon="1.19641">
        <ele>157.096252</ele>
        <time>2022-01-11T13:54:27.094Z</time>
      </trkpt>
      <trkpt lat="44.46756" lon="1.19661">
        <ele>156.428931</ele>
        <time>2022-01-11T13:54:29.097Z</time>
      </trkpt>
      <trkpt lat="44.46763" lon="1.1968">
        <ele>155.769954</ele>
        <time>2022-01-11T13:54:31.093Z</time>
      </trkpt>
      <trkpt lat="44.46768" lon="1.19701">
        <ele>155.100192</ele>
        <time>2022-01-11T13:54:33.094Z</time>
      </trkpt>
      <trkpt lat="44.46776" lon="1.1972">
        <ele>154.411487</ele>
        <time>2022-01-11T13:54:35.101Z</time>
      </trkpt>
      <trkpt lat="44.46782" lon="1.19738">
        <ele>153.787766</ele>
        <time>2022-01-11T13:54:37.113Z</time>
      </trkpt>
      <trkpt lat="44.46788" lon="1.19756">
        <ele>153.185434</ele>
        <time>2022-01-11T13:54:39.096Z</time>
      </trkpt>
      <trkpt lat="44.46795" lon="1.19776">
        <ele>152.508832</ele>
        <time>2022-01-11T13:54:41.100Z</time>
      </trkpt>
      <trkpt lat="44.46801" lon="1.19796">
        <ele>152.338629</ele>
        <time>2022-01-11T13:54:43.099Z</time>
      </trkpt>
      <trkpt lat="44.46809" lon="1.19813">
        <ele>152.348335</ele>
        <time>2022-01-11T13:54:45.096Z</time>
      </trkpt>
      <trkpt lat="44.46818" lon="1.19829">
        <ele>152.35794</ele>
        <time>2022-01-11T13:54:47.097Z</time>
      </trkpt>
      <trkpt lat="44.46829" lon="1.19845">
        <ele>152.36777</ele>
        <time>2022-01-11T13:54:49.094Z</time>
      </trkpt>
      <trkpt lat="44.46835" lon="1.19856">
        <ele>152.37438</ele>
        <time>2022-01-11T13:54:51.094Z</time>
      </trkpt>
      <trkpt lat="44.46831" lon="1.19868">
        <ele>152.380759</ele>
        <time>2022-01-11T13:54:53.109Z</time>
      </trkpt>
      <trkpt lat="44.46818" lon="1.19871">
        <ele>152.389372</ele>
        <time>2022-01-11T13:54:56.096Z</time>
      </trkpt>
      <trkpt lat="44.46808" lon="1.19872">
        <ele>152.395716</ele>
        <time>2022-01-11T13:54:58.116Z</time>
      </trkpt>
      <trkpt lat="44.46799" lon="1.19873">
        <ele>152.401756</ele>
        <time>2022-01-11T13:55:00.096Z</time>
      </trkpt>
      <trkpt lat="44.46787" lon="1.19873">
        <ele>152.40959</ele>
        <time>2022-01-11T13:55:03.095Z</time>
      </trkpt>
      <trkpt lat="44.46773" lon="1.19872">
        <ele>152.41835</ele>
        <time>2022-01-11T13:55:06.094Z</time>
      </trkpt>
      <trkpt lat="44.46761" lon="1.19872">
        <ele>152.426182</ele>
        <time>2022-01-11T13:55:09.113Z</time>
      </trkpt>
      <trkpt lat="44.46749" lon="1.19869">
        <ele>152.434371</ele>
        <time>2022-01-11T13:55:12.094Z</time>
      </trkpt>
      <trkpt lat="44.46738" lon="1.19867">
        <ele>152.441823</ele>
        <time>2022-01-11T13:55:15.094Z</time>
      </trkpt>
      <trkpt lat="44.46726" lon="1.19864">
        <ele>152.495412</ele>
        <time>2022-01-11T13:55:18.099Z</time>
      </trkpt>
      <trkpt lat="44.46714" lon="1.19862">
        <ele>152.899325</ele>
        <time>2022-01-11T13:55:21.096Z</time>
      </trkpt>
      <trkpt lat="44.46702" lon="1.1986">
        <ele>153.309164</ele>
        <time>2022-01-11T13:55:24.095Z</time>
      </trkpt>
      <trkpt lat="44.46689" lon="1.19858">
        <ele>153.741016</ele>
        <time>2022-01-11T13:55:27.096Z</time>
      </trkpt>
      <trkpt lat="44.46676" lon="1.19856">
        <ele>154.166</ele>
        <time>2022-01-11T13:55:30.098Z</time>
      </trkpt>
      <trkpt lat="44.46664" lon="1.19854">
        <ele>154.576164</ele>
        <time>2022-01-11T13:55:33.095Z</time>
      </trkpt>
      <trkpt lat="44.46653" lon="1.1985">
        <ele>154.967468</ele>
        <time>2022-01-11T13:55:36.096Z</time>
      </trkpt>
      <trkpt lat="44.4664" lon="1.19847">
        <ele>155.383976</ele>
        <time>2022-01-11T13:55:39.095Z</time>
      </trkpt>
      <trkpt lat="44.46629" lon="1.19843">
        <ele>155.785544</ele>
        <time>2022-01-11T13:55:42.096Z</time>
      </trkpt>
      <trkpt lat="44.46617" lon="1.1984">
        <ele>156.184358</ele>
        <time>2022-01-11T13:55:45.097Z</time>
      </trkpt>
      <trkpt lat="44.46605" lon="1.19838">
        <ele>156.586696</ele>
        <time>2022-01-11T13:55:48.100Z</time>
      </trkpt>
      <trkpt lat="44.46593" lon="1.19835">
        <ele>157.000491</ele>
        <time>2022-01-11T13:55:51.100Z</time>
      </trkpt>
      <trkpt lat="44.46581" lon="1.19832">
        <ele>157.406746</ele>
        <time>2022-01-11T13:55:54.095Z</time>
      </trkpt>
      <trkpt lat="44.46568" lon="1.19828">
        <ele>157.833808</ele>
        <time>2022-01-11T13:55:57.094Z</time>
      </trkpt>
      <trkpt lat="44.46559" lon="1.19822">
        <ele>158.170817</ele>
        <time>2022-01-11T13:55:59.091Z</time>
      </trkpt>
      <trkpt lat="44.4655" lon="1.19817">
        <ele>158.460294</ele>
        <time>2022-01-11T13:56:01.093Z</time>
      </trkpt>
      <trkpt lat="44.46541" lon="1.19808">
        <ele>158.701966</ele>
        <time>2022-01-11T13:56:04.098Z</time>
      </trkpt>
      <trkpt lat="44.46533" lon="1.19802">
        <ele>158.903453</ele>
        <time>2022-01-11T13:56:06.096Z</time>
      </trkpt>
      <trkpt lat="44.46522" lon="1.19791">
        <ele>159.187526</ele>
        <time>2022-01-11T13:56:09.104Z</time>
      </trkpt>
      <trkpt lat="44.46513" lon="1.19779">
        <ele>159.447156</ele>
        <time>2022-01-11T13:56:12.095Z</time>
      </trkpt>
      <trkpt lat="44.46503" lon="1.19768">
        <ele>159.704228</ele>
        <time>2022-01-11T13:56:15.094Z</time>
      </trkpt>
      <trkpt lat="44.46493" lon="1.19757">
        <ele>159.973313</ele>
        <time>2022-01-11T13:56:18.104Z</time>
      </trkpt>
      <trkpt lat="44.46485" lon="1.1975">
        <ele>160.173782</ele>
        <time>2022-01-11T13:56:20.097Z</time>
      </trkpt>
      <trkpt lat="44.46476" lon="1.19738">
        <ele>160.438049</ele>
        <time>2022-01-11T13:56:23.094Z</time>
      </trkpt>
      <trkpt lat="44.46468" lon="1.19726">
        <ele>160.691181</ele>
        <time>2022-01-11T13:56:26.093Z</time>
      </trkpt>
      <trkpt lat="44.4646" lon="1.19714">
        <ele>160.941056</ele>
        <time>2022-01-11T13:56:29.098Z</time>
      </trkpt>
      <trkpt lat="44.46451" lon="1.19702">
        <ele>161.210551</ele>
        <time>2022-01-11T13:56:32.109Z</time>
      </trkpt>
      <trkpt lat="44.46442" lon="1.19688">
        <ele>161.484281</ele>
        <time>2022-01-11T13:56:35.095Z</time>
      </trkpt>
      <trkpt lat="44.46433" lon="1.19677">
        <ele>161.745466</ele>
        <time>2022-01-11T13:56:38.097Z</time>
      </trkpt>
      <trkpt lat="44.46423" lon="1.19665">
        <ele>162.012829</ele>
        <time>2022-01-11T13:56:41.102Z</time>
      </trkpt>
      <trkpt lat="44.46417" lon="1.19656">
        <ele>162.208125</ele>
        <time>2022-01-11T13:56:43.103Z</time>
      </trkpt>
      <trkpt lat="44.46409" lon="1.19647">
        <ele>162.77833</ele>
        <time>2022-01-11T13:56:45.090Z</time>
      </trkpt>
      <trkpt lat="44.46401" lon="1.19632">
        <ele>163.605858</ele>
        <time>2022-01-11T13:56:48.098Z</time>
      </trkpt>
      <trkpt lat="44.46391" lon="1.1962">
        <ele>164.390393</ele>
        <time>2022-01-11T13:56:51.096Z</time>
      </trkpt>
      <trkpt lat="44.46385" lon="1.19606">
        <ele>165.142916</ele>
        <time>2022-01-11T13:56:54.097Z</time>
      </trkpt>
      <trkpt lat="44.46381" lon="1.19589">
        <ele>165.944536</ele>
        <time>2022-01-11T13:56:57.100Z</time>
      </trkpt>
      <trkpt lat="44.4638" lon="1.19573">
        <ele>166.644986</ele>
        <time>2022-01-11T13:57:00.101Z</time>
      </trkpt>
      <trkpt lat="44.46374" lon="1.19561">
        <ele>167.284078</ele>
        <time>2022-01-11T13:57:03.090Z</time>
      </trkpt>
      <trkpt lat="44.46373" lon="1.19545">
        <ele>167.979876</ele>
        <time>2022-01-11T13:57:06.093Z</time>
      </trkpt>
      <trkpt lat="44.46373" lon="1.19526">
        <ele>168.823789</ele>
        <time>2022-01-11T13:57:09.104Z</time>
      </trkpt>
      <trkpt lat="44.46373" lon="1.19512">
        <ele>169.446316</ele>
        <time>2022-01-11T13:57:11.092Z</time>
      </trkpt>
      <trkpt lat="44.46375" lon="1.19498">
        <ele>170.076597</ele>
        <time>2022-01-11T13:57:13.099Z</time>
      </trkpt>
      <trkpt lat="44.46376" lon="1.19485">
        <ele>170.673321</ele>
        <time>2022-01-11T13:57:15.092Z</time>
      </trkpt>
      <trkpt lat="44.46372" lon="1.19469">
        <ele>171.402982</ele>
        <time>2022-01-11T13:57:18.098Z</time>
      </trkpt>
      <trkpt lat="44.46368" lon="1.19455">
        <ele>172.077915</ele>
        <time>2022-01-11T13:57:21.097Z</time>
      </trkpt>
      <trkpt lat="44.46365" lon="1.1944">
        <ele>172.790412</ele>
        <time>2022-01-11T13:57:24.097Z</time>
      </trkpt>
      <trkpt lat="44.46362" lon="1.19426">
        <ele>173.434033</ele>
        <time>2022-01-11T13:57:27.096Z</time>
      </trkpt>
      <trkpt lat="44.46361" lon="1.19412">
        <ele>174.411895</ele>
        <time>2022-01-11T13:57:30.089Z</time>
      </trkpt>
      <trkpt lat="44.46362" lon="1.19395">
        <ele>175.568607</ele>
        <time>2022-01-11T13:57:33.095Z</time>
      </trkpt>
      <trkpt lat="44.46358" lon="1.19379">
        <ele>176.714125</ele>
        <time>2022-01-11T13:57:36.102Z</time>
      </trkpt>
      <trkpt lat="44.46354" lon="1.19364">
        <ele>177.803196</ele>
        <time>2022-01-11T13:57:39.097Z</time>
      </trkpt>
      <trkpt lat="44.46351" lon="1.1935">
        <ele>178.80779</ele>
        <time>2022-01-11T13:57:42.088Z</time>
      </trkpt>
      <trkpt lat="44.46351" lon="1.19333">
        <ele>179.929687</ele>
        <time>2022-01-11T13:57:45.090Z</time>
      </trkpt>
      <trkpt lat="44.4635" lon="1.19317">
        <ele>181.035734</ele>
        <time>2022-01-11T13:57:48.099Z</time>
      </trkpt>
      <trkpt lat="44.46345" lon="1.19304">
        <ele>182.011512</ele>
        <time>2022-01-11T13:57:51.091Z</time>
      </trkpt>
      <trkpt lat="44.46337" lon="1.19293">
        <ele>183.141208</ele>
        <time>2022-01-11T13:57:54.094Z</time>
      </trkpt>
      <trkpt lat="44.4633" lon="1.1928">
        <ele>184.277351</ele>
        <time>2022-01-11T13:57:57.092Z</time>
      </trkpt>
      <trkpt lat="44.46324" lon="1.19266">
        <ele>185.379275</ele>
        <time>2022-01-11T13:58:00.107Z</time>
      </trkpt>
      <trkpt lat="44.46319" lon="1.19253">
        <ele>186.346169</ele>
        <time>2022-01-11T13:58:03.098Z</time>
      </trkpt>
      <trkpt lat="44.46313" lon="1.19243">
        <ele>187.299357</ele>
        <time>2022-01-11T13:58:06.093Z</time>
      </trkpt>
      <trkpt lat="44.4631" lon="1.19228">
        <ele>188.317538</ele>
        <time>2022-01-11T13:58:09.094Z</time>
      </trkpt>
      <trkpt lat="44.46308" lon="1.19213">
        <ele>189.391578</ele>
        <time>2022-01-11T13:58:12.093Z</time>
      </trkpt>
      <trkpt lat="44.463" lon="1.192">
        <ele>190.562757</ele>
        <time>2022-01-11T13:58:15.093Z</time>
      </trkpt>
      <trkpt lat="44.46292" lon="1.1919">
        <ele>191.379772</ele>
        <time>2022-01-11T13:58:18.100Z</time>
      </trkpt>
      <trkpt lat="44.46289" lon="1.19176">
        <ele>192.123409</ele>
        <time>2022-01-11T13:58:21.093Z</time>
      </trkpt>
      <trkpt lat="44.46286" lon="1.19163">
        <ele>192.854282</ele>
        <time>2022-01-11T13:58:24.090Z</time>
      </trkpt>
      <trkpt lat="44.46283" lon="1.1915">
        <ele>193.532725</ele>
        <time>2022-01-11T13:58:27.090Z</time>
      </trkpt>
      <trkpt lat="44.46283" lon="1.19134">
        <ele>194.342141</ele>
        <time>2022-01-11T13:58:31.093Z</time>
      </trkpt>
      <trkpt lat="44.46292" lon="1.19125">
        <ele>195.160852</ele>
        <time>2022-01-11T13:58:35.092Z</time>
      </trkpt>
      <trkpt lat="44.46301" lon="1.19121">
        <ele>195.860584</ele>
        <time>2022-01-11T13:58:38.092Z</time>
      </trkpt>
      <trkpt lat="44.46311" lon="1.19123">
        <ele>196.587629</ele>
        <time>2022-01-11T13:58:41.093Z</time>
      </trkpt>
      <trkpt lat="44.46321" lon="1.19129">
        <ele>197.340614</ele>
        <time>2022-01-11T13:58:44.093Z</time>
      </trkpt>
      <trkpt lat="44.46329" lon="1.19138">
        <ele>198.106226</ele>
        <time>2022-01-11T13:58:47.095Z</time>
      </trkpt>
      <trkpt lat="44.46334" lon="1.19151">
        <ele>198.850433</ele>
        <time>2022-01-11T13:58:50.090Z</time>
      </trkpt>
      <trkpt lat="44.46339" lon="1.19162">
        <ele>199.574288</ele>
        <time>2022-01-11T13:58:53.094Z</time>
      </trkpt>
      <trkpt lat="44.46345" lon="1.19174">
        <ele>200.284086</ele>
        <time>2022-01-11T13:58:56.093Z</time>
      </trkpt>
      <trkpt lat="44.46351" lon="1.19185">
        <ele>201.010575</ele>
        <time>2022-01-11T13:58:59.091Z</time>
      </trkpt>
      <trkpt lat="44.46356" lon="1.19196">
        <ele>201.720372</ele>
        <time>2022-01-11T13:59:02.110Z</time>
      </trkpt>
      <trkpt lat="44.46362" lon="1.19209">
        <ele>202.477233</ele>
        <time>2022-01-11T13:59:05.091Z</time>
      </trkpt>
      <trkpt lat="44.46368" lon="1.1922">
        <ele>203.225595</ele>
        <time>2022-01-11T13:59:08.090Z</time>
      </trkpt>
      <trkpt lat="44.46374" lon="1.19231">
        <ele>203.837138</ele>
        <time>2022-01-11T13:59:11.094Z</time>
      </trkpt>
      <trkpt lat="44.4638" lon="1.19242">
        <ele>204.264898</ele>
        <time>2022-01-11T13:59:14.093Z</time>
      </trkpt>
      <trkpt lat="44.46387" lon="1.19254">
        <ele>204.710086</ele>
        <time>2022-01-11T13:59:17.093Z</time>
      </trkpt>
      <trkpt lat="44.46393" lon="1.19266">
        <ele>205.14508</ele>
        <time>2022-01-11T13:59:20.090Z</time>
      </trkpt>
      <trkpt lat="44.46399" lon="1.19277">
        <ele>205.551241</ele>
        <time>2022-01-11T13:59:23.095Z</time>
      </trkpt>
      <trkpt lat="44.46405" lon="1.19288">
        <ele>205.969953</ele>
        <time>2022-01-11T13:59:26.089Z</time>
      </trkpt>
      <trkpt lat="44.46411" lon="1.19299">
        <ele>206.369162</ele>
        <time>2022-01-11T13:59:29.098Z</time>
      </trkpt>
      <trkpt lat="44.46417" lon="1.19311">
        <ele>206.7994</ele>
        <time>2022-01-11T13:59:33.098Z</time>
      </trkpt>
      <trkpt lat="44.46423" lon="1.19324">
        <ele>207.270884</ele>
        <time>2022-01-11T13:59:37.104Z</time>
      </trkpt>
      <trkpt lat="44.46427" lon="1.19336">
        <ele>207.671684</ele>
        <time>2022-01-11T13:59:40.101Z</time>
      </trkpt>
      <trkpt lat="44.46432" lon="1.19349">
        <ele>208.081665</ele>
        <time>2022-01-11T13:59:43.090Z</time>
      </trkpt>
      <trkpt lat="44.46436" lon="1.19361">
        <ele>208.489567</ele>
        <time>2022-01-11T13:59:46.112Z</time>
      </trkpt>
      <trkpt lat="44.46441" lon="1.19375">
        <ele>208.928572</ele>
        <time>2022-01-11T13:59:49.095Z</time>
      </trkpt>
      <trkpt lat="44.46445" lon="1.19386">
        <ele>209.317874</ele>
        <time>2022-01-11T13:59:52.096Z</time>
      </trkpt>
      <trkpt lat="44.46448" lon="1.19399">
        <ele>209.714307</ele>
        <time>2022-01-11T13:59:55.097Z</time>
      </trkpt>
      <trkpt lat="44.46452" lon="1.19412">
        <ele>210.142558</ele>
        <time>2022-01-11T13:59:58.100Z</time>
      </trkpt>
      <trkpt lat="44.46456" lon="1.19426">
        <ele>210.575716</ele>
        <time>2022-01-11T14:00:01.095Z</time>
      </trkpt>
      <trkpt lat="44.46461" lon="1.19439">
        <ele>211.010273</ele>
        <time>2022-01-11T14:00:04.094Z</time>
      </trkpt>
      <trkpt lat="44.46464" lon="1.19452">
        <ele>211.25437</ele>
        <time>2022-01-11T14:00:07.097Z</time>
      </trkpt>
      <trkpt lat="44.46469" lon="1.19465">
        <ele>211.398787</ele>
        <time>2022-01-11T14:00:10.091Z</time>
      </trkpt>
      <trkpt lat="44.46474" lon="1.19477">
        <ele>211.539091</ele>
        <time>2022-01-11T14:00:13.092Z</time>
      </trkpt>
      <trkpt lat="44.4648" lon="1.19489">
        <ele>211.681421</ele>
        <time>2022-01-11T14:00:16.101Z</time>
      </trkpt>
      <trkpt lat="44.46486" lon="1.19499">
        <ele>211.818584</ele>
        <time>2022-01-11T14:00:19.092Z</time>
      </trkpt>
      <trkpt lat="44.46493" lon="1.19511">
        <ele>211.969351</ele>
        <time>2022-01-11T14:00:22.091Z</time>
      </trkpt>
      <trkpt lat="44.465" lon="1.19522">
        <ele>212.115007</ele>
        <time>2022-01-11T14:00:25.096Z</time>
      </trkpt>
      <trkpt lat="44.46507" lon="1.19533">
        <ele>212.267716</ele>
        <time>2022-01-11T14:00:28.104Z</time>
      </trkpt>
      <trkpt lat="44.46514" lon="1.19544">
        <ele>212.413937</ele>
        <time>2022-01-11T14:00:31.092Z</time>
      </trkpt>
      <trkpt lat="44.46521" lon="1.19555">
        <ele>212.557618</ele>
        <time>2022-01-11T14:00:34.092Z</time>
      </trkpt>
      <trkpt lat="44.46528" lon="1.19565">
        <ele>212.697033</ele>
        <time>2022-01-11T14:00:37.115Z</time>
      </trkpt>
      <trkpt lat="44.46535" lon="1.19575">
        <ele>212.832806</ele>
        <time>2022-01-11T14:00:40.096Z</time>
      </trkpt>
      <trkpt lat="44.46543" lon="1.19583">
        <ele>212.973602</ele>
        <time>2022-01-11T14:00:43.095Z</time>
      </trkpt>
      <trkpt lat="44.46553" lon="1.1959">
        <ele>213.122234</ele>
        <time>2022-01-11T14:00:46.102Z</time>
      </trkpt>
      <trkpt lat="44.46562" lon="1.19597">
        <ele>213.265772</ele>
        <time>2022-01-11T14:00:49.097Z</time>
      </trkpt>
      <trkpt lat="44.4657" lon="1.19604">
        <ele>213.402828</ele>
        <time>2022-01-11T14:00:52.097Z</time>
      </trkpt>
      <trkpt lat="44.46579" lon="1.1961">
        <ele>213.536503</ele>
        <time>2022-01-11T14:00:55.098Z</time>
      </trkpt>
      <trkpt lat="44.46588" lon="1.19614">
        <ele>213.67017</ele>
        <time>2022-01-11T14:00:58.093Z</time>
      </trkpt>
      <trkpt lat="44.46597" lon="1.19618">
        <ele>213.3332</ele>
        <time>2022-01-11T14:01:01.097Z</time>
      </trkpt>
      <trkpt lat="44.46608" lon="1.19619">
        <ele>212.934623</ele>
        <time>2022-01-11T14:01:04.096Z</time>
      </trkpt>
      <trkpt lat="44.46618" lon="1.19619">
        <ele>212.544717</ele>
        <time>2022-01-11T14:01:07.101Z</time>
      </trkpt>
      <trkpt lat="44.46629" lon="1.19619">
        <ele>212.132099</ele>
        <time>2022-01-11T14:01:10.099Z</time>
      </trkpt>
      <trkpt lat="44.4664" lon="1.19619">
        <ele>211.726736</ele>
        <time>2022-01-11T14:01:13.093Z</time>
      </trkpt>
      <trkpt lat="44.4665" lon="1.1962">
        <ele>211.33297</ele>
        <time>2022-01-11T14:01:16.092Z</time>
      </trkpt>
      <trkpt lat="44.46659" lon="1.19614">
        <ele>210.983076</ele>
        <time>2022-01-11T14:01:19.101Z</time>
      </trkpt>
      <trkpt lat="44.46662" lon="1.196">
        <ele>210.583569</ele>
        <time>2022-01-11T14:01:22.096Z</time>
      </trkpt>
      <trkpt lat="44.46659" lon="1.19587">
        <ele>210.218446</ele>
        <time>2022-01-11T14:01:25.095Z</time>
      </trkpt>
      <trkpt lat="44.46649" lon="1.19581">
        <ele>209.81825</ele>
        <time>2022-01-11T14:01:28.100Z</time>
      </trkpt>
      <trkpt lat="44.46638" lon="1.19582">
        <ele>209.400797</ele>
        <time>2022-01-11T14:01:31.097Z</time>
      </trkpt>
      <trkpt lat="44.46628" lon="1.19588">
        <ele>208.970821</ele>
        <time>2022-01-11T14:01:34.095Z</time>
      </trkpt>
      <trkpt lat="44.46616" lon="1.19595">
        <ele>208.485354</ele>
        <time>2022-01-11T14:01:37.096Z</time>
      </trkpt>
      <trkpt lat="44.46605" lon="1.19595">
        <ele>208.084064</ele>
        <time>2022-01-11T14:01:40.095Z</time>
      </trkpt>
      <trkpt lat="44.46596" lon="1.19589">
        <ele>207.715938</ele>
        <time>2022-01-11T14:01:43.093Z</time>
      </trkpt>
      <trkpt lat="44.46588" lon="1.19581">
        <ele>207.33143</ele>
        <time>2022-01-11T14:01:46.104Z</time>
      </trkpt>
      <trkpt lat="44.4658" lon="1.19568">
        <ele>206.871776</ele>
        <time>2022-01-11T14:01:50.096Z</time>
      </trkpt>
      <trkpt lat="44.46574" lon="1.19558">
        <ele>208.942843</ele>
        <time>2022-01-11T14:01:53.097Z</time>
      </trkpt>
      <trkpt lat="44.46567" lon="1.19549">
        <ele>211.180716</ele>
        <time>2022-01-11T14:01:56.096Z</time>
      </trkpt>
      <trkpt lat="44.46559" lon="1.1954">
        <ele>213.402042</ele>
        <time>2022-01-11T14:01:59.095Z</time>
      </trkpt>
      <trkpt lat="44.46553" lon="1.1953">
        <ele>215.499194</ele>
        <time>2022-01-11T14:02:02.098Z</time>
      </trkpt>
      <trkpt lat="44.46547" lon="1.19516">
        <ele>218.174253</ele>
        <time>2022-01-11T14:02:06.101Z</time>
      </trkpt>
      <trkpt lat="44.46541" lon="1.19505">
        <ele>220.39229</ele>
        <time>2022-01-11T14:02:09.093Z</time>
      </trkpt>
      <trkpt lat="44.46534" lon="1.19494">
        <ele>222.63911</ele>
        <time>2022-01-11T14:02:12.098Z</time>
      </trkpt>
      <trkpt lat="44.46528" lon="1.19481">
        <ele>225.190233</ele>
        <time>2022-01-11T14:02:16.092Z</time>
      </trkpt>
      <trkpt lat="44.46525" lon="1.19469">
        <ele>227.215848</ele>
        <time>2022-01-11T14:02:19.094Z</time>
      </trkpt>
      <trkpt lat="44.46519" lon="1.19456">
        <ele>229.725313</ele>
        <time>2022-01-11T14:02:23.090Z</time>
      </trkpt>
      <trkpt lat="44.46513" lon="1.19442">
        <ele>232.348151</ele>
        <time>2022-01-11T14:02:27.094Z</time>
      </trkpt>
      <trkpt lat="44.46511" lon="1.19427">
        <ele>234.682498</ele>
        <time>2022-01-11T14:02:31.093Z</time>
      </trkpt>
      <trkpt lat="44.46508" lon="1.19413">
        <ele>237.090382</ele>
        <time>2022-01-11T14:02:35.095Z</time>
      </trkpt>
      <trkpt lat="44.46505" lon="1.19398">
        <ele>239.496517</ele>
        <time>2022-01-11T14:02:39.090Z</time>
      </trkpt>
      <trkpt lat="44.46503" lon="1.19384">
        <ele>241.912878</ele>
        <time>2022-01-11T14:02:43.093Z</time>
      </trkpt>
      <trkpt lat="44.46501" lon="1.19369">
        <ele>244.234755</ele>
        <time>2022-01-11T14:02:47.107Z</time>
      </trkpt>
      <trkpt lat="44.46499" lon="1.19356">
        <ele>246.356611</ele>
        <time>2022-01-11T14:02:51.110Z</time>
      </trkpt>
      <trkpt lat="44.46498" lon="1.19342">
        <ele>247.469107</ele>
        <time>2022-01-11T14:02:55.093Z</time>
      </trkpt>
      <trkpt lat="44.46498" lon="1.19329">
        <ele>247.920162</ele>
        <time>2022-01-11T14:02:58.093Z</time>
      </trkpt>
      <trkpt lat="44.46497" lon="1.19316">
        <ele>248.353457</ele>
        <time>2022-01-11T14:03:01.092Z</time>
      </trkpt>
      <trkpt lat="44.46495" lon="1.19301">
        <ele>248.869278</ele>
        <time>2022-01-11T14:03:05.101Z</time>
      </trkpt>
      <trkpt lat="44.46496" lon="1.19287">
        <ele>249.354243</ele>
        <time>2022-01-11T14:03:09.094Z</time>
      </trkpt>
      <trkpt lat="44.46495" lon="1.19274">
        <ele>249.807295</ele>
        <time>2022-01-11T14:03:12.095Z</time>
      </trkpt>
      <trkpt lat="44.46494" lon="1.19261">
        <ele>250.242642</ele>
        <time>2022-01-11T14:03:15.088Z</time>
      </trkpt>
      <trkpt lat="44.46492" lon="1.19249">
        <ele>250.677121</ele>
        <time>2022-01-11T14:03:19.114Z</time>
      </trkpt>
      <trkpt lat="44.4649" lon="1.19235">
        <ele>251.135747</ele>
        <time>2022-01-11T14:03:24.097Z</time>
      </trkpt>
      <trkpt lat="44.46484" lon="1.19219">
        <ele>251.735039</ele>
        <time>2022-01-11T14:03:28.094Z</time>
      </trkpt>
      <trkpt lat="44.46479" lon="1.19207">
        <ele>252.206831</ele>
        <time>2022-01-11T14:03:31.088Z</time>
      </trkpt>
      <trkpt lat="44.46475" lon="1.19192">
        <ele>252.763083</ele>
        <time>2022-01-11T14:03:35.101Z</time>
      </trkpt>
      <trkpt lat="44.46472" lon="1.19176">
        <ele>253.325969</ele>
        <time>2022-01-11T14:03:39.092Z</time>
      </trkpt>
      <trkpt lat="44.4647" lon="1.19161">
        <ele>253.853456</ele>
        <time>2022-01-11T14:03:43.106Z</time>
      </trkpt>
      <trkpt lat="44.46469" lon="1.19148">
        <ele>254.302708</ele>
        <time>2022-01-11T14:03:47.103Z</time>
      </trkpt>
      <trkpt lat="44.46461" lon="1.19139">
        <ele>254.755243</ele>
        <time>2022-01-11T14:03:51.110Z</time>
      </trkpt>
      <trkpt lat="44.46453" lon="1.19128">
        <ele>255.322428</ele>
        <time>2022-01-11T14:03:55.118Z</time>
      </trkpt>
      <trkpt lat="44.46445" lon="1.19121">
        <ele>255.711155</ele>
        <time>2022-01-11T14:03:58.117Z</time>
      </trkpt>
      <trkpt lat="44.46438" lon="1.19112">
        <ele>255.665728</ele>
        <time>2022-01-11T14:04:01.108Z</time>
      </trkpt>
      <trkpt lat="44.4643" lon="1.19099">
        <ele>255.608578</ele>
        <time>2022-01-11T14:04:04.106Z</time>
      </trkpt>
      <trkpt lat="44.46422" lon="1.19087">
        <ele>255.553238</ele>
        <time>2022-01-11T14:04:06.121Z</time>
      </trkpt>
      <trkpt lat="44.46415" lon="1.19078">
        <ele>255.507928</ele>
        <time>2022-01-11T14:04:08.107Z</time>
      </trkpt>
      <trkpt lat="44.46408" lon="1.19068">
        <ele>255.462735</ele>
        <time>2022-01-11T14:04:10.097Z</time>
      </trkpt>
      <trkpt lat="44.464" lon="1.19057">
        <ele>255.413125</ele>
        <time>2022-01-11T14:04:12.097Z</time>
      </trkpt>
      <trkpt lat="44.46393" lon="1.19049">
        <ele>255.367546</ele>
        <time>2022-01-11T14:04:14.097Z</time>
      </trkpt>
      <trkpt lat="44.46386" lon="1.19036">
        <ele>255.315112</ele>
        <time>2022-01-11T14:04:16.099Z</time>
      </trkpt>
      <trkpt lat="44.46378" lon="1.19026">
        <ele>255.262201</ele>
        <time>2022-01-11T14:04:18.100Z</time>
      </trkpt>
      <trkpt lat="44.46367" lon="1.19017">
        <ele>255.206171</ele>
        <time>2022-01-11T14:04:20.100Z</time>
      </trkpt>
      <trkpt lat="44.46359" lon="1.19009">
        <ele>255.15691</ele>
        <time>2022-01-11T14:04:22.098Z</time>
      </trkpt>
      <trkpt lat="44.46347" lon="1.19001">
        <ele>255.097334</ele>
        <time>2022-01-11T14:04:24.093Z</time>
      </trkpt>
      <trkpt lat="44.46338" lon="1.18994">
        <ele>255.047063</ele>
        <time>2022-01-11T14:04:26.101Z</time>
      </trkpt>
      <trkpt lat="44.46329" lon="1.18984">
        <ele>254.994747</ele>
        <time>2022-01-11T14:04:28.104Z</time>
      </trkpt>
      <trkpt lat="44.46324" lon="1.18972">
        <ele>254.946017</ele>
        <time>2022-01-11T14:04:30.098Z</time>
      </trkpt>
      <trkpt lat="44.46321" lon="1.18958">
        <ele>254.89632</ele>
        <time>2022-01-11T14:04:32.094Z</time>
      </trkpt>
      <trkpt lat="44.46319" lon="1.18942">
        <ele>254.819421</ele>
        <time>2022-01-11T14:04:34.098Z</time>
      </trkpt>
      <trkpt lat="44.4632" lon="1.18925">
        <ele>254.723866</ele>
        <time>2022-01-11T14:04:36.102Z</time>
      </trkpt>
      <trkpt lat="44.46322" lon="1.1891">
        <ele>254.631197</ele>
        <time>2022-01-11T14:04:38.100Z</time>
      </trkpt>
      <trkpt lat="44.46321" lon="1.18894">
        <ele>254.540197</ele>
        <time>2022-01-11T14:04:40.093Z</time>
      </trkpt>
      <trkpt lat="44.46325" lon="1.18878">
        <ele>254.439528</ele>
        <time>2022-01-11T14:04:42.108Z</time>
      </trkpt>
      <trkpt lat="44.46327" lon="1.18859">
        <ele>254.330197</ele>
        <time>2022-01-11T14:04:44.104Z</time>
      </trkpt>
      <trkpt lat="44.4633" lon="1.18842">
        <ele>254.2265</ele>
        <time>2022-01-11T14:04:46.103Z</time>
      </trkpt>
      <trkpt lat="44.4633" lon="1.18826">
        <ele>254.130926</ele>
        <time>2022-01-11T14:04:48.102Z</time>
      </trkpt>
      <trkpt lat="44.46329" lon="1.18811">
        <ele>254.041377</ele>
        <time>2022-01-11T14:04:50.112Z</time>
      </trkpt>
      <trkpt lat="44.46328" lon="1.18797">
        <ele>253.959287</ele>
        <time>2022-01-11T14:04:52.119Z</time>
      </trkpt>
      <trkpt lat="44.46325" lon="1.18783">
        <ele>253.874618</ele>
        <time>2022-01-11T14:04:54.109Z</time>
      </trkpt>
      <trkpt lat="44.46321" lon="1.18769">
        <ele>253.789902</ele>
        <time>2022-01-11T14:04:56.105Z</time>
      </trkpt>
      <trkpt lat="44.46317" lon="1.18756">
        <ele>253.704203</ele>
        <time>2022-01-11T14:04:58.114Z</time>
      </trkpt>
      <trkpt lat="44.46314" lon="1.18742">
        <ele>253.621717</ele>
        <time>2022-01-11T14:05:00.093Z</time>
      </trkpt>
      <trkpt lat="44.46312" lon="1.18727">
        <ele>253.532046</ele>
        <time>2022-01-11T14:05:02.107Z</time>
      </trkpt>
      <trkpt lat="44.4631" lon="1.18714">
        <ele>253.453242</ele>
        <time>2022-01-11T14:05:04.113Z</time>
      </trkpt>
      <trkpt lat="44.46308" lon="1.18701">
        <ele>253.390306</ele>
        <time>2022-01-11T14:05:06.109Z</time>
      </trkpt>
      <trkpt lat="44.46304" lon="1.18688">
        <ele>253.371051</ele>
        <time>2022-01-11T14:05:08.104Z</time>
      </trkpt>
      <trkpt lat="44.46298" lon="1.18677">
        <ele>253.352425</ele>
        <time>2022-01-11T14:05:10.106Z</time>
      </trkpt>
      <trkpt lat="44.46291" lon="1.1867">
        <ele>253.335444</ele>
        <time>2022-01-11T14:05:12.106Z</time>
      </trkpt>
      <trkpt lat="44.4628" lon="1.18669">
        <ele>253.314587</ele>
        <time>2022-01-11T14:05:14.114Z</time>
      </trkpt>
      <trkpt lat="44.46267" lon="1.18671">
        <ele>253.290403</ele>
        <time>2022-01-11T14:05:16.114Z</time>
      </trkpt>
      <trkpt lat="44.46257" lon="1.18672">
        <ele>253.272269</ele>
        <time>2022-01-11T14:05:18.117Z</time>
      </trkpt>
      <trkpt lat="44.46247" lon="1.18675">
        <ele>253.253058</ele>
        <time>2022-01-11T14:05:20.116Z</time>
      </trkpt>
      <trkpt lat="44.46238" lon="1.18681">
        <ele>253.233844</ele>
        <time>2022-01-11T14:05:22.124Z</time>
      </trkpt>
      <trkpt lat="44.46229" lon="1.18683">
        <ele>253.216814</ele>
        <time>2022-01-11T14:05:24.117Z</time>
      </trkpt>
      <trkpt lat="44.46219" lon="1.18687">
        <ele>253.197298</ele>
        <time>2022-01-11T14:05:27.103Z</time>
      </trkpt>
      <trkpt lat="44.46208" lon="1.18688">
        <ele>253.176018</ele>
        <time>2022-01-11T14:05:30.111Z</time>
      </trkpt>
      <trkpt lat="44.46199" lon="1.1869">
        <ele>253.157786</ele>
        <time>2022-01-11T14:05:33.104Z</time>
      </trkpt>
      <trkpt lat="44.46187" lon="1.1869">
        <ele>253.134675</ele>
        <time>2022-01-11T14:05:37.099Z</time>
      </trkpt>
      <trkpt lat="44.46172" lon="1.1869">
        <ele>253.107219</ele>
        <time>2022-01-11T14:05:39.097Z</time>
      </trkpt>
      <trkpt lat="44.46163" lon="1.18692">
        <ele>253.089128</ele>
        <time>2022-01-11T14:05:42.107Z</time>
      </trkpt>
      <trkpt lat="44.46151" lon="1.18688">
        <ele>253.066445</ele>
        <time>2022-01-11T14:05:45.105Z</time>
      </trkpt>
      <trkpt lat="44.46138" lon="1.18694">
        <ele>253.366784</ele>
        <time>2022-01-11T14:05:48.106Z</time>
      </trkpt>
      <trkpt lat="44.46127" lon="1.18698">
        <ele>253.857694</ele>
        <time>2022-01-11T14:05:52.104Z</time>
      </trkpt>
      <trkpt lat="44.46118" lon="1.18702">
        <ele>254.232869</ele>
        <time>2022-01-11T14:05:55.100Z</time>
      </trkpt>
      <trkpt lat="44.46109" lon="1.18708">
        <ele>254.661051</ele>
        <time>2022-01-11T14:06:00.096Z</time>
      </trkpt>
      <trkpt lat="44.461" lon="1.18718">
        <ele>255.109773</ele>
        <time>2022-01-11T14:06:05.093Z</time>
      </trkpt>
      <trkpt lat="44.46091" lon="1.18725">
        <ele>255.542336</ele>
        <time>2022-01-11T14:06:10.096Z</time>
      </trkpt>
      <trkpt lat="44.46081" lon="1.1873">
        <ele>255.958258</ele>
        <time>2022-01-11T14:06:13.116Z</time>
      </trkpt>
      <trkpt lat="44.4607" lon="1.18737">
        <ele>256.461952</ele>
        <time>2022-01-11T14:06:16.101Z</time>
      </trkpt>
      <trkpt lat="44.4606" lon="1.18743">
        <ele>256.919246</ele>
        <time>2022-01-11T14:06:19.106Z</time>
      </trkpt>
      <trkpt lat="44.4605" lon="1.18747">
        <ele>257.342237</ele>
        <time>2022-01-11T14:06:22.105Z</time>
      </trkpt>
      <trkpt lat="44.46039" lon="1.18749">
        <ele>257.792295</ele>
        <time>2022-01-11T14:06:25.101Z</time>
      </trkpt>
      <trkpt lat="44.46029" lon="1.18746">
        <ele>258.215607</ele>
        <time>2022-01-11T14:06:28.096Z</time>
      </trkpt>
      <trkpt lat="44.4602" lon="1.1874">
        <ele>258.599638</ele>
        <time>2022-01-11T14:06:31.105Z</time>
      </trkpt>
      <trkpt lat="44.46013" lon="1.18729">
        <ele>259.051581</ele>
        <time>2022-01-11T14:06:35.093Z</time>
      </trkpt>
      <trkpt lat="44.46006" lon="1.18719">
        <ele>259.445623</ele>
        <time>2022-01-11T14:06:38.099Z</time>
      </trkpt>
      <trkpt lat="44.46" lon="1.18708">
        <ele>259.86477</ele>
        <time>2022-01-11T14:06:41.094Z</time>
      </trkpt>
      <trkpt lat="44.45994" lon="1.18694">
        <ele>260.351254</ele>
        <time>2022-01-11T14:06:44.103Z</time>
      </trkpt>
      <trkpt lat="44.45988" lon="1.18679">
        <ele>260.539971</ele>
        <time>2022-01-11T14:06:47.097Z</time>
      </trkpt>
      <trkpt lat="44.45981" lon="1.18667">
        <ele>260.662721</ele>
        <time>2022-01-11T14:06:50.096Z</time>
      </trkpt>
      <trkpt lat="44.45973" lon="1.18657">
        <ele>260.778288</ele>
        <time>2022-01-11T14:06:53.096Z</time>
      </trkpt>
      <trkpt lat="44.45963" lon="1.18649">
        <ele>260.907997</ele>
        <time>2022-01-11T14:06:57.090Z</time>
      </trkpt>
      <trkpt lat="44.45952" lon="1.18644">
        <ele>261.035844</ele>
        <time>2022-01-11T14:07:01.100Z</time>
      </trkpt>
      <trkpt lat="44.45942" lon="1.18642">
        <ele>261.142076</ele>
        <time>2022-01-11T14:07:04.096Z</time>
      </trkpt>
      <trkpt lat="44.45933" lon="1.18638">
        <ele>261.244297</ele>
        <time>2022-01-11T14:07:07.101Z</time>
      </trkpt>
      <trkpt lat="44.45924" lon="1.18633">
        <ele>261.358989</ele>
        <time>2022-01-11T14:07:10.094Z</time>
      </trkpt>
      <trkpt lat="44.45916" lon="1.18622">
        <ele>261.475369</ele>
        <time>2022-01-11T14:07:13.093Z</time>
      </trkpt>
      <trkpt lat="44.45908" lon="1.18609">
        <ele>261.615849</ele>
        <time>2022-01-11T14:07:16.093Z</time>
      </trkpt>
      <trkpt lat="44.45901" lon="1.18595">
        <ele>261.753338</ele>
        <time>2022-01-11T14:07:19.099Z</time>
      </trkpt>
      <trkpt lat="44.45892" lon="1.18581">
        <ele>261.893142</ele>
        <time>2022-01-11T14:07:22.100Z</time>
      </trkpt>
      <trkpt lat="44.45884" lon="1.18568">
        <ele>262.034163</ele>
        <time>2022-01-11T14:07:25.092Z</time>
      </trkpt>
      <trkpt lat="44.45875" lon="1.18556">
        <ele>262.171009</ele>
        <time>2022-01-11T14:07:27.106Z</time>
      </trkpt>
      <trkpt lat="44.45863" lon="1.18545">
        <ele>262.329755</ele>
        <time>2022-01-11T14:07:30.094Z</time>
      </trkpt>
      <trkpt lat="44.45854" lon="1.18538">
        <ele>262.451918</ele>
        <time>2022-01-11T14:07:32.096Z</time>
      </trkpt>
      <trkpt lat="44.45846" lon="1.18532">
        <ele>262.603644</ele>
        <time>2022-01-11T14:07:34.098Z</time>
      </trkpt>
      <trkpt lat="44.45833" lon="1.18524">
        <ele>262.821753</ele>
        <time>2022-01-11T14:07:37.095Z</time>
      </trkpt>
      <trkpt lat="44.45821" lon="1.18523">
        <ele>263.01196</ele>
        <time>2022-01-11T14:07:39.096Z</time>
      </trkpt>
      <trkpt lat="44.4581" lon="1.18521">
        <ele>263.190136</ele>
        <time>2022-01-11T14:07:41.103Z</time>
      </trkpt>
      <trkpt lat="44.45799" lon="1.1852">
        <ele>263.3605</ele>
        <time>2022-01-11T14:07:43.102Z</time>
      </trkpt>
      <trkpt lat="44.45787" lon="1.18521">
        <ele>263.547636</ele>
        <time>2022-01-11T14:07:45.105Z</time>
      </trkpt>
      <trkpt lat="44.45776" lon="1.18523">
        <ele>263.723313</ele>
        <time>2022-01-11T14:07:47.104Z</time>
      </trkpt>
      <trkpt lat="44.45766" lon="1.18523">
        <ele>263.886628</ele>
        <time>2022-01-11T14:07:49.091Z</time>
      </trkpt>
      <trkpt lat="44.45755" lon="1.18523">
        <ele>264.06087</ele>
        <time>2022-01-11T14:07:51.097Z</time>
      </trkpt>
      <trkpt lat="44.45745" lon="1.1852">
        <ele>264.215651</ele>
        <time>2022-01-11T14:07:53.102Z</time>
      </trkpt>
      <trkpt lat="44.45734" lon="1.18516">
        <ele>264.399092</ele>
        <time>2022-01-11T14:07:55.099Z</time>
      </trkpt>
      <trkpt lat="44.45722" lon="1.18512">
        <ele>264.58471</ele>
        <time>2022-01-11T14:07:57.111Z</time>
      </trkpt>
      <trkpt lat="44.45712" lon="1.18504">
        <ele>264.761381</ele>
        <time>2022-01-11T14:07:59.101Z</time>
      </trkpt>
      <trkpt lat="44.45702" lon="1.18497">
        <ele>264.944388</ele>
        <time>2022-01-11T14:08:01.099Z</time>
      </trkpt>
      <trkpt lat="44.45692" lon="1.18489">
        <ele>265.125494</ele>
        <time>2022-01-11T14:08:03.102Z</time>
      </trkpt>
      <trkpt lat="44.45681" lon="1.18483">
        <ele>265.169668</ele>
        <time>2022-01-11T14:08:05.098Z</time>
      </trkpt>
      <trkpt lat="44.45675" lon="1.18474">
        <ele>265.016179</ele>
        <time>2022-01-11T14:08:07.109Z</time>
      </trkpt>
      <trkpt lat="44.45665" lon="1.18469">
        <ele>264.838016</ele>
        <time>2022-01-11T14:08:09.096Z</time>
      </trkpt>
      <trkpt lat="44.45654" lon="1.18464">
        <ele>264.655422</ele>
        <time>2022-01-11T14:08:11.093Z</time>
      </trkpt>
      <trkpt lat="44.45644" lon="1.18456">
        <ele>264.463033</ele>
        <time>2022-01-11T14:08:14.098Z</time>
      </trkpt>
      <trkpt lat="44.45633" lon="1.18449">
        <ele>264.267018</ele>
        <time>2022-01-11T14:08:16.094Z</time>
      </trkpt>
      <trkpt lat="44.45621" lon="1.18439">
        <ele>264.041032</ele>
        <time>2022-01-11T14:08:19.099Z</time>
      </trkpt>
      <trkpt lat="44.45612" lon="1.18433">
        <ele>263.871688</ele>
        <time>2022-01-11T14:08:21.107Z</time>
      </trkpt>
      <trkpt lat="44.45603" lon="1.18424">
        <ele>263.690654</ele>
        <time>2022-01-11T14:08:24.100Z</time>
      </trkpt>
      <trkpt lat="44.45589" lon="1.18424">
        <ele>263.454055</ele>
        <time>2022-01-11T14:08:26.096Z</time>
      </trkpt>
      <trkpt lat="44.45578" lon="1.18421">
        <ele>263.275208</ele>
        <time>2022-01-11T14:08:29.108Z</time>
      </trkpt>
      <trkpt lat="44.45568" lon="1.18423">
        <ele>263.116069</ele>
        <time>2022-01-11T14:08:30.112Z</time>
      </trkpt>
      <trkpt lat="44.45557" lon="1.18422">
        <ele>262.923229</ele>
        <time>2022-01-11T14:08:33.095Z</time>
      </trkpt>
      <trkpt lat="44.45546" lon="1.18423">
        <ele>262.743826</ele>
        <time>2022-01-11T14:08:35.097Z</time>
      </trkpt>
      <trkpt lat="44.45532" lon="1.18428">
        <ele>262.50485</ele>
        <time>2022-01-11T14:08:38.095Z</time>
      </trkpt>
      <trkpt lat="44.45521" lon="1.18431">
        <ele>262.327239</ele>
        <time>2022-01-11T14:08:40.096Z</time>
      </trkpt>
      <trkpt lat="44.45509" lon="1.18434">
        <ele>262.602192</ele>
        <time>2022-01-11T14:08:42.099Z</time>
      </trkpt>
      <trkpt lat="44.455" lon="1.18438">
        <ele>262.955366</ele>
        <time>2022-01-11T14:08:44.095Z</time>
      </trkpt>
      <trkpt lat="44.45488" lon="1.18441">
        <ele>263.373682</ele>
        <time>2022-01-11T14:08:46.093Z</time>
      </trkpt>
      <trkpt lat="44.45479" lon="1.18442">
        <ele>263.70156</ele>
        <time>2022-01-11T14:08:48.102Z</time>
      </trkpt>
      <trkpt lat="44.45469" lon="1.18442">
        <ele>264.035311</ele>
        <time>2022-01-11T14:08:50.106Z</time>
      </trkpt>
      <trkpt lat="44.4546" lon="1.1844">
        <ele>264.354349</ele>
        <time>2022-01-11T14:08:52.094Z</time>
      </trkpt>
      <trkpt lat="44.4545" lon="1.18437">
        <ele>264.715271</ele>
        <time>2022-01-11T14:08:54.122Z</time>
      </trkpt>
      <trkpt lat="44.45439" lon="1.18432">
        <ele>265.127475</ele>
        <time>2022-01-11T14:08:56.106Z</time>
      </trkpt>
      <trkpt lat="44.45431" lon="1.18419">
        <ele>265.54724</ele>
        <time>2022-01-11T14:08:59.106Z</time>
      </trkpt>
      <trkpt lat="44.45421" lon="1.18411">
        <ele>265.946974</ele>
        <time>2022-01-11T14:09:02.108Z</time>
      </trkpt>
      <trkpt lat="44.4541" lon="1.18406">
        <ele>266.378638</ele>
        <time>2022-01-11T14:09:05.105Z</time>
      </trkpt>
      <trkpt lat="44.454" lon="1.18404">
        <ele>266.707865</ele>
        <time>2022-01-11T14:09:08.099Z</time>
      </trkpt>
      <trkpt lat="44.45389" lon="1.18408">
        <ele>267.131393</ele>
        <time>2022-01-11T14:09:11.095Z</time>
      </trkpt>
      <trkpt lat="44.45379" lon="1.18417">
        <ele>267.530698</ele>
        <time>2022-01-11T14:09:14.102Z</time>
      </trkpt>
      <trkpt lat="44.45368" lon="1.18422">
        <ele>267.934401</ele>
        <time>2022-01-11T14:09:17.102Z</time>
      </trkpt>
      <trkpt lat="44.45356" lon="1.18427">
        <ele>268.373512</ele>
        <time>2022-01-11T14:09:20.095Z</time>
      </trkpt>
      <trkpt lat="44.45344" lon="1.18433">
        <ele>269.275818</ele>
        <time>2022-01-11T14:09:23.096Z</time>
      </trkpt>
      <trkpt lat="44.45333" lon="1.1844">
        <ele>270.403481</ele>
        <time>2022-01-11T14:09:26.102Z</time>
      </trkpt>
      <trkpt lat="44.45323" lon="1.18446">
        <ele>271.550467</ele>
        <time>2022-01-11T14:09:29.097Z</time>
      </trkpt>
      <trkpt lat="44.45311" lon="1.18453">
        <ele>272.847694</ele>
        <time>2022-01-11T14:09:32.107Z</time>
      </trkpt>
      <trkpt lat="44.45299" lon="1.18458">
        <ele>274.027004</ele>
        <time>2022-01-11T14:09:35.097Z</time>
      </trkpt>
      <trkpt lat="44.45289" lon="1.18463">
        <ele>275.103681</ele>
        <time>2022-01-11T14:09:38.089Z</time>
      </trkpt>
      <trkpt lat="44.45278" lon="1.18469">
        <ele>276.215378</ele>
        <time>2022-01-11T14:09:41.097Z</time>
      </trkpt>
      <trkpt lat="44.45269" lon="1.18474">
        <ele>277.221063</ele>
        <time>2022-01-11T14:09:44.100Z</time>
      </trkpt>
      <trkpt lat="44.45259" lon="1.1848">
        <ele>278.229486</ele>
        <time>2022-01-11T14:09:47.102Z</time>
      </trkpt>
      <trkpt lat="44.4525" lon="1.18485">
        <ele>279.229824</ele>
        <time>2022-01-11T14:09:50.099Z</time>
      </trkpt>
      <trkpt lat="44.4524" lon="1.18491">
        <ele>280.286507</ele>
        <time>2022-01-11T14:09:53.098Z</time>
      </trkpt>
      <trkpt lat="44.45231" lon="1.18496">
        <ele>281.255874</ele>
        <time>2022-01-11T14:09:56.095Z</time>
      </trkpt>
      <trkpt lat="44.45223" lon="1.18507">
        <ele>282.377472</ele>
        <time>2022-01-11T14:09:59.092Z</time>
      </trkpt>
      <trkpt lat="44.45214" lon="1.1852">
        <ele>283.655545</ele>
        <time>2022-01-11T14:10:02.103Z</time>
      </trkpt>
      <trkpt lat="44.45206" lon="1.18535">
        <ele>284.957669</ele>
        <time>2022-01-11T14:10:05.104Z</time>
      </trkpt>
      <trkpt lat="44.45198" lon="1.1855">
        <ele>286.271568</ele>
        <time>2022-01-11T14:10:08.097Z</time>
      </trkpt>
      <trkpt lat="44.4519" lon="1.18565">
        <ele>286.535951</ele>
        <time>2022-01-11T14:10:11.112Z</time>
      </trkpt>
      <trkpt lat="44.45182" lon="1.1858">
        <ele>286.73113</ele>
        <time>2022-01-11T14:10:14.100Z</time>
      </trkpt>
      <trkpt lat="44.45177" lon="1.1859">
        <ele>286.860809</ele>
        <time>2022-01-11T14:10:16.094Z</time>
      </trkpt>
      <trkpt lat="44.4517" lon="1.18606">
        <ele>287.056827</ele>
        <time>2022-01-11T14:10:19.100Z</time>
      </trkpt>
      <trkpt lat="44.45162" lon="1.18614">
        <ele>287.198492</ele>
        <time>2022-01-11T14:10:21.096Z</time>
      </trkpt>
      <trkpt lat="44.4515" lon="1.18619">
        <ele>287.371278</ele>
        <time>2022-01-11T14:10:23.100Z</time>
      </trkpt>
      <trkpt lat="44.45139" lon="1.18621">
        <ele>287.531325</ele>
        <time>2022-01-11T14:10:25.093Z</time>
      </trkpt>
      <trkpt lat="44.45125" lon="1.18621">
        <ele>287.744102</ele>
        <time>2022-01-11T14:10:28.093Z</time>
      </trkpt>
      <trkpt lat="44.45112" lon="1.1862">
        <ele>287.933966</ele>
        <time>2022-01-11T14:10:30.108Z</time>
      </trkpt>
      <trkpt lat="44.45099" lon="1.18618">
        <ele>288.112644</ele>
        <time>2022-01-11T14:10:32.095Z</time>
      </trkpt>
      <trkpt lat="44.4509" lon="1.18617">
        <ele>288.252222</ele>
        <time>2022-01-11T14:10:34.094Z</time>
      </trkpt>
      <trkpt lat="44.45079" lon="1.18616">
        <ele>288.411534</ele>
        <time>2022-01-11T14:10:36.096Z</time>
      </trkpt>
      <trkpt lat="44.45068" lon="1.18614">
        <ele>288.569785</ele>
        <time>2022-01-11T14:10:38.091Z</time>
      </trkpt>
      <trkpt lat="44.45058" lon="1.18611">
        <ele>288.720409</ele>
        <time>2022-01-11T14:10:40.100Z</time>
      </trkpt>
      <trkpt lat="44.45048" lon="1.18607">
        <ele>288.869831</ele>
        <time>2022-01-11T14:10:42.099Z</time>
      </trkpt>
      <trkpt lat="44.45036" lon="1.18598">
        <ele>288.846505</ele>
        <time>2022-01-11T14:10:45.093Z</time>
      </trkpt>
      <trkpt lat="44.45027" lon="1.18587">
        <ele>288.657058</ele>
        <time>2022-01-11T14:10:48.095Z</time>
      </trkpt>
      <trkpt lat="44.45019" lon="1.1858">
        <ele>288.51494</ele>
        <time>2022-01-11T14:10:50.108Z</time>
      </trkpt>
      <trkpt lat="44.45012" lon="1.18572">
        <ele>288.364816</ele>
        <time>2022-01-11T14:10:52.093Z</time>
      </trkpt>
      <trkpt lat="44.45002" lon="1.18564">
        <ele>288.196147</ele>
        <time>2022-01-11T14:10:54.098Z</time>
      </trkpt>
      <trkpt lat="44.44996" lon="1.18555">
        <ele>288.054592</ele>
        <time>2022-01-11T14:10:56.108Z</time>
      </trkpt>
      <trkpt lat="44.44989" lon="1.18546">
        <ele>287.905748</ele>
        <time>2022-01-11T14:10:58.103Z</time>
      </trkpt>
      <trkpt lat="44.4498" lon="1.18531">
        <ele>287.693777</ele>
        <time>2022-01-11T14:11:01.099Z</time>
      </trkpt>
      <trkpt lat="44.44976" lon="1.1852">
        <ele>287.550791</ele>
        <time>2022-01-11T14:11:03.105Z</time>
      </trkpt>
      <trkpt lat="44.44971" lon="1.18509">
        <ele>287.400091</ele>
        <time>2022-01-11T14:11:05.096Z</time>
      </trkpt>
      <trkpt lat="44.44965" lon="1.18494">
        <ele>287.211911</ele>
        <time>2022-01-11T14:11:08.094Z</time>
      </trkpt>
      <trkpt lat="44.44958" lon="1.18484">
        <ele>287.050928</ele>
        <time>2022-01-11T14:11:11.094Z</time>
      </trkpt>
      <trkpt lat="44.44952" lon="1.18474">
        <ele>286.909168</ele>
        <time>2022-01-11T14:11:13.093Z</time>
      </trkpt>
      <trkpt lat="44.44946" lon="1.18459">
        <ele>286.720616</ele>
        <time>2022-01-11T14:11:16.102Z</time>
      </trkpt>
      <trkpt lat="44.4494" lon="1.18444">
        <ele>286.5322</ele>
        <time>2022-01-11T14:11:19.095Z</time>
      </trkpt>
      <trkpt lat="44.44932" lon="1.1843">
        <ele>286.333446</ele>
        <time>2022-01-11T14:11:22.108Z</time>
      </trkpt>
      <trkpt lat="44.44924" lon="1.18416">
        <ele>286.283981</ele>
        <time>2022-01-11T14:11:25.095Z</time>
      </trkpt>
      <trkpt lat="44.44918" lon="1.184">
        <ele>287.649409</ele>
        <time>2022-01-11T14:11:28.092Z</time>
      </trkpt>
      <trkpt lat="44.44912" lon="1.1839">
        <ele>288.634548</ele>
        <time>2022-01-11T14:11:30.096Z</time>
      </trkpt>
      <trkpt lat="44.44908" lon="1.18377">
        <ele>289.669931</ele>
        <time>2022-01-11T14:11:32.092Z</time>
      </trkpt>
      <trkpt lat="44.44902" lon="1.18365">
        <ele>290.771116</ele>
        <time>2022-01-11T14:11:34.095Z</time>
      </trkpt>
      <trkpt lat="44.44895" lon="1.18353">
        <ele>291.939565</ele>
        <time>2022-01-11T14:11:36.097Z</time>
      </trkpt>
      <trkpt lat="44.4489" lon="1.1834">
        <ele>293.057838</ele>
        <time>2022-01-11T14:11:38.106Z</time>
      </trkpt>
      <trkpt lat="44.44887" lon="1.18326">
        <ele>294.165833</ele>
        <time>2022-01-11T14:11:40.092Z</time>
      </trkpt>
      <trkpt lat="44.44884" lon="1.18312">
        <ele>295.234087</ele>
        <time>2022-01-11T14:11:42.107Z</time>
      </trkpt>
      <trkpt lat="44.44882" lon="1.18297">
        <ele>296.366258</ele>
        <time>2022-01-11T14:11:44.106Z</time>
      </trkpt>
      <trkpt lat="44.44879" lon="1.18282">
        <ele>297.535772</ele>
        <time>2022-01-11T14:11:46.092Z</time>
      </trkpt>
      <trkpt lat="44.44876" lon="1.18267">
        <ele>298.74015</ele>
        <time>2022-01-11T14:11:48.091Z</time>
      </trkpt>
      <trkpt lat="44.44874" lon="1.18251">
        <ele>299.991099</ele>
        <time>2022-01-11T14:11:50.095Z</time>
      </trkpt>
      <trkpt lat="44.4487" lon="1.18236">
        <ele>301.162965</ele>
        <time>2022-01-11T14:11:52.109Z</time>
      </trkpt>
      <trkpt lat="44.44866" lon="1.18222">
        <ele>302.285533</ele>
        <time>2022-01-11T14:11:54.093Z</time>
      </trkpt>
      <trkpt lat="44.44862" lon="1.18207">
        <ele>303.457228</ele>
        <time>2022-01-11T14:11:56.112Z</time>
      </trkpt>
      <trkpt lat="44.44854" lon="1.18195">
        <ele>304.709766</ele>
        <time>2022-01-11T14:11:58.107Z</time>
      </trkpt>
      <trkpt lat="44.44845" lon="1.18183">
        <ele>304.805399</ele>
        <time>2022-01-11T14:12:00.094Z</time>
      </trkpt>
      <trkpt lat="44.44836" lon="1.18171">
        <ele>304.419485</ele>
        <time>2022-01-11T14:12:02.094Z</time>
      </trkpt>
      <trkpt lat="44.44823" lon="1.18161">
        <ele>303.963048</ele>
        <time>2022-01-11T14:12:04.104Z</time>
      </trkpt>
      <trkpt lat="44.44812" lon="1.18152">
        <ele>303.559789</ele>
        <time>2022-01-11T14:12:06.093Z</time>
      </trkpt>
      <trkpt lat="44.44801" lon="1.18143">
        <ele>303.162233</ele>
        <time>2022-01-11T14:12:08.095Z</time>
      </trkpt>
      <trkpt lat="44.44793" lon="1.1813">
        <ele>302.798663</ele>
        <time>2022-01-11T14:12:10.101Z</time>
      </trkpt>
      <trkpt lat="44.44783" lon="1.18118">
        <ele>302.387005</ele>
        <time>2022-01-11T14:12:12.104Z</time>
      </trkpt>
      <trkpt lat="44.44772" lon="1.18107">
        <ele>301.959599</ele>
        <time>2022-01-11T14:12:14.102Z</time>
      </trkpt>
      <trkpt lat="44.44763" lon="1.18094">
        <ele>301.560628</ele>
        <time>2022-01-11T14:12:16.117Z</time>
      </trkpt>
      <trkpt lat="44.44751" lon="1.1808">
        <ele>301.09646</ele>
        <time>2022-01-11T14:12:18.108Z</time>
      </trkpt>
      <trkpt lat="44.4474" lon="1.18068">
        <ele>300.651987</ele>
        <time>2022-01-11T14:12:20.111Z</time>
      </trkpt>
      <trkpt lat="44.44727" lon="1.18058">
        <ele>300.186482</ele>
        <time>2022-01-11T14:12:22.102Z</time>
      </trkpt>
      <trkpt lat="44.44714" lon="1.1805">
        <ele>299.74489</ele>
        <time>2022-01-11T14:12:24.107Z</time>
      </trkpt>
      <trkpt lat="44.44699" lon="1.18045">
        <ele>298.75809</ele>
        <time>2022-01-11T14:12:26.107Z</time>
      </trkpt>
      <trkpt lat="44.44686" lon="1.1804">
        <ele>297.334881</ele>
        <time>2022-01-11T14:12:28.095Z</time>
      </trkpt>
      <trkpt lat="44.44672" lon="1.18036">
        <ele>295.834149</ele>
        <time>2022-01-11T14:12:30.098Z</time>
      </trkpt>
      <trkpt lat="44.44659" lon="1.18033">
        <ele>294.471826</ele>
        <time>2022-01-11T14:12:32.097Z</time>
      </trkpt>
      <trkpt lat="44.44647" lon="1.18028">
        <ele>293.176759</ele>
        <time>2022-01-11T14:12:34.103Z</time>
      </trkpt>
      <trkpt lat="44.44635" lon="1.18026">
        <ele>291.916387</ele>
        <time>2022-01-11T14:12:36.129Z</time>
      </trkpt>
      <trkpt lat="44.44623" lon="1.18022">
        <ele>290.624807</ele>
        <time>2022-01-11T14:12:38.112Z</time>
      </trkpt>
      <trkpt lat="44.44612" lon="1.18019">
        <ele>289.488783</ele>
        <time>2022-01-11T14:12:40.123Z</time>
      </trkpt>
      <trkpt lat="44.44601" lon="1.18017">
        <ele>288.324138</ele>
        <time>2022-01-11T14:12:42.108Z</time>
      </trkpt>
      <trkpt lat="44.44587" lon="1.18016">
        <ele>286.833805</ele>
        <time>2022-01-11T14:12:44.092Z</time>
      </trkpt>
      <trkpt lat="44.44575" lon="1.18015">
        <ele>285.657972</ele>
        <time>2022-01-11T14:12:46.110Z</time>
      </trkpt>
      <trkpt lat="44.44563" lon="1.18013">
        <ele>284.373942</ele>
        <time>2022-01-11T14:12:48.113Z</time>
      </trkpt>
      <trkpt lat="44.44551" lon="1.18011">
        <ele>283.109826</ele>
        <time>2022-01-11T14:12:50.104Z</time>
      </trkpt>
      <trkpt lat="44.4454" lon="1.18009">
        <ele>281.911073</ele>
        <time>2022-01-11T14:12:52.099Z</time>
      </trkpt>
      <trkpt lat="44.44528" lon="1.18008">
        <ele>280.919979</ele>
        <time>2022-01-11T14:12:54.124Z</time>
      </trkpt>
      <trkpt lat="44.44513" lon="1.18006">
        <ele>281.940097</ele>
        <time>2022-01-11T14:12:56.099Z</time>
      </trkpt>
      <trkpt lat="44.44498" lon="1.18006">
        <ele>282.968797</ele>
        <time>2022-01-11T14:12:58.094Z</time>
      </trkpt>
      <trkpt lat="44.44481" lon="1.18007">
        <ele>284.093152</ele>
        <time>2022-01-11T14:13:00.095Z</time>
      </trkpt>
      <trkpt lat="44.44464" lon="1.18006">
        <ele>285.266455</ele>
        <time>2022-01-11T14:13:02.102Z</time>
      </trkpt>
      <trkpt lat="44.44451" lon="1.18004">
        <ele>286.157176</ele>
        <time>2022-01-11T14:13:04.101Z</time>
      </trkpt>
      <trkpt lat="44.44442" lon="1.18002">
        <ele>286.806819</ele>
        <time>2022-01-11T14:13:05.105Z</time>
      </trkpt>
      <trkpt lat="44.44428" lon="1.17999">
        <ele>287.793421</ele>
        <time>2022-01-11T14:13:07.110Z</time>
      </trkpt>
      <trkpt lat="44.44417" lon="1.17998">
        <ele>288.541553</ele>
        <time>2022-01-11T14:13:08.093Z</time>
      </trkpt>
      <trkpt lat="44.44407" lon="1.17996">
        <ele>289.22939</ele>
        <time>2022-01-11T14:13:09.095Z</time>
      </trkpt>
      <trkpt lat="44.44393" lon="1.17991">
        <ele>290.203019</ele>
        <time>2022-01-11T14:13:11.092Z</time>
      </trkpt>
      <trkpt lat="44.44378" lon="1.17985">
        <ele>291.311255</ele>
        <time>2022-01-11T14:13:13.089Z</time>
      </trkpt>
      <trkpt lat="44.4437" lon="1.17977">
        <ele>291.962662</ele>
        <time>2022-01-11T14:13:15.096Z</time>
      </trkpt>
      <trkpt lat="44.44357" lon="1.17969">
        <ele>292.912939</ele>
        <time>2022-01-11T14:13:17.094Z</time>
      </trkpt>
      <trkpt lat="44.4435" lon="1.17957">
        <ele>293.375092</ele>
        <time>2022-01-11T14:13:19.106Z</time>
      </trkpt>
      <trkpt lat="44.44338" lon="1.17948">
        <ele>293.788706</ele>
        <time>2022-01-11T14:13:21.098Z</time>
      </trkpt>
      <trkpt lat="44.44329" lon="1.17935">
        <ele>294.163739</ele>
        <time>2022-01-11T14:13:23.093Z</time>
      </trkpt>
      <trkpt lat="44.44318" lon="1.17925">
        <ele>294.530744</ele>
        <time>2022-01-11T14:13:25.111Z</time>
      </trkpt>
      <trkpt lat="44.44309" lon="1.17912">
        <ele>294.914863</ele>
        <time>2022-01-11T14:13:27.118Z</time>
      </trkpt>
      <trkpt lat="44.44298" lon="1.17903">
        <ele>295.304202</ele>
        <time>2022-01-11T14:13:29.105Z</time>
      </trkpt>
      <trkpt lat="44.4429" lon="1.17894">
        <ele>295.609443</ele>
        <time>2022-01-11T14:13:31.104Z</time>
      </trkpt>
      <trkpt lat="44.44283" lon="1.17882">
        <ele>295.92712</ele>
        <time>2022-01-11T14:13:33.103Z</time>
      </trkpt>
      <trkpt lat="44.44274" lon="1.17872">
        <ele>296.257553</ele>
        <time>2022-01-11T14:13:35.113Z</time>
      </trkpt>
      <trkpt lat="44.44267" lon="1.1786">
        <ele>296.579144</ele>
        <time>2022-01-11T14:13:37.110Z</time>
      </trkpt>
      <trkpt lat="44.44262" lon="1.17847">
        <ele>296.882401</ele>
        <time>2022-01-11T14:13:39.109Z</time>
      </trkpt>
      <trkpt lat="44.44262" lon="1.17833">
        <ele>297.192858</ele>
        <time>2022-01-11T14:13:41.106Z</time>
      </trkpt>
      <trkpt lat="44.44257" lon="1.1782">
        <ele>297.493617</ele>
        <time>2022-01-11T14:13:43.107Z</time>
      </trkpt>
      <trkpt lat="44.44246" lon="1.17811">
        <ele>297.856469</ele>
        <time>2022-01-11T14:13:45.111Z</time>
      </trkpt>
      <trkpt lat="44.44243" lon="1.17794">
        <ele>298.227006</ele>
        <time>2022-01-11T14:13:48.112Z</time>
      </trkpt>
      <trkpt lat="44.44233" lon="1.17782">
        <ele>298.716928</ele>
        <time>2022-01-11T14:13:51.098Z</time>
      </trkpt>
      <trkpt lat="44.44223" lon="1.17776">
        <ele>299.295993</ele>
        <time>2022-01-11T14:13:53.095Z</time>
      </trkpt>
      <trkpt lat="44.44211" lon="1.17769">
        <ele>299.936284</ele>
        <time>2022-01-11T14:13:55.113Z</time>
      </trkpt>
      <trkpt lat="44.442" lon="1.17759">
        <ele>300.648584</ele>
        <time>2022-01-11T14:13:58.097Z</time>
      </trkpt>
      <trkpt lat="44.44189" lon="1.17756">
        <ele>301.209849</ele>
        <time>2022-01-11T14:14:00.107Z</time>
      </trkpt>
      <trkpt lat="44.44181" lon="1.17748">
        <ele>301.698404</ele>
        <time>2022-01-11T14:14:02.100Z</time>
      </trkpt>
      <trkpt lat="44.44178" lon="1.17731">
        <ele>302.334744</ele>
        <time>2022-01-11T14:14:05.106Z</time>
      </trkpt>
      <trkpt lat="44.44163" lon="1.17725">
        <ele>303.12211</ele>
        <time>2022-01-11T14:14:08.104Z</time>
      </trkpt>
      <trkpt lat="44.44141" lon="1.17724">
        <ele>304.233772</ele>
        <time>2022-01-11T14:14:10.113Z</time>
      </trkpt>
      <trkpt lat="44.44129" lon="1.1772">
        <ele>304.878291</ele>
        <time>2022-01-11T14:14:12.113Z</time>
      </trkpt>
      <trkpt lat="44.44118" lon="1.17709">
        <ele>305.575604</ele>
        <time>2022-01-11T14:14:15.114Z</time>
      </trkpt>
      <trkpt lat="44.4411" lon="1.17701">
        <ele>306.062433</ele>
        <time>2022-01-11T14:14:17.104Z</time>
      </trkpt>
      <trkpt lat="44.44103" lon="1.17691">
        <ele>306.592292</ele>
        <time>2022-01-11T14:14:20.113Z</time>
      </trkpt>
      <trkpt lat="44.44093" lon="1.17679">
        <ele>307.246364</ele>
        <time>2022-01-11T14:14:23.111Z</time>
      </trkpt>
      <trkpt lat="44.44083" lon="1.17668">
        <ele>307.630794</ele>
        <time>2022-01-11T14:14:26.100Z</time>
      </trkpt>
      <trkpt lat="44.44078" lon="1.17656">
        <ele>307.686813</ele>
        <time>2022-01-11T14:14:28.096Z</time>
      </trkpt>
      <trkpt lat="44.44071" lon="1.17641">
        <ele>307.765591</ele>
        <time>2022-01-11T14:14:31.090Z</time>
      </trkpt>
      <trkpt lat="44.44063" lon="1.17632">
        <ele>307.824089</ele>
        <time>2022-01-11T14:14:33.113Z</time>
      </trkpt>
      <trkpt lat="44.44055" lon="1.17617">
        <ele>307.903536</ele>
        <time>2022-01-11T14:14:36.093Z</time>
      </trkpt>
      <trkpt lat="44.44049" lon="1.17607">
        <ele>307.959912</ele>
        <time>2022-01-11T14:14:38.107Z</time>
      </trkpt>
      <trkpt lat="44.4404" lon="1.17597">
        <ele>308.029216</ele>
        <time>2022-01-11T14:14:40.121Z</time>
      </trkpt>
      <trkpt lat="44.44032" lon="1.17585">
        <ele>308.096485</ele>
        <time>2022-01-11T14:14:42.098Z</time>
      </trkpt>
      <trkpt lat="44.44024" lon="1.17574">
        <ele>308.164578</ele>
        <time>2022-01-11T14:14:44.110Z</time>
      </trkpt>
      <trkpt lat="44.44017" lon="1.17561">
        <ele>308.233393</ele>
        <time>2022-01-11T14:14:46.103Z</time>
      </trkpt>
      <trkpt lat="44.44009" lon="1.1755">
        <ele>308.302021</ele>
        <time>2022-01-11T14:14:48.108Z</time>
      </trkpt>
      <trkpt lat="44.44001" lon="1.17538">
        <ele>308.371031</ele>
        <time>2022-01-11T14:14:50.102Z</time>
      </trkpt>
      <trkpt lat="44.43993" lon="1.17526">
        <ele>308.440081</ele>
        <time>2022-01-11T14:14:52.116Z</time>
      </trkpt>
      <trkpt lat="44.43984" lon="1.17514">
        <ele>308.51555</ele>
        <time>2022-01-11T14:14:54.119Z</time>
      </trkpt>
      <trkpt lat="44.43976" lon="1.175">
        <ele>308.590075</ele>
        <time>2022-01-11T14:14:56.106Z</time>
      </trkpt>
      <trkpt lat="44.43966" lon="1.17489">
        <ele>308.661376</ele>
        <time>2022-01-11T14:14:58.113Z</time>
      </trkpt>
      <trkpt lat="44.43955" lon="1.17477">
        <ele>308.418153</ele>
        <time>2022-01-11T14:15:00.108Z</time>
      </trkpt>
      <trkpt lat="44.43946" lon="1.17466">
        <ele>308.194457</ele>
        <time>2022-01-11T14:15:02.102Z</time>
      </trkpt>
      <trkpt lat="44.43936" lon="1.17454">
        <ele>307.963694</ele>
        <time>2022-01-11T14:15:04.105Z</time>
      </trkpt>
      <trkpt lat="44.43928" lon="1.17442">
        <ele>307.746704</ele>
        <time>2022-01-11T14:15:06.098Z</time>
      </trkpt>
      <trkpt lat="44.43919" lon="1.17428">
        <ele>307.522072</ele>
        <time>2022-01-11T14:15:08.114Z</time>
      </trkpt>
      <trkpt lat="44.4391" lon="1.17417">
        <ele>307.289852</ele>
        <time>2022-01-11T14:15:10.108Z</time>
      </trkpt>
      <trkpt lat="44.43901" lon="1.17405">
        <ele>307.07737</ele>
        <time>2022-01-11T14:15:12.106Z</time>
      </trkpt>
      <trkpt lat="44.4389" lon="1.17396">
        <ele>306.840886</ele>
        <time>2022-01-11T14:15:14.102Z</time>
      </trkpt>
      <trkpt lat="44.43881" lon="1.17389">
        <ele>306.656572</ele>
        <time>2022-01-11T14:15:16.105Z</time>
      </trkpt>
      <trkpt lat="44.4387" lon="1.17385">
        <ele>306.457201</ele>
        <time>2022-01-11T14:15:18.106Z</time>
      </trkpt>
      <trkpt lat="44.43858" lon="1.17383">
        <ele>306.235914</ele>
        <time>2022-01-11T14:15:20.105Z</time>
      </trkpt>
      <trkpt lat="44.43845" lon="1.17383">
        <ele>306.003132</ele>
        <time>2022-01-11T14:15:22.114Z</time>
      </trkpt>
      <trkpt lat="44.43833" lon="1.17383">
        <ele>305.788224</ele>
        <time>2022-01-11T14:15:24.105Z</time>
      </trkpt>
      <trkpt lat="44.4382" lon="1.17384">
        <ele>305.562198</ele>
        <time>2022-01-11T14:15:26.107Z</time>
      </trkpt>
      <trkpt lat="44.43808" lon="1.17384">
        <ele>305.459251</ele>
        <time>2022-01-11T14:15:28.118Z</time>
      </trkpt>
      <trkpt lat="44.43796" lon="1.17382">
        <ele>305.495542</ele>
        <time>2022-01-11T14:15:30.124Z</time>
      </trkpt>
      <trkpt lat="44.43785" lon="1.17381">
        <ele>305.530682</ele>
        <time>2022-01-11T14:15:32.104Z</time>
      </trkpt>
      <trkpt lat="44.43775" lon="1.17381">
        <ele>305.561267</ele>
        <time>2022-01-11T14:15:34.107Z</time>
      </trkpt>
      <trkpt lat="44.43762" lon="1.17382">
        <ele>305.598836</ele>
        <time>2022-01-11T14:15:36.116Z</time>
      </trkpt>
      <trkpt lat="44.43747" lon="1.17382">
        <ele>305.646382</ele>
        <time>2022-01-11T14:15:38.113Z</time>
      </trkpt>
      <trkpt lat="44.43735" lon="1.17384">
        <ele>305.680818</ele>
        <time>2022-01-11T14:15:40.104Z</time>
      </trkpt>
      <trkpt lat="44.43725" lon="1.17383">
        <ele>305.710587</ele>
        <time>2022-01-11T14:15:42.104Z</time>
      </trkpt>
      <trkpt lat="44.43715" lon="1.17382">
        <ele>305.740977</ele>
        <time>2022-01-11T14:15:44.108Z</time>
      </trkpt>
      <trkpt lat="44.43704" lon="1.1738">
        <ele>305.777242</ele>
        <time>2022-01-11T14:15:46.109Z</time>
      </trkpt>
      <trkpt lat="44.4369" lon="1.17376">
        <ele>305.818556</ele>
        <time>2022-01-11T14:15:48.099Z</time>
      </trkpt>
      <trkpt lat="44.43678" lon="1.17374">
        <ele>305.856651</ele>
        <time>2022-01-11T14:15:50.101Z</time>
      </trkpt>
      <trkpt lat="44.43664" lon="1.17369">
        <ele>305.899465</ele>
        <time>2022-01-11T14:15:52.103Z</time>
      </trkpt>
      <trkpt lat="44.43652" lon="1.17363">
        <ele>305.938194</ele>
        <time>2022-01-11T14:15:54.099Z</time>
      </trkpt>
      <trkpt lat="44.43641" lon="1.17355">
        <ele>305.974791</ele>
        <time>2022-01-11T14:15:56.104Z</time>
      </trkpt>
      <trkpt lat="44.43629" lon="1.1735">
        <ele>305.708068</ele>
        <time>2022-01-11T14:15:58.123Z</time>
      </trkpt>
      <trkpt lat="44.43616" lon="1.17344">
        <ele>305.2812</ele>
        <time>2022-01-11T14:16:00.100Z</time>
      </trkpt>
      <trkpt lat="44.43604" lon="1.1734">
        <ele>304.866771</ele>
        <time>2022-01-11T14:16:02.108Z</time>
      </trkpt>
      <trkpt lat="44.43591" lon="1.17335">
        <ele>304.433622</ele>
        <time>2022-01-11T14:16:04.113Z</time>
      </trkpt>
      <trkpt lat="44.43577" lon="1.17331">
        <ele>303.965635</ele>
        <time>2022-01-11T14:16:06.101Z</time>
      </trkpt>
      <trkpt lat="44.43563" lon="1.17327">
        <ele>303.507764</ele>
        <time>2022-01-11T14:16:08.116Z</time>
      </trkpt>
      <trkpt lat="44.4355" lon="1.17325">
        <ele>303.099468</ele>
        <time>2022-01-11T14:16:10.107Z</time>
      </trkpt>
      <trkpt lat="44.43536" lon="1.17326">
        <ele>302.652403</ele>
        <time>2022-01-11T14:16:12.111Z</time>
      </trkpt>
      <trkpt lat="44.43524" lon="1.17329">
        <ele>302.232422</ele>
        <time>2022-01-11T14:16:14.097Z</time>
      </trkpt>
      <trkpt lat="44.43509" lon="1.17334">
        <ele>301.745477</ele>
        <time>2022-01-11T14:16:16.100Z</time>
      </trkpt>
      <trkpt lat="44.43494" lon="1.1734">
        <ele>301.256838</ele>
        <time>2022-01-11T14:16:18.095Z</time>
      </trkpt>
      <trkpt lat="44.43481" lon="1.17345">
        <ele>300.806054</ele>
        <time>2022-01-11T14:16:20.101Z</time>
      </trkpt>
      <trkpt lat="44.43468" lon="1.17351">
        <ele>300.356621</ele>
        <time>2022-01-11T14:16:22.100Z</time>
      </trkpt>
      <trkpt lat="44.43455" lon="1.17358">
        <ele>300.207669</ele>
        <time>2022-01-11T14:16:24.109Z</time>
      </trkpt>
      <trkpt lat="44.43439" lon="1.17364">
        <ele>300.285131</ele>
        <time>2022-01-11T14:16:26.108Z</time>
      </trkpt>
      <trkpt lat="44.43425" lon="1.17368">
        <ele>300.357615</ele>
        <time>2022-01-11T14:16:28.102Z</time>
      </trkpt>
      <trkpt lat="44.43411" lon="1.17373">
        <ele>300.428596</ele>
        <time>2022-01-11T14:16:30.118Z</time>
      </trkpt>
      <trkpt lat="44.43398" lon="1.17379">
        <ele>300.492797</ele>
        <time>2022-01-11T14:16:32.105Z</time>
      </trkpt>
      <trkpt lat="44.43384" lon="1.17382">
        <ele>300.561234</ele>
        <time>2022-01-11T14:16:34.105Z</time>
      </trkpt>
      <trkpt lat="44.43371" lon="1.17384">
        <ele>300.624801</ele>
        <time>2022-01-11T14:16:36.107Z</time>
      </trkpt>
      <trkpt lat="44.43357" lon="1.17383">
        <ele>300.69599</ele>
        <time>2022-01-11T14:16:38.113Z</time>
      </trkpt>
      <trkpt lat="44.43344" lon="1.17378">
        <ele>300.759564</ele>
        <time>2022-01-11T14:16:40.100Z</time>
      </trkpt>
      <trkpt lat="44.43336" lon="1.17368">
        <ele>300.816154</ele>
        <time>2022-01-11T14:16:42.118Z</time>
      </trkpt>
      <trkpt lat="44.43326" lon="1.17358">
        <ele>300.872549</ele>
        <time>2022-01-11T14:16:44.106Z</time>
      </trkpt>
      <trkpt lat="44.43319" lon="1.17347">
        <ele>300.926373</ele>
        <time>2022-01-11T14:16:46.116Z</time>
      </trkpt>
      <trkpt lat="44.4331" lon="1.17337">
        <ele>300.982066</ele>
        <time>2022-01-11T14:16:48.122Z</time>
      </trkpt>
      <trkpt lat="44.43301" lon="1.17323">
        <ele>301.058795</ele>
        <time>2022-01-11T14:16:51.096Z</time>
      </trkpt>
      <trkpt lat="44.43293" lon="1.1731">
        <ele>301.621419</ele>
        <time>2022-01-11T14:16:54.117Z</time>
      </trkpt>
      <trkpt lat="44.43285" lon="1.17301">
        <ele>302.047837</ele>
        <time>2022-01-11T14:16:56.109Z</time>
      </trkpt>
      <trkpt lat="44.43278" lon="1.1729">
        <ele>302.5235</ele>
        <time>2022-01-11T14:16:58.111Z</time>
      </trkpt>
      <trkpt lat="44.43272" lon="1.1728">
        <ele>302.95106</ele>
        <time>2022-01-11T14:17:00.097Z</time>
      </trkpt>
      <trkpt lat="44.43267" lon="1.17269">
        <ele>303.366715</ele>
        <time>2022-01-11T14:17:02.109Z</time>
      </trkpt>
      <trkpt lat="44.43259" lon="1.17259">
        <ele>303.81654</ele>
        <time>2022-01-11T14:17:04.103Z</time>
      </trkpt>
      <trkpt lat="44.43252" lon="1.1725">
        <ele>304.279499</ele>
        <time>2022-01-11T14:17:06.113Z</time>
      </trkpt>
      <trkpt lat="44.43244" lon="1.17239">
        <ele>304.742715</ele>
        <time>2022-01-11T14:17:08.118Z</time>
      </trkpt>
      <trkpt lat="44.43237" lon="1.17229">
        <ele>305.208275</ele>
        <time>2022-01-11T14:17:10.098Z</time>
      </trkpt>
      <trkpt lat="44.4323" lon="1.17219">
        <ele>305.641787</ele>
        <time>2022-01-11T14:17:12.113Z</time>
      </trkpt>
      <trkpt lat="44.43223" lon="1.1721">
        <ele>306.087466</ele>
        <time>2022-01-11T14:17:14.104Z</time>
      </trkpt>
      <trkpt lat="44.43215" lon="1.17201">
        <ele>306.546181</ele>
        <time>2022-01-11T14:17:16.099Z</time>
      </trkpt>
      <trkpt lat="44.43208" lon="1.17191">
        <ele>306.996008</ele>
        <time>2022-01-11T14:17:18.113Z</time>
      </trkpt>
      <trkpt lat="44.43201" lon="1.17181">
        <ele>307.438454</ele>
        <time>2022-01-11T14:17:20.110Z</time>
      </trkpt>
      <trkpt lat="44.43193" lon="1.17172">
        <ele>307.897735</ele>
        <time>2022-01-11T14:17:22.122Z</time>
      </trkpt>
      <trkpt lat="44.43187" lon="1.17162">
        <ele>308.310306</ele>
        <time>2022-01-11T14:17:24.107Z</time>
      </trkpt>
      <trkpt lat="44.4318" lon="1.17152">
        <ele>308.768111</ele>
        <time>2022-01-11T14:17:26.106Z</time>
      </trkpt>
      <trkpt lat="44.43172" lon="1.17143">
        <ele>309.067977</ele>
        <time>2022-01-11T14:17:28.117Z</time>
      </trkpt>
      <trkpt lat="44.43165" lon="1.17133">
        <ele>309.017818</ele>
        <time>2022-01-11T14:17:30.105Z</time>
      </trkpt>
      <trkpt lat="44.43159" lon="1.17123">
        <ele>308.967209</ele>
        <time>2022-01-11T14:17:32.105Z</time>
      </trkpt>
      <trkpt lat="44.4315" lon="1.17114">
        <ele>308.911912</ele>
        <time>2022-01-11T14:17:34.095Z</time>
      </trkpt>
      <trkpt lat="44.43143" lon="1.17106">
        <ele>308.86335</ele>
        <time>2022-01-11T14:17:36.122Z</time>
      </trkpt>
      <trkpt lat="44.43135" lon="1.17098">
        <ele>308.812553</ele>
        <time>2022-01-11T14:17:38.108Z</time>
      </trkpt>
      <trkpt lat="44.43126" lon="1.17091">
        <ele>308.75993</ele>
        <time>2022-01-11T14:17:40.108Z</time>
      </trkpt>
      <trkpt lat="44.43119" lon="1.17084">
        <ele>308.712124</ele>
        <time>2022-01-11T14:17:42.106Z</time>
      </trkpt>
      <trkpt lat="44.43106" lon="1.17075">
        <ele>308.637419</ele>
        <time>2022-01-11T14:17:45.105Z</time>
      </trkpt>
      <trkpt lat="44.43095" lon="1.17066">
        <ele>308.570649</ele>
        <time>2022-01-11T14:17:48.120Z</time>
      </trkpt>
      <trkpt lat="44.43085" lon="1.17061">
        <ele>308.516299</ele>
        <time>2022-01-11T14:17:50.116Z</time>
      </trkpt>
      <trkpt lat="44.43076" lon="1.17055">
        <ele>308.463667</ele>
        <time>2022-01-11T14:17:52.116Z</time>
      </trkpt>
      <trkpt lat="44.43066" lon="1.17048">
        <ele>308.40627</ele>
        <time>2022-01-11T14:17:54.119Z</time>
      </trkpt>
      <trkpt lat="44.43056" lon="1.17043">
        <ele>308.350884</ele>
        <time>2022-01-11T14:17:56.103Z</time>
      </trkpt>
      <trkpt lat="44.43046" lon="1.17036">
        <ele>308.291137</ele>
        <time>2022-01-11T14:17:58.114Z</time>
      </trkpt>
      <trkpt lat="44.43036" lon="1.17029">
        <ele>308.233129</ele>
        <time>2022-01-11T14:18:00.098Z</time>
      </trkpt>
      <trkpt lat="44.43024" lon="1.17022">
        <ele>308.162821</ele>
        <time>2022-01-11T14:18:02.100Z</time>
      </trkpt>
      <trkpt lat="44.43012" lon="1.17014">
        <ele>307.866582</ele>
        <time>2022-01-11T14:18:04.101Z</time>
      </trkpt>
      <trkpt lat="44.43" lon="1.17007">
        <ele>307.485327</ele>
        <time>2022-01-11T14:18:06.101Z</time>
      </trkpt>
      <trkpt lat="44.42988" lon="1.16999">
        <ele>307.091469</ele>
        <time>2022-01-11T14:18:08.105Z</time>
      </trkpt>
      <trkpt lat="44.42974" lon="1.16991">
        <ele>306.656615</ele>
        <time>2022-01-11T14:18:10.112Z</time>
      </trkpt>
      <trkpt lat="44.42961" lon="1.16982">
        <ele>306.228885</ele>
        <time>2022-01-11T14:18:12.115Z</time>
      </trkpt>
      <trkpt lat="44.42948" lon="1.16976">
        <ele>305.823621</ele>
        <time>2022-01-11T14:18:14.094Z</time>
      </trkpt>
      <trkpt lat="44.42933" lon="1.16972">
        <ele>305.360625</ele>
        <time>2022-01-11T14:18:16.107Z</time>
      </trkpt>
      <trkpt lat="44.42921" lon="1.16969">
        <ele>304.989341</ele>
        <time>2022-01-11T14:18:18.115Z</time>
      </trkpt>
      <trkpt lat="44.42905" lon="1.16966">
        <ele>304.530813</ele>
        <time>2022-01-11T14:18:20.098Z</time>
      </trkpt>
      <trkpt lat="44.42889" lon="1.16965">
        <ele>304.048516</ele>
        <time>2022-01-11T14:18:22.125Z</time>
      </trkpt>
      <trkpt lat="44.42873" lon="1.16966">
        <ele>303.572574</ele>
        <time>2022-01-11T14:18:24.103Z</time>
      </trkpt>
      <trkpt lat="44.42857" lon="1.16967">
        <ele>303.110485</ele>
        <time>2022-01-11T14:18:26.109Z</time>
      </trkpt>
      <trkpt lat="44.42842" lon="1.1697">
        <ele>302.648432</ele>
        <time>2022-01-11T14:18:28.103Z</time>
      </trkpt>
      <trkpt lat="44.42827" lon="1.16978">
        <ele>302.083537</ele>
        <time>2022-01-11T14:18:30.116Z</time>
      </trkpt>
      <trkpt lat="44.42811" lon="1.16985">
        <ele>301.529049</ele>
        <time>2022-01-11T14:18:32.108Z</time>
      </trkpt>
      <trkpt lat="44.42797" lon="1.16994">
        <ele>301.01244</ele>
        <time>2022-01-11T14:18:34.113Z</time>
      </trkpt>
      <trkpt lat="44.42783" lon="1.17002">
        <ele>300.503552</ele>
        <time>2022-01-11T14:18:36.107Z</time>
      </trkpt>
      <trkpt lat="44.4277" lon="1.1701">
        <ele>300.020818</ele>
        <time>2022-01-11T14:18:38.098Z</time>
      </trkpt>
      <trkpt lat="44.42756" lon="1.17019">
        <ele>299.493594</ele>
        <time>2022-01-11T14:18:40.113Z</time>
      </trkpt>
      <trkpt lat="44.42741" lon="1.17026">
        <ele>298.976443</ele>
        <time>2022-01-11T14:18:42.109Z</time>
      </trkpt>
      <trkpt lat="44.42727" lon="1.17034">
        <ele>298.449219</ele>
        <time>2022-01-11T14:18:44.103Z</time>
      </trkpt>
      <trkpt lat="44.42713" lon="1.17041">
        <ele>297.946386</ele>
        <time>2022-01-11T14:18:46.106Z</time>
      </trkpt>
      <trkpt lat="44.42699" lon="1.17048">
        <ele>297.470586</ele>
        <time>2022-01-11T14:18:48.101Z</time>
      </trkpt>
      <trkpt lat="44.42686" lon="1.17056">
        <ele>296.97261</ele>
        <time>2022-01-11T14:18:50.111Z</time>
      </trkpt>
      <trkpt lat="44.42671" lon="1.17063">
        <ele>296.71749</ele>
        <time>2022-01-11T14:18:52.110Z</time>
      </trkpt>
      <trkpt lat="44.42656" lon="1.17071">
        <ele>296.636749</ele>
        <time>2022-01-11T14:18:54.117Z</time>
      </trkpt>
      <trkpt lat="44.42641" lon="1.17079">
        <ele>296.556025</ele>
        <time>2022-01-11T14:18:56.103Z</time>
      </trkpt>
      <trkpt lat="44.42625" lon="1.17087">
        <ele>296.472598</ele>
        <time>2022-01-11T14:18:58.107Z</time>
      </trkpt>
      <trkpt lat="44.42609" lon="1.17094">
        <ele>296.393182</ele>
        <time>2022-01-11T14:19:00.112Z</time>
      </trkpt>
      <trkpt lat="44.42594" lon="1.17102">
        <ele>296.312525</ele>
        <time>2022-01-11T14:19:02.108Z</time>
      </trkpt>
      <trkpt lat="44.42579" lon="1.1711">
        <ele>296.229807</ele>
        <time>2022-01-11T14:19:04.103Z</time>
      </trkpt>
      <trkpt lat="44.42561" lon="1.17115">
        <ele>296.142686</ele>
        <time>2022-01-11T14:19:06.104Z</time>
      </trkpt>
      <trkpt lat="44.42544" lon="1.17114">
        <ele>296.05565</ele>
        <time>2022-01-11T14:19:08.098Z</time>
      </trkpt>
      <trkpt lat="44.42527" lon="1.17111">
        <ele>295.970753</ele>
        <time>2022-01-11T14:19:10.122Z</time>
      </trkpt>
      <trkpt lat="44.42511" lon="1.17106">
        <ele>295.890032</ele>
        <time>2022-01-11T14:19:12.112Z</time>
      </trkpt>
      <trkpt lat="44.42495" lon="1.171">
        <ele>295.749728</ele>
        <time>2022-01-11T14:19:14.102Z</time>
      </trkpt>
      <trkpt lat="44.42479" lon="1.17094">
        <ele>295.599367</ele>
        <time>2022-01-11T14:19:16.104Z</time>
      </trkpt>
      <trkpt lat="44.42463" lon="1.1709">
        <ele>295.446699</ele>
        <time>2022-01-11T14:19:18.107Z</time>
      </trkpt>
      <trkpt lat="44.42447" lon="1.17084">
        <ele>295.296381</ele>
        <time>2022-01-11T14:19:20.114Z</time>
      </trkpt>
      <trkpt lat="44.42431" lon="1.17079">
        <ele>295.145687</ele>
        <time>2022-01-11T14:19:22.115Z</time>
      </trkpt>
      <trkpt lat="44.42418" lon="1.17074">
        <ele>295.013395</ele>
        <time>2022-01-11T14:19:24.112Z</time>
      </trkpt>
      <trkpt lat="44.42403" lon="1.17069">
        <ele>294.876764</ele>
        <time>2022-01-11T14:19:26.097Z</time>
      </trkpt>
      <trkpt lat="44.42388" lon="1.17064">
        <ele>294.735468</ele>
        <time>2022-01-11T14:19:28.112Z</time>
      </trkpt>
      <trkpt lat="44.42373" lon="1.17059">
        <ele>294.588752</ele>
        <time>2022-01-11T14:19:30.107Z</time>
      </trkpt>
      <trkpt lat="44.42358" lon="1.17055">
        <ele>294.446003</ele>
        <time>2022-01-11T14:19:32.115Z</time>
      </trkpt>
      <trkpt lat="44.42343" lon="1.1705">
        <ele>294.308715</ele>
        <time>2022-01-11T14:19:34.112Z</time>
      </trkpt>
      <trkpt lat="44.42329" lon="1.17046">
        <ele>294.18337</ele>
        <time>2022-01-11T14:19:36.105Z</time>
      </trkpt>
      <trkpt lat="44.42315" lon="1.17043">
        <ele>294.102881</ele>
        <time>2022-01-11T14:19:38.106Z</time>
      </trkpt>
      <trkpt lat="44.42302" lon="1.17039">
        <ele>294.029341</ele>
        <time>2022-01-11T14:19:40.114Z</time>
      </trkpt>
      <trkpt lat="44.4229" lon="1.17038">
        <ele>293.960543</ele>
        <time>2022-01-11T14:19:42.115Z</time>
      </trkpt>
      <trkpt lat="44.42275" lon="1.1704">
        <ele>293.880154</ele>
        <time>2022-01-11T14:19:44.100Z</time>
      </trkpt>
      <trkpt lat="44.42263" lon="1.17046">
        <ele>293.808594</ele>
        <time>2022-01-11T14:19:46.122Z</time>
      </trkpt>
      <trkpt lat="44.42251" lon="1.1705">
        <ele>293.738991</ele>
        <time>2022-01-11T14:19:48.113Z</time>
      </trkpt>
      <trkpt lat="44.42237" lon="1.17057">
        <ele>293.653579</ele>
        <time>2022-01-11T14:19:50.114Z</time>
      </trkpt>
      <trkpt lat="44.42224" lon="1.17064">
        <ele>293.577458</ele>
        <time>2022-01-11T14:19:52.116Z</time>
      </trkpt>
      <trkpt lat="44.42212" lon="1.1707">
        <ele>293.503935</ele>
        <time>2022-01-11T14:19:54.102Z</time>
      </trkpt>
      <trkpt lat="44.42199" lon="1.17076">
        <ele>293.425424</ele>
        <time>2022-01-11T14:19:56.105Z</time>
      </trkpt>
      <trkpt lat="44.42186" lon="1.17084">
        <ele>293.346965</ele>
        <time>2022-01-11T14:19:58.104Z</time>
      </trkpt>
      <trkpt lat="44.42174" lon="1.17093">
        <ele>293.269012</ele>
        <time>2022-01-11T14:20:00.105Z</time>
      </trkpt>
      <trkpt lat="44.42162" lon="1.17102">
        <ele>293.194475</ele>
        <time>2022-01-11T14:20:02.118Z</time>
      </trkpt>
      <trkpt lat="44.42149" lon="1.17109">
        <ele>293.153333</ele>
        <time>2022-01-11T14:20:04.109Z</time>
      </trkpt>
      <trkpt lat="44.42138" lon="1.17117">
        <ele>293.117176</ele>
        <time>2022-01-11T14:20:06.108Z</time>
      </trkpt>
      <trkpt lat="44.42126" lon="1.17122">
        <ele>293.079391</ele>
        <time>2022-01-11T14:20:08.114Z</time>
      </trkpt>
      <trkpt lat="44.42114" lon="1.17126">
        <ele>293.042011</ele>
        <time>2022-01-11T14:20:10.108Z</time>
      </trkpt>
      <trkpt lat="44.42101" lon="1.17131">
        <ele>293.002483</ele>
        <time>2022-01-11T14:20:12.106Z</time>
      </trkpt>
      <trkpt lat="44.42088" lon="1.17136">
        <ele>292.962969</ele>
        <time>2022-01-11T14:20:14.110Z</time>
      </trkpt>
      <trkpt lat="44.42075" lon="1.1714">
        <ele>292.924017</ele>
        <time>2022-01-11T14:20:16.108Z</time>
      </trkpt>
      <trkpt lat="44.4206" lon="1.17147">
        <ele>292.877678</ele>
        <time>2022-01-11T14:20:18.102Z</time>
      </trkpt>
      <trkpt lat="44.42046" lon="1.17156">
        <ele>292.831141</ele>
        <time>2022-01-11T14:20:20.101Z</time>
      </trkpt>
      <trkpt lat="44.42033" lon="1.17165">
        <ele>292.788625</ele>
        <time>2022-01-11T14:20:22.110Z</time>
      </trkpt>
      <trkpt lat="44.4202" lon="1.17178">
        <ele>292.740306</ele>
        <time>2022-01-11T14:20:24.107Z</time>
      </trkpt>
      <trkpt lat="44.42007" lon="1.17189">
        <ele>292.69667</ele>
        <time>2022-01-11T14:20:26.110Z</time>
      </trkpt>
      <trkpt lat="44.41995" lon="1.17197">
        <ele>292.731283</ele>
        <time>2022-01-11T14:20:28.112Z</time>
      </trkpt>
      <trkpt lat="44.41982" lon="1.17205">
        <ele>293.307861</ele>
        <time>2022-01-11T14:20:30.118Z</time>
      </trkpt>
      <trkpt lat="44.4197" lon="1.17212">
        <ele>293.842878</ele>
        <time>2022-01-11T14:20:32.110Z</time>
      </trkpt>
      <trkpt lat="44.41958" lon="1.17221">
        <ele>294.394541</ele>
        <time>2022-01-11T14:20:34.109Z</time>
      </trkpt>
      <trkpt lat="44.41946" lon="1.1723">
        <ele>294.947916</ele>
        <time>2022-01-11T14:20:36.110Z</time>
      </trkpt>
      <trkpt lat="44.41935" lon="1.17241">
        <ele>295.513233</ele>
        <time>2022-01-11T14:20:38.105Z</time>
      </trkpt>
      <trkpt lat="44.41927" lon="1.1725">
        <ele>295.922724</ele>
        <time>2022-01-11T14:20:40.116Z</time>
      </trkpt>
      <trkpt lat="44.41902" lon="1.17286">
        <ele>297.383473</ele>
        <time>2022-01-11T14:22:57.121Z</time>
      </trkpt>
      <trkpt lat="44.41896" lon="1.17299">
        <ele>297.852688</ele>
        <time>2022-01-11T14:22:59.100Z</time>
      </trkpt>
      <trkpt lat="44.41889" lon="1.17309">
        <ele>298.261017</ele>
        <time>2022-01-11T14:23:01.113Z</time>
      </trkpt>
      <trkpt lat="44.41881" lon="1.17319">
        <ele>298.71906</ele>
        <time>2022-01-11T14:23:03.109Z</time>
      </trkpt>
      <trkpt lat="44.41873" lon="1.17332">
        <ele>299.204539</ele>
        <time>2022-01-11T14:23:05.122Z</time>
      </trkpt>
      <trkpt lat="44.41865" lon="1.17345">
        <ele>299.699327</ele>
        <time>2022-01-11T14:23:07.115Z</time>
      </trkpt>
      <trkpt lat="44.41856" lon="1.17356">
        <ele>300.015064</ele>
        <time>2022-01-11T14:23:09.110Z</time>
      </trkpt>
      <trkpt lat="44.41848" lon="1.17368">
        <ele>299.986861</ele>
        <time>2022-01-11T14:23:11.119Z</time>
      </trkpt>
      <trkpt lat="44.41839" lon="1.17377">
        <ele>299.957997</ele>
        <time>2022-01-11T14:23:13.110Z</time>
      </trkpt>
      <trkpt lat="44.4183" lon="1.17387">
        <ele>299.928304</ele>
        <time>2022-01-11T14:23:15.110Z</time>
      </trkpt>
      <trkpt lat="44.41821" lon="1.17397">
        <ele>299.898419</ele>
        <time>2022-01-11T14:23:17.108Z</time>
      </trkpt>
      <trkpt lat="44.41811" lon="1.17405">
        <ele>299.868384</ele>
        <time>2022-01-11T14:23:19.106Z</time>
      </trkpt>
      <trkpt lat="44.418" lon="1.17414">
        <ele>299.837384</ele>
        <time>2022-01-11T14:23:21.115Z</time>
      </trkpt>
      <trkpt lat="44.4179" lon="1.17422">
        <ele>299.806976</ele>
        <time>2022-01-11T14:23:23.109Z</time>
      </trkpt>
      <trkpt lat="44.41779" lon="1.17429">
        <ele>299.777525</ele>
        <time>2022-01-11T14:23:25.106Z</time>
      </trkpt>
      <trkpt lat="44.4177" lon="1.17439">
        <ele>299.746984</ele>
        <time>2022-01-11T14:23:27.111Z</time>
      </trkpt>
      <trkpt lat="44.41761" lon="1.17449">
        <ele>299.717713</ele>
        <time>2022-01-11T14:23:29.097Z</time>
      </trkpt>
      <trkpt lat="44.41751" lon="1.1746">
        <ele>299.687433</ele>
        <time>2022-01-11T14:23:31.123Z</time>
      </trkpt>
      <trkpt lat="44.41744" lon="1.17472">
        <ele>299.65804</ele>
        <time>2022-01-11T14:23:33.112Z</time>
      </trkpt>
      <trkpt lat="44.41736" lon="1.17483">
        <ele>299.629143</ele>
        <time>2022-01-11T14:23:35.107Z</time>
      </trkpt>
      <trkpt lat="44.41727" lon="1.17496">
        <ele>299.59664</ele>
        <time>2022-01-11T14:23:37.099Z</time>
      </trkpt>
      <trkpt lat="44.41719" lon="1.17509">
        <ele>299.562661</ele>
        <time>2022-01-11T14:23:39.108Z</time>
      </trkpt>
      <trkpt lat="44.4171" lon="1.17522">
        <ele>299.515632</ele>
        <time>2022-01-11T14:23:41.113Z</time>
      </trkpt>
      <trkpt lat="44.41701" lon="1.17536">
        <ele>299.467947</ele>
        <time>2022-01-11T14:23:43.107Z</time>
      </trkpt>
      <trkpt lat="44.41692" lon="1.17548">
        <ele>299.422325</ele>
        <time>2022-01-11T14:23:45.099Z</time>
      </trkpt>
      <trkpt lat="44.41682" lon="1.1756">
        <ele>299.374303</ele>
        <time>2022-01-11T14:23:47.121Z</time>
      </trkpt>
      <trkpt lat="44.41671" lon="1.17571">
        <ele>299.325063</ele>
        <time>2022-01-11T14:23:49.111Z</time>
      </trkpt>
      <trkpt lat="44.4166" lon="1.17581">
        <ele>299.275958</ele>
        <time>2022-01-11T14:23:51.107Z</time>
      </trkpt>
      <trkpt lat="44.41649" lon="1.17594">
        <ele>299.223701</ele>
        <time>2022-01-11T14:23:53.103Z</time>
      </trkpt>
      <trkpt lat="44.41637" lon="1.17607">
        <ele>299.170124</ele>
        <time>2022-01-11T14:23:55.107Z</time>
      </trkpt>
      <trkpt lat="44.41625" lon="1.17617">
        <ele>299.119085</ele>
        <time>2022-01-11T14:23:57.106Z</time>
      </trkpt>
      <trkpt lat="44.41612" lon="1.17624">
        <ele>299.067833</ele>
        <time>2022-01-11T14:23:59.114Z</time>
      </trkpt>
      <trkpt lat="44.41599" lon="1.1763">
        <ele>299.019194</ele>
        <time>2022-01-11T14:24:01.117Z</time>
      </trkpt>
      <trkpt lat="44.41585" lon="1.17634">
        <ele>298.968006</ele>
        <time>2022-01-11T14:24:03.109Z</time>
      </trkpt>
      <trkpt lat="44.41573" lon="1.17637">
        <ele>298.923299</ele>
        <time>2022-01-11T14:24:05.120Z</time>
      </trkpt>
      <trkpt lat="44.41561" lon="1.1764">
        <ele>299.08941</ele>
        <time>2022-01-11T14:24:07.104Z</time>
      </trkpt>
      <trkpt lat="44.41549" lon="1.17642">
        <ele>299.316896</ele>
        <time>2022-01-11T14:24:09.107Z</time>
      </trkpt>
      <trkpt lat="44.41538" lon="1.17643">
        <ele>299.538593</ele>
        <time>2022-01-11T14:24:11.106Z</time>
      </trkpt>
      <trkpt lat="44.41527" lon="1.17644">
        <ele>299.749504</ele>
        <time>2022-01-11T14:24:13.103Z</time>
      </trkpt>
      <trkpt lat="44.41517" lon="1.17646">
        <ele>299.948544</ele>
        <time>2022-01-11T14:24:15.098Z</time>
      </trkpt>
      <trkpt lat="44.41507" lon="1.17649">
        <ele>300.152631</ele>
        <time>2022-01-11T14:24:17.121Z</time>
      </trkpt>
      <trkpt lat="44.41495" lon="1.17651">
        <ele>300.377507</ele>
        <time>2022-01-11T14:24:19.111Z</time>
      </trkpt>
      <trkpt lat="44.41485" lon="1.17653">
        <ele>300.573623</ele>
        <time>2022-01-11T14:24:21.107Z</time>
      </trkpt>
      <trkpt lat="44.41475" lon="1.17653">
        <ele>300.77396</ele>
        <time>2022-01-11T14:24:23.103Z</time>
      </trkpt>
      <trkpt lat="44.41466" lon="1.17656">
        <ele>300.959742</ele>
        <time>2022-01-11T14:24:25.107Z</time>
      </trkpt>
      <trkpt lat="44.41455" lon="1.17661">
        <ele>301.187366</ele>
        <time>2022-01-11T14:24:28.114Z</time>
      </trkpt>
      <trkpt lat="44.41447" lon="1.17668">
        <ele>301.366426</ele>
        <time>2022-01-11T14:24:30.114Z</time>
      </trkpt>
      <trkpt lat="44.41438" lon="1.17674">
        <ele>301.549258</ele>
        <time>2022-01-11T14:24:32.118Z</time>
      </trkpt>
      <trkpt lat="44.4143" lon="1.17683">
        <ele>301.756366</ele>
        <time>2022-01-11T14:24:34.116Z</time>
      </trkpt>
      <trkpt lat="44.41421" lon="1.17693">
        <ele>301.974577</ele>
        <time>2022-01-11T14:24:36.120Z</time>
      </trkpt>
      <trkpt lat="44.41412" lon="1.177">
        <ele>302.169095</ele>
        <time>2022-01-11T14:24:38.103Z</time>
      </trkpt>
      <trkpt lat="44.41404" lon="1.17709">
        <ele>302.36904</ele>
        <time>2022-01-11T14:24:40.107Z</time>
      </trkpt>
      <trkpt lat="44.41396" lon="1.17717">
        <ele>302.528391</ele>
        <time>2022-01-11T14:24:42.114Z</time>
      </trkpt>
      <trkpt lat="44.4139" lon="1.17726">
        <ele>302.673628</ele>
        <time>2022-01-11T14:24:44.116Z</time>
      </trkpt>
      <trkpt lat="44.41379" lon="1.17737">
        <ele>302.885647</ele>
        <time>2022-01-11T14:24:47.114Z</time>
      </trkpt>
      <trkpt lat="44.41371" lon="1.17745">
        <ele>303.038312</ele>
        <time>2022-01-11T14:24:49.115Z</time>
      </trkpt>
      <trkpt lat="44.4136" lon="1.17754">
        <ele>303.23711</ele>
        <time>2022-01-11T14:24:52.120Z</time>
      </trkpt>
      <trkpt lat="44.41351" lon="1.17759">
        <ele>303.385532</ele>
        <time>2022-01-11T14:24:54.102Z</time>
      </trkpt>
      <trkpt lat="44.41339" lon="1.17763">
        <ele>303.584213</ele>
        <time>2022-01-11T14:24:57.107Z</time>
      </trkpt>
      <trkpt lat="44.41328" lon="1.17765">
        <ele>303.761364</ele>
        <time>2022-01-11T14:25:00.113Z</time>
      </trkpt>
      <trkpt lat="44.41316" lon="1.17766">
        <ele>303.950227</ele>
        <time>2022-01-11T14:25:03.110Z</time>
      </trkpt>
      <trkpt lat="44.41303" lon="1.17765">
        <ele>304.14684</ele>
        <time>2022-01-11T14:25:06.105Z</time>
      </trkpt>
      <trkpt lat="44.41291" lon="1.17764">
        <ele>304.345788</ele>
        <time>2022-01-11T14:25:09.122Z</time>
      </trkpt>
      <trkpt lat="44.41278" lon="1.17762">
        <ele>304.546516</ele>
        <time>2022-01-11T14:25:12.122Z</time>
      </trkpt>
      <trkpt lat="44.41268" lon="1.17758">
        <ele>304.704033</ele>
        <time>2022-01-11T14:25:14.108Z</time>
      </trkpt>
      <trkpt lat="44.41258" lon="1.17757">
        <ele>304.863998</ele>
        <time>2022-01-11T14:25:16.115Z</time>
      </trkpt>
      <trkpt lat="44.41249" lon="1.17753">
        <ele>305.009068</ele>
        <time>2022-01-11T14:25:18.115Z</time>
      </trkpt>
      <trkpt lat="44.41241" lon="1.1775">
        <ele>305.150218</ele>
        <time>2022-01-11T14:25:20.103Z</time>
      </trkpt>
      <trkpt lat="44.41232" lon="1.17745">
        <ele>305.109204</ele>
        <time>2022-01-11T14:25:22.117Z</time>
      </trkpt>
      <trkpt lat="44.41222" lon="1.1774">
        <ele>304.801595</ele>
        <time>2022-01-11T14:25:24.108Z</time>
      </trkpt>
      <trkpt lat="44.41211" lon="1.17733">
        <ele>304.431976</ele>
        <time>2022-01-11T14:25:26.110Z</time>
      </trkpt>
      <trkpt lat="44.41198" lon="1.17728">
        <ele>304.04203</ele>
        <time>2022-01-11T14:25:28.118Z</time>
      </trkpt>
      <trkpt lat="44.41184" lon="1.17726">
        <ele>303.624471</ele>
        <time>2022-01-11T14:25:30.113Z</time>
      </trkpt>
      <trkpt lat="44.41169" lon="1.17732">
        <ele>303.150446</ele>
        <time>2022-01-11T14:25:32.102Z</time>
      </trkpt>
      <trkpt lat="44.4116" lon="1.17737">
        <ele>302.873679</ele>
        <time>2022-01-11T14:25:33.113Z</time>
      </trkpt>
      <trkpt lat="44.41151" lon="1.17739">
        <ele>302.604337</ele>
        <time>2022-01-11T14:25:34.103Z</time>
      </trkpt>
      <trkpt lat="44.41141" lon="1.1774">
        <ele>302.312655</ele>
        <time>2022-01-11T14:25:35.123Z</time>
      </trkpt>
      <trkpt lat="44.41132" lon="1.17737">
        <ele>302.026646</ele>
        <time>2022-01-11T14:25:36.127Z</time>
      </trkpt>
      <trkpt lat="44.41123" lon="1.17732">
        <ele>301.737241</ele>
        <time>2022-01-11T14:25:37.132Z</time>
      </trkpt>
      <trkpt lat="44.41114" lon="1.17727">
        <ele>301.457356</ele>
        <time>2022-01-11T14:25:38.109Z</time>
      </trkpt>
      <trkpt lat="44.41105" lon="1.1772">
        <ele>301.141732</ele>
        <time>2022-01-11T14:25:39.107Z</time>
      </trkpt>
      <trkpt lat="44.41095" lon="1.17714">
        <ele>300.837867</ele>
        <time>2022-01-11T14:25:40.115Z</time>
      </trkpt>
      <trkpt lat="44.41086" lon="1.17709">
        <ele>300.526715</ele>
        <time>2022-01-11T14:25:41.108Z</time>
      </trkpt>
      <trkpt lat="44.41076" lon="1.17703">
        <ele>300.211969</ele>
        <time>2022-01-11T14:25:42.120Z</time>
      </trkpt>
      <trkpt lat="44.41066" lon="1.17698">
        <ele>299.885121</ele>
        <time>2022-01-11T14:25:43.106Z</time>
      </trkpt>
      <trkpt lat="44.41057" lon="1.17693">
        <ele>300.144087</ele>
        <time>2022-01-11T14:25:44.117Z</time>
      </trkpt>
      <trkpt lat="44.41049" lon="1.17687">
        <ele>300.409739</ele>
        <time>2022-01-11T14:25:45.107Z</time>
      </trkpt>
      <trkpt lat="44.4104" lon="1.17682">
        <ele>300.666821</ele>
        <time>2022-01-11T14:25:46.123Z</time>
      </trkpt>
      <trkpt lat="44.41026" lon="1.17673">
        <ele>301.114142</ele>
        <time>2022-01-11T14:25:48.105Z</time>
      </trkpt>
      <trkpt lat="44.41012" lon="1.17665">
        <ele>301.546152</ele>
        <time>2022-01-11T14:25:50.104Z</time>
      </trkpt>
      <trkpt lat="44.41" lon="1.17657">
        <ele>301.928415</ele>
        <time>2022-01-11T14:25:52.120Z</time>
      </trkpt>
      <trkpt lat="44.40989" lon="1.17648">
        <ele>302.287927</ele>
        <time>2022-01-11T14:25:54.108Z</time>
      </trkpt>
      <trkpt lat="44.40978" lon="1.17641">
        <ele>302.634141</ele>
        <time>2022-01-11T14:25:56.126Z</time>
      </trkpt>
      <trkpt lat="44.40967" lon="1.17636">
        <ele>302.948348</ele>
        <time>2022-01-11T14:25:58.112Z</time>
      </trkpt>
      <trkpt lat="44.40957" lon="1.17632">
        <ele>303.235779</ele>
        <time>2022-01-11T14:26:00.104Z</time>
      </trkpt>
      <trkpt lat="44.40947" lon="1.17631">
        <ele>303.534819</ele>
        <time>2022-01-11T14:26:02.116Z</time>
      </trkpt>
      <trkpt lat="44.40935" lon="1.17633">
        <ele>303.869995</ele>
        <time>2022-01-11T14:26:04.110Z</time>
      </trkpt>
      <trkpt lat="44.40925" lon="1.17637">
        <ele>304.182523</ele>
        <time>2022-01-11T14:26:06.121Z</time>
      </trkpt>
      <trkpt lat="44.40916" lon="1.17644">
        <ele>304.476599</ele>
        <time>2022-01-11T14:26:08.127Z</time>
      </trkpt>
      <trkpt lat="44.40908" lon="1.17654">
        <ele>304.759362</ele>
        <time>2022-01-11T14:26:10.114Z</time>
      </trkpt>
      <trkpt lat="44.40902" lon="1.17663">
        <ele>304.993703</ele>
        <time>2022-01-11T14:26:12.111Z</time>
      </trkpt>
      <trkpt lat="44.40895" lon="1.17677">
        <ele>305.089459</ele>
        <time>2022-01-11T14:26:15.118Z</time>
      </trkpt>
      <trkpt lat="44.40888" lon="1.17691">
        <ele>305.179379</ele>
        <time>2022-01-11T14:26:18.106Z</time>
      </trkpt>
      <trkpt lat="44.40884" lon="1.17702">
        <ele>305.249201</ele>
        <time>2022-01-11T14:26:20.114Z</time>
      </trkpt>
      <trkpt lat="44.40878" lon="1.17716">
        <ele>305.340013</ele>
        <time>2022-01-11T14:26:23.114Z</time>
      </trkpt>
      <trkpt lat="44.40871" lon="1.1773">
        <ele>305.433497</ele>
        <time>2022-01-11T14:26:26.106Z</time>
      </trkpt>
      <trkpt lat="44.40862" lon="1.17742">
        <ele>305.525315</ele>
        <time>2022-01-11T14:26:29.112Z</time>
      </trkpt>
      <trkpt lat="44.40851" lon="1.1775">
        <ele>305.623038</ele>
        <time>2022-01-11T14:26:32.108Z</time>
      </trkpt>
      <trkpt lat="44.40838" lon="1.17755">
        <ele>305.722592</ele>
        <time>2022-01-11T14:26:35.107Z</time>
      </trkpt>
      <trkpt lat="44.40825" lon="1.17758">
        <ele>305.823768</ele>
        <time>2022-01-11T14:26:38.108Z</time>
      </trkpt>
      <trkpt lat="44.40812" lon="1.17761">
        <ele>305.92752</ele>
        <time>2022-01-11T14:26:41.111Z</time>
      </trkpt>
      <trkpt lat="44.40802" lon="1.17763">
        <ele>306.004283</ele>
        <time>2022-01-11T14:26:43.122Z</time>
      </trkpt>
      <trkpt lat="44.40791" lon="1.17766">
        <ele>306.085938</ele>
        <time>2022-01-11T14:26:45.118Z</time>
      </trkpt>
      <trkpt lat="44.4078" lon="1.17768">
        <ele>306.17279</ele>
        <time>2022-01-11T14:26:47.104Z</time>
      </trkpt>
      <trkpt lat="44.40769" lon="1.17772">
        <ele>306.260702</ele>
        <time>2022-01-11T14:26:49.108Z</time>
      </trkpt>
      <trkpt lat="44.40758" lon="1.1778">
        <ele>306.354852</ele>
        <time>2022-01-11T14:26:51.112Z</time>
      </trkpt>
      <trkpt lat="44.40748" lon="1.17791">
        <ele>306.206088</ele>
        <time>2022-01-11T14:26:53.106Z</time>
      </trkpt>
      <trkpt lat="44.40739" lon="1.17803">
        <ele>306.027769</ele>
        <time>2022-01-11T14:26:55.108Z</time>
      </trkpt>
      <trkpt lat="44.4073" lon="1.17815">
        <ele>305.849794</ele>
        <time>2022-01-11T14:26:57.111Z</time>
      </trkpt>
      <trkpt lat="44.40721" lon="1.17827">
        <ele>305.68092</ele>
        <time>2022-01-11T14:26:59.102Z</time>
      </trkpt>
      <trkpt lat="44.4071" lon="1.17838">
        <ele>305.501728</ele>
        <time>2022-01-11T14:27:01.105Z</time>
      </trkpt>
      <trkpt lat="44.407" lon="1.17847">
        <ele>305.331947</ele>
        <time>2022-01-11T14:27:03.110Z</time>
      </trkpt>
      <trkpt lat="44.40687" lon="1.17857">
        <ele>305.135215</ele>
        <time>2022-01-11T14:27:05.111Z</time>
      </trkpt>
      <trkpt lat="44.40676" lon="1.17866">
        <ele>304.958484</ele>
        <time>2022-01-11T14:27:07.113Z</time>
      </trkpt>
      <trkpt lat="44.40664" lon="1.17876">
        <ele>304.753779</ele>
        <time>2022-01-11T14:27:09.107Z</time>
      </trkpt>
      <trkpt lat="44.40652" lon="1.17887">
        <ele>304.563934</ele>
        <time>2022-01-11T14:27:11.107Z</time>
      </trkpt>
      <trkpt lat="44.40641" lon="1.17897">
        <ele>304.378635</ele>
        <time>2022-01-11T14:27:13.116Z</time>
      </trkpt>
      <trkpt lat="44.40631" lon="1.17909">
        <ele>304.195609</ele>
        <time>2022-01-11T14:27:15.106Z</time>
      </trkpt>
      <trkpt lat="44.4062" lon="1.17922">
        <ele>303.998182</ele>
        <time>2022-01-11T14:27:17.111Z</time>
      </trkpt>
      <trkpt lat="44.40609" lon="1.17935">
        <ele>304.006482</ele>
        <time>2022-01-11T14:27:19.104Z</time>
      </trkpt>
      <trkpt lat="44.40594" lon="1.17944">
        <ele>304.34689</ele>
        <time>2022-01-11T14:27:21.105Z</time>
      </trkpt>
      <trkpt lat="44.40581" lon="1.1795">
        <ele>304.663765</ele>
        <time>2022-01-11T14:27:23.105Z</time>
      </trkpt>
      <trkpt lat="44.40572" lon="1.17951">
        <ele>304.862357</ele>
        <time>2022-01-11T14:27:24.117Z</time>
      </trkpt>
      <trkpt lat="44.40558" lon="1.17955">
        <ele>305.156884</ele>
        <time>2022-01-11T14:27:26.119Z</time>
      </trkpt>
      <trkpt lat="44.40544" lon="1.17957">
        <ele>305.481979</ele>
        <time>2022-01-11T14:27:28.107Z</time>
      </trkpt>
      <trkpt lat="44.40531" lon="1.17961">
        <ele>305.768167</ele>
        <time>2022-01-11T14:27:30.095Z</time>
      </trkpt>
      <trkpt lat="44.40519" lon="1.17964">
        <ele>306.035401</ele>
        <time>2022-01-11T14:27:32.117Z</time>
      </trkpt>
      <trkpt lat="44.40507" lon="1.17965">
        <ele>306.300679</ele>
        <time>2022-01-11T14:27:34.114Z</time>
      </trkpt>
      <trkpt lat="44.40493" lon="1.17968">
        <ele>306.600698</ele>
        <time>2022-01-11T14:27:36.112Z</time>
      </trkpt>
      <trkpt lat="44.40479" lon="1.17972">
        <ele>306.914568</ele>
        <time>2022-01-11T14:27:38.107Z</time>
      </trkpt>
      <trkpt lat="44.40466" lon="1.17976">
        <ele>307.218015</ele>
        <time>2022-01-11T14:27:40.107Z</time>
      </trkpt>
      <trkpt lat="44.40453" lon="1.17979">
        <ele>307.505266</ele>
        <time>2022-01-11T14:27:42.114Z</time>
      </trkpt>
      <trkpt lat="44.40438" lon="1.17982">
        <ele>307.824598</ele>
        <time>2022-01-11T14:27:44.113Z</time>
      </trkpt>
      <trkpt lat="44.40424" lon="1.17986">
        <ele>307.792992</ele>
        <time>2022-01-11T14:27:46.110Z</time>
      </trkpt>
      <trkpt lat="44.4041" lon="1.17988">
        <ele>307.760187</ele>
        <time>2022-01-11T14:27:48.116Z</time>
      </trkpt>
      <trkpt lat="44.40395" lon="1.17988">
        <ele>307.72796</ele>
        <time>2022-01-11T14:27:50.114Z</time>
      </trkpt>
      <trkpt lat="44.4038" lon="1.17986">
        <ele>307.69411</ele>
        <time>2022-01-11T14:27:52.123Z</time>
      </trkpt>
      <trkpt lat="44.40367" lon="1.17983">
        <ele>307.663502</ele>
        <time>2022-01-11T14:27:54.123Z</time>
      </trkpt>
      <trkpt lat="44.40354" lon="1.17979">
        <ele>307.63274</ele>
        <time>2022-01-11T14:27:56.107Z</time>
      </trkpt>
      <trkpt lat="44.4034" lon="1.17974">
        <ele>307.601793</ele>
        <time>2022-01-11T14:27:58.104Z</time>
      </trkpt>
      <trkpt lat="44.40327" lon="1.17968">
        <ele>307.570399</ele>
        <time>2022-01-11T14:28:00.105Z</time>
      </trkpt>
      <trkpt lat="44.40314" lon="1.17964">
        <ele>307.538942</ele>
        <time>2022-01-11T14:28:02.104Z</time>
      </trkpt>
      <trkpt lat="44.40302" lon="1.17959">
        <ele>307.511422</ele>
        <time>2022-01-11T14:28:04.127Z</time>
      </trkpt>
      <trkpt lat="44.40289" lon="1.17955">
        <ele>307.481355</ele>
        <time>2022-01-11T14:28:06.102Z</time>
      </trkpt>
      <trkpt lat="44.40276" lon="1.17952">
        <ele>307.4531</ele>
        <time>2022-01-11T14:28:08.104Z</time>
      </trkpt>
      <trkpt lat="44.40264" lon="1.17948">
        <ele>307.423358</ele>
        <time>2022-01-11T14:28:10.104Z</time>
      </trkpt>
      <trkpt lat="44.4025" lon="1.17945">
        <ele>307.665393</ele>
        <time>2022-01-11T14:28:12.112Z</time>
      </trkpt>
      <trkpt lat="44.40238" lon="1.17942">
        <ele>307.913068</ele>
        <time>2022-01-11T14:28:14.108Z</time>
      </trkpt>
      <trkpt lat="44.40226" lon="1.17941">
        <ele>308.172295</ele>
        <time>2022-01-11T14:28:16.107Z</time>
      </trkpt>
      <trkpt lat="44.40213" lon="1.1794">
        <ele>308.431522</ele>
        <time>2022-01-11T14:28:18.106Z</time>
      </trkpt>
      <trkpt lat="44.40203" lon="1.17939">
        <ele>308.638741</ele>
        <time>2022-01-11T14:28:20.106Z</time>
      </trkpt>
      <trkpt lat="44.40192" lon="1.17938">
        <ele>308.845835</ele>
        <time>2022-01-11T14:28:22.110Z</time>
      </trkpt>
      <trkpt lat="44.40181" lon="1.17937">
        <ele>309.070786</ele>
        <time>2022-01-11T14:28:24.107Z</time>
      </trkpt>
      <trkpt lat="44.4017" lon="1.17937">
        <ele>309.289296</ele>
        <time>2022-01-11T14:28:26.101Z</time>
      </trkpt>
      <trkpt lat="44.4016" lon="1.17936">
        <ele>309.504577</ele>
        <time>2022-01-11T14:28:28.106Z</time>
      </trkpt>
      <trkpt lat="44.40149" lon="1.17934">
        <ele>309.731952</ele>
        <time>2022-01-11T14:28:30.115Z</time>
      </trkpt>
      <trkpt lat="44.40135" lon="1.17933">
        <ele>310.003307</ele>
        <time>2022-01-11T14:28:33.106Z</time>
      </trkpt>
      <trkpt lat="44.40125" lon="1.17932">
        <ele>310.206369</ele>
        <time>2022-01-11T14:28:35.113Z</time>
      </trkpt>
      <trkpt lat="44.40112" lon="1.17928">
        <ele>310.488937</ele>
        <time>2022-01-11T14:28:38.107Z</time>
      </trkpt>
      <trkpt lat="44.40099" lon="1.17925">
        <ele>310.742597</ele>
        <time>2022-01-11T14:28:40.118Z</time>
      </trkpt>
      <trkpt lat="44.40088" lon="1.17924">
        <ele>310.979668</ele>
        <time>2022-01-11T14:28:42.120Z</time>
      </trkpt>
      <trkpt lat="44.40075" lon="1.17925">
        <ele>311.230087</ele>
        <time>2022-01-11T14:28:44.095Z</time>
      </trkpt>
      <trkpt lat="44.40063" lon="1.17927">
        <ele>311.472726</ele>
        <time>2022-01-11T14:28:46.112Z</time>
      </trkpt>
      <trkpt lat="44.40051" lon="1.1793">
        <ele>311.71494</ele>
        <time>2022-01-11T14:28:48.105Z</time>
      </trkpt>
      <trkpt lat="44.40039" lon="1.17936">
        <ele>311.971435</ele>
        <time>2022-01-11T14:28:50.105Z</time>
      </trkpt>
      <trkpt lat="44.40029" lon="1.17941">
        <ele>312.199962</ele>
        <time>2022-01-11T14:28:52.116Z</time>
      </trkpt>
      <trkpt lat="44.40017" lon="1.17948">
        <ele>312.453877</ele>
        <time>2022-01-11T14:28:54.106Z</time>
      </trkpt>
      <trkpt lat="44.40005" lon="1.17955">
        <ele>312.708148</ele>
        <time>2022-01-11T14:28:56.108Z</time>
      </trkpt>
      <trkpt lat="44.39995" lon="1.17961">
        <ele>312.942262</ele>
        <time>2022-01-11T14:28:58.116Z</time>
      </trkpt>
      <trkpt lat="44.39985" lon="1.17966">
        <ele>313.141289</ele>
        <time>2022-01-11T14:29:00.115Z</time>
      </trkpt>
      <trkpt lat="44.39976" lon="1.17972">
        <ele>313.346935</ele>
        <time>2022-01-11T14:29:02.111Z</time>
      </trkpt>
      <trkpt lat="44.39966" lon="1.17978">
        <ele>313.573361</ele>
        <time>2022-01-11T14:29:04.116Z</time>
      </trkpt>
      <trkpt lat="44.39956" lon="1.17984">
        <ele>313.793108</ele>
        <time>2022-01-11T14:29:06.106Z</time>
      </trkpt>
      <trkpt lat="44.39946" lon="1.1799">
        <ele>314.009137</ele>
        <time>2022-01-11T14:29:08.110Z</time>
      </trkpt>
      <trkpt lat="44.39936" lon="1.17996">
        <ele>314.223874</ele>
        <time>2022-01-11T14:29:10.107Z</time>
      </trkpt>
      <trkpt lat="44.39927" lon="1.18003">
        <ele>314.439978</ele>
        <time>2022-01-11T14:29:12.100Z</time>
      </trkpt>
      <trkpt lat="44.39917" lon="1.18009">
        <ele>314.64858</ele>
        <time>2022-01-11T14:29:14.112Z</time>
      </trkpt>
      <trkpt lat="44.39909" lon="1.18017">
        <ele>314.697989</ele>
        <time>2022-01-11T14:29:16.107Z</time>
      </trkpt>
      <trkpt lat="44.39898" lon="1.18023">
        <ele>314.722348</ele>
        <time>2022-01-11T14:29:18.107Z</time>
      </trkpt>
      <trkpt lat="44.39888" lon="1.1803">
        <ele>314.744688</ele>
        <time>2022-01-11T14:29:20.112Z</time>
      </trkpt>
      <trkpt lat="44.39878" lon="1.18035">
        <ele>314.76665</ele>
        <time>2022-01-11T14:29:22.108Z</time>
      </trkpt>
      <trkpt lat="44.39869" lon="1.1804">
        <ele>314.787147</ele>
        <time>2022-01-11T14:29:24.104Z</time>
      </trkpt>
      <trkpt lat="44.39859" lon="1.18045">
        <ele>314.809549</ele>
        <time>2022-01-11T14:29:26.110Z</time>
      </trkpt>
      <trkpt lat="44.39849" lon="1.18049">
        <ele>314.8309</ele>
        <time>2022-01-11T14:29:28.106Z</time>
      </trkpt>
      <trkpt lat="44.39839" lon="1.18056">
        <ele>314.853856</ele>
        <time>2022-01-11T14:29:30.112Z</time>
      </trkpt>
      <trkpt lat="44.39832" lon="1.18066">
        <ele>314.875332</ele>
        <time>2022-01-11T14:29:32.108Z</time>
      </trkpt>
      <trkpt lat="44.39823" lon="1.18079">
        <ele>314.90098</ele>
        <time>2022-01-11T14:29:34.109Z</time>
      </trkpt>
      <trkpt lat="44.39816" lon="1.18093">
        <ele>314.926236</ele>
        <time>2022-01-11T14:29:36.118Z</time>
      </trkpt>
      <trkpt lat="44.3981" lon="1.18108">
        <ele>314.951729</ele>
        <time>2022-01-11T14:29:38.102Z</time>
      </trkpt>
      <trkpt lat="44.39801" lon="1.18122">
        <ele>314.97908</ele>
        <time>2022-01-11T14:29:40.105Z</time>
      </trkpt>
      <trkpt lat="44.39791" lon="1.18134">
        <ele>315.007394</ele>
        <time>2022-01-11T14:29:42.098Z</time>
      </trkpt>
      <trkpt lat="44.39779" lon="1.18144">
        <ele>315.035543</ele>
        <time>2022-01-11T14:29:44.112Z</time>
      </trkpt>
      <trkpt lat="44.39766" lon="1.1815">
        <ele>314.965765</ele>
        <time>2022-01-11T14:29:46.111Z</time>
      </trkpt>
      <trkpt lat="44.39752" lon="1.18154">
        <ele>314.759735</ele>
        <time>2022-01-11T14:29:48.114Z</time>
      </trkpt>
      <trkpt lat="44.39738" lon="1.18155">
        <ele>314.559045</ele>
        <time>2022-01-11T14:29:50.103Z</time>
      </trkpt>
      <trkpt lat="44.39725" lon="1.1815">
        <ele>314.359247</ele>
        <time>2022-01-11T14:29:52.111Z</time>
      </trkpt>
      <trkpt lat="44.39712" lon="1.18147">
        <ele>314.168092</ele>
        <time>2022-01-11T14:29:54.107Z</time>
      </trkpt>
      <trkpt lat="44.39697" lon="1.18144">
        <ele>313.950123</ele>
        <time>2022-01-11T14:29:56.113Z</time>
      </trkpt>
      <trkpt lat="44.39683" lon="1.18143">
        <ele>313.749178</ele>
        <time>2022-01-11T14:29:58.101Z</time>
      </trkpt>
      <trkpt lat="44.39668" lon="1.18143">
        <ele>313.535531</ele>
        <time>2022-01-11T14:30:00.103Z</time>
      </trkpt>
      <trkpt lat="44.39655" lon="1.18144">
        <ele>313.342103</ele>
        <time>2022-01-11T14:30:02.108Z</time>
      </trkpt>
      <trkpt lat="44.3964" lon="1.18142">
        <ele>313.128039</ele>
        <time>2022-01-11T14:30:04.105Z</time>
      </trkpt>
      <trkpt lat="44.39626" lon="1.18143">
        <ele>312.920173</ele>
        <time>2022-01-11T14:30:06.108Z</time>
      </trkpt>
      <trkpt lat="44.39611" lon="1.18144">
        <ele>312.701544</ele>
        <time>2022-01-11T14:30:08.112Z</time>
      </trkpt>
      <trkpt lat="44.39595" lon="1.18147">
        <ele>312.46563</ele>
        <time>2022-01-11T14:30:10.102Z</time>
      </trkpt>
      <trkpt lat="44.39577" lon="1.1815">
        <ele>312.344477</ele>
        <time>2022-01-11T14:30:12.128Z</time>
      </trkpt>
      <trkpt lat="44.39568" lon="1.18151">
        <ele>312.291976</ele>
        <time>2022-01-11T14:30:13.099Z</time>
      </trkpt>
      <trkpt lat="44.39552" lon="1.18156">
        <ele>312.193442</ele>
        <time>2022-01-11T14:30:15.112Z</time>
      </trkpt>
      <trkpt lat="44.39543" lon="1.18159">
        <ele>312.140192</ele>
        <time>2022-01-11T14:30:16.106Z</time>
      </trkpt>
      <trkpt lat="44.39526" lon="1.18164">
        <ele>312.041978</ele>
        <time>2022-01-11T14:30:18.110Z</time>
      </trkpt>
      <trkpt lat="44.39509" lon="1.1817">
        <ele>311.939597</ele>
        <time>2022-01-11T14:30:20.103Z</time>
      </trkpt>
      <trkpt lat="44.39493" lon="1.18175">
        <ele>311.839971</ele>
        <time>2022-01-11T14:30:22.110Z</time>
      </trkpt>
      <trkpt lat="44.39476" lon="1.18181">
        <ele>311.740127</ele>
        <time>2022-01-11T14:30:24.113Z</time>
      </trkpt>
      <trkpt lat="44.39462" lon="1.18187">
        <ele>311.649026</ele>
        <time>2022-01-11T14:30:26.108Z</time>
      </trkpt>
      <trkpt lat="44.39445" lon="1.1819">
        <ele>311.551244</ele>
        <time>2022-01-11T14:30:28.109Z</time>
      </trkpt>
      <trkpt lat="44.39428" lon="1.18191">
        <ele>311.452702</ele>
        <time>2022-01-11T14:30:30.105Z</time>
      </trkpt>
      <trkpt lat="44.39413" lon="1.18192">
        <ele>311.335402</ele>
        <time>2022-01-11T14:30:32.113Z</time>
      </trkpt>
      <trkpt lat="44.39398" lon="1.18191">
        <ele>311.146703</ele>
        <time>2022-01-11T14:30:34.104Z</time>
      </trkpt>
      <trkpt lat="44.39383" lon="1.18192">
        <ele>310.942455</ele>
        <time>2022-01-11T14:30:36.102Z</time>
      </trkpt>
      <trkpt lat="44.39367" lon="1.18192">
        <ele>310.746056</ele>
        <time>2022-01-11T14:30:38.113Z</time>
      </trkpt>
      <trkpt lat="44.39351" lon="1.18193">
        <ele>310.536196</ele>
        <time>2022-01-11T14:30:40.106Z</time>
      </trkpt>
      <trkpt lat="44.39336" lon="1.18196">
        <ele>310.340411</ele>
        <time>2022-01-11T14:30:42.107Z</time>
      </trkpt>
      <trkpt lat="44.39321" lon="1.182">
        <ele>310.141345</ele>
        <time>2022-01-11T14:30:44.105Z</time>
      </trkpt>
      <trkpt lat="44.39308" lon="1.18205">
        <ele>309.955226</ele>
        <time>2022-01-11T14:30:46.106Z</time>
      </trkpt>
      <trkpt lat="44.39294" lon="1.18211">
        <ele>309.7671</ele>
        <time>2022-01-11T14:30:48.115Z</time>
      </trkpt>
      <trkpt lat="44.39278" lon="1.18215">
        <ele>309.55443</ele>
        <time>2022-01-11T14:30:50.108Z</time>
      </trkpt>
      <trkpt lat="44.39261" lon="1.18221">
        <ele>309.336239</ele>
        <time>2022-01-11T14:30:52.121Z</time>
      </trkpt>
      <trkpt lat="44.39245" lon="1.18227">
        <ele>309.111408</ele>
        <time>2022-01-11T14:30:54.100Z</time>
      </trkpt>
      <trkpt lat="44.39235" lon="1.1823">
        <ele>308.932663</ele>
        <time>2022-01-11T14:30:55.113Z</time>
      </trkpt>
      <trkpt lat="44.39226" lon="1.18234">
        <ele>308.690782</ele>
        <time>2022-01-11T14:30:56.100Z</time>
      </trkpt>
      <trkpt lat="44.39209" lon="1.1824">
        <ele>308.222232</ele>
        <time>2022-01-11T14:30:58.107Z</time>
      </trkpt>
      <trkpt lat="44.39199" lon="1.18243">
        <ele>307.966806</ele>
        <time>2022-01-11T14:30:59.099Z</time>
      </trkpt>
      <trkpt lat="44.3919" lon="1.18247">
        <ele>307.727224</ele>
        <time>2022-01-11T14:31:00.102Z</time>
      </trkpt>
      <trkpt lat="44.39181" lon="1.18251">
        <ele>307.48287</ele>
        <time>2022-01-11T14:31:01.103Z</time>
      </trkpt>
      <trkpt lat="44.39163" lon="1.18259">
        <ele>307.001264</ele>
        <time>2022-01-11T14:31:03.122Z</time>
      </trkpt>
      <trkpt lat="44.39154" lon="1.18262">
        <ele>306.757846</ele>
        <time>2022-01-11T14:31:04.105Z</time>
      </trkpt>
      <trkpt lat="44.39145" lon="1.18268">
        <ele>306.514664</ele>
        <time>2022-01-11T14:31:05.110Z</time>
      </trkpt>
      <trkpt lat="44.39136" lon="1.18273">
        <ele>306.267474</ele>
        <time>2022-01-11T14:31:06.116Z</time>
      </trkpt>
      <trkpt lat="44.39127" lon="1.18278">
        <ele>306.002534</ele>
        <time>2022-01-11T14:31:07.115Z</time>
      </trkpt>
      <trkpt lat="44.39117" lon="1.18284">
        <ele>305.741401</ele>
        <time>2022-01-11T14:31:08.105Z</time>
      </trkpt>
      <trkpt lat="44.39108" lon="1.1829">
        <ele>305.492094</ele>
        <time>2022-01-11T14:31:09.107Z</time>
      </trkpt>
      <trkpt lat="44.39099" lon="1.18295">
        <ele>305.229557</ele>
        <time>2022-01-11T14:31:10.108Z</time>
      </trkpt>
      <trkpt lat="44.3909" lon="1.18298">
        <ele>304.986138</ele>
        <time>2022-01-11T14:31:11.100Z</time>
      </trkpt>
      <trkpt lat="44.39079" lon="1.183">
        <ele>304.720732</ele>
        <time>2022-01-11T14:31:12.111Z</time>
      </trkpt>
      <trkpt lat="44.3907" lon="1.18304">
        <ele>304.471428</ele>
        <time>2022-01-11T14:31:13.112Z</time>
      </trkpt>
      <trkpt lat="44.3906" lon="1.18307">
        <ele>304.036471</ele>
        <time>2022-01-11T14:31:14.116Z</time>
      </trkpt>
      <trkpt lat="44.39051" lon="1.1831">
        <ele>303.592768</ele>
        <time>2022-01-11T14:31:15.107Z</time>
      </trkpt>
      <trkpt lat="44.39041" lon="1.18312">
        <ele>303.150778</ele>
        <time>2022-01-11T14:31:16.109Z</time>
      </trkpt>
      <trkpt lat="44.39031" lon="1.18315">
        <ele>302.667865</ele>
        <time>2022-01-11T14:31:17.105Z</time>
      </trkpt>
      <trkpt lat="44.39021" lon="1.18319">
        <ele>302.196661</ele>
        <time>2022-01-11T14:31:18.114Z</time>
      </trkpt>
      <trkpt lat="44.39011" lon="1.18322">
        <ele>301.736028</ele>
        <time>2022-01-11T14:31:19.104Z</time>
      </trkpt>
      <trkpt lat="44.39001" lon="1.18325">
        <ele>301.274269</ele>
        <time>2022-01-11T14:31:20.097Z</time>
      </trkpt>
      <trkpt lat="44.38992" lon="1.18327">
        <ele>300.853725</ele>
        <time>2022-01-11T14:31:21.106Z</time>
      </trkpt>
      <trkpt lat="44.38983" lon="1.1833">
        <ele>300.423828</ele>
        <time>2022-01-11T14:31:22.113Z</time>
      </trkpt>
      <trkpt lat="44.38974" lon="1.18333">
        <ele>299.998388</ele>
        <time>2022-01-11T14:31:23.106Z</time>
      </trkpt>
      <trkpt lat="44.38965" lon="1.18336">
        <ele>299.554067</ele>
        <time>2022-01-11T14:31:24.106Z</time>
      </trkpt>
      <trkpt lat="44.38956" lon="1.18339">
        <ele>299.121196</ele>
        <time>2022-01-11T14:31:25.112Z</time>
      </trkpt>
      <trkpt lat="44.38938" lon="1.18344">
        <ele>298.312073</ele>
        <time>2022-01-11T14:31:27.102Z</time>
      </trkpt>
      <trkpt lat="44.3893" lon="1.18348">
        <ele>297.893734</ele>
        <time>2022-01-11T14:31:28.116Z</time>
      </trkpt>
      <trkpt lat="44.38913" lon="1.18355">
        <ele>297.107669</ele>
        <time>2022-01-11T14:31:30.109Z</time>
      </trkpt>
      <trkpt lat="44.38904" lon="1.18359">
        <ele>296.670052</ele>
        <time>2022-01-11T14:31:31.113Z</time>
      </trkpt>
      <trkpt lat="44.38895" lon="1.18362">
        <ele>296.256303</ele>
        <time>2022-01-11T14:31:32.106Z</time>
      </trkpt>
      <trkpt lat="44.38886" lon="1.18365">
        <ele>295.457354</ele>
        <time>2022-01-11T14:31:33.114Z</time>
      </trkpt>
      <trkpt lat="44.38868" lon="1.18372">
        <ele>293.632004</ele>
        <time>2022-01-11T14:31:35.100Z</time>
      </trkpt>
      <trkpt lat="44.38859" lon="1.18377">
        <ele>292.709651</ele>
        <time>2022-01-11T14:31:36.114Z</time>
      </trkpt>
      <trkpt lat="44.38847" lon="1.1838">
        <ele>291.615912</ele>
        <time>2022-01-11T14:31:37.109Z</time>
      </trkpt>
      <trkpt lat="44.38838" lon="1.18383">
        <ele>290.710501</ele>
        <time>2022-01-11T14:31:38.113Z</time>
      </trkpt>
      <trkpt lat="44.38827" lon="1.18385">
        <ele>289.666685</ele>
        <time>2022-01-11T14:31:39.109Z</time>
      </trkpt>
      <trkpt lat="44.38819" lon="1.18391">
        <ele>288.758204</ele>
        <time>2022-01-11T14:31:40.105Z</time>
      </trkpt>
      <trkpt lat="44.38808" lon="1.18395">
        <ele>287.690876</ele>
        <time>2022-01-11T14:31:41.101Z</time>
      </trkpt>
      <trkpt lat="44.38797" lon="1.18397">
        <ele>286.648822</ele>
        <time>2022-01-11T14:31:42.102Z</time>
      </trkpt>
      <trkpt lat="44.38786" lon="1.18399">
        <ele>285.608025</ele>
        <time>2022-01-11T14:31:43.100Z</time>
      </trkpt>
      <trkpt lat="44.38775" lon="1.184">
        <ele>284.532934</ele>
        <time>2022-01-11T14:31:44.095Z</time>
      </trkpt>
      <trkpt lat="44.38765" lon="1.18403">
        <ele>283.572601</ele>
        <time>2022-01-11T14:31:45.103Z</time>
      </trkpt>
      <trkpt lat="44.38753" lon="1.18404">
        <ele>282.488982</ele>
        <time>2022-01-11T14:31:46.102Z</time>
      </trkpt>
      <trkpt lat="44.38743" lon="1.18405">
        <ele>281.551301</ele>
        <time>2022-01-11T14:31:47.100Z</time>
      </trkpt>
      <trkpt lat="44.38733" lon="1.18406">
        <ele>280.600661</ele>
        <time>2022-01-11T14:31:48.112Z</time>
      </trkpt>
      <trkpt lat="44.38722" lon="1.18407">
        <ele>279.554913</ele>
        <time>2022-01-11T14:31:49.104Z</time>
      </trkpt>
      <trkpt lat="44.38712" lon="1.18409">
        <ele>278.728116</ele>
        <time>2022-01-11T14:31:50.114Z</time>
      </trkpt>
      <trkpt lat="44.38702" lon="1.18411">
        <ele>278.058021</ele>
        <time>2022-01-11T14:31:51.100Z</time>
      </trkpt>
      <trkpt lat="44.38691" lon="1.18411">
        <ele>277.392651</ele>
        <time>2022-01-11T14:31:52.118Z</time>
      </trkpt>
      <trkpt lat="44.38681" lon="1.18412">
        <ele>276.708565</ele>
        <time>2022-01-11T14:31:53.103Z</time>
      </trkpt>
      <trkpt lat="44.38671" lon="1.18414">
        <ele>276.100957</ele>
        <time>2022-01-11T14:31:54.108Z</time>
      </trkpt>
      <trkpt lat="44.38662" lon="1.18418">
        <ele>275.453562</ele>
        <time>2022-01-11T14:31:55.122Z</time>
      </trkpt>
      <trkpt lat="44.38653" lon="1.18424">
        <ele>274.820313</ele>
        <time>2022-01-11T14:31:56.110Z</time>
      </trkpt>
      <trkpt lat="44.38644" lon="1.1843">
        <ele>274.188479</ele>
        <time>2022-01-11T14:31:57.113Z</time>
      </trkpt>
      <trkpt lat="44.38635" lon="1.18438">
        <ele>273.519047</ele>
        <time>2022-01-11T14:31:58.104Z</time>
      </trkpt>
      <trkpt lat="44.38627" lon="1.18447">
        <ele>272.860437</ele>
        <time>2022-01-11T14:31:59.102Z</time>
      </trkpt>
      <trkpt lat="44.38623" lon="1.18458">
        <ele>272.260131</ele>
        <time>2022-01-11T14:32:00.109Z</time>
      </trkpt>
      <trkpt lat="44.38616" lon="1.18469">
        <ele>271.580316</ele>
        <time>2022-01-11T14:32:01.114Z</time>
      </trkpt>
      <trkpt lat="44.38608" lon="1.18479">
        <ele>270.908936</ele>
        <time>2022-01-11T14:32:02.114Z</time>
      </trkpt>
      <trkpt lat="44.38594" lon="1.18499">
        <ele>269.620504</ele>
        <time>2022-01-11T14:32:04.104Z</time>
      </trkpt>
      <trkpt lat="44.38584" lon="1.18507">
        <ele>268.882789</ele>
        <time>2022-01-11T14:32:05.104Z</time>
      </trkpt>
      <trkpt lat="44.38574" lon="1.18514">
        <ele>268.154004</ele>
        <time>2022-01-11T14:32:06.114Z</time>
      </trkpt>
      <trkpt lat="44.38565" lon="1.18518">
        <ele>267.542075</ele>
        <time>2022-01-11T14:32:07.110Z</time>
      </trkpt>
      <trkpt lat="44.38556" lon="1.18522">
        <ele>267.130049</ele>
        <time>2022-01-11T14:32:08.110Z</time>
      </trkpt>
      <trkpt lat="44.38547" lon="1.18523">
        <ele>266.720981</ele>
        <time>2022-01-11T14:32:09.101Z</time>
      </trkpt>
      <trkpt lat="44.38536" lon="1.18523">
        <ele>266.278413</ele>
        <time>2022-01-11T14:32:10.116Z</time>
      </trkpt>
      <trkpt lat="44.38525" lon="1.1852">
        <ele>265.812083</ele>
        <time>2022-01-11T14:32:11.106Z</time>
      </trkpt>
      <trkpt lat="44.38515" lon="1.18518">
        <ele>265.378698</ele>
        <time>2022-01-11T14:32:12.106Z</time>
      </trkpt>
      <trkpt lat="44.38505" lon="1.18515">
        <ele>264.936953</ele>
        <time>2022-01-11T14:32:13.102Z</time>
      </trkpt>
      <trkpt lat="44.38494" lon="1.18513">
        <ele>264.479038</ele>
        <time>2022-01-11T14:32:14.108Z</time>
      </trkpt>
      <trkpt lat="44.38485" lon="1.18513">
        <ele>264.057483</ele>
        <time>2022-01-11T14:32:15.117Z</time>
      </trkpt>
      <trkpt lat="44.38475" lon="1.18516">
        <ele>263.634751</ele>
        <time>2022-01-11T14:32:16.103Z</time>
      </trkpt>
      <trkpt lat="44.38466" lon="1.18519">
        <ele>263.238839</ele>
        <time>2022-01-11T14:32:17.109Z</time>
      </trkpt>
      <trkpt lat="44.38457" lon="1.18525">
        <ele>262.82604</ele>
        <time>2022-01-11T14:32:18.116Z</time>
      </trkpt>
      <trkpt lat="44.3844" lon="1.18535">
        <ele>262.031394</ele>
        <time>2022-01-11T14:32:20.114Z</time>
      </trkpt>
      <trkpt lat="44.38432" lon="1.18542">
        <ele>261.632528</ele>
        <time>2022-01-11T14:32:21.108Z</time>
      </trkpt>
      <trkpt lat="44.38424" lon="1.18549">
        <ele>261.238438</ele>
        <time>2022-01-11T14:32:22.112Z</time>
      </trkpt>
      <trkpt lat="44.38416" lon="1.18556">
        <ele>260.837243</ele>
        <time>2022-01-11T14:32:23.104Z</time>
      </trkpt>
      <trkpt lat="44.38408" lon="1.18563">
        <ele>260.452468</ele>
        <time>2022-01-11T14:32:24.105Z</time>
      </trkpt>
      <trkpt lat="44.384" lon="1.18569">
        <ele>260.056627</ele>
        <time>2022-01-11T14:32:25.103Z</time>
      </trkpt>
      <trkpt lat="44.38392" lon="1.18576">
        <ele>260.101238</ele>
        <time>2022-01-11T14:32:26.124Z</time>
      </trkpt>
      <trkpt lat="44.38377" lon="1.18589">
        <ele>261.056253</ele>
        <time>2022-01-11T14:32:28.106Z</time>
      </trkpt>
      <trkpt lat="44.38369" lon="1.18596">
        <ele>261.542993</ele>
        <time>2022-01-11T14:32:29.115Z</time>
      </trkpt>
      <trkpt lat="44.38361" lon="1.18604">
        <ele>262.038046</ele>
        <time>2022-01-11T14:32:30.116Z</time>
      </trkpt>
      <trkpt lat="44.38354" lon="1.18612">
        <ele>262.546139</ele>
        <time>2022-01-11T14:32:31.106Z</time>
      </trkpt>
      <trkpt lat="44.38346" lon="1.1862">
        <ele>263.058323</ele>
        <time>2022-01-11T14:32:32.108Z</time>
      </trkpt>
      <trkpt lat="44.38338" lon="1.18627">
        <ele>263.52985</ele>
        <time>2022-01-11T14:32:33.106Z</time>
      </trkpt>
      <trkpt lat="44.38324" lon="1.18639">
        <ele>264.380286</ele>
        <time>2022-01-11T14:32:35.112Z</time>
      </trkpt>
      <trkpt lat="44.38313" lon="1.18651">
        <ele>265.134629</ele>
        <time>2022-01-11T14:32:37.104Z</time>
      </trkpt>
      <trkpt lat="44.38298" lon="1.18659">
        <ele>265.943014</ele>
        <time>2022-01-11T14:32:39.108Z</time>
      </trkpt>
      <trkpt lat="44.38283" lon="1.18664">
        <ele>266.736864</ele>
        <time>2022-01-11T14:32:41.114Z</time>
      </trkpt>
      <trkpt lat="44.38274" lon="1.18663">
        <ele>267.213236</ele>
        <time>2022-01-11T14:32:42.109Z</time>
      </trkpt>
      <trkpt lat="44.38258" lon="1.18662">
        <ele>268.045349</ele>
        <time>2022-01-11T14:32:44.109Z</time>
      </trkpt>
      <trkpt lat="44.38242" lon="1.18661">
        <ele>268.915241</ele>
        <time>2022-01-11T14:32:46.104Z</time>
      </trkpt>
      <trkpt lat="44.38226" lon="1.18661">
        <ele>269.165363</ele>
        <time>2022-01-11T14:32:48.107Z</time>
      </trkpt>
      <trkpt lat="44.38211" lon="1.18661">
        <ele>268.989426</ele>
        <time>2022-01-11T14:32:50.107Z</time>
      </trkpt>
      <trkpt lat="44.38198" lon="1.18663">
        <ele>268.832474</ele>
        <time>2022-01-11T14:32:52.111Z</time>
      </trkpt>
      <trkpt lat="44.38185" lon="1.18665">
        <ele>268.685742</ele>
        <time>2022-01-11T14:32:54.114Z</time>
      </trkpt>
      <trkpt lat="44.38174" lon="1.18668">
        <ele>268.550792</ele>
        <time>2022-01-11T14:32:56.105Z</time>
      </trkpt>
      <trkpt lat="44.38163" lon="1.18672">
        <ele>268.426212</ele>
        <time>2022-01-11T14:32:58.110Z</time>
      </trkpt>
      <trkpt lat="44.38151" lon="1.18669">
        <ele>268.283233</ele>
        <time>2022-01-11T14:33:02.114Z</time>
      </trkpt>
      <trkpt lat="44.38148" lon="1.18652">
        <ele>268.139494</ele>
        <time>2022-01-11T14:33:05.113Z</time>
      </trkpt>
      <trkpt lat="44.38148" lon="1.18632">
        <ele>267.967985</ele>
        <time>2022-01-11T14:33:08.108Z</time>
      </trkpt>
      <trkpt lat="44.3815" lon="1.18615">
        <ele>267.828849</ele>
        <time>2022-01-11T14:33:10.110Z</time>
      </trkpt>
      <trkpt lat="44.38151" lon="1.186">
        <ele>267.699074</ele>
        <time>2022-01-11T14:33:12.118Z</time>
      </trkpt>
      <trkpt lat="44.38151" lon="1.18585">
        <ele>267.574998</ele>
        <time>2022-01-11T14:33:14.112Z</time>
      </trkpt>
      <trkpt lat="44.38153" lon="1.1857">
        <ele>267.448756</ele>
        <time>2022-01-11T14:33:16.106Z</time>
      </trkpt>
      <trkpt lat="44.38156" lon="1.18552">
        <ele>267.297601</ele>
        <time>2022-01-11T14:33:18.110Z</time>
      </trkpt>
      <trkpt lat="44.38155" lon="1.18536">
        <ele>267.147482</ele>
        <time>2022-01-11T14:33:20.113Z</time>
      </trkpt>
      <trkpt lat="44.38155" lon="1.18517">
        <ele>266.772079</ele>
        <time>2022-01-11T14:33:22.089Z</time>
      </trkpt>
      <trkpt lat="44.38154" lon="1.18499">
        <ele>266.414294</ele>
        <time>2022-01-11T14:33:24.100Z</time>
      </trkpt>
      <trkpt lat="44.38153" lon="1.18483">
        <ele>266.085661</ele>
        <time>2022-01-11T14:33:26.093Z</time>
      </trkpt>
      <trkpt lat="44.38153" lon="1.18464">
        <ele>265.715771</ele>
        <time>2022-01-11T14:33:28.091Z</time>
      </trkpt>
      <trkpt lat="44.38153" lon="1.18446">
        <ele>265.340399</ele>
        <time>2022-01-11T14:33:30.100Z</time>
      </trkpt>
      <trkpt lat="44.38151" lon="1.1843">
        <ele>265.031814</ele>
        <time>2022-01-11T14:33:32.114Z</time>
      </trkpt>
      <trkpt lat="44.38145" lon="1.18416">
        <ele>264.707129</ele>
        <time>2022-01-11T14:33:34.109Z</time>
      </trkpt>
      <trkpt lat="44.38139" lon="1.18403">
        <ele>264.398466</ele>
        <time>2022-01-11T14:33:36.110Z</time>
      </trkpt>
      <trkpt lat="44.38132" lon="1.18391">
        <ele>264.083117</ele>
        <time>2022-01-11T14:33:38.117Z</time>
      </trkpt>
      <trkpt lat="44.38125" lon="1.18378">
        <ele>263.764478</ele>
        <time>2022-01-11T14:33:40.117Z</time>
      </trkpt>
      <trkpt lat="44.38118" lon="1.18365">
        <ele>263.435766</ele>
        <time>2022-01-11T14:33:42.109Z</time>
      </trkpt>
      <trkpt lat="44.38112" lon="1.18352">
        <ele>263.117529</ele>
        <time>2022-01-11T14:33:44.113Z</time>
      </trkpt>
      <trkpt lat="44.38107" lon="1.18337">
        <ele>262.793616</ele>
        <time>2022-01-11T14:33:46.108Z</time>
      </trkpt>
      <trkpt lat="44.38101" lon="1.18322">
        <ele>262.461022</ele>
        <time>2022-01-11T14:33:48.108Z</time>
      </trkpt>
      <trkpt lat="44.38094" lon="1.18309">
        <ele>262.160806</ele>
        <time>2022-01-11T14:33:50.122Z</time>
      </trkpt>
      <trkpt lat="44.38087" lon="1.18296">
        <ele>262.326335</ele>
        <time>2022-01-11T14:33:52.121Z</time>
      </trkpt>
      <trkpt lat="44.3808" lon="1.18281">
        <ele>262.497027</ele>
        <time>2022-01-11T14:33:54.112Z</time>
      </trkpt>
      <trkpt lat="44.38074" lon="1.18265">
        <ele>262.680044</ele>
        <time>2022-01-11T14:33:56.106Z</time>
      </trkpt>
      <trkpt lat="44.38067" lon="1.18252">
        <ele>262.840719</ele>
        <time>2022-01-11T14:33:58.108Z</time>
      </trkpt>
      <trkpt lat="44.38059" lon="1.18238">
        <ele>263.014119</ele>
        <time>2022-01-11T14:34:00.111Z</time>
      </trkpt>
      <trkpt lat="44.38051" lon="1.18225">
        <ele>263.185108</ele>
        <time>2022-01-11T14:34:02.113Z</time>
      </trkpt>
      <trkpt lat="44.38041" lon="1.18211">
        <ele>263.391072</ele>
        <time>2022-01-11T14:34:04.121Z</time>
      </trkpt>
      <trkpt lat="44.38033" lon="1.18198">
        <ele>263.55483</ele>
        <time>2022-01-11T14:34:06.116Z</time>
      </trkpt>
      <trkpt lat="44.38025" lon="1.18184">
        <ele>263.737539</ele>
        <time>2022-01-11T14:34:08.115Z</time>
      </trkpt>
      <trkpt lat="44.38018" lon="1.18172">
        <ele>263.893162</ele>
        <time>2022-01-11T14:34:10.110Z</time>
      </trkpt>
      <trkpt lat="44.38011" lon="1.1816">
        <ele>264.038749</ele>
        <time>2022-01-11T14:34:12.114Z</time>
      </trkpt>
      <trkpt lat="44.38003" lon="1.18144">
        <ele>264.237484</ele>
        <time>2022-01-11T14:34:14.101Z</time>
      </trkpt>
      <trkpt lat="44.37997" lon="1.18128">
        <ele>264.410226</ele>
        <time>2022-01-11T14:34:16.109Z</time>
      </trkpt>
      <trkpt lat="44.3799" lon="1.18113">
        <ele>264.589591</ele>
        <time>2022-01-11T14:34:18.102Z</time>
      </trkpt>
      <trkpt lat="44.37986" lon="1.18096">
        <ele>264.69984</ele>
        <time>2022-01-11T14:34:20.113Z</time>
      </trkpt>
      <trkpt lat="44.37982" lon="1.1808">
        <ele>264.772056</ele>
        <time>2022-01-11T14:34:22.112Z</time>
      </trkpt>
      <trkpt lat="44.37978" lon="1.18057">
        <ele>264.869178</ele>
        <time>2022-01-11T14:34:24.102Z</time>
      </trkpt>
      <trkpt lat="44.37975" lon="1.18044">
        <ele>264.924697</ele>
        <time>2022-01-11T14:34:25.110Z</time>
      </trkpt>
      <trkpt lat="44.37973" lon="1.18024">
        <ele>265.009968</ele>
        <time>2022-01-11T14:34:27.104Z</time>
      </trkpt>
      <trkpt lat="44.37969" lon="1.18008">
        <ele>265.080838</ele>
        <time>2022-01-11T14:34:29.113Z</time>
      </trkpt>
      <trkpt lat="44.37967" lon="1.17988">
        <ele>265.163131</ele>
        <time>2022-01-11T14:34:31.114Z</time>
      </trkpt>
      <trkpt lat="44.37963" lon="1.17974">
        <ele>265.226891</ele>
        <time>2022-01-11T14:34:33.118Z</time>
      </trkpt>
      <trkpt lat="44.37957" lon="1.17956">
        <ele>265.312631</ele>
        <time>2022-01-11T14:34:35.114Z</time>
      </trkpt>
      <trkpt lat="44.37949" lon="1.17939">
        <ele>265.393696</ele>
        <time>2022-01-11T14:34:37.102Z</time>
      </trkpt>
      <trkpt lat="44.37944" lon="1.17918">
        <ele>265.48912</ele>
        <time>2022-01-11T14:34:39.104Z</time>
      </trkpt>
      <trkpt lat="44.3794" lon="1.17899">
        <ele>265.57016</ele>
        <time>2022-01-11T14:34:41.104Z</time>
      </trkpt>
      <trkpt lat="44.37933" lon="1.17881">
        <ele>265.656019</ele>
        <time>2022-01-11T14:34:43.113Z</time>
      </trkpt>
      <trkpt lat="44.37926" lon="1.17862">
        <ele>265.73941</ele>
        <time>2022-01-11T14:34:45.112Z</time>
      </trkpt>
      <trkpt lat="44.37922" lon="1.17843">
        <ele>265.814425</ele>
        <time>2022-01-11T14:34:47.107Z</time>
      </trkpt>
      <trkpt lat="44.37917" lon="1.17824">
        <ele>265.89229</ele>
        <time>2022-01-11T14:34:49.112Z</time>
      </trkpt>
      <trkpt lat="44.37911" lon="1.17805">
        <ele>265.967795</ele>
        <time>2022-01-11T14:34:51.115Z</time>
      </trkpt>
      <trkpt lat="44.37907" lon="1.17784">
        <ele>266.050852</ele>
        <time>2022-01-11T14:34:53.106Z</time>
      </trkpt>
      <trkpt lat="44.37902" lon="1.17765">
        <ele>266.128724</ele>
        <time>2022-01-11T14:34:55.119Z</time>
      </trkpt>
      <trkpt lat="44.37897" lon="1.17751">
        <ele>266.188537</ele>
        <time>2022-01-11T14:34:57.104Z</time>
      </trkpt>
      <trkpt lat="44.37889" lon="1.17732">
        <ele>266.271328</ele>
        <time>2022-01-11T14:34:59.104Z</time>
      </trkpt>
      <trkpt lat="44.37881" lon="1.17717">
        <ele>266.339864</ele>
        <time>2022-01-11T14:35:01.112Z</time>
      </trkpt>
      <trkpt lat="44.37876" lon="1.17702">
        <ele>266.404757</ele>
        <time>2022-01-11T14:35:03.110Z</time>
      </trkpt>
      <trkpt lat="44.37865" lon="1.17686">
        <ele>266.486766</ele>
        <time>2022-01-11T14:35:05.105Z</time>
      </trkpt>
      <trkpt lat="44.37857" lon="1.17671">
        <ele>266.55864</ele>
        <time>2022-01-11T14:35:07.116Z</time>
      </trkpt>
      <trkpt lat="44.37847" lon="1.17657">
        <ele>266.631</ele>
        <time>2022-01-11T14:35:09.104Z</time>
      </trkpt>
      <trkpt lat="44.37839" lon="1.17641">
        <ele>266.64935</ele>
        <time>2022-01-11T14:35:11.117Z</time>
      </trkpt>
      <trkpt lat="44.37831" lon="1.17626">
        <ele>266.65033</ele>
        <time>2022-01-11T14:35:13.107Z</time>
      </trkpt>
      <trkpt lat="44.37824" lon="1.17612">
        <ele>266.651254</ele>
        <time>2022-01-11T14:35:15.108Z</time>
      </trkpt>
      <trkpt lat="44.37822" lon="1.17597">
        <ele>266.652065</ele>
        <time>2022-01-11T14:35:17.103Z</time>
      </trkpt>
      <trkpt lat="44.37821" lon="1.17581">
        <ele>266.652929</ele>
        <time>2022-01-11T14:35:19.110Z</time>
      </trkpt>
      <trkpt lat="44.37821" lon="1.1756">
        <ele>266.654058</ele>
        <time>2022-01-11T14:35:21.112Z</time>
      </trkpt>
      <trkpt lat="44.37826" lon="1.17537">
        <ele>266.65539</ele>
        <time>2022-01-11T14:35:23.106Z</time>
      </trkpt>
      <trkpt lat="44.37834" lon="1.17529">
        <ele>266.656131</ele>
        <time>2022-01-11T14:35:24.105Z</time>
      </trkpt>
      <trkpt lat="44.37824" lon="1.17515">
        <ele>266.657161</ele>
        <time>2022-01-11T14:35:25.110Z</time>
      </trkpt>
      <trkpt lat="44.37819" lon="1.175">
        <ele>266.65809</ele>
        <time>2022-01-11T14:35:26.107Z</time>
      </trkpt>
      <trkpt lat="44.37809" lon="1.17491">
        <ele>266.658948</ele>
        <time>2022-01-11T14:35:28.106Z</time>
      </trkpt>
      <trkpt lat="44.37806" lon="1.17471">
        <ele>266.660054</ele>
        <time>2022-01-11T14:35:29.111Z</time>
      </trkpt>
      <trkpt lat="44.37795" lon="1.17458">
        <ele>266.66115</ele>
        <time>2022-01-11T14:35:31.112Z</time>
      </trkpt>
      <trkpt lat="44.37785" lon="1.17445">
        <ele>266.660928</ele>
        <time>2022-01-11T14:35:33.110Z</time>
      </trkpt>
      <trkpt lat="44.37774" lon="1.1743">
        <ele>266.615509</ele>
        <time>2022-01-11T14:35:35.113Z</time>
      </trkpt>
      <trkpt lat="44.37767" lon="1.17421">
        <ele>266.588034</ele>
        <time>2022-01-11T14:35:36.098Z</time>
      </trkpt>
      <trkpt lat="44.37756" lon="1.174">
        <ele>266.537096</ele>
        <time>2022-01-11T14:35:38.101Z</time>
      </trkpt>
      <trkpt lat="44.37748" lon="1.17382">
        <ele>266.493566</ele>
        <time>2022-01-11T14:35:40.115Z</time>
      </trkpt>
      <trkpt lat="44.37738" lon="1.1737">
        <ele>266.455989</ele>
        <time>2022-01-11T14:35:42.104Z</time>
      </trkpt>
      <trkpt lat="44.3773" lon="1.17351">
        <ele>266.410919</ele>
        <time>2022-01-11T14:35:44.109Z</time>
      </trkpt>
      <trkpt lat="44.37719" lon="1.17336">
        <ele>266.367603</ele>
        <time>2022-01-11T14:35:46.109Z</time>
      </trkpt>
      <trkpt lat="44.37708" lon="1.17323">
        <ele>266.326781</ele>
        <time>2022-01-11T14:35:48.104Z</time>
      </trkpt>
      <trkpt lat="44.37702" lon="1.17302">
        <ele>266.281978</ele>
        <time>2022-01-11T14:35:50.106Z</time>
      </trkpt>
      <trkpt lat="44.37694" lon="1.17287">
        <ele>266.243609</ele>
        <time>2022-01-11T14:35:52.112Z</time>
      </trkpt>
      <trkpt lat="44.37689" lon="1.17266">
        <ele>266.197841</ele>
        <time>2022-01-11T14:35:54.103Z</time>
      </trkpt>
      <trkpt lat="44.37684" lon="1.17249">
        <ele>266.162081</ele>
        <time>2022-01-11T14:35:56.106Z</time>
      </trkpt>
      <trkpt lat="44.37679" lon="1.17229">
        <ele>266.376619</ele>
        <time>2022-01-11T14:35:58.119Z</time>
      </trkpt>
      <trkpt lat="44.37676" lon="1.17214">
        <ele>266.585941</ele>
        <time>2022-01-11T14:36:00.110Z</time>
      </trkpt>
      <trkpt lat="44.37669" lon="1.17199">
        <ele>266.832056</ele>
        <time>2022-01-11T14:36:02.108Z</time>
      </trkpt>
      <trkpt lat="44.37667" lon="1.17178">
        <ele>267.126139</ele>
        <time>2022-01-11T14:36:04.109Z</time>
      </trkpt>
      <trkpt lat="44.37656" lon="1.17165">
        <ele>267.395146</ele>
        <time>2022-01-11T14:36:06.111Z</time>
      </trkpt>
      <trkpt lat="44.37645" lon="1.1715">
        <ele>267.697625</ele>
        <time>2022-01-11T14:36:08.110Z</time>
      </trkpt>
      <trkpt lat="44.37636" lon="1.1713">
        <ele>268.024241</ele>
        <time>2022-01-11T14:36:10.102Z</time>
      </trkpt>
      <trkpt lat="44.37632" lon="1.17119">
        <ele>268.199297</ele>
        <time>2022-01-11T14:36:11.115Z</time>
      </trkpt>
      <trkpt lat="44.37618" lon="1.17112">
        <ele>268.479778</ele>
        <time>2022-01-11T14:36:13.104Z</time>
      </trkpt>
      <trkpt lat="44.37612" lon="1.17103">
        <ele>268.652586</ele>
        <time>2022-01-11T14:36:14.113Z</time>
      </trkpt>
      <trkpt lat="44.37601" lon="1.17089">
        <ele>268.941018</ele>
        <time>2022-01-11T14:36:16.105Z</time>
      </trkpt>
      <trkpt lat="44.37589" lon="1.17071">
        <ele>269.292685</ele>
        <time>2022-01-11T14:36:18.106Z</time>
      </trkpt>
      <trkpt lat="44.37576" lon="1.17062">
        <ele>269.560162</ele>
        <time>2022-01-11T14:36:20.114Z</time>
      </trkpt>
      <trkpt lat="44.37564" lon="1.17049">
        <ele>269.475478</ele>
        <time>2022-01-11T14:36:22.116Z</time>
      </trkpt>
      <trkpt lat="44.3755" lon="1.17039">
        <ele>269.283633</ele>
        <time>2022-01-11T14:36:24.117Z</time>
      </trkpt>
      <trkpt lat="44.37543" lon="1.17031">
        <ele>269.167072</ele>
        <time>2022-01-11T14:36:25.110Z</time>
      </trkpt>
      <trkpt lat="44.37534" lon="1.1702">
        <ele>269.011612</ele>
        <time>2022-01-11T14:36:27.108Z</time>
      </trkpt>
      <trkpt lat="44.37523" lon="1.17005">
        <ele>268.820634</ele>
        <time>2022-01-11T14:36:29.112Z</time>
      </trkpt>
      <trkpt lat="44.37509" lon="1.16991">
        <ele>268.605557</ele>
        <time>2022-01-11T14:36:31.105Z</time>
      </trkpt>
      <trkpt lat="44.37499" lon="1.16977">
        <ele>268.417045</ele>
        <time>2022-01-11T14:36:33.116Z</time>
      </trkpt>
      <trkpt lat="44.37487" lon="1.16965">
        <ele>268.226899</ele>
        <time>2022-01-11T14:36:35.103Z</time>
      </trkpt>
      <trkpt lat="44.37474" lon="1.1695">
        <ele>268.018913</ele>
        <time>2022-01-11T14:36:37.108Z</time>
      </trkpt>
      <trkpt lat="44.37467" lon="1.16939">
        <ele>267.887129</ele>
        <time>2022-01-11T14:36:38.117Z</time>
      </trkpt>
      <trkpt lat="44.37454" lon="1.16926">
        <ele>267.685539</ele>
        <time>2022-01-11T14:36:40.104Z</time>
      </trkpt>
      <trkpt lat="44.37441" lon="1.1691">
        <ele>267.468413</ele>
        <time>2022-01-11T14:36:42.114Z</time>
      </trkpt>
      <trkpt lat="44.37427" lon="1.16894">
        <ele>267.123854</ele>
        <time>2022-01-11T14:36:44.103Z</time>
      </trkpt>
      <trkpt lat="44.37418" lon="1.16878">
        <ele>266.746953</ele>
        <time>2022-01-11T14:36:46.117Z</time>
      </trkpt>
      <trkpt lat="44.37406" lon="1.16861">
        <ele>266.308835</ele>
        <time>2022-01-11T14:36:48.105Z</time>
      </trkpt>
      <trkpt lat="44.37393" lon="1.16845">
        <ele>265.866372</ele>
        <time>2022-01-11T14:36:50.106Z</time>
      </trkpt>
      <trkpt lat="44.37382" lon="1.16829">
        <ele>265.465472</ele>
        <time>2022-01-11T14:36:52.120Z</time>
      </trkpt>
      <trkpt lat="44.37377" lon="1.16819">
        <ele>265.230748</ele>
        <time>2022-01-11T14:36:53.114Z</time>
      </trkpt>
      <trkpt lat="44.3737" lon="1.1681">
        <ele>264.983732</ele>
        <time>2022-01-11T14:36:54.106Z</time>
      </trkpt>
      <trkpt lat="44.37357" lon="1.16794">
        <ele>264.550669</ele>
        <time>2022-01-11T14:36:56.105Z</time>
      </trkpt>
      <trkpt lat="44.37347" lon="1.16779">
        <ele>264.162206</ele>
        <time>2022-01-11T14:36:58.114Z</time>
      </trkpt>
      <trkpt lat="44.37335" lon="1.16763">
        <ele>263.74105</ele>
        <time>2022-01-11T14:37:00.110Z</time>
      </trkpt>
      <trkpt lat="44.37323" lon="1.1675">
        <ele>263.356915</ele>
        <time>2022-01-11T14:37:02.105Z</time>
      </trkpt>
      <trkpt lat="44.37311" lon="1.16733">
        <ele>262.911937</ele>
        <time>2022-01-11T14:37:04.110Z</time>
      </trkpt>
      <trkpt lat="44.37299" lon="1.16717">
        <ele>262.681162</ele>
        <time>2022-01-11T14:37:06.118Z</time>
      </trkpt>
      <trkpt lat="44.37287" lon="1.16703">
        <ele>262.611176</ele>
        <time>2022-01-11T14:37:08.116Z</time>
      </trkpt>
      <trkpt lat="44.37279" lon="1.16696">
        <ele>262.570176</ele>
        <time>2022-01-11T14:37:09.107Z</time>
      </trkpt>
      <trkpt lat="44.3727" lon="1.1668">
        <ele>262.502405</ele>
        <time>2022-01-11T14:37:11.109Z</time>
      </trkpt>
      <trkpt lat="44.3726" lon="1.16664">
        <ele>262.435904</ele>
        <time>2022-01-11T14:37:13.111Z</time>
      </trkpt>
      <trkpt lat="44.3725" lon="1.16646">
        <ele>262.362815</ele>
        <time>2022-01-11T14:37:15.116Z</time>
      </trkpt>
      <trkpt lat="44.37245" lon="1.16635">
        <ele>262.321331</ele>
        <time>2022-01-11T14:37:16.110Z</time>
      </trkpt>
      <trkpt lat="44.37233" lon="1.1662">
        <ele>262.250677</ele>
        <time>2022-01-11T14:37:18.108Z</time>
      </trkpt>
      <trkpt lat="44.37222" lon="1.16606">
        <ele>262.180886</ele>
        <time>2022-01-11T14:37:20.109Z</time>
      </trkpt>
      <trkpt lat="44.3721" lon="1.16591">
        <ele>262.108017</ele>
        <time>2022-01-11T14:37:22.124Z</time>
      </trkpt>
      <trkpt lat="44.37201" lon="1.16575">
        <ele>262.044087</ele>
        <time>2022-01-11T14:37:24.126Z</time>
      </trkpt>
      <trkpt lat="44.3719" lon="1.16562">
        <ele>261.977404</ele>
        <time>2022-01-11T14:37:26.119Z</time>
      </trkpt>
      <trkpt lat="44.37177" lon="1.16546">
        <ele>261.908523</ele>
        <time>2022-01-11T14:37:28.099Z</time>
      </trkpt>
      <trkpt lat="44.37171" lon="1.16534">
        <ele>261.883297</ele>
        <time>2022-01-11T14:37:29.114Z</time>
      </trkpt>
      <trkpt lat="44.37159" lon="1.16521">
        <ele>261.847584</ele>
        <time>2022-01-11T14:37:31.106Z</time>
      </trkpt>
      <trkpt lat="44.37149" lon="1.16506">
        <ele>261.810954</ele>
        <time>2022-01-11T14:37:33.113Z</time>
      </trkpt>
      <trkpt lat="44.37138" lon="1.16491">
        <ele>261.775264</ele>
        <time>2022-01-11T14:37:35.114Z</time>
      </trkpt>
      <trkpt lat="44.37128" lon="1.16473">
        <ele>261.736268</ele>
        <time>2022-01-11T14:37:37.104Z</time>
      </trkpt>
      <trkpt lat="44.37115" lon="1.16463">
        <ele>261.700539</ele>
        <time>2022-01-11T14:37:39.105Z</time>
      </trkpt>
      <trkpt lat="44.371" lon="1.16455">
        <ele>261.663394</ele>
        <time>2022-01-11T14:37:41.109Z</time>
      </trkpt>
      <trkpt lat="44.37092" lon="1.1645">
        <ele>261.641419</ele>
        <time>2022-01-11T14:37:42.108Z</time>
      </trkpt>
      <trkpt lat="44.37078" lon="1.16441">
        <ele>261.605417</ele>
        <time>2022-01-11T14:37:44.108Z</time>
      </trkpt>
      <trkpt lat="44.37066" lon="1.16433">
        <ele>261.573522</ele>
        <time>2022-01-11T14:37:46.104Z</time>
      </trkpt>
      <trkpt lat="44.37051" lon="1.16422">
        <ele>261.534004</ele>
        <time>2022-01-11T14:37:48.110Z</time>
      </trkpt>
      <trkpt lat="44.37036" lon="1.16411">
        <ele>261.492506</ele>
        <time>2022-01-11T14:37:50.106Z</time>
      </trkpt>
      <trkpt lat="44.37029" lon="1.16402">
        <ele>261.347673</ele>
        <time>2022-01-11T14:37:51.115Z</time>
      </trkpt>
      <trkpt lat="44.37021" lon="1.16395">
        <ele>261.148839</ele>
        <time>2022-01-11T14:37:52.121Z</time>
      </trkpt>
      <trkpt lat="44.37014" lon="1.16385">
        <ele>260.941205</ele>
        <time>2022-01-11T14:37:53.105Z</time>
      </trkpt>
      <trkpt lat="44.3701" lon="1.16363">
        <ele>260.595791</ele>
        <time>2022-01-11T14:37:55.106Z</time>
      </trkpt>
      <trkpt lat="44.37002" lon="1.16342">
        <ele>260.250924</ele>
        <time>2022-01-11T14:37:57.102Z</time>
      </trkpt>
      <trkpt lat="44.37003" lon="1.16327">
        <ele>260.01955</ele>
        <time>2022-01-11T14:37:58.115Z</time>
      </trkpt>
      <trkpt lat="44.37007" lon="1.16302">
        <ele>259.638872</ele>
        <time>2022-01-11T14:38:00.097Z</time>
      </trkpt>
      <trkpt lat="44.37012" lon="1.16289">
        <ele>259.421148</ele>
        <time>2022-01-11T14:38:01.112Z</time>
      </trkpt>
      <trkpt lat="44.37016" lon="1.16277">
        <ele>259.218708</ele>
        <time>2022-01-11T14:38:02.114Z</time>
      </trkpt>
      <trkpt lat="44.37016" lon="1.16264">
        <ele>259.024707</ele>
        <time>2022-01-11T14:38:03.114Z</time>
      </trkpt>
      <trkpt lat="44.37014" lon="1.16242">
        <ele>258.686545</ele>
        <time>2022-01-11T14:38:05.110Z</time>
      </trkpt>
      <trkpt lat="44.37005" lon="1.16236">
        <ele>258.476326</ele>
        <time>2022-01-11T14:38:06.112Z</time>
      </trkpt>
      <trkpt lat="44.36995" lon="1.16229">
        <ele>258.248207</ele>
        <time>2022-01-11T14:38:07.117Z</time>
      </trkpt>
      <trkpt lat="44.36984" lon="1.1621">
        <ele>257.88105</ele>
        <time>2022-01-11T14:38:09.103Z</time>
      </trkpt>
      <trkpt lat="44.36973" lon="1.16196">
        <ele>257.730004</ele>
        <time>2022-01-11T14:38:11.107Z</time>
      </trkpt>
      <trkpt lat="44.36959" lon="1.16183">
        <ele>257.780353</ele>
        <time>2022-01-11T14:38:13.108Z</time>
      </trkpt>
      <trkpt lat="44.36946" lon="1.16176">
        <ele>257.825226</ele>
        <time>2022-01-11T14:38:15.120Z</time>
      </trkpt>
      <trkpt lat="44.36933" lon="1.16168">
        <ele>257.870303</ele>
        <time>2022-01-11T14:38:17.102Z</time>
      </trkpt>
      <trkpt lat="44.36919" lon="1.16158">
        <ele>257.92002</ele>
        <time>2022-01-11T14:38:19.115Z</time>
      </trkpt>
      <trkpt lat="44.36907" lon="1.16149">
        <ele>257.963528</ele>
        <time>2022-01-11T14:38:21.109Z</time>
      </trkpt>
      <trkpt lat="44.36894" lon="1.1614">
        <ele>258.009322</ele>
        <time>2022-01-11T14:38:23.105Z</time>
      </trkpt>
      <trkpt lat="44.36883" lon="1.16133">
        <ele>258.047986</ele>
        <time>2022-01-11T14:38:25.100Z</time>
      </trkpt>
      <trkpt lat="44.36874" lon="1.16128">
        <ele>258.07705</ele>
        <time>2022-01-11T14:38:26.103Z</time>
      </trkpt>
      <trkpt lat="44.3686" lon="1.16119">
        <ele>258.125229</ele>
        <time>2022-01-11T14:38:28.108Z</time>
      </trkpt>
      <trkpt lat="44.36853" lon="1.16112">
        <ele>258.153966</ele>
        <time>2022-01-11T14:38:29.107Z</time>
      </trkpt>
      <trkpt lat="44.36838" lon="1.16101">
        <ele>258.207554</ele>
        <time>2022-01-11T14:38:31.112Z</time>
      </trkpt>
      <trkpt lat="44.36828" lon="1.1609">
        <ele>258.249234</ele>
        <time>2022-01-11T14:38:34.109Z</time>
      </trkpt>
      <trkpt lat="44.36818" lon="1.1608">
        <ele>258.253121</ele>
        <time>2022-01-11T14:38:36.112Z</time>
      </trkpt>
      <trkpt lat="44.36806" lon="1.16075">
        <ele>258.162965</ele>
        <time>2022-01-11T14:38:38.111Z</time>
      </trkpt>
      <trkpt lat="44.36797" lon="1.16073">
        <ele>258.092495</ele>
        <time>2022-01-11T14:38:39.116Z</time>
      </trkpt>
      <trkpt lat="44.36788" lon="1.16069">
        <ele>258.02356</ele>
        <time>2022-01-11T14:38:40.112Z</time>
      </trkpt>
      <trkpt lat="44.36773" lon="1.16064">
        <ele>257.910251</ele>
        <time>2022-01-11T14:38:42.114Z</time>
      </trkpt>
      <trkpt lat="44.36756" lon="1.16056">
        <ele>257.781389</ele>
        <time>2022-01-11T14:38:44.115Z</time>
      </trkpt>
      <trkpt lat="44.36743" lon="1.16049">
        <ele>257.68112</ele>
        <time>2022-01-11T14:38:46.111Z</time>
      </trkpt>
      <trkpt lat="44.36735" lon="1.16043">
        <ele>257.614843</ele>
        <time>2022-01-11T14:38:47.098Z</time>
      </trkpt>
      <trkpt lat="44.36725" lon="1.16037">
        <ele>257.533791</ele>
        <time>2022-01-11T14:38:49.106Z</time>
      </trkpt>
      <trkpt lat="44.36715" lon="1.1603">
        <ele>257.45039</ele>
        <time>2022-01-11T14:38:51.104Z</time>
      </trkpt>
      <trkpt lat="44.36704" lon="1.16021">
        <ele>257.362725</ele>
        <time>2022-01-11T14:38:53.107Z</time>
      </trkpt>
      <trkpt lat="44.3669" lon="1.16016">
        <ele>257.257956</ele>
        <time>2022-01-11T14:38:55.104Z</time>
      </trkpt>
      <trkpt lat="44.36681" lon="1.1601">
        <ele>257.179196</ele>
        <time>2022-01-11T14:38:57.104Z</time>
      </trkpt>
      <trkpt lat="44.3667" lon="1.16003">
        <ele>257.095794</ele>
        <time>2022-01-11T14:38:59.104Z</time>
      </trkpt>
      <trkpt lat="44.36657" lon="1.15997">
        <ele>256.995879</ele>
        <time>2022-01-11T14:39:01.105Z</time>
      </trkpt>
      <trkpt lat="44.36643" lon="1.15987">
        <ele>256.902596</ele>
        <time>2022-01-11T14:39:03.116Z</time>
      </trkpt>
      <trkpt lat="44.36633" lon="1.1598">
        <ele>256.842566</ele>
        <time>2022-01-11T14:39:05.113Z</time>
      </trkpt>
      <trkpt lat="44.3662" lon="1.15974">
        <ele>256.774439</ele>
        <time>2022-01-11T14:39:07.100Z</time>
      </trkpt>
      <trkpt lat="44.36607" lon="1.1597">
        <ele>256.699933</ele>
        <time>2022-01-11T14:39:09.105Z</time>
      </trkpt>
      <trkpt lat="44.36594" lon="1.1596">
        <ele>256.623941</ele>
        <time>2022-01-11T14:39:11.113Z</time>
      </trkpt>
      <trkpt lat="44.36583" lon="1.15954">
        <ele>256.564442</ele>
        <time>2022-01-11T14:39:13.113Z</time>
      </trkpt>
      <trkpt lat="44.36572" lon="1.15941">
        <ele>256.486427</ele>
        <time>2022-01-11T14:39:15.103Z</time>
      </trkpt>
      <trkpt lat="44.36559" lon="1.15929">
        <ele>256.405594</ele>
        <time>2022-01-11T14:39:17.117Z</time>
      </trkpt>
      <trkpt lat="44.36547" lon="1.15923">
        <ele>256.342134</ele>
        <time>2022-01-11T14:39:19.105Z</time>
      </trkpt>
      <trkpt lat="44.36535" lon="1.15914">
        <ele>256.26801</ele>
        <time>2022-01-11T14:39:21.113Z</time>
      </trkpt>
      <trkpt lat="44.36519" lon="1.15906">
        <ele>256.181407</ele>
        <time>2022-01-11T14:39:23.111Z</time>
      </trkpt>
      <trkpt lat="44.36509" lon="1.15905">
        <ele>256.12618</ele>
        <time>2022-01-11T14:39:25.100Z</time>
      </trkpt>
      <trkpt lat="44.36495" lon="1.15902">
        <ele>256.052705</ele>
        <time>2022-01-11T14:39:27.107Z</time>
      </trkpt>
      <trkpt lat="44.36483" lon="1.15895">
        <ele>255.500335</ele>
        <time>2022-01-11T14:39:29.109Z</time>
      </trkpt>
      <trkpt lat="44.36471" lon="1.15888">
        <ele>254.579511</ele>
        <time>2022-01-11T14:39:31.106Z</time>
      </trkpt>
      <trkpt lat="44.3646" lon="1.15883">
        <ele>253.744417</ele>
        <time>2022-01-11T14:39:33.110Z</time>
      </trkpt>
      <trkpt lat="44.36447" lon="1.15876">
        <ele>252.720398</ele>
        <time>2022-01-11T14:39:35.107Z</time>
      </trkpt>
      <trkpt lat="44.36436" lon="1.15871">
        <ele>251.903758</ele>
        <time>2022-01-11T14:39:37.114Z</time>
      </trkpt>
      <trkpt lat="44.36425" lon="1.15865">
        <ele>251.021591</ele>
        <time>2022-01-11T14:39:39.103Z</time>
      </trkpt>
      <trkpt lat="44.36416" lon="1.15857">
        <ele>250.299633</ele>
        <time>2022-01-11T14:39:41.113Z</time>
      </trkpt>
      <trkpt lat="44.36405" lon="1.15854">
        <ele>249.486261</ele>
        <time>2022-01-11T14:39:43.109Z</time>
      </trkpt>
      <trkpt lat="44.36396" lon="1.15852">
        <ele>248.811939</ele>
        <time>2022-01-11T14:39:45.103Z</time>
      </trkpt>
      <trkpt lat="44.36388" lon="1.15846">
        <ele>248.154083</ele>
        <time>2022-01-11T14:39:47.115Z</time>
      </trkpt>
      <trkpt lat="44.36379" lon="1.1584">
        <ele>247.42974</ele>
        <time>2022-01-11T14:39:50.113Z</time>
      </trkpt>
      <trkpt lat="44.36369" lon="1.15833">
        <ele>246.608909</ele>
        <time>2022-01-11T14:39:52.119Z</time>
      </trkpt>
      <trkpt lat="44.36357" lon="1.15824">
        <ele>245.663411</ele>
        <time>2022-01-11T14:39:54.111Z</time>
      </trkpt>
      <trkpt lat="44.36348" lon="1.15819">
        <ele>244.957508</ele>
        <time>2022-01-11T14:39:56.101Z</time>
      </trkpt>
      <trkpt lat="44.36339" lon="1.15812">
        <ele>244.164761</ele>
        <time>2022-01-11T14:39:58.110Z</time>
      </trkpt>
      <trkpt lat="44.36337" lon="1.15796">
        <ele>243.369475</ele>
        <time>2022-01-11T14:40:00.119Z</time>
      </trkpt>
      <trkpt lat="44.3634" lon="1.1578">
        <ele>243.037648</ele>
        <time>2022-01-11T14:40:02.104Z</time>
      </trkpt>
      <trkpt lat="44.36343" lon="1.15761">
        <ele>243.043767</ele>
        <time>2022-01-11T14:40:05.107Z</time>
      </trkpt>
      <trkpt lat="44.3634" lon="1.15743">
        <ele>243.04925</ele>
        <time>2022-01-11T14:40:08.110Z</time>
      </trkpt>
      <trkpt lat="44.36337" lon="1.15731">
        <ele>243.053442</ele>
        <time>2022-01-11T14:40:10.102Z</time>
      </trkpt>
      <trkpt lat="44.36329" lon="1.15721">
        <ele>243.057859</ele>
        <time>2022-01-11T14:40:12.108Z</time>
      </trkpt>
      <trkpt lat="44.36319" lon="1.15707">
        <ele>243.063864</ele>
        <time>2022-01-11T14:40:15.105Z</time>
      </trkpt>
      <trkpt lat="44.36311" lon="1.15699">
        <ele>243.068251</ele>
        <time>2022-01-11T14:40:17.104Z</time>
      </trkpt>
      <trkpt lat="44.36304" lon="1.15689">
        <ele>243.072611</ele>
        <time>2022-01-11T14:40:19.115Z</time>
      </trkpt>
      <trkpt lat="44.36294" lon="1.15676">
        <ele>243.078481</ele>
        <time>2022-01-11T14:40:22.119Z</time>
      </trkpt>
      <trkpt lat="44.36286" lon="1.15667">
        <ele>243.082877</ele>
        <time>2022-01-11T14:40:24.108Z</time>
      </trkpt>
      <trkpt lat="44.36279" lon="1.15659">
        <ele>243.087107</ele>
        <time>2022-01-11T14:40:26.103Z</time>
      </trkpt>
      <trkpt lat="44.36271" lon="1.1565">
        <ele>243.091464</ele>
        <time>2022-01-11T14:40:28.113Z</time>
      </trkpt>
      <trkpt lat="44.36264" lon="1.15639">
        <ele>243.095843</ele>
        <time>2022-01-11T14:40:30.118Z</time>
      </trkpt>
      <trkpt lat="44.36259" lon="1.15627">
        <ele>243.100158</ele>
        <time>2022-01-11T14:40:32.103Z</time>
      </trkpt>
      <trkpt lat="44.36254" lon="1.15611">
        <ele>243.105731</ele>
        <time>2022-01-11T14:40:35.106Z</time>
      </trkpt>
      <trkpt lat="44.36249" lon="1.15595">
        <ele>243.110943</ele>
        <time>2022-01-11T14:40:38.105Z</time>
      </trkpt>
      <trkpt lat="44.36251" lon="1.15581">
        <ele>243.036599</ele>
        <time>2022-01-11T14:40:39.112Z</time>
      </trkpt>
      <trkpt lat="44.36261" lon="1.15583">
        <ele>242.941385</ele>
        <time>2022-01-11T14:40:41.104Z</time>
      </trkpt>
      <trkpt lat="44.36265" lon="1.15564">
        <ele>242.798843</ele>
        <time>2022-01-11T14:40:42.108Z</time>
      </trkpt>
      <trkpt lat="44.36272" lon="1.15555">
        <ele>242.698419</ele>
        <time>2022-01-11T14:40:44.103Z</time>
      </trkpt>
      <trkpt lat="44.36281" lon="1.15542">
        <ele>242.57234</ele>
        <time>2022-01-11T14:40:47.100Z</time>
      </trkpt>
      <trkpt lat="44.36287" lon="1.15523">
        <ele>242.416409</ele>
        <time>2022-01-11T14:40:49.102Z</time>
      </trkpt>
      <trkpt lat="44.36301" lon="1.15513">
        <ele>242.263431</ele>
        <time>2022-01-11T14:40:51.106Z</time>
      </trkpt>
      <trkpt lat="44.36308" lon="1.15501">
        <ele>242.150409</ele>
        <time>2022-01-11T14:40:53.103Z</time>
      </trkpt>
      <trkpt lat="44.36316" lon="1.15493">
        <ele>242.057306</ele>
        <time>2022-01-11T14:40:54.113Z</time>
      </trkpt>
      <trkpt lat="44.36321" lon="1.15474">
        <ele>241.904047</ele>
        <time>2022-01-11T14:40:55.100Z</time>
      </trkpt>
      <trkpt lat="44.36322" lon="1.1546">
        <ele>241.805047</ele>
        <time>2022-01-11T14:40:56.101Z</time>
      </trkpt>
      <trkpt lat="44.36331" lon="1.15463">
        <ele>241.706853</ele>
        <time>2022-01-11T14:40:59.111Z</time>
      </trkpt>
      <trkpt lat="44.3634" lon="1.15455">
        <ele>241.597116</ele>
        <time>2022-01-11T14:41:01.118Z</time>
      </trkpt>
      <trkpt lat="44.36349" lon="1.15452">
        <ele>241.500771</ele>
        <time>2022-01-11T14:41:03.105Z</time>
      </trkpt>
      <trkpt lat="44.36362" lon="1.15447">
        <ele>241.36622</ele>
        <time>2022-01-11T14:41:06.104Z</time>
      </trkpt>
      <trkpt lat="44.36376" lon="1.15444">
        <ele>241.503143</ele>
        <time>2022-01-11T14:41:09.120Z</time>
      </trkpt>
      <trkpt lat="44.36387" lon="1.15437">
        <ele>241.871975</ele>
        <time>2022-01-11T14:41:12.107Z</time>
      </trkpt>
      <trkpt lat="44.36397" lon="1.15426">
        <ele>242.23441</ele>
        <time>2022-01-11T14:41:15.105Z</time>
      </trkpt>
      <trkpt lat="44.36405" lon="1.15421">
        <ele>242.50774</ele>
        <time>2022-01-11T14:41:17.106Z</time>
      </trkpt>
      <trkpt lat="44.36418" lon="1.15414">
        <ele>242.906891</ele>
        <time>2022-01-11T14:41:20.109Z</time>
      </trkpt>
      <trkpt lat="44.36427" lon="1.15413">
        <ele>243.17515</ele>
        <time>2022-01-11T14:41:21.105Z</time>
      </trkpt>
      <trkpt lat="44.36439" lon="1.15419">
        <ele>243.571267</ele>
        <time>2022-01-11T14:41:24.112Z</time>
      </trkpt>
      <trkpt lat="44.36451" lon="1.15415">
        <ele>243.922109</ele>
        <time>2022-01-11T14:41:26.108Z</time>
      </trkpt>
      <trkpt lat="44.36459" lon="1.15405">
        <ele>244.244277</ele>
        <time>2022-01-11T14:41:29.109Z</time>
      </trkpt>
      <trkpt lat="44.3646" lon="1.15392">
        <ele>244.516551</ele>
        <time>2022-01-11T14:41:30.103Z</time>
      </trkpt>
      <trkpt lat="44.36472" lon="1.15395">
        <ele>244.886151</ele>
        <time>2022-01-11T14:41:32.104Z</time>
      </trkpt>
      <trkpt lat="44.36481" lon="1.15402">
        <ele>245.175693</ele>
        <time>2022-01-11T14:41:34.116Z</time>
      </trkpt>
      <trkpt lat="44.3649" lon="1.154">
        <ele>245.459569</ele>
        <time>2022-01-11T14:41:37.115Z</time>
      </trkpt>
      <trkpt lat="44.36501" lon="1.15398">
        <ele>245.779137</ele>
        <time>2022-01-11T14:41:39.115Z</time>
      </trkpt>
      <trkpt lat="44.36511" lon="1.15392">
        <ele>246.096525</ele>
        <time>2022-01-11T14:41:41.105Z</time>
      </trkpt>
      <trkpt lat="44.36519" lon="1.15386">
        <ele>246.377057</ele>
        <time>2022-01-11T14:41:43.107Z</time>
      </trkpt>
      <trkpt lat="44.36527" lon="1.15377">
        <ele>246.692042</ele>
        <time>2022-01-11T14:41:45.114Z</time>
      </trkpt>
      <trkpt lat="44.36535" lon="1.15368">
        <ele>247.014218</ele>
        <time>2022-01-11T14:41:47.103Z</time>
      </trkpt>
      <trkpt lat="44.36543" lon="1.15358">
        <ele>247.343862</ele>
        <time>2022-01-11T14:41:49.112Z</time>
      </trkpt>
      <trkpt lat="44.36551" lon="1.15351">
        <ele>247.655809</ele>
        <time>2022-01-11T14:41:52.116Z</time>
      </trkpt>
      <trkpt lat="44.36557" lon="1.15339">
        <ele>247.993744</ele>
        <time>2022-01-11T14:41:56.122Z</time>
      </trkpt>
      <trkpt lat="44.36563" lon="1.15328">
        <ele>248.292218</ele>
        <time>2022-01-11T14:41:59.121Z</time>
      </trkpt>
      <trkpt lat="44.36571" lon="1.15318">
        <ele>248.633733</ele>
        <time>2022-01-11T14:42:02.112Z</time>
      </trkpt>
      <trkpt lat="44.36581" lon="1.15306">
        <ele>249.043956</ele>
        <time>2022-01-11T14:42:04.109Z</time>
      </trkpt>
      <trkpt lat="44.36589" lon="1.15297">
        <ele>249.375571</ele>
        <time>2022-01-11T14:42:06.123Z</time>
      </trkpt>
      <trkpt lat="44.36598" lon="1.15282">
        <ele>249.811131</ele>
        <time>2022-01-11T14:42:09.109Z</time>
      </trkpt>
      <trkpt lat="44.36607" lon="1.15278">
        <ele>250.11591</ele>
        <time>2022-01-11T14:42:11.106Z</time>
      </trkpt>
      <trkpt lat="44.36616" lon="1.15269">
        <ele>250.442267</ele>
        <time>2022-01-11T14:42:13.118Z</time>
      </trkpt>
      <trkpt lat="44.36623" lon="1.15259">
        <ele>250.764719</ele>
        <time>2022-01-11T14:42:15.113Z</time>
      </trkpt>
      <trkpt lat="44.36629" lon="1.15249">
        <ele>251.058322</ele>
        <time>2022-01-11T14:42:17.104Z</time>
      </trkpt>
      <trkpt lat="44.36636" lon="1.1524">
        <ele>251.364038</ele>
        <time>2022-01-11T14:42:19.104Z</time>
      </trkpt>
      <trkpt lat="44.36644" lon="1.15221">
        <ele>251.874409</ele>
        <time>2022-01-11T14:42:21.107Z</time>
      </trkpt>
      <trkpt lat="44.36657" lon="1.15216">
        <ele>252.276755</ele>
        <time>2022-01-11T14:42:26.111Z</time>
      </trkpt>
      <trkpt lat="44.36665" lon="1.15207">
        <ele>252.400587</ele>
        <time>2022-01-11T14:42:30.106Z</time>
      </trkpt>
      <trkpt lat="44.36675" lon="1.15194">
        <ele>252.50288</ele>
        <time>2022-01-11T14:42:33.106Z</time>
      </trkpt>
      <trkpt lat="44.36685" lon="1.15182">
        <ele>252.602357</ele>
        <time>2022-01-11T14:42:36.111Z</time>
      </trkpt>
      <trkpt lat="44.36696" lon="1.15172">
        <ele>252.703213</ele>
        <time>2022-01-11T14:42:39.114Z</time>
      </trkpt>
      <trkpt lat="44.36708" lon="1.15163">
        <ele>252.800551</ele>
        <time>2022-01-11T14:42:42.095Z</time>
      </trkpt>
      <trkpt lat="44.36719" lon="1.15155">
        <ele>252.896474</ele>
        <time>2022-01-11T14:42:45.104Z</time>
      </trkpt>
      <trkpt lat="44.36727" lon="1.1515">
        <ele>252.96672</ele>
        <time>2022-01-11T14:42:47.092Z</time>
      </trkpt>
      <trkpt lat="44.36736" lon="1.15145">
        <ele>253.035241</ele>
        <time>2022-01-11T14:42:49.093Z</time>
      </trkpt>
      <trkpt lat="44.36744" lon="1.15141">
        <ele>253.103957</ele>
        <time>2022-01-11T14:42:51.096Z</time>
      </trkpt>
      <trkpt lat="44.36753" lon="1.15138">
        <ele>253.174159</ele>
        <time>2022-01-11T14:42:53.102Z</time>
      </trkpt>
      <trkpt lat="44.36763" lon="1.15134">
        <ele>253.246244</ele>
        <time>2022-01-11T14:42:55.094Z</time>
      </trkpt>
      <trkpt lat="44.36775" lon="1.15129">
        <ele>253.34312</ele>
        <time>2022-01-11T14:42:58.100Z</time>
      </trkpt>
      <trkpt lat="44.36786" lon="1.15123">
        <ele>253.437496</ele>
        <time>2022-01-11T14:43:01.094Z</time>
      </trkpt>
      <trkpt lat="44.36797" lon="1.15118">
        <ele>253.524547</ele>
        <time>2022-01-11T14:43:04.117Z</time>
      </trkpt>
      <trkpt lat="44.36809" lon="1.15114">
        <ele>253.6153</ele>
        <time>2022-01-11T14:43:07.106Z</time>
      </trkpt>
      <trkpt lat="44.3682" lon="1.15109">
        <ele>253.841948</ele>
        <time>2022-01-11T14:43:10.096Z</time>
      </trkpt>
      <trkpt lat="44.36828" lon="1.15103">
        <ele>255.211327</ele>
        <time>2022-01-11T14:43:13.098Z</time>
      </trkpt>
      <trkpt lat="44.36838" lon="1.15093">
        <ele>256.93588</ele>
        <time>2022-01-11T14:43:17.104Z</time>
      </trkpt>
      <trkpt lat="44.36847" lon="1.15086">
        <ele>258.378682</ele>
        <time>2022-01-11T14:43:20.104Z</time>
      </trkpt>
      <trkpt lat="44.36857" lon="1.15078">
        <ele>259.997884</ele>
        <time>2022-01-11T14:43:23.103Z</time>
      </trkpt>
      <trkpt lat="44.36866" lon="1.15069">
        <ele>261.584514</ele>
        <time>2022-01-11T14:43:26.101Z</time>
      </trkpt>
      <trkpt lat="44.36876" lon="1.15061">
        <ele>263.110936</ele>
        <time>2022-01-11T14:43:29.108Z</time>
      </trkpt>
      <trkpt lat="44.36886" lon="1.15055">
        <ele>264.745145</ele>
        <time>2022-01-11T14:43:32.100Z</time>
      </trkpt>
      <trkpt lat="44.36896" lon="1.15048">
        <ele>266.325231</ele>
        <time>2022-01-11T14:43:35.096Z</time>
      </trkpt>
      <trkpt lat="44.36908" lon="1.15042">
        <ele>268.096097</ele>
        <time>2022-01-11T14:43:38.108Z</time>
      </trkpt>
      <trkpt lat="44.36918" lon="1.15036">
        <ele>269.65535</ele>
        <time>2022-01-11T14:43:41.094Z</time>
      </trkpt>
      <trkpt lat="44.36929" lon="1.15032">
        <ele>271.162829</ele>
        <time>2022-01-11T14:43:44.094Z</time>
      </trkpt>
      <trkpt lat="44.36938" lon="1.15029">
        <ele>272.538358</ele>
        <time>2022-01-11T14:43:49.095Z</time>
      </trkpt>
      <trkpt lat="44.3695" lon="1.15023">
        <ele>274.232629</ele>
        <time>2022-01-11T14:43:53.094Z</time>
      </trkpt>
      <trkpt lat="44.36962" lon="1.15018">
        <ele>275.984631</ele>
        <time>2022-01-11T14:43:56.096Z</time>
      </trkpt>
      <trkpt lat="44.36973" lon="1.15015">
        <ele>277.668865</ele>
        <time>2022-01-11T14:43:59.093Z</time>
      </trkpt>
      <trkpt lat="44.36985" lon="1.1501">
        <ele>279.167835</ele>
        <time>2022-01-11T14:44:02.096Z</time>
      </trkpt>
      <trkpt lat="44.36997" lon="1.15006">
        <ele>279.767986</ele>
        <time>2022-01-11T14:44:05.105Z</time>
      </trkpt>
      <trkpt lat="44.37008" lon="1.15002">
        <ele>280.393848</ele>
        <time>2022-01-11T14:44:08.097Z</time>
      </trkpt>
      <trkpt lat="44.3702" lon="1.14999">
        <ele>281.018123</ele>
        <time>2022-01-11T14:44:11.103Z</time>
      </trkpt>
      <trkpt lat="44.37029" lon="1.14995">
        <ele>281.490379</ele>
        <time>2022-01-11T14:44:13.109Z</time>
      </trkpt>
      <trkpt lat="44.37038" lon="1.14991">
        <ele>281.984744</ele>
        <time>2022-01-11T14:44:15.096Z</time>
      </trkpt>
      <trkpt lat="44.37049" lon="1.14986">
        <ele>282.59013</ele>
        <time>2022-01-11T14:44:18.095Z</time>
      </trkpt>
      <trkpt lat="44.3706" lon="1.14981">
        <ele>283.200497</ele>
        <time>2022-01-11T14:44:21.094Z</time>
      </trkpt>
      <trkpt lat="44.3707" lon="1.14981">
        <ele>283.742406</ele>
        <time>2022-01-11T14:44:25.099Z</time>
      </trkpt>
      <trkpt lat="44.37082" lon="1.14979">
        <ele>284.343676</ele>
        <time>2022-01-11T14:44:29.100Z</time>
      </trkpt>
      <trkpt lat="44.37091" lon="1.14972">
        <ele>284.904367</ele>
        <time>2022-01-11T14:44:33.096Z</time>
      </trkpt>
      <trkpt lat="44.37098" lon="1.14963">
        <ele>285.399886</ele>
        <time>2022-01-11T14:44:36.095Z</time>
      </trkpt>
      <trkpt lat="44.37105" lon="1.14946">
        <ele>286.106701</ele>
        <time>2022-01-11T14:44:39.101Z</time>
      </trkpt>
      <trkpt lat="44.37111" lon="1.14936">
        <ele>286.61067</ele>
        <time>2022-01-11T14:44:41.106Z</time>
      </trkpt>
      <trkpt lat="44.37118" lon="1.14926">
        <ele>287.135287</ele>
        <time>2022-01-11T14:44:43.097Z</time>
      </trkpt>
      <trkpt lat="44.37127" lon="1.14917">
        <ele>287.714126</ele>
        <time>2022-01-11T14:44:45.100Z</time>
      </trkpt>
      <trkpt lat="44.37135" lon="1.14911">
        <ele>288.200595</ele>
        <time>2022-01-11T14:44:47.098Z</time>
      </trkpt>
      <trkpt lat="44.37147" lon="1.14907">
        <ele>288.782573</ele>
        <time>2022-01-11T14:44:50.096Z</time>
      </trkpt>
      <trkpt lat="44.37158" lon="1.14909">
        <ele>289.291469</ele>
        <time>2022-01-11T14:44:53.098Z</time>
      </trkpt>
      <trkpt lat="44.37168" lon="1.14913">
        <ele>289.751149</ele>
        <time>2022-01-11T14:44:56.102Z</time>
      </trkpt>
      <trkpt lat="44.37178" lon="1.14917">
        <ele>290.232086</ele>
        <time>2022-01-11T14:45:00.097Z</time>
      </trkpt>
      <trkpt lat="44.37189" lon="1.14922">
        <ele>290.786597</ele>
        <time>2022-01-11T14:45:04.103Z</time>
      </trkpt>
      <trkpt lat="44.372" lon="1.14925">
        <ele>291.303237</ele>
        <time>2022-01-11T14:45:08.097Z</time>
      </trkpt>
      <trkpt lat="44.37212" lon="1.14929">
        <ele>291.850335</ele>
        <time>2022-01-11T14:45:12.109Z</time>
      </trkpt>
      <trkpt lat="44.37221" lon="1.14932">
        <ele>292.26325</ele>
        <time>2022-01-11T14:45:15.115Z</time>
      </trkpt>
      <trkpt lat="44.37232" lon="1.14938">
        <ele>292.81658</ele>
        <time>2022-01-11T14:45:18.105Z</time>
      </trkpt>
      <trkpt lat="44.37243" lon="1.14945">
        <ele>293.36991</ele>
        <time>2022-01-11T14:45:21.105Z</time>
      </trkpt>
      <trkpt lat="44.37255" lon="1.14951">
        <ele>293.947583</ele>
        <time>2022-01-11T14:45:24.103Z</time>
      </trkpt>
      <trkpt lat="44.37267" lon="1.14958">
        <ele>294.553358</ele>
        <time>2022-01-11T14:45:27.105Z</time>
      </trkpt>
      <trkpt lat="44.37279" lon="1.1496">
        <ele>295.126932</ele>
        <time>2022-01-11T14:45:30.094Z</time>
      </trkpt>
      <trkpt lat="44.37291" lon="1.14959">
        <ele>295.667195</ele>
        <time>2022-01-11T14:45:33.095Z</time>
      </trkpt>
      <trkpt lat="44.37301" lon="1.14953">
        <ele>296.165573</ele>
        <time>2022-01-11T14:45:36.112Z</time>
      </trkpt>
      <trkpt lat="44.37311" lon="1.14944">
        <ele>296.697653</ele>
        <time>2022-01-11T14:45:39.094Z</time>
      </trkpt>
      <trkpt lat="44.37319" lon="1.14937">
        <ele>296.952863</ele>
        <time>2022-01-11T14:45:41.097Z</time>
      </trkpt>
      <trkpt lat="44.37331" lon="1.1493">
        <ele>297.279666</ele>
        <time>2022-01-11T14:45:44.094Z</time>
      </trkpt>
      <trkpt lat="44.37342" lon="1.14924">
        <ele>297.607814</ele>
        <time>2022-01-11T14:45:47.094Z</time>
      </trkpt>
      <trkpt lat="44.37354" lon="1.1492">
        <ele>297.941938</ele>
        <time>2022-01-11T14:45:50.104Z</time>
      </trkpt>
      <trkpt lat="44.37367" lon="1.14919">
        <ele>298.296828</ele>
        <time>2022-01-11T14:45:53.097Z</time>
      </trkpt>
      <trkpt lat="44.37377" lon="1.1492">
        <ele>298.549136</ele>
        <time>2022-01-11T14:45:55.104Z</time>
      </trkpt>
      <trkpt lat="44.37389" lon="1.14921">
        <ele>298.885046</ele>
        <time>2022-01-11T14:45:58.101Z</time>
      </trkpt>
      <trkpt lat="44.37402" lon="1.14923">
        <ele>299.234445</ele>
        <time>2022-01-11T14:46:01.094Z</time>
      </trkpt>
      <trkpt lat="44.37413" lon="1.14926">
        <ele>299.535491</ele>
        <time>2022-01-11T14:46:04.096Z</time>
      </trkpt>
      <trkpt lat="44.37425" lon="1.14929">
        <ele>299.846705</ele>
        <time>2022-01-11T14:46:07.105Z</time>
      </trkpt>
      <trkpt lat="44.37435" lon="1.14928">
        <ele>300.139769</ele>
        <time>2022-01-11T14:46:10.096Z</time>
      </trkpt>
      <trkpt lat="44.37445" lon="1.14921">
        <ele>300.42259</ele>
        <time>2022-01-11T14:46:14.097Z</time>
      </trkpt>
      <trkpt lat="44.37455" lon="1.14912">
        <ele>300.740396</ele>
        <time>2022-01-11T14:46:18.097Z</time>
      </trkpt>
      <trkpt lat="44.37464" lon="1.14905">
        <ele>301.030837</ele>
        <time>2022-01-11T14:46:22.098Z</time>
      </trkpt>
      <trkpt lat="44.37474" lon="1.14899">
        <ele>301.325516</ele>
        <time>2022-01-11T14:46:26.094Z</time>
      </trkpt>
      <trkpt lat="44.37483" lon="1.14896">
        <ele>301.525968</ele>
        <time>2022-01-11T14:46:29.094Z</time>
      </trkpt>
      <trkpt lat="44.37494" lon="1.14893">
        <ele>301.683973</ele>
        <time>2022-01-11T14:46:32.097Z</time>
      </trkpt>
      <trkpt lat="44.37505" lon="1.14892">
        <ele>301.841977</ele>
        <time>2022-01-11T14:46:35.095Z</time>
      </trkpt>
      <trkpt lat="44.37516" lon="1.14895">
        <ele>302.003506</ele>
        <time>2022-01-11T14:46:38.098Z</time>
      </trkpt>
      <trkpt lat="44.37526" lon="1.149">
        <ele>302.155881</ele>
        <time>2022-01-11T14:46:41.099Z</time>
      </trkpt>
      <trkpt lat="44.37535" lon="1.14909">
        <ele>302.312952</ele>
        <time>2022-01-11T14:46:44.096Z</time>
      </trkpt>
      <trkpt lat="44.37544" lon="1.14919">
        <ele>302.479752</ele>
        <time>2022-01-11T14:46:47.095Z</time>
      </trkpt>
      <trkpt lat="44.37555" lon="1.14927">
        <ele>302.65204</ele>
        <time>2022-01-11T14:46:50.095Z</time>
      </trkpt>
      <trkpt lat="44.37566" lon="1.1493">
        <ele>302.813384</ele>
        <time>2022-01-11T14:46:53.096Z</time>
      </trkpt>
      <trkpt lat="44.37577" lon="1.1493">
        <ele>302.979321</ele>
        <time>2022-01-11T14:46:56.100Z</time>
      </trkpt>
      <trkpt lat="44.37589" lon="1.1493">
        <ele>303.152458</ele>
        <time>2022-01-11T14:46:59.096Z</time>
      </trkpt>
      <trkpt lat="44.37601" lon="1.14929">
        <ele>303.31712</ele>
        <time>2022-01-11T14:47:02.101Z</time>
      </trkpt>
      <trkpt lat="44.37612" lon="1.14927">
        <ele>303.47749</ele>
        <time>2022-01-11T14:47:05.099Z</time>
      </trkpt>
      <trkpt lat="44.37623" lon="1.14925">
        <ele>303.628815</ele>
        <time>2022-01-11T14:47:08.097Z</time>
      </trkpt>
      <trkpt lat="44.37634" lon="1.14923">
        <ele>303.792162</ele>
        <time>2022-01-11T14:47:11.099Z</time>
      </trkpt>
      <trkpt lat="44.37645" lon="1.14919">
        <ele>303.956105</ele>
        <time>2022-01-11T14:47:14.102Z</time>
      </trkpt>
      <trkpt lat="44.37657" lon="1.14916">
        <ele>304.095332</ele>
        <time>2022-01-11T14:47:17.101Z</time>
      </trkpt>
      <trkpt lat="44.37669" lon="1.14913">
        <ele>304.178142</ele>
        <time>2022-01-11T14:47:20.097Z</time>
      </trkpt>
      <trkpt lat="44.3768" lon="1.14909">
        <ele>304.264093</ele>
        <time>2022-01-11T14:47:23.104Z</time>
      </trkpt>
      <trkpt lat="44.37692" lon="1.14904">
        <ele>304.357291</ele>
        <time>2022-01-11T14:47:26.100Z</time>
      </trkpt>
      <trkpt lat="44.37704" lon="1.14898">
        <ele>304.446491</ele>
        <time>2022-01-11T14:47:29.096Z</time>
      </trkpt>
      <trkpt lat="44.37716" lon="1.14892">
        <ele>304.536647</ele>
        <time>2022-01-11T14:47:32.102Z</time>
      </trkpt>
      <trkpt lat="44.37726" lon="1.14886">
        <ele>304.615749</ele>
        <time>2022-01-11T14:47:35.099Z</time>
      </trkpt>
      <trkpt lat="44.37735" lon="1.14883">
        <ele>304.685039</ele>
        <time>2022-01-11T14:47:38.098Z</time>
      </trkpt>
      <trkpt lat="44.37745" lon="1.14878">
        <ele>304.763552</ele>
        <time>2022-01-11T14:47:41.099Z</time>
      </trkpt>
      <trkpt lat="44.37756" lon="1.14873">
        <ele>304.847442</ele>
        <time>2022-01-11T14:47:44.103Z</time>
      </trkpt>
      <trkpt lat="44.37767" lon="1.14868">
        <ele>304.930303</ele>
        <time>2022-01-11T14:47:47.096Z</time>
      </trkpt>
      <trkpt lat="44.37778" lon="1.14861">
        <ele>305.017731</ele>
        <time>2022-01-11T14:47:50.098Z</time>
      </trkpt>
      <trkpt lat="44.37788" lon="1.14852">
        <ele>305.105092</ele>
        <time>2022-01-11T14:47:53.104Z</time>
      </trkpt>
      <trkpt lat="44.37799" lon="1.14843">
        <ele>305.195296</ele>
        <time>2022-01-11T14:47:56.100Z</time>
      </trkpt>
      <trkpt lat="44.37809" lon="1.14831">
        <ele>305.288527</ele>
        <time>2022-01-11T14:47:59.093Z</time>
      </trkpt>
      <trkpt lat="44.37819" lon="1.14821">
        <ele>305.295984</ele>
        <time>2022-01-11T14:48:02.106Z</time>
      </trkpt>
      <trkpt lat="44.37828" lon="1.14814">
        <ele>305.131773</ele>
        <time>2022-01-11T14:48:04.098Z</time>
      </trkpt>
      <trkpt lat="44.37838" lon="1.14805">
        <ele>304.942376</ele>
        <time>2022-01-11T14:48:07.107Z</time>
      </trkpt>
      <trkpt lat="44.37846" lon="1.14799">
        <ele>304.783154</ele>
        <time>2022-01-11T14:48:10.093Z</time>
      </trkpt>
      <trkpt lat="44.37854" lon="1.1479">
        <ele>304.615087</ele>
        <time>2022-01-11T14:48:13.096Z</time>
      </trkpt>
      <trkpt lat="44.37861" lon="1.14782">
        <ele>304.46536</ele>
        <time>2022-01-11T14:48:16.097Z</time>
      </trkpt>
      <trkpt lat="44.37869" lon="1.14777">
        <ele>304.314185</ele>
        <time>2022-01-11T14:48:19.102Z</time>
      </trkpt>
      <trkpt lat="44.3788" lon="1.14771">
        <ele>304.123433</ele>
        <time>2022-01-11T14:48:23.093Z</time>
      </trkpt>
      <trkpt lat="44.37887" lon="1.14763">
        <ele>303.968794</ele>
        <time>2022-01-11T14:48:26.098Z</time>
      </trkpt>
      <trkpt lat="44.37893" lon="1.14749">
        <ele>303.764779</ele>
        <time>2022-01-11T14:48:29.097Z</time>
      </trkpt>
      <trkpt lat="44.37902" lon="1.14738">
        <ele>303.573469</ele>
        <time>2022-01-11T14:48:32.096Z</time>
      </trkpt>
      <trkpt lat="44.37912" lon="1.14728">
        <ele>303.373203</ele>
        <time>2022-01-11T14:48:35.096Z</time>
      </trkpt>
      <trkpt lat="44.37922" lon="1.14722">
        <ele>303.192404</ele>
        <time>2022-01-11T14:48:38.101Z</time>
      </trkpt>
      <trkpt lat="44.37932" lon="1.14717">
        <ele>303.007247</ele>
        <time>2022-01-11T14:48:41.095Z</time>
      </trkpt>
      <trkpt lat="44.37943" lon="1.14714">
        <ele>302.835107</ele>
        <time>2022-01-11T14:48:44.101Z</time>
      </trkpt>
      <trkpt lat="44.37952" lon="1.14712">
        <ele>302.679315</ele>
        <time>2022-01-11T14:48:47.107Z</time>
      </trkpt>
      <trkpt lat="44.37966" lon="1.14708">
        <ele>302.441785</ele>
        <time>2022-01-11T14:48:50.098Z</time>
      </trkpt>
      <trkpt lat="44.37979" lon="1.14704">
        <ele>303.006703</ele>
        <time>2022-01-11T14:48:51.099Z</time>
      </trkpt>
      <trkpt lat="44.37988" lon="1.14696">
        <ele>303.734691</ele>
        <time>2022-01-11T14:48:52.098Z</time>
      </trkpt>
      <trkpt lat="44.37994" lon="1.14677">
        <ele>304.761899</ele>
        <time>2022-01-11T14:48:54.100Z</time>
      </trkpt>
      <trkpt lat="44.38004" lon="1.14667">
        <ele>305.593212</ele>
        <time>2022-01-11T14:48:56.100Z</time>
      </trkpt>
      <trkpt lat="44.38014" lon="1.14651">
        <ele>306.69564</ele>
        <time>2022-01-11T14:48:59.108Z</time>
      </trkpt>
      <trkpt lat="44.38016" lon="1.14666">
        <ele>307.421322</ele>
        <time>2022-01-11T14:49:00.097Z</time>
      </trkpt>
      <trkpt lat="44.38028" lon="1.14651">
        <ele>308.530052</ele>
        <time>2022-01-11T14:49:03.112Z</time>
      </trkpt>
      <trkpt lat="44.38035" lon="1.1464">
        <ele>309.261511</ele>
        <time>2022-01-11T14:49:06.096Z</time>
      </trkpt>
      <trkpt lat="44.38041" lon="1.14627">
        <ele>310.045146</ele>
        <time>2022-01-11T14:49:12.098Z</time>
      </trkpt>
      <trkpt lat="44.38047" lon="1.14613">
        <ele>310.846752</ele>
        <time>2022-01-11T14:49:16.092Z</time>
      </trkpt>
      <trkpt lat="44.38053" lon="1.14598">
        <ele>311.742256</ele>
        <time>2022-01-11T14:49:20.108Z</time>
      </trkpt>
      <trkpt lat="44.38056" lon="1.14583">
        <ele>312.50754</ele>
        <time>2022-01-11T14:49:23.095Z</time>
      </trkpt>
      <trkpt lat="44.38061" lon="1.14567">
        <ele>313.375698</ele>
        <time>2022-01-11T14:49:27.096Z</time>
      </trkpt>
      <trkpt lat="44.38068" lon="1.14556">
        <ele>314.128284</ele>
        <time>2022-01-11T14:49:30.098Z</time>
      </trkpt>
      <trkpt lat="44.38075" lon="1.14546">
        <ele>314.802879</ele>
        <time>2022-01-11T14:49:33.094Z</time>
      </trkpt>
      <trkpt lat="44.38082" lon="1.14535">
        <ele>314.677435</ele>
        <time>2022-01-11T14:49:36.100Z</time>
      </trkpt>
      <trkpt lat="44.38092" lon="1.14524">
        <ele>314.313767</ele>
        <time>2022-01-11T14:49:39.110Z</time>
      </trkpt>
      <trkpt lat="44.38102" lon="1.14512">
        <ele>313.923894</ele>
        <time>2022-01-11T14:49:42.103Z</time>
      </trkpt>
      <trkpt lat="44.38112" lon="1.14502">
        <ele>313.547244</ele>
        <time>2022-01-11T14:49:44.097Z</time>
      </trkpt>
      <trkpt lat="44.3812" lon="1.14496">
        <ele>313.276914</ele>
        <time>2022-01-11T14:49:46.109Z</time>
      </trkpt>
      <trkpt lat="44.38131" lon="1.14488">
        <ele>312.916415</ele>
        <time>2022-01-11T14:49:49.097Z</time>
      </trkpt>
      <trkpt lat="44.3814" lon="1.14481">
        <ele>312.600235</ele>
        <time>2022-01-11T14:49:51.101Z</time>
      </trkpt>
      <trkpt lat="44.38149" lon="1.14473">
        <ele>312.29093</ele>
        <time>2022-01-11T14:49:53.103Z</time>
      </trkpt>
      <trkpt lat="44.38162" lon="1.14466">
        <ele>311.881657</ele>
        <time>2022-01-11T14:49:56.097Z</time>
      </trkpt>
      <trkpt lat="44.38175" lon="1.14458">
        <ele>311.4708</ele>
        <time>2022-01-11T14:49:59.096Z</time>
      </trkpt>
      <trkpt lat="44.38182" lon="1.14446">
        <ele>311.151452</ele>
        <time>2022-01-11T14:50:02.098Z</time>
      </trkpt>
      <trkpt lat="44.3819" lon="1.14439">
        <ele>310.862094</ele>
        <time>2022-01-11T14:50:04.102Z</time>
      </trkpt>
      <trkpt lat="44.38201" lon="1.14429">
        <ele>310.486613</ele>
        <time>2022-01-11T14:50:06.113Z</time>
      </trkpt>
      <trkpt lat="44.38213" lon="1.14421">
        <ele>310.088252</ele>
        <time>2022-01-11T14:50:09.097Z</time>
      </trkpt>
      <trkpt lat="44.38224" lon="1.14418">
        <ele>309.740834</ele>
        <time>2022-01-11T14:50:12.095Z</time>
      </trkpt>
      <trkpt lat="44.38233" lon="1.1441">
        <ele>309.800863</ele>
        <time>2022-01-11T14:50:14.096Z</time>
      </trkpt>
      <trkpt lat="44.38241" lon="1.14403">
        <ele>310.073425</ele>
        <time>2022-01-11T14:50:16.112Z</time>
      </trkpt>
      <trkpt lat="44.38252" lon="1.14394">
        <ele>310.433593</ele>
        <time>2022-01-11T14:50:18.098Z</time>
      </trkpt>
      <trkpt lat="44.38265" lon="1.14383">
        <ele>310.859821</ele>
        <time>2022-01-11T14:50:20.094Z</time>
      </trkpt>
      <trkpt lat="44.38278" lon="1.14378">
        <ele>311.246258</ele>
        <time>2022-01-11T14:50:23.104Z</time>
      </trkpt>
      <trkpt lat="44.38288" lon="1.14372">
        <ele>311.558813</ele>
        <time>2022-01-11T14:50:25.106Z</time>
      </trkpt>
      <trkpt lat="44.38297" lon="1.14363">
        <ele>311.887286</ele>
        <time>2022-01-11T14:50:27.098Z</time>
      </trkpt>
      <trkpt lat="44.38309" lon="1.14355">
        <ele>312.256102</ele>
        <time>2022-01-11T14:50:29.094Z</time>
      </trkpt>
      <trkpt lat="44.38317" lon="1.14349">
        <ele>312.522362</ele>
        <time>2022-01-11T14:50:30.093Z</time>
      </trkpt>
      <trkpt lat="44.38326" lon="1.14341">
        <ele>312.835673</ele>
        <time>2022-01-11T14:50:32.093Z</time>
      </trkpt>
      <trkpt lat="44.38337" lon="1.14334">
        <ele>313.181639</ele>
        <time>2022-01-11T14:50:34.098Z</time>
      </trkpt>
      <trkpt lat="44.38348" lon="1.14325">
        <ele>313.554005</ele>
        <time>2022-01-11T14:50:37.093Z</time>
      </trkpt>
      <trkpt lat="44.3836" lon="1.14316">
        <ele>313.948695</ele>
        <time>2022-01-11T14:50:39.092Z</time>
      </trkpt>
      <trkpt lat="44.38368" lon="1.14307">
        <ele>314.226985</ele>
        <time>2022-01-11T14:50:41.094Z</time>
      </trkpt>
      <trkpt lat="44.38376" lon="1.14296">
        <ele>314.556702</ele>
        <time>2022-01-11T14:50:43.100Z</time>
      </trkpt>
      <trkpt lat="44.38385" lon="1.14286">
        <ele>315.036439</ele>
        <time>2022-01-11T14:50:45.094Z</time>
      </trkpt>
      <trkpt lat="44.38393" lon="1.14276">
        <ele>315.753327</ele>
        <time>2022-01-11T14:50:47.101Z</time>
      </trkpt>
      <trkpt lat="44.38401" lon="1.14266">
        <ele>316.490827</ele>
        <time>2022-01-11T14:50:49.101Z</time>
      </trkpt>
      <trkpt lat="44.38411" lon="1.14254">
        <ele>317.407455</ele>
        <time>2022-01-11T14:50:52.104Z</time>
      </trkpt>
      <trkpt lat="44.3842" lon="1.14243">
        <ele>318.227403</ele>
        <time>2022-01-11T14:50:54.095Z</time>
      </trkpt>
      <trkpt lat="44.38427" lon="1.14234">
        <ele>318.880447</ele>
        <time>2022-01-11T14:50:56.097Z</time>
      </trkpt>
      <trkpt lat="44.38437" lon="1.14223">
        <ele>319.795781</ele>
        <time>2022-01-11T14:50:58.103Z</time>
      </trkpt>
      <trkpt lat="44.38449" lon="1.14214">
        <ele>320.687776</ele>
        <time>2022-01-11T14:51:00.098Z</time>
      </trkpt>
      <trkpt lat="44.38456" lon="1.14205">
        <ele>321.360228</ele>
        <time>2022-01-11T14:51:02.101Z</time>
      </trkpt>
      <trkpt lat="44.38465" lon="1.1419">
        <ele>322.316054</ele>
        <time>2022-01-11T14:51:04.096Z</time>
      </trkpt>
      <trkpt lat="44.38475" lon="1.14179">
        <ele>323.160025</ele>
        <time>2022-01-11T14:51:06.099Z</time>
      </trkpt>
      <trkpt lat="44.38485" lon="1.14164">
        <ele>324.201843</ele>
        <time>2022-01-11T14:51:08.099Z</time>
      </trkpt>
      <trkpt lat="44.38493" lon="1.14149">
        <ele>325.123593</ele>
        <time>2022-01-11T14:51:10.096Z</time>
      </trkpt>
      <trkpt lat="44.38501" lon="1.14135">
        <ele>326.008667</ele>
        <time>2022-01-11T14:51:12.095Z</time>
      </trkpt>
      <trkpt lat="44.38509" lon="1.14123">
        <ele>326.830919</ele>
        <time>2022-01-11T14:51:14.112Z</time>
      </trkpt>
      <trkpt lat="44.3852" lon="1.14112">
        <ele>327.562248</ele>
        <time>2022-01-11T14:51:16.106Z</time>
      </trkpt>
      <trkpt lat="44.38526" lon="1.141">
        <ele>328.096951</ele>
        <time>2022-01-11T14:51:18.100Z</time>
      </trkpt>
      <trkpt lat="44.38536" lon="1.14085">
        <ele>328.816273</ele>
        <time>2022-01-11T14:51:20.096Z</time>
      </trkpt>
      <trkpt lat="44.38542" lon="1.14075">
        <ele>329.268348</ele>
        <time>2022-01-11T14:51:22.104Z</time>
      </trkpt>
      <trkpt lat="44.38553" lon="1.14059">
        <ele>330.056789</ele>
        <time>2022-01-11T14:51:25.093Z</time>
      </trkpt>
      <trkpt lat="44.38564" lon="1.14045">
        <ele>330.785234</ele>
        <time>2022-01-11T14:51:27.099Z</time>
      </trkpt>
      <trkpt lat="44.38574" lon="1.14034">
        <ele>331.385894</ele>
        <time>2022-01-11T14:51:29.111Z</time>
      </trkpt>
      <trkpt lat="44.3858" lon="1.14024">
        <ele>331.846498</ele>
        <time>2022-01-11T14:51:31.121Z</time>
      </trkpt>
      <trkpt lat="44.38588" lon="1.14017">
        <ele>332.301226</ele>
        <time>2022-01-11T14:51:32.111Z</time>
      </trkpt>
      <trkpt lat="44.38597" lon="1.14006">
        <ele>332.909362</ele>
        <time>2022-01-11T14:51:34.099Z</time>
      </trkpt>
      <trkpt lat="44.38605" lon="1.13998">
        <ele>333.385852</ele>
        <time>2022-01-11T14:51:36.096Z</time>
      </trkpt>
      <trkpt lat="44.38618" lon="1.13987">
        <ele>334.108623</ele>
        <time>2022-01-11T14:51:38.099Z</time>
      </trkpt>
      <trkpt lat="44.3863" lon="1.13975">
        <ele>334.836414</ele>
        <time>2022-01-11T14:51:40.096Z</time>
      </trkpt>
      <trkpt lat="44.3864" lon="1.13971">
        <ele>335.378481</ele>
        <time>2022-01-11T14:51:42.095Z</time>
      </trkpt>
      <trkpt lat="44.3865" lon="1.13963">
        <ele>335.940301</ele>
        <time>2022-01-11T14:51:44.101Z</time>
      </trkpt>
      <trkpt lat="44.38659" lon="1.13956">
        <ele>335.692792</ele>
        <time>2022-01-11T14:51:46.115Z</time>
      </trkpt>
      <trkpt lat="44.38668" lon="1.1395">
        <ele>335.3437</ele>
        <time>2022-01-11T14:51:48.111Z</time>
      </trkpt>
      <trkpt lat="44.38678" lon="1.13942">
        <ele>334.960389</ele>
        <time>2022-01-11T14:51:50.101Z</time>
      </trkpt>
      <trkpt lat="44.38689" lon="1.13934">
        <ele>334.533015</ele>
        <time>2022-01-11T14:51:52.097Z</time>
      </trkpt>
      <trkpt lat="44.38699" lon="1.13927">
        <ele>334.177874</ele>
        <time>2022-01-11T14:51:54.093Z</time>
      </trkpt>
      <trkpt lat="44.38709" lon="1.1392">
        <ele>333.78378</ele>
        <time>2022-01-11T14:51:56.097Z</time>
      </trkpt>
      <trkpt lat="44.3872" lon="1.13914">
        <ele>333.383426</ele>
        <time>2022-01-11T14:51:58.099Z</time>
      </trkpt>
      <trkpt lat="44.38729" lon="1.13907">
        <ele>333.05988</ele>
        <time>2022-01-11T14:52:00.117Z</time>
      </trkpt>
      <trkpt lat="44.38738" lon="1.13897">
        <ele>332.665169</ele>
        <time>2022-01-11T14:52:02.110Z</time>
      </trkpt>
      <trkpt lat="44.38747" lon="1.13882">
        <ele>332.194015</ele>
        <time>2022-01-11T14:52:04.095Z</time>
      </trkpt>
      <trkpt lat="44.38755" lon="1.13863">
        <ele>331.654862</ele>
        <time>2022-01-11T14:52:06.096Z</time>
      </trkpt>
      <trkpt lat="44.38758" lon="1.13843">
        <ele>331.164324</ele>
        <time>2022-01-11T14:52:08.102Z</time>
      </trkpt>
      <trkpt lat="44.38759" lon="1.13821">
        <ele>330.641937</ele>
        <time>2022-01-11T14:52:10.114Z</time>
      </trkpt>
      <trkpt lat="44.38761" lon="1.13804">
        <ele>330.222456</ele>
        <time>2022-01-11T14:52:12.100Z</time>
      </trkpt>
      <trkpt lat="44.38764" lon="1.13787">
        <ele>329.899626</ele>
        <time>2022-01-11T14:52:14.099Z</time>
      </trkpt>
      <trkpt lat="44.38766" lon="1.13765">
        <ele>329.779142</ele>
        <time>2022-01-11T14:52:16.096Z</time>
      </trkpt>
      <trkpt lat="44.38768" lon="1.13745">
        <ele>329.668018</ele>
        <time>2022-01-11T14:52:18.099Z</time>
      </trkpt>
      <trkpt lat="44.38768" lon="1.13728">
        <ele>329.57522</ele>
        <time>2022-01-11T14:52:19.098Z</time>
      </trkpt>
      <trkpt lat="44.3877" lon="1.13707">
        <ele>329.458258</ele>
        <time>2022-01-11T14:52:21.114Z</time>
      </trkpt>
      <trkpt lat="44.38772" lon="1.13687">
        <ele>329.350645</ele>
        <time>2022-01-11T14:52:23.112Z</time>
      </trkpt>
      <trkpt lat="44.38775" lon="1.13671">
        <ele>329.257661</ele>
        <time>2022-01-11T14:52:25.094Z</time>
      </trkpt>
      <trkpt lat="44.38779" lon="1.13649">
        <ele>329.133292</ele>
        <time>2022-01-11T14:52:27.094Z</time>
      </trkpt>
      <trkpt lat="44.38785" lon="1.13633">
        <ele>329.035282</ele>
        <time>2022-01-11T14:52:29.094Z</time>
      </trkpt>
      <trkpt lat="44.38795" lon="1.13615">
        <ele>328.910811</ele>
        <time>2022-01-11T14:52:31.098Z</time>
      </trkpt>
      <trkpt lat="44.38806" lon="1.13596">
        <ele>328.773827</ele>
        <time>2022-01-11T14:52:33.094Z</time>
      </trkpt>
      <trkpt lat="44.38816" lon="1.1359">
        <ele>328.692569</ele>
        <time>2022-01-11T14:52:34.095Z</time>
      </trkpt>
      <trkpt lat="44.38823" lon="1.13583">
        <ele>328.621723</ele>
        <time>2022-01-11T14:52:36.107Z</time>
      </trkpt>
      <trkpt lat="44.38832" lon="1.1357">
        <ele>328.475603</ele>
        <time>2022-01-11T14:52:38.100Z</time>
      </trkpt>
      <trkpt lat="44.38844" lon="1.13552">
        <ele>328.07813</ele>
        <time>2022-01-11T14:52:40.097Z</time>
      </trkpt>
      <trkpt lat="44.38853" lon="1.1353">
        <ele>327.668495</ele>
        <time>2022-01-11T14:52:42.112Z</time>
      </trkpt>
      <trkpt lat="44.38861" lon="1.1351">
        <ele>327.28634</ele>
        <time>2022-01-11T14:52:44.107Z</time>
      </trkpt>
      <trkpt lat="44.38868" lon="1.1349">
        <ele>326.920078</ele>
        <time>2022-01-11T14:52:46.102Z</time>
      </trkpt>
      <trkpt lat="44.38875" lon="1.13469">
        <ele>326.544632</ele>
        <time>2022-01-11T14:52:48.094Z</time>
      </trkpt>
      <trkpt lat="44.38879" lon="1.13456">
        <ele>326.311583</ele>
        <time>2022-01-11T14:52:49.096Z</time>
      </trkpt>
      <trkpt lat="44.38886" lon="1.13438">
        <ele>325.971375</ele>
        <time>2022-01-11T14:52:51.119Z</time>
      </trkpt>
      <trkpt lat="44.38893" lon="1.1342">
        <ele>325.62767</ele>
        <time>2022-01-11T14:52:53.095Z</time>
      </trkpt>
      <trkpt lat="44.38903" lon="1.13404">
        <ele>325.287311</ele>
        <time>2022-01-11T14:52:55.093Z</time>
      </trkpt>
      <trkpt lat="44.38916" lon="1.1339">
        <ele>324.91666</ele>
        <time>2022-01-11T14:52:57.097Z</time>
      </trkpt>
      <trkpt lat="44.38921" lon="1.13379">
        <ele>324.6982</ele>
        <time>2022-01-11T14:52:58.108Z</time>
      </trkpt>
      <trkpt lat="44.38932" lon="1.13361">
        <ele>324.440312</ele>
        <time>2022-01-11T14:53:00.094Z</time>
      </trkpt>
      <trkpt lat="44.38942" lon="1.13342">
        <ele>324.477347</ele>
        <time>2022-01-11T14:53:02.097Z</time>
      </trkpt>
      <trkpt lat="44.38947" lon="1.13331">
        <ele>324.499032</ele>
        <time>2022-01-11T14:53:04.103Z</time>
      </trkpt>
      <trkpt lat="44.38959" lon="1.13311">
        <ele>324.538258</ele>
        <time>2022-01-11T14:53:06.098Z</time>
      </trkpt>
      <trkpt lat="44.38967" lon="1.13291">
        <ele>324.573903</ele>
        <time>2022-01-11T14:53:08.097Z</time>
      </trkpt>
      <trkpt lat="44.38976" lon="1.13273">
        <ele>324.607636</ele>
        <time>2022-01-11T14:53:10.095Z</time>
      </trkpt>
      <trkpt lat="44.38987" lon="1.13253">
        <ele>324.647584</ele>
        <time>2022-01-11T14:53:12.105Z</time>
      </trkpt>
      <trkpt lat="44.39001" lon="1.1324">
        <ele>324.685497</ele>
        <time>2022-01-11T14:53:14.098Z</time>
      </trkpt>
      <trkpt lat="44.39011" lon="1.13234">
        <ele>324.709284</ele>
        <time>2022-01-11T14:53:15.097Z</time>
      </trkpt>
      <trkpt lat="44.39025" lon="1.13225">
        <ele>324.741909</ele>
        <time>2022-01-11T14:53:17.114Z</time>
      </trkpt>
      <trkpt lat="44.39035" lon="1.13213">
        <ele>324.771342</ele>
        <time>2022-01-11T14:53:19.106Z</time>
      </trkpt>
      <trkpt lat="44.39042" lon="1.13204">
        <ele>324.791188</ele>
        <time>2022-01-11T14:53:20.097Z</time>
      </trkpt>
      <trkpt lat="44.3905" lon="1.1319">
        <ele>324.81925</ele>
        <time>2022-01-11T14:53:22.102Z</time>
      </trkpt>
      <trkpt lat="44.39058" lon="1.13173">
        <ele>324.593325</ele>
        <time>2022-01-11T14:53:24.099Z</time>
      </trkpt>
      <trkpt lat="44.39064" lon="1.13158">
        <ele>324.389087</ele>
        <time>2022-01-11T14:53:25.096Z</time>
      </trkpt>
      <trkpt lat="44.39067" lon="1.13137">
        <ele>324.120228</ele>
        <time>2022-01-11T14:53:27.098Z</time>
      </trkpt>
      <trkpt lat="44.39074" lon="1.13116">
        <ele>323.830225</ele>
        <time>2022-01-11T14:53:29.095Z</time>
      </trkpt>
      <trkpt lat="44.39084" lon="1.13098">
        <ele>323.561608</ele>
        <time>2022-01-11T14:53:31.097Z</time>
      </trkpt>
      <trkpt lat="44.39095" lon="1.13083">
        <ele>323.302062</ele>
        <time>2022-01-11T14:53:33.100Z</time>
      </trkpt>
      <trkpt lat="44.39105" lon="1.13069">
        <ele>323.054737</ele>
        <time>2022-01-11T14:53:34.097Z</time>
      </trkpt>
      <trkpt lat="44.39121" lon="1.13054">
        <ele>322.713344</ele>
        <time>2022-01-11T14:53:36.093Z</time>
      </trkpt>
      <trkpt lat="44.39133" lon="1.13046">
        <ele>322.490225</ele>
        <time>2022-01-11T14:53:37.099Z</time>
      </trkpt>
      <trkpt lat="44.39148" lon="1.13038">
        <ele>322.214954</ele>
        <time>2022-01-11T14:53:39.099Z</time>
      </trkpt>
      <trkpt lat="44.39164" lon="1.13033">
        <ele>321.92575</ele>
        <time>2022-01-11T14:53:41.097Z</time>
      </trkpt>
      <trkpt lat="44.39179" lon="1.13026">
        <ele>321.708245</ele>
        <time>2022-01-11T14:53:43.099Z</time>
      </trkpt>
      <trkpt lat="44.39192" lon="1.13016">
        <ele>321.626565</ele>
        <time>2022-01-11T14:53:45.100Z</time>
      </trkpt>
      <trkpt lat="44.39204" lon="1.13007">
        <ele>321.551213</ele>
        <time>2022-01-11T14:53:46.097Z</time>
      </trkpt>
      <trkpt lat="44.39219" lon="1.12993">
        <ele>321.452501</ele>
        <time>2022-01-11T14:53:48.098Z</time>
      </trkpt>
      <trkpt lat="44.39227" lon="1.12984">
        <ele>321.396707</ele>
        <time>2022-01-11T14:53:49.112Z</time>
      </trkpt>
      <trkpt lat="44.39239" lon="1.12969">
        <ele>321.306137</ele>
        <time>2022-01-11T14:53:51.102Z</time>
      </trkpt>
      <trkpt lat="44.39251" lon="1.12957">
        <ele>321.225866</ele>
        <time>2022-01-11T14:53:53.097Z</time>
      </trkpt>
      <trkpt lat="44.39264" lon="1.12939">
        <ele>321.123628</ele>
        <time>2022-01-11T14:53:55.093Z</time>
      </trkpt>
      <trkpt lat="44.39275" lon="1.12923">
        <ele>321.03548</ele>
        <time>2022-01-11T14:53:57.097Z</time>
      </trkpt>
      <trkpt lat="44.39283" lon="1.12911">
        <ele>320.970382</ele>
        <time>2022-01-11T14:53:58.096Z</time>
      </trkpt>
      <trkpt lat="44.39284" lon="1.12891">
        <ele>320.893337</ele>
        <time>2022-01-11T14:54:00.098Z</time>
      </trkpt>
      <trkpt lat="44.39281" lon="1.12879">
        <ele>320.84269</ele>
        <time>2022-01-11T14:54:01.106Z</time>
      </trkpt>
      <trkpt lat="44.39276" lon="1.12867">
        <ele>320.787841</ele>
        <time>2022-01-11T14:54:04.094Z</time>
      </trkpt>
      <trkpt lat="44.39274" lon="1.12855">
        <ele>320.734233</ele>
        <time>2022-01-11T14:54:06.094Z</time>
      </trkpt>
      <trkpt lat="44.39272" lon="1.12841">
        <ele>320.506334</ele>
        <time>2022-01-11T14:54:08.100Z</time>
      </trkpt>
      <trkpt lat="44.3927" lon="1.12821">
        <ele>320.195009</ele>
        <time>2022-01-11T14:54:10.096Z</time>
      </trkpt>
      <trkpt lat="44.39269" lon="1.12805">
        <ele>319.940261</ele>
        <time>2022-01-11T14:54:11.094Z</time>
      </trkpt>
      <trkpt lat="44.39268" lon="1.12783">
        <ele>319.587136</ele>
        <time>2022-01-11T14:54:13.096Z</time>
      </trkpt>
      <trkpt lat="44.39266" lon="1.12766">
        <ele>319.316995</ele>
        <time>2022-01-11T14:54:15.100Z</time>
      </trkpt>
      <trkpt lat="44.39265" lon="1.1275">
        <ele>319.051518</ele>
        <time>2022-01-11T14:54:17.097Z</time>
      </trkpt>
      <trkpt lat="44.39269" lon="1.12733">
        <ele>318.779144</ele>
        <time>2022-01-11T14:54:19.106Z</time>
      </trkpt>
      <trkpt lat="44.39272" lon="1.12716">
        <ele>318.504625</ele>
        <time>2022-01-11T14:54:21.097Z</time>
      </trkpt>
      <trkpt lat="44.39278" lon="1.12699">
        <ele>318.201393</ele>
        <time>2022-01-11T14:54:24.104Z</time>
      </trkpt>
      <trkpt lat="44.39287" lon="1.12685">
        <ele>317.891672</ele>
        <time>2022-01-11T14:54:26.106Z</time>
      </trkpt>
      <trkpt lat="44.39298" lon="1.12672">
        <ele>317.5809</ele>
        <time>2022-01-11T14:54:29.091Z</time>
      </trkpt>
      <trkpt lat="44.39309" lon="1.12663">
        <ele>317.295348</ele>
        <time>2022-01-11T14:54:32.094Z</time>
      </trkpt>
      <trkpt lat="44.39321" lon="1.12653">
        <ele>316.989373</ele>
        <time>2022-01-11T14:54:35.099Z</time>
      </trkpt>
      <trkpt lat="44.3933" lon="1.12645">
        <ele>316.757946</ele>
        <time>2022-01-11T14:54:37.095Z</time>
      </trkpt>
      <trkpt lat="44.39336" lon="1.12636">
        <ele>317.022232</ele>
        <time>2022-01-11T14:54:39.093Z</time>
      </trkpt>
      <trkpt lat="44.39346" lon="1.12621">
        <ele>317.489537</ele>
        <time>2022-01-11T14:54:42.095Z</time>
      </trkpt>
      <trkpt lat="44.39355" lon="1.12614">
        <ele>317.807245</ele>
        <time>2022-01-11T14:54:44.090Z</time>
      </trkpt>
      <trkpt lat="44.39362" lon="1.12605">
        <ele>318.12824</ele>
        <time>2022-01-11T14:54:46.094Z</time>
      </trkpt>
      <trkpt lat="44.39369" lon="1.12595">
        <ele>318.450053</ele>
        <time>2022-01-11T14:54:48.106Z</time>
      </trkpt>
      <trkpt lat="44.39376" lon="1.12585">
        <ele>318.760937</ele>
        <time>2022-01-11T14:54:50.102Z</time>
      </trkpt>
      <trkpt lat="44.39386" lon="1.12576">
        <ele>319.142485</ele>
        <time>2022-01-11T14:54:53.094Z</time>
      </trkpt>
      <trkpt lat="44.39396" lon="1.12567">
        <ele>319.525196</ele>
        <time>2022-01-11T14:54:56.094Z</time>
      </trkpt>
      <trkpt lat="44.39406" lon="1.1256">
        <ele>319.872992</ele>
        <time>2022-01-11T14:54:58.100Z</time>
      </trkpt>
      <trkpt lat="44.39416" lon="1.12557">
        <ele>320.1949</ele>
        <time>2022-01-11T14:55:00.094Z</time>
      </trkpt>
      <trkpt lat="44.39426" lon="1.12551">
        <ele>320.545621</ele>
        <time>2022-01-11T14:55:03.094Z</time>
      </trkpt>
      <trkpt lat="44.39437" lon="1.12545">
        <ele>320.922488</ele>
        <time>2022-01-11T14:55:05.093Z</time>
      </trkpt>
      <trkpt lat="44.39447" lon="1.12541">
        <ele>321.254081</ele>
        <time>2022-01-11T14:55:07.095Z</time>
      </trkpt>
      <trkpt lat="44.39458" lon="1.12537">
        <ele>321.60442</ele>
        <time>2022-01-11T14:55:09.108Z</time>
      </trkpt>
      <trkpt lat="44.39468" lon="1.12535">
        <ele>321.924759</ele>
        <time>2022-01-11T14:55:11.140Z</time>
      </trkpt>
      <trkpt lat="44.39481" lon="1.1253">
        <ele>322.354002</ele>
        <time>2022-01-11T14:55:14.099Z</time>
      </trkpt>
      <trkpt lat="44.3949" lon="1.12526">
        <ele>322.292922</ele>
        <time>2022-01-11T14:55:16.103Z</time>
      </trkpt>
      <trkpt lat="44.39502" lon="1.12525">
        <ele>321.934607</ele>
        <time>2022-01-11T14:55:18.099Z</time>
      </trkpt>
      <trkpt lat="44.39514" lon="1.12523">
        <ele>321.558508</ele>
        <time>2022-01-11T14:55:20.100Z</time>
      </trkpt>
      <trkpt lat="44.39527" lon="1.12521">
        <ele>321.17075</ele>
        <time>2022-01-11T14:55:22.099Z</time>
      </trkpt>
      <trkpt lat="44.39542" lon="1.12519">
        <ele>320.706003</ele>
        <time>2022-01-11T14:55:24.095Z</time>
      </trkpt>
      <trkpt lat="44.39555" lon="1.12514">
        <ele>320.279818</ele>
        <time>2022-01-11T14:55:26.094Z</time>
      </trkpt>
      <trkpt lat="44.39575" lon="1.12512">
        <ele>319.665238</ele>
        <time>2022-01-11T14:55:28.097Z</time>
      </trkpt>
      <trkpt lat="44.39589" lon="1.12507">
        <ele>319.253032</ele>
        <time>2022-01-11T14:55:30.116Z</time>
      </trkpt>
      <trkpt lat="44.39602" lon="1.12497">
        <ele>318.79595</ele>
        <time>2022-01-11T14:55:32.104Z</time>
      </trkpt>
      <trkpt lat="44.39613" lon="1.12485">
        <ele>318.355883</ele>
        <time>2022-01-11T14:55:34.098Z</time>
      </trkpt>
      <trkpt lat="44.39627" lon="1.12471">
        <ele>317.816854</ele>
        <time>2022-01-11T14:55:36.090Z</time>
      </trkpt>
      <trkpt lat="44.3964" lon="1.1246">
        <ele>317.382032</ele>
        <time>2022-01-11T14:55:38.098Z</time>
      </trkpt>
      <trkpt lat="44.39654" lon="1.12446">
        <ele>316.707882</ele>
        <time>2022-01-11T14:55:40.099Z</time>
      </trkpt>
      <trkpt lat="44.39667" lon="1.12436">
        <ele>315.787508</ele>
        <time>2022-01-11T14:55:41.098Z</time>
      </trkpt>
      <trkpt lat="44.39679" lon="1.12424">
        <ele>314.828668</ele>
        <time>2022-01-11T14:55:43.099Z</time>
      </trkpt>
      <trkpt lat="44.39694" lon="1.12411">
        <ele>313.774859</ele>
        <time>2022-01-11T14:55:45.090Z</time>
      </trkpt>
      <trkpt lat="44.39705" lon="1.124">
        <ele>312.892767</ele>
        <time>2022-01-11T14:55:47.096Z</time>
      </trkpt>
      <trkpt lat="44.39718" lon="1.12387">
        <ele>311.928844</ele>
        <time>2022-01-11T14:55:49.091Z</time>
      </trkpt>
      <trkpt lat="44.39726" lon="1.12381">
        <ele>311.31333</ele>
        <time>2022-01-11T14:55:50.097Z</time>
      </trkpt>
      <trkpt lat="44.39739" lon="1.12366">
        <ele>310.296014</ele>
        <time>2022-01-11T14:55:52.099Z</time>
      </trkpt>
      <trkpt lat="44.39752" lon="1.12354">
        <ele>309.324295</ele>
        <time>2022-01-11T14:55:54.094Z</time>
      </trkpt>
      <trkpt lat="44.3976" lon="1.12346">
        <ele>308.710092</ele>
        <time>2022-01-11T14:55:55.096Z</time>
      </trkpt>
      <trkpt lat="44.39773" lon="1.12333">
        <ele>307.720621</ele>
        <time>2022-01-11T14:55:57.090Z</time>
      </trkpt>
      <trkpt lat="44.39781" lon="1.12326">
        <ele>307.12489</ele>
        <time>2022-01-11T14:55:58.100Z</time>
      </trkpt>
      <trkpt lat="44.3979" lon="1.12317">
        <ele>306.419066</ele>
        <time>2022-01-11T14:55:59.098Z</time>
      </trkpt>
      <trkpt lat="44.39805" lon="1.12302">
        <ele>305.716526</ele>
        <time>2022-01-11T14:56:01.096Z</time>
      </trkpt>
      <trkpt lat="44.39815" lon="1.12291">
        <ele>305.649333</ele>
        <time>2022-01-11T14:56:03.100Z</time>
      </trkpt>
      <trkpt lat="44.39829" lon="1.12275">
        <ele>305.558123</ele>
        <time>2022-01-11T14:56:05.095Z</time>
      </trkpt>
      <trkpt lat="44.39842" lon="1.12262">
        <ele>305.47736</ele>
        <time>2022-01-11T14:56:07.099Z</time>
      </trkpt>
      <trkpt lat="44.39854" lon="1.12249">
        <ele>305.399265</ele>
        <time>2022-01-11T14:56:09.094Z</time>
      </trkpt>
      <trkpt lat="44.39866" lon="1.12237">
        <ele>305.32682</ele>
        <time>2022-01-11T14:56:11.091Z</time>
      </trkpt>
      <trkpt lat="44.39878" lon="1.12226">
        <ele>305.253548</ele>
        <time>2022-01-11T14:56:13.091Z</time>
      </trkpt>
      <trkpt lat="44.3989" lon="1.12212">
        <ele>305.174518</ele>
        <time>2022-01-11T14:56:15.095Z</time>
      </trkpt>
      <trkpt lat="44.39903" lon="1.12199">
        <ele>305.095364</ele>
        <time>2022-01-11T14:56:17.096Z</time>
      </trkpt>
      <trkpt lat="44.39915" lon="1.12187">
        <ele>305.021446</ele>
        <time>2022-01-11T14:56:19.109Z</time>
      </trkpt>
      <trkpt lat="44.39926" lon="1.12176">
        <ele>304.952074</ele>
        <time>2022-01-11T14:56:21.099Z</time>
      </trkpt>
      <trkpt lat="44.39938" lon="1.12165">
        <ele>304.878553</ele>
        <time>2022-01-11T14:56:23.107Z</time>
      </trkpt>
      <trkpt lat="44.39948" lon="1.12154">
        <ele>304.98493</ele>
        <time>2022-01-11T14:56:25.096Z</time>
      </trkpt>
      <trkpt lat="44.39958" lon="1.12143">
        <ele>305.275464</ele>
        <time>2022-01-11T14:56:27.094Z</time>
      </trkpt>
      <trkpt lat="44.39968" lon="1.12132">
        <ele>305.575534</ele>
        <time>2022-01-11T14:56:29.095Z</time>
      </trkpt>
      <trkpt lat="44.39979" lon="1.12122">
        <ele>305.885198</ele>
        <time>2022-01-11T14:56:31.092Z</time>
      </trkpt>
      <trkpt lat="44.39987" lon="1.12114">
        <ele>306.118303</ele>
        <time>2022-01-11T14:56:33.094Z</time>
      </trkpt>
      <trkpt lat="44.39998" lon="1.12105">
        <ele>306.428639</ele>
        <time>2022-01-11T14:56:35.093Z</time>
      </trkpt>
      <trkpt lat="44.40008" lon="1.12098">
        <ele>306.677676</ele>
        <time>2022-01-11T14:56:37.108Z</time>
      </trkpt>
      <trkpt lat="44.40017" lon="1.12088">
        <ele>306.943168</ele>
        <time>2022-01-11T14:56:40.097Z</time>
      </trkpt>
      <trkpt lat="44.40025" lon="1.12076">
        <ele>307.235586</ele>
        <time>2022-01-11T14:56:42.099Z</time>
      </trkpt>
      <trkpt lat="44.40029" lon="1.12063">
        <ele>307.472332</ele>
        <time>2022-01-11T14:56:44.116Z</time>
      </trkpt>
      <trkpt lat="44.40028" lon="1.12045">
        <ele>307.781736</ele>
        <time>2022-01-11T14:56:46.106Z</time>
      </trkpt>
      <trkpt lat="44.40029" lon="1.12031">
        <ele>308.01738</ele>
        <time>2022-01-11T14:56:48.104Z</time>
      </trkpt>
      <trkpt lat="44.40037" lon="1.12021">
        <ele>308.261341</ele>
        <time>2022-01-11T14:56:50.097Z</time>
      </trkpt>
      <trkpt lat="44.40041" lon="1.12007">
        <ele>308.513229</ele>
        <time>2022-01-11T14:56:52.098Z</time>
      </trkpt>
      <trkpt lat="44.40044" lon="1.11989">
        <ele>308.825644</ele>
        <time>2022-01-11T14:56:54.098Z</time>
      </trkpt>
      <trkpt lat="44.40047" lon="1.11977">
        <ele>309.047526</ele>
        <time>2022-01-11T14:56:56.094Z</time>
      </trkpt>
      <trkpt lat="44.40051" lon="1.11961">
        <ele>309.094087</ele>
        <time>2022-01-11T14:56:59.092Z</time>
      </trkpt>
      <trkpt lat="44.40058" lon="1.11946">
        <ele>309.099686</ele>
        <time>2022-01-11T14:57:01.094Z</time>
      </trkpt>
      <trkpt lat="44.40066" lon="1.11932">
        <ele>309.105255</ele>
        <time>2022-01-11T14:57:03.094Z</time>
      </trkpt>
      <trkpt lat="44.40071" lon="1.11916">
        <ele>309.110459</ele>
        <time>2022-01-11T14:57:05.097Z</time>
      </trkpt>
      <trkpt lat="44.40077" lon="1.11901">
        <ele>309.115918</ele>
        <time>2022-01-11T14:57:08.093Z</time>
      </trkpt>
      <trkpt lat="44.40086" lon="1.11887">
        <ele>309.121895</ele>
        <time>2022-01-11T14:57:11.095Z</time>
      </trkpt>
      <trkpt lat="44.40091" lon="1.11872">
        <ele>309.126946</ele>
        <time>2022-01-11T14:57:13.097Z</time>
      </trkpt>
      <trkpt lat="44.40097" lon="1.11859">
        <ele>309.131575</ele>
        <time>2022-01-11T14:57:15.093Z</time>
      </trkpt>
      <trkpt lat="44.40102" lon="1.11844">
        <ele>309.136861</ele>
        <time>2022-01-11T14:57:17.091Z</time>
      </trkpt>
      <trkpt lat="44.40108" lon="1.1183">
        <ele>309.141647</ele>
        <time>2022-01-11T14:57:19.093Z</time>
      </trkpt>
      <trkpt lat="44.40114" lon="1.11816">
        <ele>309.146725</ele>
        <time>2022-01-11T14:57:21.096Z</time>
      </trkpt>
      <trkpt lat="44.40119" lon="1.11799">
        <ele>309.152317</ele>
        <time>2022-01-11T14:57:24.092Z</time>
      </trkpt>
      <trkpt lat="44.40129" lon="1.11791">
        <ele>309.157612</ele>
        <time>2022-01-11T14:57:26.113Z</time>
      </trkpt>
      <trkpt lat="44.40137" lon="1.11777">
        <ele>309.162982</ele>
        <time>2022-01-11T14:57:29.096Z</time>
      </trkpt>
      <trkpt lat="44.40143" lon="1.11758">
        <ele>308.916213</ele>
        <time>2022-01-11T14:57:31.095Z</time>
      </trkpt>
      <trkpt lat="44.4015" lon="1.11744">
        <ele>308.284464</ele>
        <time>2022-01-11T14:57:33.100Z</time>
      </trkpt>
      <trkpt lat="44.40157" lon="1.1173">
        <ele>307.65537</ele>
        <time>2022-01-11T14:57:35.106Z</time>
      </trkpt>
      <trkpt lat="44.40165" lon="1.11716">
        <ele>306.957181</ele>
        <time>2022-01-11T14:57:37.093Z</time>
      </trkpt>
      <trkpt lat="44.40174" lon="1.11706">
        <ele>306.387138</ele>
        <time>2022-01-11T14:57:38.095Z</time>
      </trkpt>
      <trkpt lat="44.40183" lon="1.1169">
        <ele>305.606366</ele>
        <time>2022-01-11T14:57:40.106Z</time>
      </trkpt>
      <trkpt lat="44.40194" lon="1.11676">
        <ele>304.806744</ele>
        <time>2022-01-11T14:57:42.095Z</time>
      </trkpt>
      <trkpt lat="44.40203" lon="1.11666">
        <ele>304.223335</ele>
        <time>2022-01-11T14:57:43.096Z</time>
      </trkpt>
      <trkpt lat="44.40215" lon="1.11652">
        <ele>303.401501</ele>
        <time>2022-01-11T14:57:45.092Z</time>
      </trkpt>
      <trkpt lat="44.40226" lon="1.11638">
        <ele>302.631024</ele>
        <time>2022-01-11T14:57:47.105Z</time>
      </trkpt>
      <trkpt lat="44.40241" lon="1.11621">
        <ele>301.587964</ele>
        <time>2022-01-11T14:57:49.103Z</time>
      </trkpt>
      <trkpt lat="44.40252" lon="1.11608">
        <ele>300.847477</ele>
        <time>2022-01-11T14:57:51.101Z</time>
      </trkpt>
      <trkpt lat="44.40269" lon="1.11589">
        <ele>299.730586</ele>
        <time>2022-01-11T14:57:53.100Z</time>
      </trkpt>
      <trkpt lat="44.4028" lon="1.11574">
        <ele>299.464561</ele>
        <time>2022-01-11T14:57:55.094Z</time>
      </trkpt>
      <trkpt lat="44.40287" lon="1.11564">
        <ele>299.278556</ele>
        <time>2022-01-11T14:57:56.119Z</time>
      </trkpt>
      <trkpt lat="44.403" lon="1.11548">
        <ele>298.983232</ele>
        <time>2022-01-11T14:57:58.093Z</time>
      </trkpt>
      <trkpt lat="44.40307" lon="1.11539">
        <ele>298.82451</ele>
        <time>2022-01-11T14:57:59.093Z</time>
      </trkpt>
      <trkpt lat="44.40317" lon="1.11524">
        <ele>298.570803</ele>
        <time>2022-01-11T14:58:01.103Z</time>
      </trkpt>
      <trkpt lat="44.40329" lon="1.11511">
        <ele>298.318017</ele>
        <time>2022-01-11T14:58:03.105Z</time>
      </trkpt>
      <trkpt lat="44.40339" lon="1.115">
        <ele>298.087366</ele>
        <time>2022-01-11T14:58:05.102Z</time>
      </trkpt>
      <trkpt lat="44.40348" lon="1.11489">
        <ele>297.889452</ele>
        <time>2022-01-11T14:58:07.093Z</time>
      </trkpt>
      <trkpt lat="44.40358" lon="1.11477">
        <ele>297.655132</ele>
        <time>2022-01-11T14:58:09.096Z</time>
      </trkpt>
      <trkpt lat="44.40368" lon="1.11465">
        <ele>297.430308</ele>
        <time>2022-01-11T14:58:11.095Z</time>
      </trkpt>
      <trkpt lat="44.40381" lon="1.11453">
        <ele>297.165637</ele>
        <time>2022-01-11T14:58:13.096Z</time>
      </trkpt>
      <trkpt lat="44.40389" lon="1.11443">
        <ele>296.986472</ele>
        <time>2022-01-11T14:58:15.101Z</time>
      </trkpt>
      <trkpt lat="44.40397" lon="1.11433">
        <ele>296.797528</ele>
        <time>2022-01-11T14:58:17.094Z</time>
      </trkpt>
      <trkpt lat="44.40409" lon="1.11423">
        <ele>296.626518</ele>
        <time>2022-01-11T14:58:20.096Z</time>
      </trkpt>
      <trkpt lat="44.40416" lon="1.11412">
        <ele>296.626518</ele>
        <time>2022-01-11T14:58:22.100Z</time>
      </trkpt>
      <trkpt lat="44.40424" lon="1.11399">
        <ele>296.626518</ele>
        <time>2022-01-11T14:58:24.112Z</time>
      </trkpt>
      <trkpt lat="44.40433" lon="1.11385">
        <ele>296.626518</ele>
        <time>2022-01-11T14:58:26.112Z</time>
      </trkpt>
      <trkpt lat="44.40441" lon="1.11373">
        <ele>296.626518</ele>
        <time>2022-01-11T14:58:28.112Z</time>
      </trkpt>
      <trkpt lat="44.40449" lon="1.11359">
        <ele>296.626518</ele>
        <time>2022-01-11T14:58:31.092Z</time>
      </trkpt>
      <trkpt lat="44.40459" lon="1.11343">
        <ele>296.626518</ele>
        <time>2022-01-11T14:58:34.101Z</time>
      </trkpt>
      <trkpt lat="44.40464" lon="1.11329">
        <ele>296.626518</ele>
        <time>2022-01-11T14:58:37.098Z</time>
      </trkpt>
      <trkpt lat="44.40471" lon="1.11319">
        <ele>296.626518</ele>
        <time>2022-01-11T14:58:40.113Z</time>
      </trkpt>
      <trkpt lat="44.40464" lon="1.11309">
        <ele>296.626518</ele>
        <time>2022-01-11T14:58:45.093Z</time>
      </trkpt>
      <trkpt lat="44.40455" lon="1.11299">
        <ele>296.626518</ele>
        <time>2022-01-11T14:58:49.112Z</time>
      </trkpt>
      <trkpt lat="44.40455" lon="1.11296">
        <ele>296.626518</ele>
        <time>2022-01-11T14:59:01.526Z</time>
      </trkpt>
    </trkseg>
  </trk>
</gpx>